<?xml version="1.0" encoding="utf-8"?>
<gpx xmlns:xsi="http://www.w3.org/2001/XMLSchema-instance" xmlns:xsd="http://www.w3.org/2001/XMLSchema" version="1.1" creator="Shapelink.com" xmlns="http://www.topografix.com/GPX/1/1" xmlns:gpxtpx="http://www.garmin.com/xmlschemas/TrackPointExtension/v1">
  <metadata>
    <name>Sykling 19.22 km, 2013-05-30</name>
    <desc></desc>
    <author><name>Mikael Blom</name></author> 
    <time>2013-05-30T20:28:56Z</time>
  </metadata>
  <trk>
    <name>Sykling 19.22 km, 2013-05-30</name>
    <trkseg>
      <trkpt lat="59.8523629" lon="17.6857408">
        <ele>15.5184</ele>
        <time>2013-05-30T20:28:56Z</time>
      </trkpt>
      <trkpt lat="59.8523883" lon="17.6856886">
        <ele>16.4797</ele>
        <time>2013-05-30T20:28:57Z</time>
      </trkpt>
      <trkpt lat="59.8524213" lon="17.6856515">
        <ele>16.9604</ele>
        <time>2013-05-30T20:28:58Z</time>
      </trkpt>
      <trkpt lat="59.8524639" lon="17.6856429">
        <ele>17.9218</ele>
        <time>2013-05-30T20:28:59Z</time>
      </trkpt>
      <trkpt lat="59.8525054" lon="17.6856777">
        <ele>17.9218</ele>
        <time>2013-05-30T20:29:00Z</time>
      </trkpt>
      <trkpt lat="59.8525446" lon="17.6857471">
        <ele>18.4023</ele>
        <time>2013-05-30T20:29:01Z</time>
      </trkpt>
      <trkpt lat="59.85258" lon="17.6858152">
        <ele>18.4023</ele>
        <time>2013-05-30T20:29:02Z</time>
      </trkpt>
      <trkpt lat="59.8526199" lon="17.6858521">
        <ele>18.4023</ele>
        <time>2013-05-30T20:29:03Z</time>
      </trkpt>
      <trkpt lat="59.8526644" lon="17.6858423">
        <ele>19.3638</ele>
        <time>2013-05-30T20:29:04Z</time>
      </trkpt>
      <trkpt lat="59.8527099" lon="17.6857905">
        <ele>20.325</ele>
        <time>2013-05-30T20:29:05Z</time>
      </trkpt>
      <trkpt lat="59.8527476" lon="17.6857083">
        <ele>21.767</ele>
        <time>2013-05-30T20:29:06Z</time>
      </trkpt>
      <trkpt lat="59.852786" lon="17.6856145">
        <ele>22.2476</ele>
        <time>2013-05-30T20:29:07Z</time>
      </trkpt>
      <trkpt lat="59.8528328" lon="17.6855325">
        <ele>22.7283</ele>
        <time>2013-05-30T20:29:08Z</time>
      </trkpt>
      <trkpt lat="59.8528835" lon="17.6854481">
        <ele>22.7283</ele>
        <time>2013-05-30T20:29:09Z</time>
      </trkpt>
      <trkpt lat="59.8529346" lon="17.6853544">
        <ele>23.209</ele>
        <time>2013-05-30T20:29:10Z</time>
      </trkpt>
      <trkpt lat="59.8529865" lon="17.6852508">
        <ele>24.1703</ele>
        <time>2013-05-30T20:29:11Z</time>
      </trkpt>
      <trkpt lat="59.8530356" lon="17.6851325">
        <ele>24.651</ele>
        <time>2013-05-30T20:29:12Z</time>
      </trkpt>
      <trkpt lat="59.8530783" lon="17.6850043">
        <ele>25.1317</ele>
        <time>2013-05-30T20:29:13Z</time>
      </trkpt>
      <trkpt lat="59.853114" lon="17.6848665">
        <ele>25.6123</ele>
        <time>2013-05-30T20:29:14Z</time>
      </trkpt>
      <trkpt lat="59.8531444" lon="17.6847322">
        <ele>25.6123</ele>
        <time>2013-05-30T20:29:15Z</time>
      </trkpt>
      <trkpt lat="59.8531755" lon="17.6846048">
        <ele>26.0929</ele>
        <time>2013-05-30T20:29:16Z</time>
      </trkpt>
      <trkpt lat="59.8532072" lon="17.684484">
        <ele>26.5736</ele>
        <time>2013-05-30T20:29:17Z</time>
      </trkpt>
      <trkpt lat="59.8532451" lon="17.6843716">
        <ele>26.5736</ele>
        <time>2013-05-30T20:29:18Z</time>
      </trkpt>
      <trkpt lat="59.853292" lon="17.6842791">
        <ele>26.0929</ele>
        <time>2013-05-30T20:29:19Z</time>
      </trkpt>
      <trkpt lat="59.8533503" lon="17.6842101">
        <ele>26.0929</ele>
        <time>2013-05-30T20:29:20Z</time>
      </trkpt>
      <trkpt lat="59.8534167" lon="17.6841716">
        <ele>25.6123</ele>
        <time>2013-05-30T20:29:21Z</time>
      </trkpt>
      <trkpt lat="59.8534874" lon="17.6841624">
        <ele>25.6123</ele>
        <time>2013-05-30T20:29:22Z</time>
      </trkpt>
      <trkpt lat="59.8535604" lon="17.6841905">
        <ele>25.6123</ele>
        <time>2013-05-30T20:29:23Z</time>
      </trkpt>
      <trkpt lat="59.8536289" lon="17.6842453">
        <ele>25.1317</ele>
        <time>2013-05-30T20:29:24Z</time>
      </trkpt>
      <trkpt lat="59.8536953" lon="17.6843136">
        <ele>24.1703</ele>
        <time>2013-05-30T20:29:25Z</time>
      </trkpt>
      <trkpt lat="59.853762" lon="17.6843857">
        <ele>23.6896</ele>
        <time>2013-05-30T20:29:26Z</time>
      </trkpt>
      <trkpt lat="59.8538298" lon="17.6844588">
        <ele>23.209</ele>
        <time>2013-05-30T20:29:27Z</time>
      </trkpt>
      <trkpt lat="59.8538953" lon="17.6845374">
        <ele>22.7283</ele>
        <time>2013-05-30T20:29:28Z</time>
      </trkpt>
      <trkpt lat="59.8539624" lon="17.6846182">
        <ele>22.7283</ele>
        <time>2013-05-30T20:29:29Z</time>
      </trkpt>
      <trkpt lat="59.8540224" lon="17.6847015">
        <ele>22.2476</ele>
        <time>2013-05-30T20:29:30Z</time>
      </trkpt>
      <trkpt lat="59.8540854" lon="17.6847875">
        <ele>22.2476</ele>
        <time>2013-05-30T20:29:31Z</time>
      </trkpt>
      <trkpt lat="59.8541485" lon="17.6848772">
        <ele>22.2476</ele>
        <time>2013-05-30T20:29:32Z</time>
      </trkpt>
      <trkpt lat="59.8542081" lon="17.6849736">
        <ele>21.767</ele>
        <time>2013-05-30T20:29:33Z</time>
      </trkpt>
      <trkpt lat="59.8542654" lon="17.6850755">
        <ele>21.767</ele>
        <time>2013-05-30T20:29:34Z</time>
      </trkpt>
      <trkpt lat="59.8543137" lon="17.6851886">
        <ele>21.2864</ele>
        <time>2013-05-30T20:29:35Z</time>
      </trkpt>
      <trkpt lat="59.854352" lon="17.6853239">
        <ele>21.2864</ele>
        <time>2013-05-30T20:29:36Z</time>
      </trkpt>
      <trkpt lat="59.8543769" lon="17.6854705">
        <ele>21.767</ele>
        <time>2013-05-30T20:29:37Z</time>
      </trkpt>
      <trkpt lat="59.854392" lon="17.6856206">
        <ele>21.2864</ele>
        <time>2013-05-30T20:29:38Z</time>
      </trkpt>
      <trkpt lat="59.8544099" lon="17.6857683">
        <ele>21.2864</ele>
        <time>2013-05-30T20:29:39Z</time>
      </trkpt>
      <trkpt lat="59.8544365" lon="17.6859069">
        <ele>21.2864</ele>
        <time>2013-05-30T20:29:40Z</time>
      </trkpt>
      <trkpt lat="59.8544788" lon="17.6860258">
        <ele>20.8057</ele>
        <time>2013-05-30T20:29:41Z</time>
      </trkpt>
      <trkpt lat="59.8545385" lon="17.6861173">
        <ele>20.8057</ele>
        <time>2013-05-30T20:29:42Z</time>
      </trkpt>
      <trkpt lat="59.8546091" lon="17.6861764">
        <ele>20.325</ele>
        <time>2013-05-30T20:29:43Z</time>
      </trkpt>
      <trkpt lat="59.8546862" lon="17.6862116">
        <ele>20.325</ele>
        <time>2013-05-30T20:29:44Z</time>
      </trkpt>
      <trkpt lat="59.8547648" lon="17.6862396">
        <ele>20.325</ele>
        <time>2013-05-30T20:29:45Z</time>
      </trkpt>
      <trkpt lat="59.8548411" lon="17.6862873">
        <ele>20.325</ele>
        <time>2013-05-30T20:29:46Z</time>
      </trkpt>
      <trkpt lat="59.8549096" lon="17.6863679">
        <ele>20.325</ele>
        <time>2013-05-30T20:29:47Z</time>
      </trkpt>
      <trkpt lat="59.8549695" lon="17.6864768">
        <ele>19.8444</ele>
        <time>2013-05-30T20:29:48Z</time>
      </trkpt>
      <trkpt lat="59.8550229" lon="17.6866005">
        <ele>19.8444</ele>
        <time>2013-05-30T20:29:49Z</time>
      </trkpt>
      <trkpt lat="59.8550706" lon="17.6867334">
        <ele>19.3638</ele>
        <time>2013-05-30T20:29:50Z</time>
      </trkpt>
      <trkpt lat="59.8551134" lon="17.6868743">
        <ele>18.8831</ele>
        <time>2013-05-30T20:29:51Z</time>
      </trkpt>
      <trkpt lat="59.8551525" lon="17.6870218">
        <ele>18.8831</ele>
        <time>2013-05-30T20:29:52Z</time>
      </trkpt>
      <trkpt lat="59.8551843" lon="17.6871746">
        <ele>19.3638</ele>
        <time>2013-05-30T20:29:53Z</time>
      </trkpt>
      <trkpt lat="59.8552181" lon="17.6873321">
        <ele>19.8444</ele>
        <time>2013-05-30T20:29:54Z</time>
      </trkpt>
      <trkpt lat="59.8552457" lon="17.6874917">
        <ele>19.8444</ele>
        <time>2013-05-30T20:29:55Z</time>
      </trkpt>
      <trkpt lat="59.8552731" lon="17.6876506">
        <ele>19.3638</ele>
        <time>2013-05-30T20:29:56Z</time>
      </trkpt>
      <trkpt lat="59.8553006" lon="17.687809">
        <ele>19.3638</ele>
        <time>2013-05-30T20:29:57Z</time>
      </trkpt>
      <trkpt lat="59.855329" lon="17.6879661">
        <ele>19.3638</ele>
        <time>2013-05-30T20:29:58Z</time>
      </trkpt>
      <trkpt lat="59.8553575" lon="17.6881217">
        <ele>18.8831</ele>
        <time>2013-05-30T20:29:59Z</time>
      </trkpt>
      <trkpt lat="59.8553869" lon="17.6882766">
        <ele>18.8831</ele>
        <time>2013-05-30T20:30:00Z</time>
      </trkpt>
      <trkpt lat="59.8554161" lon="17.6884307">
        <ele>18.4023</ele>
        <time>2013-05-30T20:30:01Z</time>
      </trkpt>
      <trkpt lat="59.8554452" lon="17.688584">
        <ele>17.9218</ele>
        <time>2013-05-30T20:30:02Z</time>
      </trkpt>
      <trkpt lat="59.8554736" lon="17.6887375">
        <ele>17.9218</ele>
        <time>2013-05-30T20:30:03Z</time>
      </trkpt>
      <trkpt lat="59.8555013" lon="17.6888923">
        <ele>17.4412</ele>
        <time>2013-05-30T20:30:04Z</time>
      </trkpt>
      <trkpt lat="59.8555309" lon="17.689047">
        <ele>17.4412</ele>
        <time>2013-05-30T20:30:05Z</time>
      </trkpt>
      <trkpt lat="59.8555621" lon="17.6892014">
        <ele>17.4412</ele>
        <time>2013-05-30T20:30:06Z</time>
      </trkpt>
      <trkpt lat="59.8555926" lon="17.6893556">
        <ele>16.9604</ele>
        <time>2013-05-30T20:30:07Z</time>
      </trkpt>
      <trkpt lat="59.8556211" lon="17.6895087">
        <ele>16.9604</ele>
        <time>2013-05-30T20:30:08Z</time>
      </trkpt>
      <trkpt lat="59.8556492" lon="17.6896589">
        <ele>16.9604</ele>
        <time>2013-05-30T20:30:09Z</time>
      </trkpt>
      <trkpt lat="59.8556783" lon="17.6898054">
        <ele>16.9604</ele>
        <time>2013-05-30T20:30:10Z</time>
      </trkpt>
      <trkpt lat="59.8557076" lon="17.6899487">
        <ele>16.9604</ele>
        <time>2013-05-30T20:30:11Z</time>
      </trkpt>
      <trkpt lat="59.8557347" lon="17.6900903">
        <ele>16.4797</ele>
        <time>2013-05-30T20:30:12Z</time>
      </trkpt>
      <trkpt lat="59.8557611" lon="17.690234">
        <ele>16.4797</ele>
        <time>2013-05-30T20:30:13Z</time>
      </trkpt>
      <trkpt lat="59.8557823" lon="17.6903747">
        <ele>15.999</ele>
        <time>2013-05-30T20:30:14Z</time>
      </trkpt>
      <trkpt lat="59.8558003" lon="17.6905127">
        <ele>15.999</ele>
        <time>2013-05-30T20:30:15Z</time>
      </trkpt>
      <trkpt lat="59.855808" lon="17.6906505">
        <ele>15.999</ele>
        <time>2013-05-30T20:30:16Z</time>
      </trkpt>
      <trkpt lat="59.855802" lon="17.6907883">
        <ele>15.5184</ele>
        <time>2013-05-30T20:30:17Z</time>
      </trkpt>
      <trkpt lat="59.855799" lon="17.6909219">
        <ele>15.5184</ele>
        <time>2013-05-30T20:30:18Z</time>
      </trkpt>
      <trkpt lat="59.8558092" lon="17.6910472">
        <ele>15.5184</ele>
        <time>2013-05-30T20:30:19Z</time>
      </trkpt>
      <trkpt lat="59.8558407" lon="17.6911582">
        <ele>15.5184</ele>
        <time>2013-05-30T20:30:20Z</time>
      </trkpt>
      <trkpt lat="59.8558973" lon="17.6911883">
        <ele>15.0377</ele>
        <time>2013-05-30T20:30:21Z</time>
      </trkpt>
      <trkpt lat="59.8559692" lon="17.6912218">
        <ele>15.0377</ele>
        <time>2013-05-30T20:30:22Z</time>
      </trkpt>
      <trkpt lat="59.8560361" lon="17.6911235">
        <ele>15.5184</ele>
        <time>2013-05-30T20:30:23Z</time>
      </trkpt>
      <trkpt lat="59.8560822" lon="17.6910243">
        <ele>16.4797</ele>
        <time>2013-05-30T20:30:24Z</time>
      </trkpt>
      <trkpt lat="59.856138" lon="17.6909245">
        <ele>16.4797</ele>
        <time>2013-05-30T20:30:25Z</time>
      </trkpt>
      <trkpt lat="59.8561936" lon="17.6908358">
        <ele>16.9604</ele>
        <time>2013-05-30T20:30:26Z</time>
      </trkpt>
      <trkpt lat="59.8562485" lon="17.6907404">
        <ele>16.9604</ele>
        <time>2013-05-30T20:30:27Z</time>
      </trkpt>
      <trkpt lat="59.8563102" lon="17.69065">
        <ele>16.9604</ele>
        <time>2013-05-30T20:30:28Z</time>
      </trkpt>
      <trkpt lat="59.8563754" lon="17.6905551">
        <ele>16.9604</ele>
        <time>2013-05-30T20:30:29Z</time>
      </trkpt>
      <trkpt lat="59.8564459" lon="17.6904774">
        <ele>17.9218</ele>
        <time>2013-05-30T20:30:30Z</time>
      </trkpt>
      <trkpt lat="59.8565194" lon="17.6904023">
        <ele>18.4023</ele>
        <time>2013-05-30T20:30:31Z</time>
      </trkpt>
      <trkpt lat="59.8565938" lon="17.690333">
        <ele>18.8831</ele>
        <time>2013-05-30T20:30:32Z</time>
      </trkpt>
      <trkpt lat="59.8566724" lon="17.6902546">
        <ele>19.3638</ele>
        <time>2013-05-30T20:30:33Z</time>
      </trkpt>
      <trkpt lat="59.8567534" lon="17.690176">
        <ele>19.8444</ele>
        <time>2013-05-30T20:30:34Z</time>
      </trkpt>
      <trkpt lat="59.8568355" lon="17.6900977">
        <ele>19.8444</ele>
        <time>2013-05-30T20:30:35Z</time>
      </trkpt>
      <trkpt lat="59.8569178" lon="17.6900222">
        <ele>20.325</ele>
        <time>2013-05-30T20:30:36Z</time>
      </trkpt>
      <trkpt lat="59.8569955" lon="17.6899453">
        <ele>20.325</ele>
        <time>2013-05-30T20:30:37Z</time>
      </trkpt>
      <trkpt lat="59.857072" lon="17.6898662">
        <ele>19.8444</ele>
        <time>2013-05-30T20:30:38Z</time>
      </trkpt>
      <trkpt lat="59.8571473" lon="17.6897885">
        <ele>20.325</ele>
        <time>2013-05-30T20:30:39Z</time>
      </trkpt>
      <trkpt lat="59.8572218" lon="17.6897145">
        <ele>20.325</ele>
        <time>2013-05-30T20:30:40Z</time>
      </trkpt>
      <trkpt lat="59.8572965" lon="17.689647">
        <ele>20.325</ele>
        <time>2013-05-30T20:30:41Z</time>
      </trkpt>
      <trkpt lat="59.8573719" lon="17.6895849">
        <ele>20.8057</ele>
        <time>2013-05-30T20:30:42Z</time>
      </trkpt>
      <trkpt lat="59.8574462" lon="17.6895268">
        <ele>20.325</ele>
        <time>2013-05-30T20:30:43Z</time>
      </trkpt>
      <trkpt lat="59.8575202" lon="17.6894643">
        <ele>19.8444</ele>
        <time>2013-05-30T20:30:44Z</time>
      </trkpt>
      <trkpt lat="59.8575933" lon="17.6893964">
        <ele>19.8444</ele>
        <time>2013-05-30T20:30:45Z</time>
      </trkpt>
      <trkpt lat="59.8576657" lon="17.689325">
        <ele>19.3638</ele>
        <time>2013-05-30T20:30:46Z</time>
      </trkpt>
      <trkpt lat="59.8577369" lon="17.6892537">
        <ele>18.8831</ele>
        <time>2013-05-30T20:30:47Z</time>
      </trkpt>
      <trkpt lat="59.8578073" lon="17.689184">
        <ele>18.4023</ele>
        <time>2013-05-30T20:30:48Z</time>
      </trkpt>
      <trkpt lat="59.8578772" lon="17.6891151">
        <ele>17.9218</ele>
        <time>2013-05-30T20:30:49Z</time>
      </trkpt>
      <trkpt lat="59.857946" lon="17.6890478">
        <ele>17.9218</ele>
        <time>2013-05-30T20:30:50Z</time>
      </trkpt>
      <trkpt lat="59.8580121" lon="17.6889833">
        <ele>17.4412</ele>
        <time>2013-05-30T20:30:51Z</time>
      </trkpt>
      <trkpt lat="59.8580797" lon="17.6889196">
        <ele>17.4412</ele>
        <time>2013-05-30T20:30:52Z</time>
      </trkpt>
      <trkpt lat="59.8581495" lon="17.6888635">
        <ele>17.4412</ele>
        <time>2013-05-30T20:30:53Z</time>
      </trkpt>
      <trkpt lat="59.858223" lon="17.6888316">
        <ele>17.4412</ele>
        <time>2013-05-30T20:30:54Z</time>
      </trkpt>
      <trkpt lat="59.8582947" lon="17.6888135">
        <ele>17.4412</ele>
        <time>2013-05-30T20:30:55Z</time>
      </trkpt>
      <trkpt lat="59.8583646" lon="17.6887715">
        <ele>17.9218</ele>
        <time>2013-05-30T20:30:56Z</time>
      </trkpt>
      <trkpt lat="59.8584262" lon="17.6886892">
        <ele>18.4023</ele>
        <time>2013-05-30T20:30:57Z</time>
      </trkpt>
      <trkpt lat="59.8584768" lon="17.6885826">
        <ele>18.4023</ele>
        <time>2013-05-30T20:30:58Z</time>
      </trkpt>
      <trkpt lat="59.8585253" lon="17.688466">
        <ele>18.8831</ele>
        <time>2013-05-30T20:30:59Z</time>
      </trkpt>
      <trkpt lat="59.858576" lon="17.6883512">
        <ele>18.8831</ele>
        <time>2013-05-30T20:31:00Z</time>
      </trkpt>
      <trkpt lat="59.8586284" lon="17.6882398">
        <ele>18.8831</ele>
        <time>2013-05-30T20:31:01Z</time>
      </trkpt>
      <trkpt lat="59.8586836" lon="17.6881376">
        <ele>19.3638</ele>
        <time>2013-05-30T20:31:02Z</time>
      </trkpt>
      <trkpt lat="59.858741" lon="17.6880395">
        <ele>19.3638</ele>
        <time>2013-05-30T20:31:03Z</time>
      </trkpt>
      <trkpt lat="59.8588002" lon="17.68795">
        <ele>19.3638</ele>
        <time>2013-05-30T20:31:04Z</time>
      </trkpt>
      <trkpt lat="59.8588593" lon="17.6878656">
        <ele>19.3638</ele>
        <time>2013-05-30T20:31:05Z</time>
      </trkpt>
      <trkpt lat="59.8589173" lon="17.6877853">
        <ele>19.8444</ele>
        <time>2013-05-30T20:31:06Z</time>
      </trkpt>
      <trkpt lat="59.8589748" lon="17.6877108">
        <ele>20.325</ele>
        <time>2013-05-30T20:31:07Z</time>
      </trkpt>
      <trkpt lat="59.8590326" lon="17.6876427">
        <ele>20.8057</ele>
        <time>2013-05-30T20:31:08Z</time>
      </trkpt>
      <trkpt lat="59.8590925" lon="17.6875728">
        <ele>21.2864</ele>
        <time>2013-05-30T20:31:09Z</time>
      </trkpt>
      <trkpt lat="59.8591502" lon="17.6875042">
        <ele>21.767</ele>
        <time>2013-05-30T20:31:10Z</time>
      </trkpt>
      <trkpt lat="59.8592064" lon="17.687443">
        <ele>21.767</ele>
        <time>2013-05-30T20:31:11Z</time>
      </trkpt>
      <trkpt lat="59.8592618" lon="17.6873839">
        <ele>21.767</ele>
        <time>2013-05-30T20:31:12Z</time>
      </trkpt>
      <trkpt lat="59.8593136" lon="17.6873245">
        <ele>22.2476</ele>
        <time>2013-05-30T20:31:13Z</time>
      </trkpt>
      <trkpt lat="59.8593592" lon="17.6872724">
        <ele>22.2476</ele>
        <time>2013-05-30T20:31:14Z</time>
      </trkpt>
      <trkpt lat="59.8594001" lon="17.6872299">
        <ele>22.2476</ele>
        <time>2013-05-30T20:31:15Z</time>
      </trkpt>
      <trkpt lat="59.8594344" lon="17.6871949">
        <ele>22.2476</ele>
        <time>2013-05-30T20:31:16Z</time>
      </trkpt>
      <trkpt lat="59.8594581" lon="17.6871678">
        <ele>21.767</ele>
        <time>2013-05-30T20:31:17Z</time>
      </trkpt>
      <trkpt lat="59.8594727" lon="17.6871539">
        <ele>22.2476</ele>
        <time>2013-05-30T20:31:18Z</time>
      </trkpt>
      <trkpt lat="59.8594819" lon="17.6871415">
        <ele>21.767</ele>
        <time>2013-05-30T20:31:19Z</time>
      </trkpt>
      <trkpt lat="59.8594902" lon="17.6871296">
        <ele>21.767</ele>
        <time>2013-05-30T20:31:20Z</time>
      </trkpt>
      <trkpt lat="59.8595015" lon="17.6871155">
        <ele>22.2476</ele>
        <time>2013-05-30T20:31:21Z</time>
      </trkpt>
      <trkpt lat="59.8595139" lon="17.6871011">
        <ele>22.7283</ele>
        <time>2013-05-30T20:31:22Z</time>
      </trkpt>
      <trkpt lat="59.8595234" lon="17.6870887">
        <ele>22.7283</ele>
        <time>2013-05-30T20:31:23Z</time>
      </trkpt>
      <trkpt lat="59.859528" lon="17.6870815">
        <ele>22.2476</ele>
        <time>2013-05-30T20:31:24Z</time>
      </trkpt>
      <trkpt lat="59.859532" lon="17.6870767">
        <ele>21.2864</ele>
        <time>2013-05-30T20:31:25Z</time>
      </trkpt>
      <trkpt lat="59.8595322" lon="17.6870715">
        <ele>20.325</ele>
        <time>2013-05-30T20:31:26Z</time>
      </trkpt>
      <trkpt lat="59.8595283" lon="17.6870726">
        <ele>18.8831</ele>
        <time>2013-05-30T20:31:27Z</time>
      </trkpt>
      <trkpt lat="59.8595431" lon="17.6870093">
        <ele>12.1538</ele>
        <time>2013-05-30T20:31:49Z</time>
      </trkpt>
      <trkpt lat="59.8595731" lon="17.6869821">
        <ele>12.1538</ele>
        <time>2013-05-30T20:31:50Z</time>
      </trkpt>
      <trkpt lat="59.8596112" lon="17.6869473">
        <ele>12.1538</ele>
        <time>2013-05-30T20:31:51Z</time>
      </trkpt>
      <trkpt lat="59.8596528" lon="17.6869001">
        <ele>12.1538</ele>
        <time>2013-05-30T20:31:52Z</time>
      </trkpt>
      <trkpt lat="59.8596973" lon="17.6868457">
        <ele>12.1538</ele>
        <time>2013-05-30T20:31:53Z</time>
      </trkpt>
      <trkpt lat="59.8597466" lon="17.6867804">
        <ele>12.1538</ele>
        <time>2013-05-30T20:31:54Z</time>
      </trkpt>
      <trkpt lat="59.8598017" lon="17.6867131">
        <ele>12.1538</ele>
        <time>2013-05-30T20:31:55Z</time>
      </trkpt>
      <trkpt lat="59.8598609" lon="17.6866313">
        <ele>12.6344</ele>
        <time>2013-05-30T20:31:56Z</time>
      </trkpt>
      <trkpt lat="59.8599239" lon="17.6865489">
        <ele>13.1151</ele>
        <time>2013-05-30T20:31:57Z</time>
      </trkpt>
      <trkpt lat="59.8599892" lon="17.6864661">
        <ele>13.1151</ele>
        <time>2013-05-30T20:31:58Z</time>
      </trkpt>
      <trkpt lat="59.8600583" lon="17.6863755">
        <ele>13.5958</ele>
        <time>2013-05-30T20:31:59Z</time>
      </trkpt>
      <trkpt lat="59.8601285" lon="17.6862838">
        <ele>14.0764</ele>
        <time>2013-05-30T20:32:00Z</time>
      </trkpt>
      <trkpt lat="59.8601981" lon="17.6861903">
        <ele>14.0764</ele>
        <time>2013-05-30T20:32:01Z</time>
      </trkpt>
      <trkpt lat="59.8602686" lon="17.6860975">
        <ele>14.557</ele>
        <time>2013-05-30T20:32:02Z</time>
      </trkpt>
      <trkpt lat="59.8603412" lon="17.6860076">
        <ele>15.0377</ele>
        <time>2013-05-30T20:32:03Z</time>
      </trkpt>
      <trkpt lat="59.8604141" lon="17.6859184">
        <ele>16.4797</ele>
        <time>2013-05-30T20:32:04Z</time>
      </trkpt>
      <trkpt lat="59.8604884" lon="17.6858325">
        <ele>17.4412</ele>
        <time>2013-05-30T20:32:05Z</time>
      </trkpt>
      <trkpt lat="59.8605633" lon="17.6857478">
        <ele>17.9218</ele>
        <time>2013-05-30T20:32:06Z</time>
      </trkpt>
      <trkpt lat="59.8606388" lon="17.6856585">
        <ele>17.9218</ele>
        <time>2013-05-30T20:32:07Z</time>
      </trkpt>
      <trkpt lat="59.8607143" lon="17.6855717">
        <ele>17.9218</ele>
        <time>2013-05-30T20:32:08Z</time>
      </trkpt>
      <trkpt lat="59.8607899" lon="17.6854876">
        <ele>18.4023</ele>
        <time>2013-05-30T20:32:09Z</time>
      </trkpt>
      <trkpt lat="59.8608669" lon="17.6854077">
        <ele>18.4023</ele>
        <time>2013-05-30T20:32:10Z</time>
      </trkpt>
      <trkpt lat="59.8609433" lon="17.6853301">
        <ele>18.8831</ele>
        <time>2013-05-30T20:32:11Z</time>
      </trkpt>
      <trkpt lat="59.8610203" lon="17.6852548">
        <ele>18.8831</ele>
        <time>2013-05-30T20:32:12Z</time>
      </trkpt>
      <trkpt lat="59.8610971" lon="17.685183">
        <ele>19.3638</ele>
        <time>2013-05-30T20:32:13Z</time>
      </trkpt>
      <trkpt lat="59.8611748" lon="17.6851145">
        <ele>19.3638</ele>
        <time>2013-05-30T20:32:14Z</time>
      </trkpt>
      <trkpt lat="59.8612521" lon="17.6850483">
        <ele>19.8444</ele>
        <time>2013-05-30T20:32:15Z</time>
      </trkpt>
      <trkpt lat="59.8613296" lon="17.6849845">
        <ele>19.8444</ele>
        <time>2013-05-30T20:32:16Z</time>
      </trkpt>
      <trkpt lat="59.8614074" lon="17.6849208">
        <ele>20.325</ele>
        <time>2013-05-30T20:32:17Z</time>
      </trkpt>
      <trkpt lat="59.8614855" lon="17.684861">
        <ele>20.325</ele>
        <time>2013-05-30T20:32:18Z</time>
      </trkpt>
      <trkpt lat="59.8615662" lon="17.6848026">
        <ele>19.8444</ele>
        <time>2013-05-30T20:32:19Z</time>
      </trkpt>
      <trkpt lat="59.8616466" lon="17.6847446">
        <ele>19.8444</ele>
        <time>2013-05-30T20:32:20Z</time>
      </trkpt>
      <trkpt lat="59.8617248" lon="17.6846821">
        <ele>19.8444</ele>
        <time>2013-05-30T20:32:21Z</time>
      </trkpt>
      <trkpt lat="59.8618026" lon="17.6846222">
        <ele>20.325</ele>
        <time>2013-05-30T20:32:22Z</time>
      </trkpt>
      <trkpt lat="59.8618807" lon="17.6845669">
        <ele>20.325</ele>
        <time>2013-05-30T20:32:23Z</time>
      </trkpt>
      <trkpt lat="59.8619591" lon="17.6845141">
        <ele>20.325</ele>
        <time>2013-05-30T20:32:24Z</time>
      </trkpt>
      <trkpt lat="59.8620376" lon="17.6844603">
        <ele>20.325</ele>
        <time>2013-05-30T20:32:25Z</time>
      </trkpt>
      <trkpt lat="59.8621163" lon="17.6844065">
        <ele>20.325</ele>
        <time>2013-05-30T20:32:26Z</time>
      </trkpt>
      <trkpt lat="59.862194" lon="17.684348">
        <ele>19.8444</ele>
        <time>2013-05-30T20:32:27Z</time>
      </trkpt>
      <trkpt lat="59.8622713" lon="17.6842897">
        <ele>19.8444</ele>
        <time>2013-05-30T20:32:28Z</time>
      </trkpt>
      <trkpt lat="59.862348" lon="17.6842394">
        <ele>19.3638</ele>
        <time>2013-05-30T20:32:29Z</time>
      </trkpt>
      <trkpt lat="59.8624262" lon="17.6841857">
        <ele>19.3638</ele>
        <time>2013-05-30T20:32:30Z</time>
      </trkpt>
      <trkpt lat="59.862505" lon="17.6841349">
        <ele>18.8831</ele>
        <time>2013-05-30T20:32:31Z</time>
      </trkpt>
      <trkpt lat="59.8625844" lon="17.6840848">
        <ele>18.8831</ele>
        <time>2013-05-30T20:32:32Z</time>
      </trkpt>
      <trkpt lat="59.862664" lon="17.6840359">
        <ele>18.8831</ele>
        <time>2013-05-30T20:32:33Z</time>
      </trkpt>
      <trkpt lat="59.8627429" lon="17.6839817">
        <ele>18.8831</ele>
        <time>2013-05-30T20:32:34Z</time>
      </trkpt>
      <trkpt lat="59.8628231" lon="17.6839289">
        <ele>18.8831</ele>
        <time>2013-05-30T20:32:35Z</time>
      </trkpt>
      <trkpt lat="59.862903" lon="17.6838692">
        <ele>18.8831</ele>
        <time>2013-05-30T20:32:36Z</time>
      </trkpt>
      <trkpt lat="59.8629825" lon="17.6838122">
        <ele>18.4023</ele>
        <time>2013-05-30T20:32:37Z</time>
      </trkpt>
      <trkpt lat="59.8630618" lon="17.6837605">
        <ele>18.4023</ele>
        <time>2013-05-30T20:32:38Z</time>
      </trkpt>
      <trkpt lat="59.8631399" lon="17.6837048">
        <ele>18.4023</ele>
        <time>2013-05-30T20:32:39Z</time>
      </trkpt>
      <trkpt lat="59.8632176" lon="17.6836516">
        <ele>18.8831</ele>
        <time>2013-05-30T20:32:40Z</time>
      </trkpt>
      <trkpt lat="59.863295" lon="17.6835956">
        <ele>18.4023</ele>
        <time>2013-05-30T20:32:41Z</time>
      </trkpt>
      <trkpt lat="59.8633732" lon="17.683536">
        <ele>18.4023</ele>
        <time>2013-05-30T20:32:42Z</time>
      </trkpt>
      <trkpt lat="59.8634525" lon="17.6834793">
        <ele>18.4023</ele>
        <time>2013-05-30T20:32:43Z</time>
      </trkpt>
      <trkpt lat="59.8635312" lon="17.6834199">
        <ele>17.9218</ele>
        <time>2013-05-30T20:32:44Z</time>
      </trkpt>
      <trkpt lat="59.863609" lon="17.6833609">
        <ele>15.999</ele>
        <time>2013-05-30T20:32:45Z</time>
      </trkpt>
      <trkpt lat="59.8636877" lon="17.6833046">
        <ele>14.557</ele>
        <time>2013-05-30T20:32:46Z</time>
      </trkpt>
      <trkpt lat="59.8637657" lon="17.6832424">
        <ele>13.1151</ele>
        <time>2013-05-30T20:32:47Z</time>
      </trkpt>
      <trkpt lat="59.8638441" lon="17.6831807">
        <ele>11.1925</ele>
        <time>2013-05-30T20:32:48Z</time>
      </trkpt>
      <trkpt lat="59.8639254" lon="17.6831208">
        <ele>11.6732</ele>
        <time>2013-05-30T20:32:49Z</time>
      </trkpt>
      <trkpt lat="59.8640061" lon="17.6830587">
        <ele>12.1538</ele>
        <time>2013-05-30T20:32:50Z</time>
      </trkpt>
      <trkpt lat="59.8640866" lon="17.6829963">
        <ele>12.6344</ele>
        <time>2013-05-30T20:32:51Z</time>
      </trkpt>
      <trkpt lat="59.8641684" lon="17.682933">
        <ele>13.5958</ele>
        <time>2013-05-30T20:32:52Z</time>
      </trkpt>
      <trkpt lat="59.8642501" lon="17.6828715">
        <ele>13.5958</ele>
        <time>2013-05-30T20:32:53Z</time>
      </trkpt>
      <trkpt lat="59.8643321" lon="17.682814">
        <ele>13.5958</ele>
        <time>2013-05-30T20:32:54Z</time>
      </trkpt>
      <trkpt lat="59.8644142" lon="17.6827518">
        <ele>14.0764</ele>
        <time>2013-05-30T20:32:55Z</time>
      </trkpt>
      <trkpt lat="59.8644969" lon="17.6826833">
        <ele>14.0764</ele>
        <time>2013-05-30T20:32:56Z</time>
      </trkpt>
      <trkpt lat="59.8645801" lon="17.6826182">
        <ele>14.0764</ele>
        <time>2013-05-30T20:32:57Z</time>
      </trkpt>
      <trkpt lat="59.8646627" lon="17.6825572">
        <ele>14.0764</ele>
        <time>2013-05-30T20:32:58Z</time>
      </trkpt>
      <trkpt lat="59.8647449" lon="17.6824981">
        <ele>14.0764</ele>
        <time>2013-05-30T20:32:59Z</time>
      </trkpt>
      <trkpt lat="59.8648261" lon="17.6824365">
        <ele>14.0764</ele>
        <time>2013-05-30T20:33:00Z</time>
      </trkpt>
      <trkpt lat="59.8649054" lon="17.6823757">
        <ele>14.557</ele>
        <time>2013-05-30T20:33:01Z</time>
      </trkpt>
      <trkpt lat="59.864981" lon="17.6823193">
        <ele>14.557</ele>
        <time>2013-05-30T20:33:02Z</time>
      </trkpt>
      <trkpt lat="59.8650542" lon="17.6822666">
        <ele>14.0764</ele>
        <time>2013-05-30T20:33:03Z</time>
      </trkpt>
      <trkpt lat="59.8651241" lon="17.6822146">
        <ele>13.5958</ele>
        <time>2013-05-30T20:33:04Z</time>
      </trkpt>
      <trkpt lat="59.8651887" lon="17.6821676">
        <ele>13.1151</ele>
        <time>2013-05-30T20:33:05Z</time>
      </trkpt>
      <trkpt lat="59.8652446" lon="17.6821282">
        <ele>12.6344</ele>
        <time>2013-05-30T20:33:06Z</time>
      </trkpt>
      <trkpt lat="59.8652889" lon="17.6820997">
        <ele>12.1538</ele>
        <time>2013-05-30T20:33:07Z</time>
      </trkpt>
      <trkpt lat="59.8653264" lon="17.6820748">
        <ele>11.6732</ele>
        <time>2013-05-30T20:33:08Z</time>
      </trkpt>
      <trkpt lat="59.8653576" lon="17.6820537">
        <ele>11.1925</ele>
        <time>2013-05-30T20:33:09Z</time>
      </trkpt>
      <trkpt lat="59.8653831" lon="17.682034">
        <ele>10.7118</ele>
        <time>2013-05-30T20:33:10Z</time>
      </trkpt>
      <trkpt lat="59.8654049" lon="17.6820174">
        <ele>10.2312</ele>
        <time>2013-05-30T20:33:11Z</time>
      </trkpt>
      <trkpt lat="59.8654234" lon="17.6820033">
        <ele>9.2699</ele>
        <time>2013-05-30T20:33:12Z</time>
      </trkpt>
      <trkpt lat="59.8654385" lon="17.6819902">
        <ele>9.2699</ele>
        <time>2013-05-30T20:33:13Z</time>
      </trkpt>
      <trkpt lat="59.8654525" lon="17.6819749">
        <ele>9.2699</ele>
        <time>2013-05-30T20:33:14Z</time>
      </trkpt>
      <trkpt lat="59.8654668" lon="17.68196">
        <ele>9.2699</ele>
        <time>2013-05-30T20:33:15Z</time>
      </trkpt>
      <trkpt lat="59.8654808" lon="17.6819509">
        <ele>8.78918</ele>
        <time>2013-05-30T20:33:16Z</time>
      </trkpt>
      <trkpt lat="59.8654932" lon="17.6819444">
        <ele>8.78918</ele>
        <time>2013-05-30T20:33:17Z</time>
      </trkpt>
      <trkpt lat="59.8655052" lon="17.6819339">
        <ele>8.78918</ele>
        <time>2013-05-30T20:33:18Z</time>
      </trkpt>
      <trkpt lat="59.8655161" lon="17.6819223">
        <ele>8.78918</ele>
        <time>2013-05-30T20:33:19Z</time>
      </trkpt>
      <trkpt lat="59.8655259" lon="17.6819122">
        <ele>8.78918</ele>
        <time>2013-05-30T20:33:20Z</time>
      </trkpt>
      <trkpt lat="59.8655328" lon="17.6819075">
        <ele>8.78918</ele>
        <time>2013-05-30T20:33:21Z</time>
      </trkpt>
      <trkpt lat="59.8655389" lon="17.681906">
        <ele>9.2699</ele>
        <time>2013-05-30T20:33:22Z</time>
      </trkpt>
      <trkpt lat="59.8655431" lon="17.6819049">
        <ele>9.2699</ele>
        <time>2013-05-30T20:33:23Z</time>
      </trkpt>
      <trkpt lat="59.8655458" lon="17.6819027">
        <ele>8.78918</ele>
        <time>2013-05-30T20:33:24Z</time>
      </trkpt>
      <trkpt lat="59.8655485" lon="17.6819045">
        <ele>8.30859</ele>
        <time>2013-05-30T20:33:25Z</time>
      </trkpt>
      <trkpt lat="59.8656048" lon="17.6818738">
        <ele>10.7118</ele>
        <time>2013-05-30T20:33:34Z</time>
      </trkpt>
      <trkpt lat="59.8656411" lon="17.6818511">
        <ele>11.1925</ele>
        <time>2013-05-30T20:33:35Z</time>
      </trkpt>
      <trkpt lat="59.8656887" lon="17.6818257">
        <ele>11.6732</ele>
        <time>2013-05-30T20:33:36Z</time>
      </trkpt>
      <trkpt lat="59.8657436" lon="17.6817936">
        <ele>11.6732</ele>
        <time>2013-05-30T20:33:37Z</time>
      </trkpt>
      <trkpt lat="59.8658032" lon="17.6817563">
        <ele>12.6344</ele>
        <time>2013-05-30T20:33:38Z</time>
      </trkpt>
      <trkpt lat="59.8658623" lon="17.6817148">
        <ele>13.1151</ele>
        <time>2013-05-30T20:33:39Z</time>
      </trkpt>
      <trkpt lat="59.8659229" lon="17.6816738">
        <ele>11.1925</ele>
        <time>2013-05-30T20:33:40Z</time>
      </trkpt>
      <trkpt lat="59.8659861" lon="17.6816387">
        <ele>12.1538</ele>
        <time>2013-05-30T20:33:41Z</time>
      </trkpt>
      <trkpt lat="59.8660514" lon="17.6816019">
        <ele>13.1151</ele>
        <time>2013-05-30T20:33:42Z</time>
      </trkpt>
      <trkpt lat="59.8661169" lon="17.6815673">
        <ele>14.0764</ele>
        <time>2013-05-30T20:33:43Z</time>
      </trkpt>
      <trkpt lat="59.8661834" lon="17.6815256">
        <ele>14.557</ele>
        <time>2013-05-30T20:33:44Z</time>
      </trkpt>
      <trkpt lat="59.8662501" lon="17.6814868">
        <ele>14.557</ele>
        <time>2013-05-30T20:33:45Z</time>
      </trkpt>
      <trkpt lat="59.8663176" lon="17.681459">
        <ele>15.0377</ele>
        <time>2013-05-30T20:33:46Z</time>
      </trkpt>
      <trkpt lat="59.866386" lon="17.6814188">
        <ele>15.5184</ele>
        <time>2013-05-30T20:33:47Z</time>
      </trkpt>
      <trkpt lat="59.8664518" lon="17.6813854">
        <ele>15.0377</ele>
        <time>2013-05-30T20:33:48Z</time>
      </trkpt>
      <trkpt lat="59.8665169" lon="17.6813588">
        <ele>14.557</ele>
        <time>2013-05-30T20:33:49Z</time>
      </trkpt>
      <trkpt lat="59.8665807" lon="17.6813273">
        <ele>14.0764</ele>
        <time>2013-05-30T20:33:50Z</time>
      </trkpt>
      <trkpt lat="59.8666445" lon="17.6813005">
        <ele>13.1151</ele>
        <time>2013-05-30T20:33:51Z</time>
      </trkpt>
      <trkpt lat="59.8667135" lon="17.6812693">
        <ele>13.5958</ele>
        <time>2013-05-30T20:33:52Z</time>
      </trkpt>
      <trkpt lat="59.8667791" lon="17.681246">
        <ele>13.1151</ele>
        <time>2013-05-30T20:33:53Z</time>
      </trkpt>
      <trkpt lat="59.8668458" lon="17.6812192">
        <ele>13.1151</ele>
        <time>2013-05-30T20:33:54Z</time>
      </trkpt>
      <trkpt lat="59.8669133" lon="17.6811901">
        <ele>13.5958</ele>
        <time>2013-05-30T20:33:55Z</time>
      </trkpt>
      <trkpt lat="59.8669765" lon="17.6811661">
        <ele>13.1151</ele>
        <time>2013-05-30T20:33:56Z</time>
      </trkpt>
      <trkpt lat="59.8670413" lon="17.6811352">
        <ele>13.1151</ele>
        <time>2013-05-30T20:33:57Z</time>
      </trkpt>
      <trkpt lat="59.8671063" lon="17.6811124">
        <ele>11.6732</ele>
        <time>2013-05-30T20:33:58Z</time>
      </trkpt>
      <trkpt lat="59.8671688" lon="17.6810961">
        <ele>10.7118</ele>
        <time>2013-05-30T20:33:59Z</time>
      </trkpt>
      <trkpt lat="59.8672324" lon="17.6810642">
        <ele>11.1925</ele>
        <time>2013-05-30T20:34:00Z</time>
      </trkpt>
      <trkpt lat="59.8672955" lon="17.6810357">
        <ele>10.7118</ele>
        <time>2013-05-30T20:34:01Z</time>
      </trkpt>
      <trkpt lat="59.8673583" lon="17.681004">
        <ele>10.7118</ele>
        <time>2013-05-30T20:34:02Z</time>
      </trkpt>
      <trkpt lat="59.867421" lon="17.6809711">
        <ele>10.7118</ele>
        <time>2013-05-30T20:34:03Z</time>
      </trkpt>
      <trkpt lat="59.8674815" lon="17.6809445">
        <ele>9.75061</ele>
        <time>2013-05-30T20:34:04Z</time>
      </trkpt>
      <trkpt lat="59.8675444" lon="17.6809166">
        <ele>9.75061</ele>
        <time>2013-05-30T20:34:05Z</time>
      </trkpt>
      <trkpt lat="59.8676077" lon="17.6808872">
        <ele>10.2312</ele>
        <time>2013-05-30T20:34:06Z</time>
      </trkpt>
      <trkpt lat="59.8676716" lon="17.6808537">
        <ele>9.75061</ele>
        <time>2013-05-30T20:34:07Z</time>
      </trkpt>
      <trkpt lat="59.8677357" lon="17.6808192">
        <ele>9.2699</ele>
        <time>2013-05-30T20:34:08Z</time>
      </trkpt>
      <trkpt lat="59.867797" lon="17.6807948">
        <ele>8.78918</ele>
        <time>2013-05-30T20:34:09Z</time>
      </trkpt>
      <trkpt lat="59.86786" lon="17.6807713">
        <ele>8.78918</ele>
        <time>2013-05-30T20:34:10Z</time>
      </trkpt>
      <trkpt lat="59.8679243" lon="17.6807452">
        <ele>8.78918</ele>
        <time>2013-05-30T20:34:11Z</time>
      </trkpt>
      <trkpt lat="59.8679897" lon="17.6807115">
        <ele>9.2699</ele>
        <time>2013-05-30T20:34:12Z</time>
      </trkpt>
      <trkpt lat="59.868053" lon="17.6806836">
        <ele>8.78918</ele>
        <time>2013-05-30T20:34:13Z</time>
      </trkpt>
      <trkpt lat="59.8681149" lon="17.6806607">
        <ele>8.30859</ele>
        <time>2013-05-30T20:34:14Z</time>
      </trkpt>
      <trkpt lat="59.8681798" lon="17.6806281">
        <ele>8.78918</ele>
        <time>2013-05-30T20:34:15Z</time>
      </trkpt>
      <trkpt lat="59.868243" lon="17.6806011">
        <ele>8.78918</ele>
        <time>2013-05-30T20:34:16Z</time>
      </trkpt>
      <trkpt lat="59.8683068" lon="17.68057">
        <ele>8.78918</ele>
        <time>2013-05-30T20:34:17Z</time>
      </trkpt>
      <trkpt lat="59.8683813" lon="17.6804802">
        <ele>8.78918</ele>
        <time>2013-05-30T20:34:18Z</time>
      </trkpt>
      <trkpt lat="59.8684487" lon="17.6804577">
        <ele>8.78918</ele>
        <time>2013-05-30T20:34:19Z</time>
      </trkpt>
      <trkpt lat="59.868515" lon="17.6804416">
        <ele>9.2699</ele>
        <time>2013-05-30T20:34:20Z</time>
      </trkpt>
      <trkpt lat="59.8685797" lon="17.6804239">
        <ele>8.78918</ele>
        <time>2013-05-30T20:34:21Z</time>
      </trkpt>
      <trkpt lat="59.868644" lon="17.6804021">
        <ele>8.78918</ele>
        <time>2013-05-30T20:34:22Z</time>
      </trkpt>
      <trkpt lat="59.8687085" lon="17.6803762">
        <ele>8.78918</ele>
        <time>2013-05-30T20:34:23Z</time>
      </trkpt>
      <trkpt lat="59.8687726" lon="17.6803499">
        <ele>8.78918</ele>
        <time>2013-05-30T20:34:24Z</time>
      </trkpt>
      <trkpt lat="59.8688371" lon="17.6803215">
        <ele>9.2699</ele>
        <time>2013-05-30T20:34:25Z</time>
      </trkpt>
      <trkpt lat="59.8689" lon="17.6802965">
        <ele>9.2699</ele>
        <time>2013-05-30T20:34:26Z</time>
      </trkpt>
      <trkpt lat="59.8689631" lon="17.6802736">
        <ele>8.78918</ele>
        <time>2013-05-30T20:34:27Z</time>
      </trkpt>
      <trkpt lat="59.8690268" lon="17.6802509">
        <ele>8.78918</ele>
        <time>2013-05-30T20:34:28Z</time>
      </trkpt>
      <trkpt lat="59.8690891" lon="17.6802288">
        <ele>7.82788</ele>
        <time>2013-05-30T20:34:29Z</time>
      </trkpt>
      <trkpt lat="59.8691542" lon="17.6801943">
        <ele>7.82788</ele>
        <time>2013-05-30T20:34:30Z</time>
      </trkpt>
      <trkpt lat="59.8692205" lon="17.680155">
        <ele>8.30859</ele>
        <time>2013-05-30T20:34:31Z</time>
      </trkpt>
      <trkpt lat="59.8692841" lon="17.6801235">
        <ele>7.82788</ele>
        <time>2013-05-30T20:34:32Z</time>
      </trkpt>
      <trkpt lat="59.8693469" lon="17.6800958">
        <ele>7.34717</ele>
        <time>2013-05-30T20:34:33Z</time>
      </trkpt>
      <trkpt lat="59.869414" lon="17.6800677">
        <ele>7.34717</ele>
        <time>2013-05-30T20:34:34Z</time>
      </trkpt>
      <trkpt lat="59.8694806" lon="17.6800428">
        <ele>7.34717</ele>
        <time>2013-05-30T20:34:35Z</time>
      </trkpt>
      <trkpt lat="59.8695494" lon="17.6800133">
        <ele>8.30859</ele>
        <time>2013-05-30T20:34:36Z</time>
      </trkpt>
      <trkpt lat="59.8696152" lon="17.6799941">
        <ele>7.82788</ele>
        <time>2013-05-30T20:34:37Z</time>
      </trkpt>
      <trkpt lat="59.869685" lon="17.6799613">
        <ele>7.82788</ele>
        <time>2013-05-30T20:34:38Z</time>
      </trkpt>
      <trkpt lat="59.8697555" lon="17.6799249">
        <ele>8.30859</ele>
        <time>2013-05-30T20:34:39Z</time>
      </trkpt>
      <trkpt lat="59.8698224" lon="17.6798945">
        <ele>7.82788</ele>
        <time>2013-05-30T20:34:40Z</time>
      </trkpt>
      <trkpt lat="59.8698951" lon="17.6798456">
        <ele>9.75061</ele>
        <time>2013-05-30T20:34:41Z</time>
      </trkpt>
      <trkpt lat="59.8699621" lon="17.679818">
        <ele>8.78918</ele>
        <time>2013-05-30T20:34:42Z</time>
      </trkpt>
      <trkpt lat="59.8700291" lon="17.6797925">
        <ele>8.30859</ele>
        <time>2013-05-30T20:34:43Z</time>
      </trkpt>
      <trkpt lat="59.8700959" lon="17.6797743">
        <ele>7.82788</ele>
        <time>2013-05-30T20:34:44Z</time>
      </trkpt>
      <trkpt lat="59.8701649" lon="17.6797498">
        <ele>7.34717</ele>
        <time>2013-05-30T20:34:45Z</time>
      </trkpt>
      <trkpt lat="59.8702327" lon="17.6797226">
        <ele>6.86646</ele>
        <time>2013-05-30T20:34:46Z</time>
      </trkpt>
      <trkpt lat="59.8702995" lon="17.6796997">
        <ele>5.90527</ele>
        <time>2013-05-30T20:34:47Z</time>
      </trkpt>
      <trkpt lat="59.8703674" lon="17.6796765">
        <ele>5.42456</ele>
        <time>2013-05-30T20:34:48Z</time>
      </trkpt>
      <trkpt lat="59.8704353" lon="17.6796558">
        <ele>5.42456</ele>
        <time>2013-05-30T20:34:49Z</time>
      </trkpt>
      <trkpt lat="59.8705008" lon="17.6796422">
        <ele>3.98267</ele>
        <time>2013-05-30T20:34:50Z</time>
      </trkpt>
      <trkpt lat="59.8705689" lon="17.6796255">
        <ele>3.50195</ele>
        <time>2013-05-30T20:34:51Z</time>
      </trkpt>
      <trkpt lat="59.8706382" lon="17.6796071">
        <ele>3.50195</ele>
        <time>2013-05-30T20:34:52Z</time>
      </trkpt>
      <trkpt lat="59.8707082" lon="17.6795866">
        <ele>3.02124</ele>
        <time>2013-05-30T20:34:53Z</time>
      </trkpt>
      <trkpt lat="59.8707749" lon="17.6795752">
        <ele>2.06006</ele>
        <time>2013-05-30T20:34:54Z</time>
      </trkpt>
      <trkpt lat="59.8708417" lon="17.6795706">
        <ele>1.57935</ele>
        <time>2013-05-30T20:34:55Z</time>
      </trkpt>
      <trkpt lat="59.8709112" lon="17.6795578">
        <ele>1.57935</ele>
        <time>2013-05-30T20:34:56Z</time>
      </trkpt>
      <trkpt lat="59.8709797" lon="17.679541">
        <ele>2.06006</ele>
        <time>2013-05-30T20:34:57Z</time>
      </trkpt>
      <trkpt lat="59.8710491" lon="17.6795216">
        <ele>2.06006</ele>
        <time>2013-05-30T20:34:58Z</time>
      </trkpt>
      <trkpt lat="59.8711175" lon="17.6795067">
        <ele>2.06006</ele>
        <time>2013-05-30T20:34:59Z</time>
      </trkpt>
      <trkpt lat="59.8711882" lon="17.6794868">
        <ele>2.54065</ele>
        <time>2013-05-30T20:35:00Z</time>
      </trkpt>
      <trkpt lat="59.8712595" lon="17.679469">
        <ele>2.54065</ele>
        <time>2013-05-30T20:35:01Z</time>
      </trkpt>
      <trkpt lat="59.8713299" lon="17.6794501">
        <ele>2.06006</ele>
        <time>2013-05-30T20:35:02Z</time>
      </trkpt>
      <trkpt lat="59.8714024" lon="17.6794231">
        <ele>2.54065</ele>
        <time>2013-05-30T20:35:03Z</time>
      </trkpt>
      <trkpt lat="59.8714766" lon="17.6793937">
        <ele>3.50195</ele>
        <time>2013-05-30T20:35:04Z</time>
      </trkpt>
      <trkpt lat="59.8715501" lon="17.6793688">
        <ele>3.98267</ele>
        <time>2013-05-30T20:35:05Z</time>
      </trkpt>
      <trkpt lat="59.871622" lon="17.679349">
        <ele>4.46326</ele>
        <time>2013-05-30T20:35:06Z</time>
      </trkpt>
      <trkpt lat="59.8716938" lon="17.6793307">
        <ele>4.46326</ele>
        <time>2013-05-30T20:35:07Z</time>
      </trkpt>
      <trkpt lat="59.8717648" lon="17.6793118">
        <ele>4.46326</ele>
        <time>2013-05-30T20:35:08Z</time>
      </trkpt>
      <trkpt lat="59.8718354" lon="17.6792925">
        <ele>4.46326</ele>
        <time>2013-05-30T20:35:09Z</time>
      </trkpt>
      <trkpt lat="59.8719072" lon="17.6792693">
        <ele>4.46326</ele>
        <time>2013-05-30T20:35:10Z</time>
      </trkpt>
      <trkpt lat="59.8719805" lon="17.6792458">
        <ele>4.94385</ele>
        <time>2013-05-30T20:35:11Z</time>
      </trkpt>
      <trkpt lat="59.8720598" lon="17.679219">
        <ele>4.94385</ele>
        <time>2013-05-30T20:35:12Z</time>
      </trkpt>
      <trkpt lat="59.8721409" lon="17.6791859">
        <ele>4.46326</ele>
        <time>2013-05-30T20:35:13Z</time>
      </trkpt>
      <trkpt lat="59.8722201" lon="17.6791671">
        <ele>4.94385</ele>
        <time>2013-05-30T20:35:14Z</time>
      </trkpt>
      <trkpt lat="59.8722965" lon="17.6791455">
        <ele>4.94385</ele>
        <time>2013-05-30T20:35:15Z</time>
      </trkpt>
      <trkpt lat="59.8723746" lon="17.6791184">
        <ele>4.94385</ele>
        <time>2013-05-30T20:35:16Z</time>
      </trkpt>
      <trkpt lat="59.8724509" lon="17.6790942">
        <ele>4.94385</ele>
        <time>2013-05-30T20:35:17Z</time>
      </trkpt>
      <trkpt lat="59.8725275" lon="17.6790691">
        <ele>4.94385</ele>
        <time>2013-05-30T20:35:18Z</time>
      </trkpt>
      <trkpt lat="59.8726026" lon="17.6790465">
        <ele>4.94385</ele>
        <time>2013-05-30T20:35:19Z</time>
      </trkpt>
      <trkpt lat="59.8726768" lon="17.6790241">
        <ele>4.94385</ele>
        <time>2013-05-30T20:35:20Z</time>
      </trkpt>
      <trkpt lat="59.8727509" lon="17.6790019">
        <ele>5.42456</ele>
        <time>2013-05-30T20:35:21Z</time>
      </trkpt>
      <trkpt lat="59.8728243" lon="17.6789814">
        <ele>5.42456</ele>
        <time>2013-05-30T20:35:22Z</time>
      </trkpt>
      <trkpt lat="59.8728964" lon="17.6789637">
        <ele>5.42456</ele>
        <time>2013-05-30T20:35:23Z</time>
      </trkpt>
      <trkpt lat="59.8729679" lon="17.6789488">
        <ele>5.42456</ele>
        <time>2013-05-30T20:35:24Z</time>
      </trkpt>
      <trkpt lat="59.8730388" lon="17.6789335">
        <ele>5.42456</ele>
        <time>2013-05-30T20:35:25Z</time>
      </trkpt>
      <trkpt lat="59.8731093" lon="17.6789141">
        <ele>5.42456</ele>
        <time>2013-05-30T20:35:26Z</time>
      </trkpt>
      <trkpt lat="59.8731789" lon="17.6788927">
        <ele>5.90527</ele>
        <time>2013-05-30T20:35:27Z</time>
      </trkpt>
      <trkpt lat="59.8732464" lon="17.6788735">
        <ele>5.90527</ele>
        <time>2013-05-30T20:35:28Z</time>
      </trkpt>
      <trkpt lat="59.8733118" lon="17.6788553">
        <ele>5.90527</ele>
        <time>2013-05-30T20:35:29Z</time>
      </trkpt>
      <trkpt lat="59.873376" lon="17.6788383">
        <ele>5.90527</ele>
        <time>2013-05-30T20:35:30Z</time>
      </trkpt>
      <trkpt lat="59.8734397" lon="17.6788238">
        <ele>6.38586</ele>
        <time>2013-05-30T20:35:31Z</time>
      </trkpt>
      <trkpt lat="59.8735024" lon="17.6788076">
        <ele>6.38586</ele>
        <time>2013-05-30T20:35:32Z</time>
      </trkpt>
      <trkpt lat="59.8735646" lon="17.6787901">
        <ele>6.38586</ele>
        <time>2013-05-30T20:35:33Z</time>
      </trkpt>
      <trkpt lat="59.873626" lon="17.6787751">
        <ele>6.38586</ele>
        <time>2013-05-30T20:35:34Z</time>
      </trkpt>
      <trkpt lat="59.8736873" lon="17.6787606">
        <ele>6.86646</ele>
        <time>2013-05-30T20:35:35Z</time>
      </trkpt>
      <trkpt lat="59.8737484" lon="17.6787488">
        <ele>6.38586</ele>
        <time>2013-05-30T20:35:36Z</time>
      </trkpt>
      <trkpt lat="59.8738102" lon="17.6787373">
        <ele>6.86646</ele>
        <time>2013-05-30T20:35:37Z</time>
      </trkpt>
      <trkpt lat="59.873872" lon="17.6787259">
        <ele>6.86646</ele>
        <time>2013-05-30T20:35:38Z</time>
      </trkpt>
      <trkpt lat="59.8739338" lon="17.678714">
        <ele>6.86646</ele>
        <time>2013-05-30T20:35:39Z</time>
      </trkpt>
      <trkpt lat="59.8739961" lon="17.678704">
        <ele>7.34717</ele>
        <time>2013-05-30T20:35:40Z</time>
      </trkpt>
      <trkpt lat="59.8740581" lon="17.6786958">
        <ele>7.82788</ele>
        <time>2013-05-30T20:35:41Z</time>
      </trkpt>
      <trkpt lat="59.8741192" lon="17.6786871">
        <ele>7.82788</ele>
        <time>2013-05-30T20:35:42Z</time>
      </trkpt>
      <trkpt lat="59.8741805" lon="17.678678">
        <ele>7.82788</ele>
        <time>2013-05-30T20:35:43Z</time>
      </trkpt>
      <trkpt lat="59.8742435" lon="17.6786678">
        <ele>8.78918</ele>
        <time>2013-05-30T20:35:44Z</time>
      </trkpt>
      <trkpt lat="59.8743042" lon="17.6786606">
        <ele>8.78918</ele>
        <time>2013-05-30T20:35:45Z</time>
      </trkpt>
      <trkpt lat="59.8743652" lon="17.6786539">
        <ele>8.78918</ele>
        <time>2013-05-30T20:35:46Z</time>
      </trkpt>
      <trkpt lat="59.8744264" lon="17.6786504">
        <ele>8.78918</ele>
        <time>2013-05-30T20:35:47Z</time>
      </trkpt>
      <trkpt lat="59.874488" lon="17.6786464">
        <ele>9.2699</ele>
        <time>2013-05-30T20:35:48Z</time>
      </trkpt>
      <trkpt lat="59.8745498" lon="17.6786404">
        <ele>9.2699</ele>
        <time>2013-05-30T20:35:49Z</time>
      </trkpt>
      <trkpt lat="59.8746116" lon="17.6786379">
        <ele>9.75061</ele>
        <time>2013-05-30T20:35:50Z</time>
      </trkpt>
      <trkpt lat="59.8746757" lon="17.6786359">
        <ele>10.2312</ele>
        <time>2013-05-30T20:35:51Z</time>
      </trkpt>
      <trkpt lat="59.8747394" lon="17.6786332">
        <ele>10.7118</ele>
        <time>2013-05-30T20:35:52Z</time>
      </trkpt>
      <trkpt lat="59.874803" lon="17.6786302">
        <ele>10.7118</ele>
        <time>2013-05-30T20:35:53Z</time>
      </trkpt>
      <trkpt lat="59.8748687" lon="17.6786262">
        <ele>13.5958</ele>
        <time>2013-05-30T20:35:54Z</time>
      </trkpt>
      <trkpt lat="59.8749342" lon="17.6786224">
        <ele>15.0377</ele>
        <time>2013-05-30T20:35:55Z</time>
      </trkpt>
      <trkpt lat="59.8749998" lon="17.6786203">
        <ele>16.4797</ele>
        <time>2013-05-30T20:35:56Z</time>
      </trkpt>
      <trkpt lat="59.8750662" lon="17.6786187">
        <ele>17.9218</ele>
        <time>2013-05-30T20:35:57Z</time>
      </trkpt>
      <trkpt lat="59.8751324" lon="17.6786171">
        <ele>19.3638</ele>
        <time>2013-05-30T20:35:58Z</time>
      </trkpt>
      <trkpt lat="59.8751984" lon="17.678613">
        <ele>20.325</ele>
        <time>2013-05-30T20:35:59Z</time>
      </trkpt>
      <trkpt lat="59.8752648" lon="17.6786074">
        <ele>21.2864</ele>
        <time>2013-05-30T20:36:00Z</time>
      </trkpt>
      <trkpt lat="59.8753309" lon="17.6786014">
        <ele>21.767</ele>
        <time>2013-05-30T20:36:01Z</time>
      </trkpt>
      <trkpt lat="59.8753967" lon="17.6785906">
        <ele>22.7283</ele>
        <time>2013-05-30T20:36:02Z</time>
      </trkpt>
      <trkpt lat="59.875462" lon="17.6785773">
        <ele>22.7283</ele>
        <time>2013-05-30T20:36:03Z</time>
      </trkpt>
      <trkpt lat="59.8755282" lon="17.6785634">
        <ele>23.209</ele>
        <time>2013-05-30T20:36:04Z</time>
      </trkpt>
      <trkpt lat="59.8755953" lon="17.6785451">
        <ele>24.651</ele>
        <time>2013-05-30T20:36:05Z</time>
      </trkpt>
      <trkpt lat="59.8756603" lon="17.6785233">
        <ele>24.651</ele>
        <time>2013-05-30T20:36:06Z</time>
      </trkpt>
      <trkpt lat="59.8757236" lon="17.6784828">
        <ele>24.651</ele>
        <time>2013-05-30T20:36:07Z</time>
      </trkpt>
      <trkpt lat="59.8757887" lon="17.6784482">
        <ele>24.651</ele>
        <time>2013-05-30T20:36:08Z</time>
      </trkpt>
      <trkpt lat="59.8758541" lon="17.6784182">
        <ele>25.1317</ele>
        <time>2013-05-30T20:36:09Z</time>
      </trkpt>
      <trkpt lat="59.8759189" lon="17.6783905">
        <ele>25.1317</ele>
        <time>2013-05-30T20:36:10Z</time>
      </trkpt>
      <trkpt lat="59.8759836" lon="17.6783637">
        <ele>25.6123</ele>
        <time>2013-05-30T20:36:11Z</time>
      </trkpt>
      <trkpt lat="59.8760474" lon="17.6783422">
        <ele>25.6123</ele>
        <time>2013-05-30T20:36:12Z</time>
      </trkpt>
      <trkpt lat="59.8761122" lon="17.6783281">
        <ele>26.0929</ele>
        <time>2013-05-30T20:36:13Z</time>
      </trkpt>
      <trkpt lat="59.8761774" lon="17.6783334">
        <ele>26.0929</ele>
        <time>2013-05-30T20:36:14Z</time>
      </trkpt>
      <trkpt lat="59.8762384" lon="17.6783653">
        <ele>26.0929</ele>
        <time>2013-05-30T20:36:15Z</time>
      </trkpt>
      <trkpt lat="59.8762991" lon="17.6784062">
        <ele>26.5736</ele>
        <time>2013-05-30T20:36:16Z</time>
      </trkpt>
      <trkpt lat="59.8763618" lon="17.6784427">
        <ele>27.0543</ele>
        <time>2013-05-30T20:36:17Z</time>
      </trkpt>
      <trkpt lat="59.8764266" lon="17.6784556">
        <ele>27.0543</ele>
        <time>2013-05-30T20:36:18Z</time>
      </trkpt>
      <trkpt lat="59.8764918" lon="17.6784396">
        <ele>27.5349</ele>
        <time>2013-05-30T20:36:19Z</time>
      </trkpt>
      <trkpt lat="59.8765602" lon="17.6783823">
        <ele>28.9769</ele>
        <time>2013-05-30T20:36:20Z</time>
      </trkpt>
      <trkpt lat="59.8766214" lon="17.6783058">
        <ele>29.9381</ele>
        <time>2013-05-30T20:36:21Z</time>
      </trkpt>
      <trkpt lat="59.8766736" lon="17.6782057">
        <ele>30.4188</ele>
        <time>2013-05-30T20:36:22Z</time>
      </trkpt>
      <trkpt lat="59.8767157" lon="17.6780946">
        <ele>30.4188</ele>
        <time>2013-05-30T20:36:23Z</time>
      </trkpt>
      <trkpt lat="59.8767565" lon="17.6779772">
        <ele>30.8995</ele>
        <time>2013-05-30T20:36:24Z</time>
      </trkpt>
      <trkpt lat="59.8768055" lon="17.6778679">
        <ele>30.8995</ele>
        <time>2013-05-30T20:36:25Z</time>
      </trkpt>
      <trkpt lat="59.8768663" lon="17.6777764">
        <ele>30.8995</ele>
        <time>2013-05-30T20:36:26Z</time>
      </trkpt>
      <trkpt lat="59.8769341" lon="17.6776997">
        <ele>30.8995</ele>
        <time>2013-05-30T20:36:27Z</time>
      </trkpt>
      <trkpt lat="59.8770047" lon="17.6776314">
        <ele>30.8995</ele>
        <time>2013-05-30T20:36:28Z</time>
      </trkpt>
      <trkpt lat="59.8770781" lon="17.6775686">
        <ele>30.8995</ele>
        <time>2013-05-30T20:36:29Z</time>
      </trkpt>
      <trkpt lat="59.8771518" lon="17.677511">
        <ele>30.8995</ele>
        <time>2013-05-30T20:36:30Z</time>
      </trkpt>
      <trkpt lat="59.8772246" lon="17.6774564">
        <ele>30.8995</ele>
        <time>2013-05-30T20:36:31Z</time>
      </trkpt>
      <trkpt lat="59.8772966" lon="17.6774033">
        <ele>30.8995</ele>
        <time>2013-05-30T20:36:32Z</time>
      </trkpt>
      <trkpt lat="59.8773671" lon="17.6773494">
        <ele>30.4188</ele>
        <time>2013-05-30T20:36:33Z</time>
      </trkpt>
      <trkpt lat="59.8774367" lon="17.6772864">
        <ele>30.4188</ele>
        <time>2013-05-30T20:36:34Z</time>
      </trkpt>
      <trkpt lat="59.8775018" lon="17.6771962">
        <ele>30.4188</ele>
        <time>2013-05-30T20:36:35Z</time>
      </trkpt>
      <trkpt lat="59.8775694" lon="17.677146">
        <ele>30.4188</ele>
        <time>2013-05-30T20:36:36Z</time>
      </trkpt>
      <trkpt lat="59.8776359" lon="17.6770932">
        <ele>30.4188</ele>
        <time>2013-05-30T20:36:37Z</time>
      </trkpt>
      <trkpt lat="59.8777008" lon="17.6770419">
        <ele>30.4188</ele>
        <time>2013-05-30T20:36:38Z</time>
      </trkpt>
      <trkpt lat="59.8777661" lon="17.6769875">
        <ele>30.4188</ele>
        <time>2013-05-30T20:36:39Z</time>
      </trkpt>
      <trkpt lat="59.8778304" lon="17.6769372">
        <ele>30.4188</ele>
        <time>2013-05-30T20:36:40Z</time>
      </trkpt>
      <trkpt lat="59.8778951" lon="17.6768843">
        <ele>30.4188</ele>
        <time>2013-05-30T20:36:41Z</time>
      </trkpt>
      <trkpt lat="59.8779595" lon="17.6768197">
        <ele>30.4188</ele>
        <time>2013-05-30T20:36:42Z</time>
      </trkpt>
      <trkpt lat="59.8780241" lon="17.6767554">
        <ele>29.9381</ele>
        <time>2013-05-30T20:36:43Z</time>
      </trkpt>
      <trkpt lat="59.8780883" lon="17.6766937">
        <ele>29.9381</ele>
        <time>2013-05-30T20:36:44Z</time>
      </trkpt>
      <trkpt lat="59.8781526" lon="17.6766286">
        <ele>29.9381</ele>
        <time>2013-05-30T20:36:45Z</time>
      </trkpt>
      <trkpt lat="59.8782181" lon="17.6765637">
        <ele>29.9381</ele>
        <time>2013-05-30T20:36:46Z</time>
      </trkpt>
      <trkpt lat="59.8782843" lon="17.6764986">
        <ele>29.9381</ele>
        <time>2013-05-30T20:36:47Z</time>
      </trkpt>
      <trkpt lat="59.8783504" lon="17.6764399">
        <ele>29.9381</ele>
        <time>2013-05-30T20:36:48Z</time>
      </trkpt>
      <trkpt lat="59.8784163" lon="17.6763788">
        <ele>29.9381</ele>
        <time>2013-05-30T20:36:49Z</time>
      </trkpt>
      <trkpt lat="59.8784831" lon="17.6763175">
        <ele>29.9381</ele>
        <time>2013-05-30T20:36:50Z</time>
      </trkpt>
      <trkpt lat="59.8785512" lon="17.6762556">
        <ele>29.9381</ele>
        <time>2013-05-30T20:36:51Z</time>
      </trkpt>
      <trkpt lat="59.8786201" lon="17.6761939">
        <ele>29.9381</ele>
        <time>2013-05-30T20:36:52Z</time>
      </trkpt>
      <trkpt lat="59.8786892" lon="17.6761342">
        <ele>29.9381</ele>
        <time>2013-05-30T20:36:53Z</time>
      </trkpt>
      <trkpt lat="59.8787571" lon="17.6760701">
        <ele>29.9381</ele>
        <time>2013-05-30T20:36:54Z</time>
      </trkpt>
      <trkpt lat="59.8788232" lon="17.6759918">
        <ele>28.4962</ele>
        <time>2013-05-30T20:36:55Z</time>
      </trkpt>
      <trkpt lat="59.8788867" lon="17.6759173">
        <ele>28.0155</ele>
        <time>2013-05-30T20:36:56Z</time>
      </trkpt>
      <trkpt lat="59.8789494" lon="17.6758525">
        <ele>27.0543</ele>
        <time>2013-05-30T20:36:57Z</time>
      </trkpt>
      <trkpt lat="59.8790124" lon="17.6757935">
        <ele>27.5349</ele>
        <time>2013-05-30T20:36:58Z</time>
      </trkpt>
      <trkpt lat="59.8790788" lon="17.6757598">
        <ele>27.5349</ele>
        <time>2013-05-30T20:36:59Z</time>
      </trkpt>
      <trkpt lat="59.8791462" lon="17.6757339">
        <ele>27.5349</ele>
        <time>2013-05-30T20:37:00Z</time>
      </trkpt>
      <trkpt lat="59.8792112" lon="17.6756783">
        <ele>27.5349</ele>
        <time>2013-05-30T20:37:01Z</time>
      </trkpt>
      <trkpt lat="59.8792653" lon="17.6755781">
        <ele>28.4962</ele>
        <time>2013-05-30T20:37:02Z</time>
      </trkpt>
      <trkpt lat="59.8793101" lon="17.6754562">
        <ele>28.4962</ele>
        <time>2013-05-30T20:37:03Z</time>
      </trkpt>
      <trkpt lat="59.8793585" lon="17.6753323">
        <ele>28.9769</ele>
        <time>2013-05-30T20:37:04Z</time>
      </trkpt>
      <trkpt lat="59.8794191" lon="17.6752215">
        <ele>28.4962</ele>
        <time>2013-05-30T20:37:05Z</time>
      </trkpt>
      <trkpt lat="59.8794866" lon="17.67512">
        <ele>28.9769</ele>
        <time>2013-05-30T20:37:06Z</time>
      </trkpt>
      <trkpt lat="59.879557" lon="17.6750253">
        <ele>28.9769</ele>
        <time>2013-05-30T20:37:07Z</time>
      </trkpt>
      <trkpt lat="59.8796294" lon="17.6749403">
        <ele>28.9769</ele>
        <time>2013-05-30T20:37:08Z</time>
      </trkpt>
      <trkpt lat="59.8797035" lon="17.6748621">
        <ele>28.4962</ele>
        <time>2013-05-30T20:37:09Z</time>
      </trkpt>
      <trkpt lat="59.8797784" lon="17.6747829">
        <ele>28.9769</ele>
        <time>2013-05-30T20:37:10Z</time>
      </trkpt>
      <trkpt lat="59.8798538" lon="17.6747036">
        <ele>28.9769</ele>
        <time>2013-05-30T20:37:11Z</time>
      </trkpt>
      <trkpt lat="59.8799291" lon="17.6746205">
        <ele>29.4575</ele>
        <time>2013-05-30T20:37:12Z</time>
      </trkpt>
      <trkpt lat="59.8800039" lon="17.6745392">
        <ele>28.9769</ele>
        <time>2013-05-30T20:37:13Z</time>
      </trkpt>
      <trkpt lat="59.8800801" lon="17.6744616">
        <ele>29.4575</ele>
        <time>2013-05-30T20:37:14Z</time>
      </trkpt>
      <trkpt lat="59.8801566" lon="17.6743884">
        <ele>28.9769</ele>
        <time>2013-05-30T20:37:15Z</time>
      </trkpt>
      <trkpt lat="59.8802325" lon="17.6743141">
        <ele>28.9769</ele>
        <time>2013-05-30T20:37:16Z</time>
      </trkpt>
      <trkpt lat="59.8803075" lon="17.6742405">
        <ele>28.9769</ele>
        <time>2013-05-30T20:37:17Z</time>
      </trkpt>
      <trkpt lat="59.8803825" lon="17.6741683">
        <ele>28.9769</ele>
        <time>2013-05-30T20:37:18Z</time>
      </trkpt>
      <trkpt lat="59.8804572" lon="17.6740971">
        <ele>28.9769</ele>
        <time>2013-05-30T20:37:19Z</time>
      </trkpt>
      <trkpt lat="59.8805318" lon="17.6740263">
        <ele>28.9769</ele>
        <time>2013-05-30T20:37:20Z</time>
      </trkpt>
      <trkpt lat="59.8806069" lon="17.6739556">
        <ele>28.9769</ele>
        <time>2013-05-30T20:37:21Z</time>
      </trkpt>
      <trkpt lat="59.8806821" lon="17.6738854">
        <ele>28.9769</ele>
        <time>2013-05-30T20:37:22Z</time>
      </trkpt>
      <trkpt lat="59.8807566" lon="17.6738152">
        <ele>28.9769</ele>
        <time>2013-05-30T20:37:23Z</time>
      </trkpt>
      <trkpt lat="59.8808312" lon="17.6737458">
        <ele>28.9769</ele>
        <time>2013-05-30T20:37:24Z</time>
      </trkpt>
      <trkpt lat="59.8809079" lon="17.6736765">
        <ele>28.9769</ele>
        <time>2013-05-30T20:37:25Z</time>
      </trkpt>
      <trkpt lat="59.8809848" lon="17.6736085">
        <ele>28.9769</ele>
        <time>2013-05-30T20:37:26Z</time>
      </trkpt>
      <trkpt lat="59.8810632" lon="17.6735404">
        <ele>28.9769</ele>
        <time>2013-05-30T20:37:27Z</time>
      </trkpt>
      <trkpt lat="59.8811421" lon="17.6734717">
        <ele>28.4962</ele>
        <time>2013-05-30T20:37:28Z</time>
      </trkpt>
      <trkpt lat="59.8812216" lon="17.6734024">
        <ele>28.4962</ele>
        <time>2013-05-30T20:37:29Z</time>
      </trkpt>
      <trkpt lat="59.8813017" lon="17.6733344">
        <ele>28.4962</ele>
        <time>2013-05-30T20:37:30Z</time>
      </trkpt>
      <trkpt lat="59.8813823" lon="17.6732675">
        <ele>28.4962</ele>
        <time>2013-05-30T20:37:31Z</time>
      </trkpt>
      <trkpt lat="59.8814632" lon="17.6732001">
        <ele>28.4962</ele>
        <time>2013-05-30T20:37:32Z</time>
      </trkpt>
      <trkpt lat="59.8815445" lon="17.6731319">
        <ele>28.4962</ele>
        <time>2013-05-30T20:37:33Z</time>
      </trkpt>
      <trkpt lat="59.8816257" lon="17.6730635">
        <ele>28.0155</ele>
        <time>2013-05-30T20:37:34Z</time>
      </trkpt>
      <trkpt lat="59.8817072" lon="17.6729952">
        <ele>28.0155</ele>
        <time>2013-05-30T20:37:35Z</time>
      </trkpt>
      <trkpt lat="59.8817889" lon="17.6729279">
        <ele>28.0155</ele>
        <time>2013-05-30T20:37:36Z</time>
      </trkpt>
      <trkpt lat="59.881871" lon="17.6728615">
        <ele>28.0155</ele>
        <time>2013-05-30T20:37:37Z</time>
      </trkpt>
      <trkpt lat="59.8819535" lon="17.6727942">
        <ele>28.4962</ele>
        <time>2013-05-30T20:37:38Z</time>
      </trkpt>
      <trkpt lat="59.8820359" lon="17.6727249">
        <ele>28.4962</ele>
        <time>2013-05-30T20:37:39Z</time>
      </trkpt>
      <trkpt lat="59.8821185" lon="17.6726544">
        <ele>28.4962</ele>
        <time>2013-05-30T20:37:40Z</time>
      </trkpt>
      <trkpt lat="59.8822023" lon="17.6725833">
        <ele>28.0155</ele>
        <time>2013-05-30T20:37:41Z</time>
      </trkpt>
      <trkpt lat="59.8822863" lon="17.6725139">
        <ele>28.0155</ele>
        <time>2013-05-30T20:37:42Z</time>
      </trkpt>
      <trkpt lat="59.882371" lon="17.6724435">
        <ele>28.0155</ele>
        <time>2013-05-30T20:37:43Z</time>
      </trkpt>
      <trkpt lat="59.8824557" lon="17.6723702">
        <ele>28.0155</ele>
        <time>2013-05-30T20:37:44Z</time>
      </trkpt>
      <trkpt lat="59.8825399" lon="17.6722979">
        <ele>28.0155</ele>
        <time>2013-05-30T20:37:45Z</time>
      </trkpt>
      <trkpt lat="59.8826246" lon="17.6722291">
        <ele>28.0155</ele>
        <time>2013-05-30T20:37:46Z</time>
      </trkpt>
      <trkpt lat="59.8827091" lon="17.6721589">
        <ele>28.0155</ele>
        <time>2013-05-30T20:37:47Z</time>
      </trkpt>
      <trkpt lat="59.882793" lon="17.6720859">
        <ele>28.0155</ele>
        <time>2013-05-30T20:37:48Z</time>
      </trkpt>
      <trkpt lat="59.8828762" lon="17.6720118">
        <ele>27.5349</ele>
        <time>2013-05-30T20:37:49Z</time>
      </trkpt>
      <trkpt lat="59.8829587" lon="17.6719373">
        <ele>27.5349</ele>
        <time>2013-05-30T20:37:50Z</time>
      </trkpt>
      <trkpt lat="59.8830405" lon="17.6718632">
        <ele>27.5349</ele>
        <time>2013-05-30T20:37:51Z</time>
      </trkpt>
      <trkpt lat="59.8831199" lon="17.6717875">
        <ele>27.5349</ele>
        <time>2013-05-30T20:37:52Z</time>
      </trkpt>
      <trkpt lat="59.8831962" lon="17.6717094">
        <ele>27.5349</ele>
        <time>2013-05-30T20:37:53Z</time>
      </trkpt>
      <trkpt lat="59.8832708" lon="17.6716312">
        <ele>27.5349</ele>
        <time>2013-05-30T20:37:54Z</time>
      </trkpt>
      <trkpt lat="59.8833445" lon="17.6715525">
        <ele>27.5349</ele>
        <time>2013-05-30T20:37:55Z</time>
      </trkpt>
      <trkpt lat="59.8834175" lon="17.6714717">
        <ele>27.0543</ele>
        <time>2013-05-30T20:37:56Z</time>
      </trkpt>
      <trkpt lat="59.883491" lon="17.6713918">
        <ele>27.5349</ele>
        <time>2013-05-30T20:37:57Z</time>
      </trkpt>
      <trkpt lat="59.8835637" lon="17.6713106">
        <ele>27.5349</ele>
        <time>2013-05-30T20:37:58Z</time>
      </trkpt>
      <trkpt lat="59.8836367" lon="17.6712308">
        <ele>27.5349</ele>
        <time>2013-05-30T20:37:59Z</time>
      </trkpt>
      <trkpt lat="59.8837138" lon="17.671165">
        <ele>27.5349</ele>
        <time>2013-05-30T20:38:00Z</time>
      </trkpt>
      <trkpt lat="59.8837963" lon="17.6711216">
        <ele>27.5349</ele>
        <time>2013-05-30T20:38:01Z</time>
      </trkpt>
      <trkpt lat="59.8838795" lon="17.6710893">
        <ele>28.0155</ele>
        <time>2013-05-30T20:38:02Z</time>
      </trkpt>
      <trkpt lat="59.8839574" lon="17.6710372">
        <ele>28.0155</ele>
        <time>2013-05-30T20:38:03Z</time>
      </trkpt>
      <trkpt lat="59.8840251" lon="17.6709458">
        <ele>28.4962</ele>
        <time>2013-05-30T20:38:04Z</time>
      </trkpt>
      <trkpt lat="59.8840755" lon="17.6708169">
        <ele>28.0155</ele>
        <time>2013-05-30T20:38:05Z</time>
      </trkpt>
      <trkpt lat="59.8841107" lon="17.670665">
        <ele>28.0155</ele>
        <time>2013-05-30T20:38:06Z</time>
      </trkpt>
      <trkpt lat="59.8841432" lon="17.6705076">
        <ele>27.5349</ele>
        <time>2013-05-30T20:38:07Z</time>
      </trkpt>
      <trkpt lat="59.8841853" lon="17.6703578">
        <ele>27.5349</ele>
        <time>2013-05-30T20:38:08Z</time>
      </trkpt>
      <trkpt lat="59.8842418" lon="17.6702244">
        <ele>27.0543</ele>
        <time>2013-05-30T20:38:09Z</time>
      </trkpt>
      <trkpt lat="59.884304" lon="17.6700983">
        <ele>27.0543</ele>
        <time>2013-05-30T20:38:10Z</time>
      </trkpt>
      <trkpt lat="59.884368" lon="17.6699731">
        <ele>26.5736</ele>
        <time>2013-05-30T20:38:11Z</time>
      </trkpt>
      <trkpt lat="59.8844308" lon="17.6698441">
        <ele>26.5736</ele>
        <time>2013-05-30T20:38:12Z</time>
      </trkpt>
      <trkpt lat="59.8844915" lon="17.6697082">
        <ele>26.5736</ele>
        <time>2013-05-30T20:38:13Z</time>
      </trkpt>
      <trkpt lat="59.884551" lon="17.6695664">
        <ele>26.0929</ele>
        <time>2013-05-30T20:38:14Z</time>
      </trkpt>
      <trkpt lat="59.8846095" lon="17.6694209">
        <ele>26.0929</ele>
        <time>2013-05-30T20:38:15Z</time>
      </trkpt>
      <trkpt lat="59.8846667" lon="17.6692708">
        <ele>26.0929</ele>
        <time>2013-05-30T20:38:16Z</time>
      </trkpt>
      <trkpt lat="59.8847226" lon="17.6691158">
        <ele>25.6123</ele>
        <time>2013-05-30T20:38:17Z</time>
      </trkpt>
      <trkpt lat="59.8847764" lon="17.6689557">
        <ele>25.6123</ele>
        <time>2013-05-30T20:38:18Z</time>
      </trkpt>
      <trkpt lat="59.8848269" lon="17.668791">
        <ele>25.6123</ele>
        <time>2013-05-30T20:38:19Z</time>
      </trkpt>
      <trkpt lat="59.8848743" lon="17.6686247">
        <ele>25.1317</ele>
        <time>2013-05-30T20:38:20Z</time>
      </trkpt>
      <trkpt lat="59.8849187" lon="17.6684569">
        <ele>25.1317</ele>
        <time>2013-05-30T20:38:21Z</time>
      </trkpt>
      <trkpt lat="59.8849632" lon="17.6682878">
        <ele>24.651</ele>
        <time>2013-05-30T20:38:22Z</time>
      </trkpt>
      <trkpt lat="59.8850163" lon="17.6681275">
        <ele>24.651</ele>
        <time>2013-05-30T20:38:23Z</time>
      </trkpt>
      <trkpt lat="59.8850828" lon="17.6679882">
        <ele>24.651</ele>
        <time>2013-05-30T20:38:24Z</time>
      </trkpt>
      <trkpt lat="59.88515" lon="17.6678584">
        <ele>24.651</ele>
        <time>2013-05-30T20:38:25Z</time>
      </trkpt>
      <trkpt lat="59.8852022" lon="17.6677114">
        <ele>24.651</ele>
        <time>2013-05-30T20:38:26Z</time>
      </trkpt>
      <trkpt lat="59.8852321" lon="17.6675441">
        <ele>24.651</ele>
        <time>2013-05-30T20:38:27Z</time>
      </trkpt>
      <trkpt lat="59.8852327" lon="17.6673608">
        <ele>24.1703</ele>
        <time>2013-05-30T20:38:28Z</time>
      </trkpt>
      <trkpt lat="59.8852187" lon="17.6671744">
        <ele>24.1703</ele>
        <time>2013-05-30T20:38:29Z</time>
      </trkpt>
      <trkpt lat="59.8852092" lon="17.6669816">
        <ele>23.6896</ele>
        <time>2013-05-30T20:38:30Z</time>
      </trkpt>
      <trkpt lat="59.8852162" lon="17.6667923">
        <ele>23.6896</ele>
        <time>2013-05-30T20:38:31Z</time>
      </trkpt>
      <trkpt lat="59.8852321" lon="17.666606">
        <ele>23.6896</ele>
        <time>2013-05-30T20:38:32Z</time>
      </trkpt>
      <trkpt lat="59.8852509" lon="17.6664211">
        <ele>23.6896</ele>
        <time>2013-05-30T20:38:33Z</time>
      </trkpt>
      <trkpt lat="59.885269" lon="17.6662372">
        <ele>23.6896</ele>
        <time>2013-05-30T20:38:34Z</time>
      </trkpt>
      <trkpt lat="59.8852869" lon="17.6660554">
        <ele>23.6896</ele>
        <time>2013-05-30T20:38:35Z</time>
      </trkpt>
      <trkpt lat="59.8853067" lon="17.6658762">
        <ele>24.1703</ele>
        <time>2013-05-30T20:38:36Z</time>
      </trkpt>
      <trkpt lat="59.88533" lon="17.6656974">
        <ele>23.6896</ele>
        <time>2013-05-30T20:38:37Z</time>
      </trkpt>
      <trkpt lat="59.8853584" lon="17.6655202">
        <ele>23.6896</ele>
        <time>2013-05-30T20:38:38Z</time>
      </trkpt>
      <trkpt lat="59.8853959" lon="17.6653504">
        <ele>23.6896</ele>
        <time>2013-05-30T20:38:39Z</time>
      </trkpt>
      <trkpt lat="59.8854472" lon="17.6651954">
        <ele>23.209</ele>
        <time>2013-05-30T20:38:40Z</time>
      </trkpt>
      <trkpt lat="59.8855133" lon="17.6650649">
        <ele>23.209</ele>
        <time>2013-05-30T20:38:41Z</time>
      </trkpt>
      <trkpt lat="59.8855897" lon="17.6649588">
        <ele>22.7283</ele>
        <time>2013-05-30T20:38:42Z</time>
      </trkpt>
      <trkpt lat="59.8856786" lon="17.6649002">
        <ele>22.7283</ele>
        <time>2013-05-30T20:38:43Z</time>
      </trkpt>
      <trkpt lat="59.8857709" lon="17.6648872">
        <ele>22.7283</ele>
        <time>2013-05-30T20:38:44Z</time>
      </trkpt>
      <trkpt lat="59.885863" lon="17.6649189">
        <ele>23.209</ele>
        <time>2013-05-30T20:38:45Z</time>
      </trkpt>
      <trkpt lat="59.8859546" lon="17.6649375">
        <ele>24.1703</ele>
        <time>2013-05-30T20:38:46Z</time>
      </trkpt>
      <trkpt lat="59.8860465" lon="17.664929">
        <ele>24.1703</ele>
        <time>2013-05-30T20:38:47Z</time>
      </trkpt>
      <trkpt lat="59.8861308" lon="17.6648701">
        <ele>24.651</ele>
        <time>2013-05-30T20:38:48Z</time>
      </trkpt>
      <trkpt lat="59.8862067" lon="17.6647677">
        <ele>25.1317</ele>
        <time>2013-05-30T20:38:49Z</time>
      </trkpt>
      <trkpt lat="59.8862716" lon="17.6646306">
        <ele>25.1317</ele>
        <time>2013-05-30T20:38:50Z</time>
      </trkpt>
      <trkpt lat="59.8863264" lon="17.6644861">
        <ele>25.1317</ele>
        <time>2013-05-30T20:38:51Z</time>
      </trkpt>
      <trkpt lat="59.8863729" lon="17.664331">
        <ele>25.1317</ele>
        <time>2013-05-30T20:38:52Z</time>
      </trkpt>
      <trkpt lat="59.8864177" lon="17.6641725">
        <ele>25.1317</ele>
        <time>2013-05-30T20:38:53Z</time>
      </trkpt>
      <trkpt lat="59.8864647" lon="17.6640175">
        <ele>25.1317</ele>
        <time>2013-05-30T20:38:54Z</time>
      </trkpt>
      <trkpt lat="59.8865153" lon="17.6638681">
        <ele>25.1317</ele>
        <time>2013-05-30T20:38:55Z</time>
      </trkpt>
      <trkpt lat="59.8865692" lon="17.6637254">
        <ele>25.1317</ele>
        <time>2013-05-30T20:38:56Z</time>
      </trkpt>
      <trkpt lat="59.8866262" lon="17.6635897">
        <ele>25.1317</ele>
        <time>2013-05-30T20:38:57Z</time>
      </trkpt>
      <trkpt lat="59.8866863" lon="17.6634611">
        <ele>25.1317</ele>
        <time>2013-05-30T20:38:58Z</time>
      </trkpt>
      <trkpt lat="59.8867477" lon="17.6633393">
        <ele>24.651</ele>
        <time>2013-05-30T20:38:59Z</time>
      </trkpt>
      <trkpt lat="59.886808" lon="17.6632201">
        <ele>24.651</ele>
        <time>2013-05-30T20:39:00Z</time>
      </trkpt>
      <trkpt lat="59.8868654" lon="17.6630996">
        <ele>24.651</ele>
        <time>2013-05-30T20:39:01Z</time>
      </trkpt>
      <trkpt lat="59.8869187" lon="17.6629746">
        <ele>24.1703</ele>
        <time>2013-05-30T20:39:02Z</time>
      </trkpt>
      <trkpt lat="59.8869684" lon="17.6628437">
        <ele>24.1703</ele>
        <time>2013-05-30T20:39:03Z</time>
      </trkpt>
      <trkpt lat="59.887015" lon="17.6627099">
        <ele>24.1703</ele>
        <time>2013-05-30T20:39:04Z</time>
      </trkpt>
      <trkpt lat="59.887057" lon="17.6625732">
        <ele>23.6896</ele>
        <time>2013-05-30T20:39:05Z</time>
      </trkpt>
      <trkpt lat="59.8870917" lon="17.6624309">
        <ele>23.6896</ele>
        <time>2013-05-30T20:39:06Z</time>
      </trkpt>
      <trkpt lat="59.8871213" lon="17.6622851">
        <ele>23.6896</ele>
        <time>2013-05-30T20:39:07Z</time>
      </trkpt>
      <trkpt lat="59.8871456" lon="17.6621366">
        <ele>23.6896</ele>
        <time>2013-05-30T20:39:08Z</time>
      </trkpt>
      <trkpt lat="59.8871623" lon="17.6619858">
        <ele>23.6896</ele>
        <time>2013-05-30T20:39:09Z</time>
      </trkpt>
      <trkpt lat="59.887173" lon="17.6618346">
        <ele>23.6896</ele>
        <time>2013-05-30T20:39:10Z</time>
      </trkpt>
      <trkpt lat="59.8871799" lon="17.661685">
        <ele>23.6896</ele>
        <time>2013-05-30T20:39:11Z</time>
      </trkpt>
      <trkpt lat="59.8871892" lon="17.661541">
        <ele>23.209</ele>
        <time>2013-05-30T20:39:12Z</time>
      </trkpt>
      <trkpt lat="59.8872101" lon="17.6614052">
        <ele>23.6896</ele>
        <time>2013-05-30T20:39:13Z</time>
      </trkpt>
      <trkpt lat="59.8872489" lon="17.6612866">
        <ele>23.6896</ele>
        <time>2013-05-30T20:39:14Z</time>
      </trkpt>
      <trkpt lat="59.8873001" lon="17.6611812">
        <ele>23.6896</ele>
        <time>2013-05-30T20:39:15Z</time>
      </trkpt>
      <trkpt lat="59.8873603" lon="17.6610935">
        <ele>23.6896</ele>
        <time>2013-05-30T20:39:16Z</time>
      </trkpt>
      <trkpt lat="59.8874265" lon="17.6610177">
        <ele>23.6896</ele>
        <time>2013-05-30T20:39:17Z</time>
      </trkpt>
      <trkpt lat="59.887496" lon="17.6609494">
        <ele>23.6896</ele>
        <time>2013-05-30T20:39:18Z</time>
      </trkpt>
      <trkpt lat="59.8875684" lon="17.6608846">
        <ele>23.6896</ele>
        <time>2013-05-30T20:39:19Z</time>
      </trkpt>
      <trkpt lat="59.8876414" lon="17.6608141">
        <ele>23.6896</ele>
        <time>2013-05-30T20:39:20Z</time>
      </trkpt>
      <trkpt lat="59.8877119" lon="17.6607302">
        <ele>23.6896</ele>
        <time>2013-05-30T20:39:21Z</time>
      </trkpt>
      <trkpt lat="59.8877787" lon="17.6606297">
        <ele>23.6896</ele>
        <time>2013-05-30T20:39:22Z</time>
      </trkpt>
      <trkpt lat="59.8878399" lon="17.6605084">
        <ele>23.209</ele>
        <time>2013-05-30T20:39:23Z</time>
      </trkpt>
      <trkpt lat="59.8878958" lon="17.6603795">
        <ele>23.209</ele>
        <time>2013-05-30T20:39:24Z</time>
      </trkpt>
      <trkpt lat="59.8879486" lon="17.6602455">
        <ele>23.209</ele>
        <time>2013-05-30T20:39:25Z</time>
      </trkpt>
      <trkpt lat="59.8879998" lon="17.66011">
        <ele>22.7283</ele>
        <time>2013-05-30T20:39:26Z</time>
      </trkpt>
      <trkpt lat="59.88805" lon="17.6599724">
        <ele>22.7283</ele>
        <time>2013-05-30T20:39:27Z</time>
      </trkpt>
      <trkpt lat="59.8881005" lon="17.6598357">
        <ele>22.2476</ele>
        <time>2013-05-30T20:39:28Z</time>
      </trkpt>
      <trkpt lat="59.8881508" lon="17.6596984">
        <ele>22.2476</ele>
        <time>2013-05-30T20:39:29Z</time>
      </trkpt>
      <trkpt lat="59.8882009" lon="17.6595611">
        <ele>22.2476</ele>
        <time>2013-05-30T20:39:30Z</time>
      </trkpt>
      <trkpt lat="59.8882515" lon="17.6594237">
        <ele>22.2476</ele>
        <time>2013-05-30T20:39:31Z</time>
      </trkpt>
      <trkpt lat="59.8883014" lon="17.6592855">
        <ele>21.767</ele>
        <time>2013-05-30T20:39:32Z</time>
      </trkpt>
      <trkpt lat="59.888351" lon="17.6591482">
        <ele>21.767</ele>
        <time>2013-05-30T20:39:33Z</time>
      </trkpt>
      <trkpt lat="59.8884004" lon="17.6590162">
        <ele>21.767</ele>
        <time>2013-05-30T20:39:34Z</time>
      </trkpt>
      <trkpt lat="59.88845" lon="17.658889">
        <ele>21.767</ele>
        <time>2013-05-30T20:39:35Z</time>
      </trkpt>
      <trkpt lat="59.888497" lon="17.658764">
        <ele>21.767</ele>
        <time>2013-05-30T20:39:36Z</time>
      </trkpt>
      <trkpt lat="59.8885427" lon="17.6586414">
        <ele>21.767</ele>
        <time>2013-05-30T20:39:37Z</time>
      </trkpt>
      <trkpt lat="59.8885889" lon="17.6585172">
        <ele>21.767</ele>
        <time>2013-05-30T20:39:38Z</time>
      </trkpt>
      <trkpt lat="59.8886356" lon="17.6583929">
        <ele>22.2476</ele>
        <time>2013-05-30T20:39:39Z</time>
      </trkpt>
      <trkpt lat="59.8886816" lon="17.6582666">
        <ele>22.2476</ele>
        <time>2013-05-30T20:39:40Z</time>
      </trkpt>
      <trkpt lat="59.8887275" lon="17.6581413">
        <ele>22.2476</ele>
        <time>2013-05-30T20:39:41Z</time>
      </trkpt>
      <trkpt lat="59.8887749" lon="17.6580186">
        <ele>22.7283</ele>
        <time>2013-05-30T20:39:42Z</time>
      </trkpt>
      <trkpt lat="59.8888224" lon="17.6578966">
        <ele>22.7283</ele>
        <time>2013-05-30T20:39:43Z</time>
      </trkpt>
      <trkpt lat="59.8888685" lon="17.6577729">
        <ele>22.7283</ele>
        <time>2013-05-30T20:39:44Z</time>
      </trkpt>
      <trkpt lat="59.8889137" lon="17.6576486">
        <ele>23.209</ele>
        <time>2013-05-30T20:39:45Z</time>
      </trkpt>
      <trkpt lat="59.8889566" lon="17.6575218">
        <ele>23.209</ele>
        <time>2013-05-30T20:39:46Z</time>
      </trkpt>
      <trkpt lat="59.8889997" lon="17.6573963">
        <ele>23.209</ele>
        <time>2013-05-30T20:39:47Z</time>
      </trkpt>
      <trkpt lat="59.8890453" lon="17.6572741">
        <ele>23.6896</ele>
        <time>2013-05-30T20:39:48Z</time>
      </trkpt>
      <trkpt lat="59.8890913" lon="17.6571527">
        <ele>23.6896</ele>
        <time>2013-05-30T20:39:49Z</time>
      </trkpt>
      <trkpt lat="59.889137" lon="17.6570306">
        <ele>23.6896</ele>
        <time>2013-05-30T20:39:50Z</time>
      </trkpt>
      <trkpt lat="59.8891824" lon="17.6569082">
        <ele>23.6896</ele>
        <time>2013-05-30T20:39:51Z</time>
      </trkpt>
      <trkpt lat="59.8892271" lon="17.6567852">
        <ele>23.6896</ele>
        <time>2013-05-30T20:39:52Z</time>
      </trkpt>
      <trkpt lat="59.8892715" lon="17.6566618">
        <ele>23.6896</ele>
        <time>2013-05-30T20:39:53Z</time>
      </trkpt>
      <trkpt lat="59.8893158" lon="17.6565391">
        <ele>23.6896</ele>
        <time>2013-05-30T20:39:54Z</time>
      </trkpt>
      <trkpt lat="59.8893619" lon="17.6564186">
        <ele>24.1703</ele>
        <time>2013-05-30T20:39:55Z</time>
      </trkpt>
      <trkpt lat="59.8894082" lon="17.6562944">
        <ele>23.209</ele>
        <time>2013-05-30T20:39:56Z</time>
      </trkpt>
      <trkpt lat="59.8894541" lon="17.6561695">
        <ele>22.7283</ele>
        <time>2013-05-30T20:39:57Z</time>
      </trkpt>
      <trkpt lat="59.8894996" lon="17.6560447">
        <ele>22.2476</ele>
        <time>2013-05-30T20:39:58Z</time>
      </trkpt>
      <trkpt lat="59.8895437" lon="17.6559184">
        <ele>21.767</ele>
        <time>2013-05-30T20:39:59Z</time>
      </trkpt>
      <trkpt lat="59.8895885" lon="17.6557966">
        <ele>22.2476</ele>
        <time>2013-05-30T20:40:00Z</time>
      </trkpt>
      <trkpt lat="59.8896333" lon="17.6556753">
        <ele>22.2476</ele>
        <time>2013-05-30T20:40:01Z</time>
      </trkpt>
      <trkpt lat="59.8896788" lon="17.6555531">
        <ele>22.2476</ele>
        <time>2013-05-30T20:40:02Z</time>
      </trkpt>
      <trkpt lat="59.8897247" lon="17.6554319">
        <ele>22.2476</ele>
        <time>2013-05-30T20:40:03Z</time>
      </trkpt>
      <trkpt lat="59.8897704" lon="17.6553103">
        <ele>22.7283</ele>
        <time>2013-05-30T20:40:04Z</time>
      </trkpt>
      <trkpt lat="59.8898159" lon="17.6551869">
        <ele>22.7283</ele>
        <time>2013-05-30T20:40:05Z</time>
      </trkpt>
      <trkpt lat="59.8898611" lon="17.6550616">
        <ele>23.209</ele>
        <time>2013-05-30T20:40:06Z</time>
      </trkpt>
      <trkpt lat="59.8899065" lon="17.6549361">
        <ele>23.209</ele>
        <time>2013-05-30T20:40:07Z</time>
      </trkpt>
      <trkpt lat="59.8899523" lon="17.6548107">
        <ele>23.209</ele>
        <time>2013-05-30T20:40:08Z</time>
      </trkpt>
      <trkpt lat="59.8899982" lon="17.6546855">
        <ele>23.209</ele>
        <time>2013-05-30T20:40:09Z</time>
      </trkpt>
      <trkpt lat="59.8900444" lon="17.6545586">
        <ele>22.7283</ele>
        <time>2013-05-30T20:40:10Z</time>
      </trkpt>
      <trkpt lat="59.8900899" lon="17.6544307">
        <ele>22.7283</ele>
        <time>2013-05-30T20:40:11Z</time>
      </trkpt>
      <trkpt lat="59.8901355" lon="17.6543027">
        <ele>22.2476</ele>
        <time>2013-05-30T20:40:12Z</time>
      </trkpt>
      <trkpt lat="59.8901807" lon="17.6541753">
        <ele>22.2476</ele>
        <time>2013-05-30T20:40:13Z</time>
      </trkpt>
      <trkpt lat="59.8902258" lon="17.6540482">
        <ele>22.2476</ele>
        <time>2013-05-30T20:40:14Z</time>
      </trkpt>
      <trkpt lat="59.8902718" lon="17.6539221">
        <ele>22.2476</ele>
        <time>2013-05-30T20:40:15Z</time>
      </trkpt>
      <trkpt lat="59.890318" lon="17.6537965">
        <ele>22.7283</ele>
        <time>2013-05-30T20:40:16Z</time>
      </trkpt>
      <trkpt lat="59.8903641" lon="17.6536729">
        <ele>22.7283</ele>
        <time>2013-05-30T20:40:17Z</time>
      </trkpt>
      <trkpt lat="59.8904097" lon="17.6535518">
        <ele>22.7283</ele>
        <time>2013-05-30T20:40:18Z</time>
      </trkpt>
      <trkpt lat="59.8904521" lon="17.653419">
        <ele>22.7283</ele>
        <time>2013-05-30T20:40:19Z</time>
      </trkpt>
      <trkpt lat="59.8904942" lon="17.653288">
        <ele>22.2476</ele>
        <time>2013-05-30T20:40:20Z</time>
      </trkpt>
      <trkpt lat="59.8905364" lon="17.65316">
        <ele>22.2476</ele>
        <time>2013-05-30T20:40:21Z</time>
      </trkpt>
      <trkpt lat="59.89058" lon="17.6530409">
        <ele>22.2476</ele>
        <time>2013-05-30T20:40:22Z</time>
      </trkpt>
      <trkpt lat="59.8906237" lon="17.6529231">
        <ele>22.2476</ele>
        <time>2013-05-30T20:40:23Z</time>
      </trkpt>
      <trkpt lat="59.8906677" lon="17.6528057">
        <ele>22.7283</ele>
        <time>2013-05-30T20:40:24Z</time>
      </trkpt>
      <trkpt lat="59.8907103" lon="17.6526861">
        <ele>22.7283</ele>
        <time>2013-05-30T20:40:25Z</time>
      </trkpt>
      <trkpt lat="59.890747" lon="17.6525527">
        <ele>22.7283</ele>
        <time>2013-05-30T20:40:26Z</time>
      </trkpt>
      <trkpt lat="59.8907879" lon="17.6524369">
        <ele>22.7283</ele>
        <time>2013-05-30T20:40:27Z</time>
      </trkpt>
      <trkpt lat="59.8908393" lon="17.6523162">
        <ele>22.7283</ele>
        <time>2013-05-30T20:40:28Z</time>
      </trkpt>
      <trkpt lat="59.890884" lon="17.6522079">
        <ele>22.7283</ele>
        <time>2013-05-30T20:40:29Z</time>
      </trkpt>
      <trkpt lat="59.8909277" lon="17.6521017">
        <ele>23.209</ele>
        <time>2013-05-30T20:40:30Z</time>
      </trkpt>
      <trkpt lat="59.8909674" lon="17.651999">
        <ele>23.6896</ele>
        <time>2013-05-30T20:40:31Z</time>
      </trkpt>
      <trkpt lat="59.8910091" lon="17.651895">
        <ele>23.6896</ele>
        <time>2013-05-30T20:40:32Z</time>
      </trkpt>
      <trkpt lat="59.891053" lon="17.6518038">
        <ele>23.6896</ele>
        <time>2013-05-30T20:40:33Z</time>
      </trkpt>
      <trkpt lat="59.8910943" lon="17.6517025">
        <ele>24.1703</ele>
        <time>2013-05-30T20:40:34Z</time>
      </trkpt>
      <trkpt lat="59.8911347" lon="17.6515977">
        <ele>24.1703</ele>
        <time>2013-05-30T20:40:35Z</time>
      </trkpt>
      <trkpt lat="59.8911738" lon="17.6514918">
        <ele>24.1703</ele>
        <time>2013-05-30T20:40:36Z</time>
      </trkpt>
      <trkpt lat="59.891215" lon="17.6513874">
        <ele>24.1703</ele>
        <time>2013-05-30T20:40:37Z</time>
      </trkpt>
      <trkpt lat="59.8912523" lon="17.6512789">
        <ele>24.1703</ele>
        <time>2013-05-30T20:40:38Z</time>
      </trkpt>
      <trkpt lat="59.8912892" lon="17.6511699">
        <ele>24.651</ele>
        <time>2013-05-30T20:40:39Z</time>
      </trkpt>
      <trkpt lat="59.8913261" lon="17.6510611">
        <ele>24.651</ele>
        <time>2013-05-30T20:40:40Z</time>
      </trkpt>
      <trkpt lat="59.8913623" lon="17.6509508">
        <ele>24.651</ele>
        <time>2013-05-30T20:40:41Z</time>
      </trkpt>
      <trkpt lat="59.8913969" lon="17.6508378">
        <ele>24.651</ele>
        <time>2013-05-30T20:40:42Z</time>
      </trkpt>
      <trkpt lat="59.8914312" lon="17.6507237">
        <ele>24.651</ele>
        <time>2013-05-30T20:40:43Z</time>
      </trkpt>
      <trkpt lat="59.8914658" lon="17.6506084">
        <ele>24.651</ele>
        <time>2013-05-30T20:40:44Z</time>
      </trkpt>
      <trkpt lat="59.8915" lon="17.6504921">
        <ele>24.651</ele>
        <time>2013-05-30T20:40:45Z</time>
      </trkpt>
      <trkpt lat="59.8915332" lon="17.6503733">
        <ele>25.1317</ele>
        <time>2013-05-30T20:40:46Z</time>
      </trkpt>
      <trkpt lat="59.8915664" lon="17.6502531">
        <ele>25.1317</ele>
        <time>2013-05-30T20:40:47Z</time>
      </trkpt>
      <trkpt lat="59.8916006" lon="17.6501319">
        <ele>25.1317</ele>
        <time>2013-05-30T20:40:48Z</time>
      </trkpt>
      <trkpt lat="59.8916343" lon="17.6500095">
        <ele>25.1317</ele>
        <time>2013-05-30T20:40:49Z</time>
      </trkpt>
      <trkpt lat="59.8916667" lon="17.6498846">
        <ele>25.1317</ele>
        <time>2013-05-30T20:40:50Z</time>
      </trkpt>
      <trkpt lat="59.891697" lon="17.6497583">
        <ele>25.1317</ele>
        <time>2013-05-30T20:40:51Z</time>
      </trkpt>
      <trkpt lat="59.8917261" lon="17.6496314">
        <ele>25.1317</ele>
        <time>2013-05-30T20:40:52Z</time>
      </trkpt>
      <trkpt lat="59.891755" lon="17.6495033">
        <ele>25.1317</ele>
        <time>2013-05-30T20:40:53Z</time>
      </trkpt>
      <trkpt lat="59.8917834" lon="17.6493758">
        <ele>25.1317</ele>
        <time>2013-05-30T20:40:54Z</time>
      </trkpt>
      <trkpt lat="59.8918099" lon="17.6492483">
        <ele>25.1317</ele>
        <time>2013-05-30T20:40:55Z</time>
      </trkpt>
      <trkpt lat="59.8918348" lon="17.6491216">
        <ele>25.6123</ele>
        <time>2013-05-30T20:40:56Z</time>
      </trkpt>
      <trkpt lat="59.8918606" lon="17.6489943">
        <ele>25.6123</ele>
        <time>2013-05-30T20:40:57Z</time>
      </trkpt>
      <trkpt lat="59.891886" lon="17.6488651">
        <ele>25.6123</ele>
        <time>2013-05-30T20:40:58Z</time>
      </trkpt>
      <trkpt lat="59.8919109" lon="17.6487343">
        <ele>25.1317</ele>
        <time>2013-05-30T20:40:59Z</time>
      </trkpt>
      <trkpt lat="59.8919358" lon="17.6486015">
        <ele>24.651</ele>
        <time>2013-05-30T20:41:00Z</time>
      </trkpt>
      <trkpt lat="59.8919596" lon="17.6484636">
        <ele>24.651</ele>
        <time>2013-05-30T20:41:01Z</time>
      </trkpt>
      <trkpt lat="59.8919828" lon="17.6483264">
        <ele>25.1317</ele>
        <time>2013-05-30T20:41:02Z</time>
      </trkpt>
      <trkpt lat="59.8920086" lon="17.6481843">
        <ele>25.6123</ele>
        <time>2013-05-30T20:41:03Z</time>
      </trkpt>
      <trkpt lat="59.8920372" lon="17.6480354">
        <ele>25.6123</ele>
        <time>2013-05-30T20:41:04Z</time>
      </trkpt>
      <trkpt lat="59.8920632" lon="17.6478846">
        <ele>26.0929</ele>
        <time>2013-05-30T20:41:05Z</time>
      </trkpt>
      <trkpt lat="59.8920855" lon="17.6477345">
        <ele>26.5736</ele>
        <time>2013-05-30T20:41:06Z</time>
      </trkpt>
      <trkpt lat="59.8921072" lon="17.6475832">
        <ele>27.0543</ele>
        <time>2013-05-30T20:41:07Z</time>
      </trkpt>
      <trkpt lat="59.8921296" lon="17.6474284">
        <ele>28.0155</ele>
        <time>2013-05-30T20:41:08Z</time>
      </trkpt>
      <trkpt lat="59.8921503" lon="17.6472695">
        <ele>28.0155</ele>
        <time>2013-05-30T20:41:09Z</time>
      </trkpt>
      <trkpt lat="59.8921715" lon="17.6471129">
        <ele>29.4575</ele>
        <time>2013-05-30T20:41:10Z</time>
      </trkpt>
      <trkpt lat="59.8921907" lon="17.6469554">
        <ele>29.9381</ele>
        <time>2013-05-30T20:41:11Z</time>
      </trkpt>
      <trkpt lat="59.8922094" lon="17.6467963">
        <ele>29.9381</ele>
        <time>2013-05-30T20:41:12Z</time>
      </trkpt>
      <trkpt lat="59.8922249" lon="17.6466366">
        <ele>29.9381</ele>
        <time>2013-05-30T20:41:13Z</time>
      </trkpt>
      <trkpt lat="59.8922383" lon="17.6464811">
        <ele>30.4188</ele>
        <time>2013-05-30T20:41:14Z</time>
      </trkpt>
      <trkpt lat="59.8922516" lon="17.6463295">
        <ele>30.4188</ele>
        <time>2013-05-30T20:41:15Z</time>
      </trkpt>
      <trkpt lat="59.8922669" lon="17.6461794">
        <ele>30.4188</ele>
        <time>2013-05-30T20:41:16Z</time>
      </trkpt>
      <trkpt lat="59.8922844" lon="17.6460277">
        <ele>30.4188</ele>
        <time>2013-05-30T20:41:17Z</time>
      </trkpt>
      <trkpt lat="59.8923029" lon="17.6458776">
        <ele>30.4188</ele>
        <time>2013-05-30T20:41:18Z</time>
      </trkpt>
      <trkpt lat="59.8923207" lon="17.645728">
        <ele>30.8995</ele>
        <time>2013-05-30T20:41:19Z</time>
      </trkpt>
      <trkpt lat="59.8923371" lon="17.6455775">
        <ele>31.3801</ele>
        <time>2013-05-30T20:41:20Z</time>
      </trkpt>
      <trkpt lat="59.8923533" lon="17.6454275">
        <ele>31.8607</ele>
        <time>2013-05-30T20:41:21Z</time>
      </trkpt>
      <trkpt lat="59.8923709" lon="17.6452785">
        <ele>32.3416</ele>
        <time>2013-05-30T20:41:22Z</time>
      </trkpt>
      <trkpt lat="59.8923879" lon="17.6451288">
        <ele>32.8223</ele>
        <time>2013-05-30T20:41:23Z</time>
      </trkpt>
      <trkpt lat="59.892405" lon="17.6449791">
        <ele>33.3029</ele>
        <time>2013-05-30T20:41:24Z</time>
      </trkpt>
      <trkpt lat="59.8924209" lon="17.6448278">
        <ele>32.8223</ele>
        <time>2013-05-30T20:41:25Z</time>
      </trkpt>
      <trkpt lat="59.8924362" lon="17.6446761">
        <ele>33.3029</ele>
        <time>2013-05-30T20:41:26Z</time>
      </trkpt>
      <trkpt lat="59.8924498" lon="17.6445191">
        <ele>33.3029</ele>
        <time>2013-05-30T20:41:27Z</time>
      </trkpt>
      <trkpt lat="59.8924637" lon="17.6443578">
        <ele>32.8223</ele>
        <time>2013-05-30T20:41:28Z</time>
      </trkpt>
      <trkpt lat="59.892477" lon="17.6441948">
        <ele>32.3416</ele>
        <time>2013-05-30T20:41:29Z</time>
      </trkpt>
      <trkpt lat="59.8924922" lon="17.6440394">
        <ele>32.3416</ele>
        <time>2013-05-30T20:41:30Z</time>
      </trkpt>
      <trkpt lat="59.8925087" lon="17.6438871">
        <ele>32.3416</ele>
        <time>2013-05-30T20:41:31Z</time>
      </trkpt>
      <trkpt lat="59.8925248" lon="17.6437354">
        <ele>32.8223</ele>
        <time>2013-05-30T20:41:32Z</time>
      </trkpt>
      <trkpt lat="59.8925413" lon="17.6435846">
        <ele>32.8223</ele>
        <time>2013-05-30T20:41:33Z</time>
      </trkpt>
      <trkpt lat="59.8925575" lon="17.6434353">
        <ele>32.8223</ele>
        <time>2013-05-30T20:41:34Z</time>
      </trkpt>
      <trkpt lat="59.8925734" lon="17.643285">
        <ele>33.3029</ele>
        <time>2013-05-30T20:41:35Z</time>
      </trkpt>
      <trkpt lat="59.8925904" lon="17.6431334">
        <ele>32.8223</ele>
        <time>2013-05-30T20:41:36Z</time>
      </trkpt>
      <trkpt lat="59.8926067" lon="17.6429806">
        <ele>32.8223</ele>
        <time>2013-05-30T20:41:37Z</time>
      </trkpt>
      <trkpt lat="59.8926233" lon="17.6428288">
        <ele>32.8223</ele>
        <time>2013-05-30T20:41:38Z</time>
      </trkpt>
      <trkpt lat="59.8926385" lon="17.6426745">
        <ele>32.8223</ele>
        <time>2013-05-30T20:41:39Z</time>
      </trkpt>
      <trkpt lat="59.8926525" lon="17.6425216">
        <ele>32.8223</ele>
        <time>2013-05-30T20:41:40Z</time>
      </trkpt>
      <trkpt lat="59.8926649" lon="17.6423688">
        <ele>32.8223</ele>
        <time>2013-05-30T20:41:41Z</time>
      </trkpt>
      <trkpt lat="59.8926729" lon="17.6422158">
        <ele>33.3029</ele>
        <time>2013-05-30T20:41:42Z</time>
      </trkpt>
      <trkpt lat="59.8926786" lon="17.6420649">
        <ele>33.3029</ele>
        <time>2013-05-30T20:41:43Z</time>
      </trkpt>
      <trkpt lat="59.8926853" lon="17.6419115">
        <ele>33.3029</ele>
        <time>2013-05-30T20:41:44Z</time>
      </trkpt>
      <trkpt lat="59.8926913" lon="17.6417566">
        <ele>33.3029</ele>
        <time>2013-05-30T20:41:45Z</time>
      </trkpt>
      <trkpt lat="59.8926989" lon="17.6416039">
        <ele>33.3029</ele>
        <time>2013-05-30T20:41:46Z</time>
      </trkpt>
      <trkpt lat="59.8927057" lon="17.6414515">
        <ele>33.7834</ele>
        <time>2013-05-30T20:41:47Z</time>
      </trkpt>
      <trkpt lat="59.8927136" lon="17.6413032">
        <ele>33.7834</ele>
        <time>2013-05-30T20:41:48Z</time>
      </trkpt>
      <trkpt lat="59.8927217" lon="17.6411565">
        <ele>33.7834</ele>
        <time>2013-05-30T20:41:49Z</time>
      </trkpt>
      <trkpt lat="59.8927294" lon="17.6410092">
        <ele>34.2642</ele>
        <time>2013-05-30T20:41:50Z</time>
      </trkpt>
      <trkpt lat="59.8927372" lon="17.6408625">
        <ele>34.2642</ele>
        <time>2013-05-30T20:41:51Z</time>
      </trkpt>
      <trkpt lat="59.8927468" lon="17.6407193">
        <ele>34.2642</ele>
        <time>2013-05-30T20:41:52Z</time>
      </trkpt>
      <trkpt lat="59.8927563" lon="17.6405787">
        <ele>34.2642</ele>
        <time>2013-05-30T20:41:53Z</time>
      </trkpt>
      <trkpt lat="59.8927654" lon="17.6404386">
        <ele>34.7449</ele>
        <time>2013-05-30T20:41:54Z</time>
      </trkpt>
      <trkpt lat="59.8927723" lon="17.6402977">
        <ele>35.2255</ele>
        <time>2013-05-30T20:41:55Z</time>
      </trkpt>
      <trkpt lat="59.892773" lon="17.6401486">
        <ele>34.7449</ele>
        <time>2013-05-30T20:41:56Z</time>
      </trkpt>
      <trkpt lat="59.8927737" lon="17.6400062">
        <ele>34.7449</ele>
        <time>2013-05-30T20:41:57Z</time>
      </trkpt>
      <trkpt lat="59.8927747" lon="17.6398632">
        <ele>34.7449</ele>
        <time>2013-05-30T20:41:58Z</time>
      </trkpt>
      <trkpt lat="59.892776" lon="17.639724">
        <ele>35.2255</ele>
        <time>2013-05-30T20:41:59Z</time>
      </trkpt>
      <trkpt lat="59.892777" lon="17.6395857">
        <ele>35.2255</ele>
        <time>2013-05-30T20:42:00Z</time>
      </trkpt>
      <trkpt lat="59.8927775" lon="17.6394447">
        <ele>35.2255</ele>
        <time>2013-05-30T20:42:01Z</time>
      </trkpt>
      <trkpt lat="59.8927775" lon="17.6393021">
        <ele>35.2255</ele>
        <time>2013-05-30T20:42:02Z</time>
      </trkpt>
      <trkpt lat="59.8927784" lon="17.6391627">
        <ele>35.7061</ele>
        <time>2013-05-30T20:42:03Z</time>
      </trkpt>
      <trkpt lat="59.8927787" lon="17.6390254">
        <ele>35.7061</ele>
        <time>2013-05-30T20:42:04Z</time>
      </trkpt>
      <trkpt lat="59.8927775" lon="17.6388885">
        <ele>35.7061</ele>
        <time>2013-05-30T20:42:05Z</time>
      </trkpt>
      <trkpt lat="59.8927795" lon="17.6387522">
        <ele>36.1868</ele>
        <time>2013-05-30T20:42:06Z</time>
      </trkpt>
      <trkpt lat="59.8927892" lon="17.6386163">
        <ele>36.1868</ele>
        <time>2013-05-30T20:42:07Z</time>
      </trkpt>
      <trkpt lat="59.8928117" lon="17.6384853">
        <ele>36.6675</ele>
        <time>2013-05-30T20:42:08Z</time>
      </trkpt>
      <trkpt lat="59.8928443" lon="17.6383532">
        <ele>36.6675</ele>
        <time>2013-05-30T20:42:09Z</time>
      </trkpt>
      <trkpt lat="59.8928949" lon="17.6382626">
        <ele>36.6675</ele>
        <time>2013-05-30T20:42:10Z</time>
      </trkpt>
      <trkpt lat="59.8929599" lon="17.638204">
        <ele>36.6675</ele>
        <time>2013-05-30T20:42:11Z</time>
      </trkpt>
      <trkpt lat="59.8930298" lon="17.6381754">
        <ele>36.6675</ele>
        <time>2013-05-30T20:42:12Z</time>
      </trkpt>
      <trkpt lat="59.8930999" lon="17.6381467">
        <ele>37.1481</ele>
        <time>2013-05-30T20:42:13Z</time>
      </trkpt>
      <trkpt lat="59.8931697" lon="17.6381145">
        <ele>37.1481</ele>
        <time>2013-05-30T20:42:14Z</time>
      </trkpt>
      <trkpt lat="59.8932386" lon="17.6380739">
        <ele>37.1481</ele>
        <time>2013-05-30T20:42:15Z</time>
      </trkpt>
      <trkpt lat="59.893307" lon="17.6380438">
        <ele>37.6287</ele>
        <time>2013-05-30T20:42:16Z</time>
      </trkpt>
      <trkpt lat="59.8933748" lon="17.6380129">
        <ele>37.6287</ele>
        <time>2013-05-30T20:42:17Z</time>
      </trkpt>
      <trkpt lat="59.8934443" lon="17.6379756">
        <ele>37.6287</ele>
        <time>2013-05-30T20:42:18Z</time>
      </trkpt>
      <trkpt lat="59.8935146" lon="17.6379257">
        <ele>38.1094</ele>
        <time>2013-05-30T20:42:19Z</time>
      </trkpt>
      <trkpt lat="59.8935844" lon="17.6378777">
        <ele>38.1094</ele>
        <time>2013-05-30T20:42:20Z</time>
      </trkpt>
      <trkpt lat="59.8936523" lon="17.637827">
        <ele>38.1094</ele>
        <time>2013-05-30T20:42:21Z</time>
      </trkpt>
      <trkpt lat="59.8937161" lon="17.637784">
        <ele>37.6287</ele>
        <time>2013-05-30T20:42:22Z</time>
      </trkpt>
      <trkpt lat="59.8937779" lon="17.6377333">
        <ele>37.6287</ele>
        <time>2013-05-30T20:42:23Z</time>
      </trkpt>
      <trkpt lat="59.8938387" lon="17.637686">
        <ele>37.6287</ele>
        <time>2013-05-30T20:42:24Z</time>
      </trkpt>
      <trkpt lat="59.8939023" lon="17.6376439">
        <ele>37.1481</ele>
        <time>2013-05-30T20:42:25Z</time>
      </trkpt>
      <trkpt lat="59.8939659" lon="17.6376043">
        <ele>37.1481</ele>
        <time>2013-05-30T20:42:26Z</time>
      </trkpt>
      <trkpt lat="59.8940275" lon="17.6375576">
        <ele>36.1868</ele>
        <time>2013-05-30T20:42:27Z</time>
      </trkpt>
      <trkpt lat="59.8940898" lon="17.6375093">
        <ele>35.2255</ele>
        <time>2013-05-30T20:42:28Z</time>
      </trkpt>
      <trkpt lat="59.8941535" lon="17.6374673">
        <ele>34.7449</ele>
        <time>2013-05-30T20:42:29Z</time>
      </trkpt>
      <trkpt lat="59.8942188" lon="17.6374192">
        <ele>34.2642</ele>
        <time>2013-05-30T20:42:30Z</time>
      </trkpt>
      <trkpt lat="59.8942832" lon="17.6373805">
        <ele>33.3029</ele>
        <time>2013-05-30T20:42:31Z</time>
      </trkpt>
      <trkpt lat="59.8943482" lon="17.6373313">
        <ele>33.7834</ele>
        <time>2013-05-30T20:42:32Z</time>
      </trkpt>
      <trkpt lat="59.8944133" lon="17.6372867">
        <ele>33.3029</ele>
        <time>2013-05-30T20:42:33Z</time>
      </trkpt>
      <trkpt lat="59.8944809" lon="17.6372463">
        <ele>33.3029</ele>
        <time>2013-05-30T20:42:34Z</time>
      </trkpt>
      <trkpt lat="59.8945443" lon="17.6372037">
        <ele>33.3029</ele>
        <time>2013-05-30T20:42:35Z</time>
      </trkpt>
      <trkpt lat="59.8946078" lon="17.6371577">
        <ele>33.7834</ele>
        <time>2013-05-30T20:42:36Z</time>
      </trkpt>
      <trkpt lat="59.8946785" lon="17.6371197">
        <ele>33.7834</ele>
        <time>2013-05-30T20:42:37Z</time>
      </trkpt>
      <trkpt lat="59.8947465" lon="17.6370862">
        <ele>33.3029</ele>
        <time>2013-05-30T20:42:38Z</time>
      </trkpt>
      <trkpt lat="59.8948134" lon="17.6370531">
        <ele>32.3416</ele>
        <time>2013-05-30T20:42:39Z</time>
      </trkpt>
      <trkpt lat="59.8948796" lon="17.6370179">
        <ele>31.8607</ele>
        <time>2013-05-30T20:42:40Z</time>
      </trkpt>
      <trkpt lat="59.8949459" lon="17.636979">
        <ele>31.3801</ele>
        <time>2013-05-30T20:42:41Z</time>
      </trkpt>
      <trkpt lat="59.8950147" lon="17.6369287">
        <ele>32.3416</ele>
        <time>2013-05-30T20:42:42Z</time>
      </trkpt>
      <trkpt lat="59.8950814" lon="17.6368831">
        <ele>32.3416</ele>
        <time>2013-05-30T20:42:43Z</time>
      </trkpt>
      <trkpt lat="59.8951494" lon="17.6368325">
        <ele>32.8223</ele>
        <time>2013-05-30T20:42:44Z</time>
      </trkpt>
      <trkpt lat="59.8952152" lon="17.636793">
        <ele>33.3029</ele>
        <time>2013-05-30T20:42:45Z</time>
      </trkpt>
      <trkpt lat="59.8952802" lon="17.6367593">
        <ele>32.8223</ele>
        <time>2013-05-30T20:42:46Z</time>
      </trkpt>
      <trkpt lat="59.8953501" lon="17.6367225">
        <ele>33.3029</ele>
        <time>2013-05-30T20:42:47Z</time>
      </trkpt>
      <trkpt lat="59.8954166" lon="17.6366833">
        <ele>33.7834</ele>
        <time>2013-05-30T20:42:48Z</time>
      </trkpt>
      <trkpt lat="59.895485" lon="17.6366366">
        <ele>34.7449</ele>
        <time>2013-05-30T20:42:49Z</time>
      </trkpt>
      <trkpt lat="59.8955534" lon="17.6365977">
        <ele>35.2255</ele>
        <time>2013-05-30T20:42:50Z</time>
      </trkpt>
      <trkpt lat="59.8956262" lon="17.63656">
        <ele>36.1868</ele>
        <time>2013-05-30T20:42:51Z</time>
      </trkpt>
      <trkpt lat="59.8956991" lon="17.6365284">
        <ele>37.1481</ele>
        <time>2013-05-30T20:42:52Z</time>
      </trkpt>
      <trkpt lat="59.8957714" lon="17.6365059">
        <ele>38.1094</ele>
        <time>2013-05-30T20:42:53Z</time>
      </trkpt>
      <trkpt lat="59.8958432" lon="17.636491">
        <ele>38.1094</ele>
        <time>2013-05-30T20:42:54Z</time>
      </trkpt>
      <trkpt lat="59.8959147" lon="17.6364816">
        <ele>37.1481</ele>
        <time>2013-05-30T20:42:55Z</time>
      </trkpt>
      <trkpt lat="59.8959851" lon="17.6364905">
        <ele>37.1481</ele>
        <time>2013-05-30T20:42:56Z</time>
      </trkpt>
      <trkpt lat="59.8960556" lon="17.6365027">
        <ele>36.1868</ele>
        <time>2013-05-30T20:42:57Z</time>
      </trkpt>
      <trkpt lat="59.8961271" lon="17.6365221">
        <ele>34.7449</ele>
        <time>2013-05-30T20:42:58Z</time>
      </trkpt>
      <trkpt lat="59.8961985" lon="17.6365471">
        <ele>33.7834</ele>
        <time>2013-05-30T20:42:59Z</time>
      </trkpt>
      <trkpt lat="59.896269" lon="17.636576">
        <ele>32.8223</ele>
        <time>2013-05-30T20:43:00Z</time>
      </trkpt>
      <trkpt lat="59.8963394" lon="17.6366102">
        <ele>32.3416</ele>
        <time>2013-05-30T20:43:01Z</time>
      </trkpt>
      <trkpt lat="59.8964103" lon="17.6366459">
        <ele>31.3801</ele>
        <time>2013-05-30T20:43:02Z</time>
      </trkpt>
      <trkpt lat="59.8964823" lon="17.6366785">
        <ele>30.4188</ele>
        <time>2013-05-30T20:43:03Z</time>
      </trkpt>
      <trkpt lat="59.8965565" lon="17.6367055">
        <ele>30.4188</ele>
        <time>2013-05-30T20:43:04Z</time>
      </trkpt>
      <trkpt lat="59.896631" lon="17.6367339">
        <ele>29.9381</ele>
        <time>2013-05-30T20:43:05Z</time>
      </trkpt>
      <trkpt lat="59.8967065" lon="17.6367614">
        <ele>29.9381</ele>
        <time>2013-05-30T20:43:06Z</time>
      </trkpt>
      <trkpt lat="59.8967821" lon="17.6367904">
        <ele>29.4575</ele>
        <time>2013-05-30T20:43:07Z</time>
      </trkpt>
      <trkpt lat="59.8968575" lon="17.6368208">
        <ele>29.4575</ele>
        <time>2013-05-30T20:43:08Z</time>
      </trkpt>
      <trkpt lat="59.8969329" lon="17.6368537">
        <ele>29.4575</ele>
        <time>2013-05-30T20:43:09Z</time>
      </trkpt>
      <trkpt lat="59.8970082" lon="17.6368838">
        <ele>28.4962</ele>
        <time>2013-05-30T20:43:10Z</time>
      </trkpt>
      <trkpt lat="59.8970872" lon="17.6369055">
        <ele>28.0155</ele>
        <time>2013-05-30T20:43:11Z</time>
      </trkpt>
      <trkpt lat="59.8971681" lon="17.6369404">
        <ele>28.0155</ele>
        <time>2013-05-30T20:43:12Z</time>
      </trkpt>
      <trkpt lat="59.8972509" lon="17.636983">
        <ele>27.5349</ele>
        <time>2013-05-30T20:43:13Z</time>
      </trkpt>
      <trkpt lat="59.8973343" lon="17.6370298">
        <ele>27.5349</ele>
        <time>2013-05-30T20:43:14Z</time>
      </trkpt>
      <trkpt lat="59.8974179" lon="17.6370832">
        <ele>27.5349</ele>
        <time>2013-05-30T20:43:15Z</time>
      </trkpt>
      <trkpt lat="59.8975027" lon="17.6371363">
        <ele>27.0543</ele>
        <time>2013-05-30T20:43:16Z</time>
      </trkpt>
      <trkpt lat="59.8975866" lon="17.6371934">
        <ele>27.0543</ele>
        <time>2013-05-30T20:43:17Z</time>
      </trkpt>
      <trkpt lat="59.8976695" lon="17.6372583">
        <ele>26.5736</ele>
        <time>2013-05-30T20:43:18Z</time>
      </trkpt>
      <trkpt lat="59.8977485" lon="17.6373395">
        <ele>26.0929</ele>
        <time>2013-05-30T20:43:19Z</time>
      </trkpt>
      <trkpt lat="59.8978176" lon="17.6374497">
        <ele>25.6123</ele>
        <time>2013-05-30T20:43:20Z</time>
      </trkpt>
      <trkpt lat="59.8978778" lon="17.6375756">
        <ele>24.651</ele>
        <time>2013-05-30T20:43:21Z</time>
      </trkpt>
      <trkpt lat="59.8979426" lon="17.63769">
        <ele>24.1703</ele>
        <time>2013-05-30T20:43:22Z</time>
      </trkpt>
      <trkpt lat="59.8980134" lon="17.6377887">
        <ele>23.6896</ele>
        <time>2013-05-30T20:43:23Z</time>
      </trkpt>
      <trkpt lat="59.8980873" lon="17.6378725">
        <ele>23.6896</ele>
        <time>2013-05-30T20:43:24Z</time>
      </trkpt>
      <trkpt lat="59.8981633" lon="17.6379487">
        <ele>23.209</ele>
        <time>2013-05-30T20:43:25Z</time>
      </trkpt>
      <trkpt lat="59.8982403" lon="17.6380201">
        <ele>23.209</ele>
        <time>2013-05-30T20:43:26Z</time>
      </trkpt>
      <trkpt lat="59.8983176" lon="17.6380887">
        <ele>22.2476</ele>
        <time>2013-05-30T20:43:27Z</time>
      </trkpt>
      <trkpt lat="59.8983958" lon="17.6381528">
        <ele>21.2864</ele>
        <time>2013-05-30T20:43:28Z</time>
      </trkpt>
      <trkpt lat="59.8984741" lon="17.6382116">
        <ele>20.325</ele>
        <time>2013-05-30T20:43:29Z</time>
      </trkpt>
      <trkpt lat="59.8985523" lon="17.6382673">
        <ele>19.3638</ele>
        <time>2013-05-30T20:43:30Z</time>
      </trkpt>
      <trkpt lat="59.8986331" lon="17.6383066">
        <ele>18.4023</ele>
        <time>2013-05-30T20:43:31Z</time>
      </trkpt>
      <trkpt lat="59.8987202" lon="17.6383149">
        <ele>18.4023</ele>
        <time>2013-05-30T20:43:32Z</time>
      </trkpt>
      <trkpt lat="59.8988098" lon="17.6383005">
        <ele>18.8831</ele>
        <time>2013-05-30T20:43:33Z</time>
      </trkpt>
      <trkpt lat="59.8988973" lon="17.6383031">
        <ele>19.3638</ele>
        <time>2013-05-30T20:43:34Z</time>
      </trkpt>
      <trkpt lat="59.8989792" lon="17.6383512">
        <ele>19.8444</ele>
        <time>2013-05-30T20:43:35Z</time>
      </trkpt>
      <trkpt lat="59.8990579" lon="17.6384241">
        <ele>20.325</ele>
        <time>2013-05-30T20:43:36Z</time>
      </trkpt>
      <trkpt lat="59.8991356" lon="17.6385061">
        <ele>21.2864</ele>
        <time>2013-05-30T20:43:37Z</time>
      </trkpt>
      <trkpt lat="59.8992112" lon="17.6385914">
        <ele>21.767</ele>
        <time>2013-05-30T20:43:38Z</time>
      </trkpt>
      <trkpt lat="59.8992837" lon="17.6386885">
        <ele>21.2864</ele>
        <time>2013-05-30T20:43:39Z</time>
      </trkpt>
      <trkpt lat="59.8993584" lon="17.6387749">
        <ele>21.2864</ele>
        <time>2013-05-30T20:43:40Z</time>
      </trkpt>
      <trkpt lat="59.8994359" lon="17.6388522">
        <ele>22.2476</ele>
        <time>2013-05-30T20:43:41Z</time>
      </trkpt>
      <trkpt lat="59.8995141" lon="17.6389271">
        <ele>21.2864</ele>
        <time>2013-05-30T20:43:42Z</time>
      </trkpt>
      <trkpt lat="59.8995894" lon="17.6390014">
        <ele>20.8057</ele>
        <time>2013-05-30T20:43:43Z</time>
      </trkpt>
      <trkpt lat="59.899665" lon="17.6390777">
        <ele>20.325</ele>
        <time>2013-05-30T20:43:44Z</time>
      </trkpt>
      <trkpt lat="59.8997411" lon="17.6391544">
        <ele>19.8444</ele>
        <time>2013-05-30T20:43:45Z</time>
      </trkpt>
      <trkpt lat="59.8998168" lon="17.6392265">
        <ele>19.3638</ele>
        <time>2013-05-30T20:43:46Z</time>
      </trkpt>
      <trkpt lat="59.8998925" lon="17.639306">
        <ele>18.8831</ele>
        <time>2013-05-30T20:43:47Z</time>
      </trkpt>
      <trkpt lat="59.8999666" lon="17.6393788">
        <ele>19.3638</ele>
        <time>2013-05-30T20:43:48Z</time>
      </trkpt>
      <trkpt lat="59.9000409" lon="17.6394582">
        <ele>18.8831</ele>
        <time>2013-05-30T20:43:49Z</time>
      </trkpt>
      <trkpt lat="59.9001177" lon="17.6395399">
        <ele>18.8831</ele>
        <time>2013-05-30T20:43:50Z</time>
      </trkpt>
      <trkpt lat="59.900197" lon="17.6396222">
        <ele>17.9218</ele>
        <time>2013-05-30T20:43:51Z</time>
      </trkpt>
      <trkpt lat="59.9002766" lon="17.6397025">
        <ele>17.9218</ele>
        <time>2013-05-30T20:43:52Z</time>
      </trkpt>
      <trkpt lat="59.9003575" lon="17.6397813">
        <ele>18.4023</ele>
        <time>2013-05-30T20:43:53Z</time>
      </trkpt>
      <trkpt lat="59.900439" lon="17.6398625">
        <ele>18.4023</ele>
        <time>2013-05-30T20:43:54Z</time>
      </trkpt>
      <trkpt lat="59.9005209" lon="17.6399444">
        <ele>18.4023</ele>
        <time>2013-05-30T20:43:55Z</time>
      </trkpt>
      <trkpt lat="59.9006032" lon="17.6400263">
        <ele>18.4023</ele>
        <time>2013-05-30T20:43:56Z</time>
      </trkpt>
      <trkpt lat="59.9006861" lon="17.6401088">
        <ele>18.4023</ele>
        <time>2013-05-30T20:43:57Z</time>
      </trkpt>
      <trkpt lat="59.9007692" lon="17.6401906">
        <ele>17.9218</ele>
        <time>2013-05-30T20:43:58Z</time>
      </trkpt>
      <trkpt lat="59.9008507" lon="17.6402721">
        <ele>17.9218</ele>
        <time>2013-05-30T20:43:59Z</time>
      </trkpt>
      <trkpt lat="59.9009305" lon="17.6403518">
        <ele>17.9218</ele>
        <time>2013-05-30T20:44:00Z</time>
      </trkpt>
      <trkpt lat="59.9010092" lon="17.640431">
        <ele>17.4412</ele>
        <time>2013-05-30T20:44:01Z</time>
      </trkpt>
      <trkpt lat="59.9010853" lon="17.6405102">
        <ele>17.4412</ele>
        <time>2013-05-30T20:44:02Z</time>
      </trkpt>
      <trkpt lat="59.9011582" lon="17.6405853">
        <ele>18.4023</ele>
        <time>2013-05-30T20:44:03Z</time>
      </trkpt>
      <trkpt lat="59.9012311" lon="17.6406593">
        <ele>18.8831</ele>
        <time>2013-05-30T20:44:04Z</time>
      </trkpt>
      <trkpt lat="59.901306" lon="17.6407297">
        <ele>18.8831</ele>
        <time>2013-05-30T20:44:05Z</time>
      </trkpt>
      <trkpt lat="59.9013807" lon="17.6408003">
        <ele>18.8831</ele>
        <time>2013-05-30T20:44:06Z</time>
      </trkpt>
      <trkpt lat="59.9014546" lon="17.6408721">
        <ele>18.8831</ele>
        <time>2013-05-30T20:44:07Z</time>
      </trkpt>
      <trkpt lat="59.9015293" lon="17.6409402">
        <ele>19.3638</ele>
        <time>2013-05-30T20:44:08Z</time>
      </trkpt>
      <trkpt lat="59.9016044" lon="17.6410068">
        <ele>19.3638</ele>
        <time>2013-05-30T20:44:09Z</time>
      </trkpt>
      <trkpt lat="59.901679" lon="17.6410726">
        <ele>19.3638</ele>
        <time>2013-05-30T20:44:10Z</time>
      </trkpt>
      <trkpt lat="59.9017535" lon="17.641137">
        <ele>19.8444</ele>
        <time>2013-05-30T20:44:11Z</time>
      </trkpt>
      <trkpt lat="59.9018281" lon="17.6412003">
        <ele>20.325</ele>
        <time>2013-05-30T20:44:12Z</time>
      </trkpt>
      <trkpt lat="59.9019023" lon="17.6412639">
        <ele>20.8057</ele>
        <time>2013-05-30T20:44:13Z</time>
      </trkpt>
      <trkpt lat="59.9019767" lon="17.6413256">
        <ele>20.8057</ele>
        <time>2013-05-30T20:44:14Z</time>
      </trkpt>
      <trkpt lat="59.9020504" lon="17.6413844">
        <ele>21.2864</ele>
        <time>2013-05-30T20:44:15Z</time>
      </trkpt>
      <trkpt lat="59.902125" lon="17.6414385">
        <ele>21.2864</ele>
        <time>2013-05-30T20:44:16Z</time>
      </trkpt>
      <trkpt lat="59.9022006" lon="17.6414903">
        <ele>21.2864</ele>
        <time>2013-05-30T20:44:17Z</time>
      </trkpt>
      <trkpt lat="59.9022752" lon="17.6415431">
        <ele>21.2864</ele>
        <time>2013-05-30T20:44:18Z</time>
      </trkpt>
      <trkpt lat="59.9023484" lon="17.6415975">
        <ele>21.2864</ele>
        <time>2013-05-30T20:44:19Z</time>
      </trkpt>
      <trkpt lat="59.9024203" lon="17.6416541">
        <ele>21.767</ele>
        <time>2013-05-30T20:44:20Z</time>
      </trkpt>
      <trkpt lat="59.9024923" lon="17.6417084">
        <ele>21.767</ele>
        <time>2013-05-30T20:44:21Z</time>
      </trkpt>
      <trkpt lat="59.9025648" lon="17.6417556">
        <ele>21.767</ele>
        <time>2013-05-30T20:44:22Z</time>
      </trkpt>
      <trkpt lat="59.902638" lon="17.6417995">
        <ele>21.767</ele>
        <time>2013-05-30T20:44:23Z</time>
      </trkpt>
      <trkpt lat="59.9027109" lon="17.6418441">
        <ele>21.767</ele>
        <time>2013-05-30T20:44:24Z</time>
      </trkpt>
      <trkpt lat="59.902783" lon="17.6418883">
        <ele>21.767</ele>
        <time>2013-05-30T20:44:25Z</time>
      </trkpt>
      <trkpt lat="59.9028534" lon="17.6419315">
        <ele>21.767</ele>
        <time>2013-05-30T20:44:26Z</time>
      </trkpt>
      <trkpt lat="59.9029212" lon="17.6419731">
        <ele>21.2864</ele>
        <time>2013-05-30T20:44:27Z</time>
      </trkpt>
      <trkpt lat="59.9029875" lon="17.642014">
        <ele>20.8057</ele>
        <time>2013-05-30T20:44:28Z</time>
      </trkpt>
      <trkpt lat="59.9030537" lon="17.6420533">
        <ele>20.8057</ele>
        <time>2013-05-30T20:44:29Z</time>
      </trkpt>
      <trkpt lat="59.9031213" lon="17.6420908">
        <ele>20.325</ele>
        <time>2013-05-30T20:44:30Z</time>
      </trkpt>
      <trkpt lat="59.9031895" lon="17.6421285">
        <ele>20.325</ele>
        <time>2013-05-30T20:44:31Z</time>
      </trkpt>
      <trkpt lat="59.9032574" lon="17.6421648">
        <ele>19.8444</ele>
        <time>2013-05-30T20:44:32Z</time>
      </trkpt>
      <trkpt lat="59.9033258" lon="17.6422005">
        <ele>19.8444</ele>
        <time>2013-05-30T20:44:33Z</time>
      </trkpt>
      <trkpt lat="59.9033951" lon="17.6422357">
        <ele>19.3638</ele>
        <time>2013-05-30T20:44:34Z</time>
      </trkpt>
      <trkpt lat="59.9034645" lon="17.6422745">
        <ele>19.3638</ele>
        <time>2013-05-30T20:44:35Z</time>
      </trkpt>
      <trkpt lat="59.903534" lon="17.642315">
        <ele>18.8831</ele>
        <time>2013-05-30T20:44:36Z</time>
      </trkpt>
      <trkpt lat="59.903604" lon="17.6423533">
        <ele>18.8831</ele>
        <time>2013-05-30T20:44:37Z</time>
      </trkpt>
      <trkpt lat="59.903674" lon="17.6423891">
        <ele>18.8831</ele>
        <time>2013-05-30T20:44:38Z</time>
      </trkpt>
      <trkpt lat="59.9037442" lon="17.6424237">
        <ele>18.4023</ele>
        <time>2013-05-30T20:44:39Z</time>
      </trkpt>
      <trkpt lat="59.9038126" lon="17.642456">
        <ele>18.8831</ele>
        <time>2013-05-30T20:44:40Z</time>
      </trkpt>
      <trkpt lat="59.9038794" lon="17.6424843">
        <ele>18.8831</ele>
        <time>2013-05-30T20:44:41Z</time>
      </trkpt>
      <trkpt lat="59.9039456" lon="17.6425128">
        <ele>18.4023</ele>
        <time>2013-05-30T20:44:42Z</time>
      </trkpt>
      <trkpt lat="59.9040085" lon="17.642538">
        <ele>18.4023</ele>
        <time>2013-05-30T20:44:43Z</time>
      </trkpt>
      <trkpt lat="59.9040676" lon="17.6425475">
        <ele>17.9218</ele>
        <time>2013-05-30T20:44:44Z</time>
      </trkpt>
      <trkpt lat="59.9041207" lon="17.6424733">
        <ele>18.4023</ele>
        <time>2013-05-30T20:44:45Z</time>
      </trkpt>
      <trkpt lat="59.9041492" lon="17.6423951">
        <ele>18.8831</ele>
        <time>2013-05-30T20:44:46Z</time>
      </trkpt>
      <trkpt lat="59.9041587" lon="17.6423134">
        <ele>19.3638</ele>
        <time>2013-05-30T20:44:47Z</time>
      </trkpt>
      <trkpt lat="59.9041756" lon="17.6422539">
        <ele>20.325</ele>
        <time>2013-05-30T20:44:48Z</time>
      </trkpt>
      <trkpt lat="59.9042086" lon="17.6422162">
        <ele>20.8057</ele>
        <time>2013-05-30T20:44:49Z</time>
      </trkpt>
      <trkpt lat="59.9042528" lon="17.6422151">
        <ele>21.2864</ele>
        <time>2013-05-30T20:44:50Z</time>
      </trkpt>
      <trkpt lat="59.9042995" lon="17.6422485">
        <ele>21.2864</ele>
        <time>2013-05-30T20:44:51Z</time>
      </trkpt>
      <trkpt lat="59.90435" lon="17.6422938">
        <ele>21.767</ele>
        <time>2013-05-30T20:44:52Z</time>
      </trkpt>
      <trkpt lat="59.9044057" lon="17.6423331">
        <ele>21.2864</ele>
        <time>2013-05-30T20:44:53Z</time>
      </trkpt>
      <trkpt lat="59.9044632" lon="17.64237">
        <ele>20.8057</ele>
        <time>2013-05-30T20:44:54Z</time>
      </trkpt>
      <trkpt lat="59.9045259" lon="17.6424062">
        <ele>20.8057</ele>
        <time>2013-05-30T20:44:55Z</time>
      </trkpt>
      <trkpt lat="59.9045918" lon="17.6424428">
        <ele>20.8057</ele>
        <time>2013-05-30T20:44:56Z</time>
      </trkpt>
      <trkpt lat="59.9046597" lon="17.6424854">
        <ele>20.8057</ele>
        <time>2013-05-30T20:44:57Z</time>
      </trkpt>
      <trkpt lat="59.90473" lon="17.6425375">
        <ele>20.8057</ele>
        <time>2013-05-30T20:44:58Z</time>
      </trkpt>
      <trkpt lat="59.9047959" lon="17.6426035">
        <ele>20.8057</ele>
        <time>2013-05-30T20:44:59Z</time>
      </trkpt>
      <trkpt lat="59.9048589" lon="17.6426625">
        <ele>21.767</ele>
        <time>2013-05-30T20:45:00Z</time>
      </trkpt>
      <trkpt lat="59.9049367" lon="17.6426905">
        <ele>21.767</ele>
        <time>2013-05-30T20:45:01Z</time>
      </trkpt>
      <trkpt lat="59.9050124" lon="17.6427383">
        <ele>21.767</ele>
        <time>2013-05-30T20:45:02Z</time>
      </trkpt>
      <trkpt lat="59.9050878" lon="17.6427906">
        <ele>20.8057</ele>
        <time>2013-05-30T20:45:03Z</time>
      </trkpt>
      <trkpt lat="59.9051383" lon="17.6428221">
        <ele>19.3638</ele>
        <time>2013-05-30T20:45:04Z</time>
      </trkpt>
      <trkpt lat="59.9052029" lon="17.6428514">
        <ele>18.4023</ele>
        <time>2013-05-30T20:45:05Z</time>
      </trkpt>
      <trkpt lat="59.9052725" lon="17.6428792">
        <ele>18.4023</ele>
        <time>2013-05-30T20:45:06Z</time>
      </trkpt>
      <trkpt lat="59.9053306" lon="17.642916">
        <ele>17.4412</ele>
        <time>2013-05-30T20:45:07Z</time>
      </trkpt>
      <trkpt lat="59.9053899" lon="17.64295">
        <ele>17.4412</ele>
        <time>2013-05-30T20:45:08Z</time>
      </trkpt>
      <trkpt lat="59.9054329" lon="17.642984">
        <ele>16.4797</ele>
        <time>2013-05-30T20:45:09Z</time>
      </trkpt>
      <trkpt lat="59.9054931" lon="17.6429836">
        <ele>15.999</ele>
        <time>2013-05-30T20:45:10Z</time>
      </trkpt>
      <trkpt lat="59.9055552" lon="17.6429842">
        <ele>15.999</ele>
        <time>2013-05-30T20:45:11Z</time>
      </trkpt>
      <trkpt lat="59.9056233" lon="17.6429946">
        <ele>15.999</ele>
        <time>2013-05-30T20:45:12Z</time>
      </trkpt>
      <trkpt lat="59.9056879" lon="17.643018">
        <ele>15.0377</ele>
        <time>2013-05-30T20:45:13Z</time>
      </trkpt>
      <trkpt lat="59.9057538" lon="17.6430457">
        <ele>14.557</ele>
        <time>2013-05-30T20:45:14Z</time>
      </trkpt>
      <trkpt lat="59.9058191" lon="17.6430781">
        <ele>14.557</ele>
        <time>2013-05-30T20:45:15Z</time>
      </trkpt>
      <trkpt lat="59.9058847" lon="17.6431115">
        <ele>14.557</ele>
        <time>2013-05-30T20:45:16Z</time>
      </trkpt>
      <trkpt lat="59.905949" lon="17.6431434">
        <ele>14.557</ele>
        <time>2013-05-30T20:45:17Z</time>
      </trkpt>
      <trkpt lat="59.9060123" lon="17.6431732">
        <ele>14.557</ele>
        <time>2013-05-30T20:45:18Z</time>
      </trkpt>
      <trkpt lat="59.9060752" lon="17.6432023">
        <ele>14.557</ele>
        <time>2013-05-30T20:45:19Z</time>
      </trkpt>
      <trkpt lat="59.9061375" lon="17.6432278">
        <ele>14.557</ele>
        <time>2013-05-30T20:45:20Z</time>
      </trkpt>
      <trkpt lat="59.9061998" lon="17.6432498">
        <ele>14.557</ele>
        <time>2013-05-30T20:45:21Z</time>
      </trkpt>
      <trkpt lat="59.9062618" lon="17.6432723">
        <ele>14.557</ele>
        <time>2013-05-30T20:45:22Z</time>
      </trkpt>
      <trkpt lat="59.906323" lon="17.6432956">
        <ele>14.557</ele>
        <time>2013-05-30T20:45:23Z</time>
      </trkpt>
      <trkpt lat="59.9063836" lon="17.6433188">
        <ele>14.557</ele>
        <time>2013-05-30T20:45:24Z</time>
      </trkpt>
      <trkpt lat="59.9064441" lon="17.6433408">
        <ele>14.557</ele>
        <time>2013-05-30T20:45:25Z</time>
      </trkpt>
      <trkpt lat="59.9065042" lon="17.6433622">
        <ele>14.557</ele>
        <time>2013-05-30T20:45:26Z</time>
      </trkpt>
      <trkpt lat="59.9065635" lon="17.6433847">
        <ele>14.557</ele>
        <time>2013-05-30T20:45:27Z</time>
      </trkpt>
      <trkpt lat="59.9066228" lon="17.6434064">
        <ele>15.0377</ele>
        <time>2013-05-30T20:45:28Z</time>
      </trkpt>
      <trkpt lat="59.9066815" lon="17.6434261">
        <ele>15.0377</ele>
        <time>2013-05-30T20:45:29Z</time>
      </trkpt>
      <trkpt lat="59.9067403" lon="17.6434428">
        <ele>15.0377</ele>
        <time>2013-05-30T20:45:30Z</time>
      </trkpt>
      <trkpt lat="59.9067993" lon="17.643457">
        <ele>15.5184</ele>
        <time>2013-05-30T20:45:31Z</time>
      </trkpt>
      <trkpt lat="59.906858" lon="17.6434699">
        <ele>15.5184</ele>
        <time>2013-05-30T20:45:32Z</time>
      </trkpt>
      <trkpt lat="59.9069166" lon="17.6434841">
        <ele>15.999</ele>
        <time>2013-05-30T20:45:33Z</time>
      </trkpt>
      <trkpt lat="59.9069753" lon="17.6435007">
        <ele>15.999</ele>
        <time>2013-05-30T20:45:34Z</time>
      </trkpt>
      <trkpt lat="59.907034" lon="17.643515">
        <ele>16.4797</ele>
        <time>2013-05-30T20:45:35Z</time>
      </trkpt>
      <trkpt lat="59.9070934" lon="17.6435255">
        <ele>16.4797</ele>
        <time>2013-05-30T20:45:36Z</time>
      </trkpt>
      <trkpt lat="59.9071545" lon="17.6435371">
        <ele>16.9604</ele>
        <time>2013-05-30T20:45:37Z</time>
      </trkpt>
      <trkpt lat="59.9072171" lon="17.6435497">
        <ele>16.9604</ele>
        <time>2013-05-30T20:45:38Z</time>
      </trkpt>
      <trkpt lat="59.9072808" lon="17.6435629">
        <ele>17.4412</ele>
        <time>2013-05-30T20:45:39Z</time>
      </trkpt>
      <trkpt lat="59.9073449" lon="17.6435763">
        <ele>17.9218</ele>
        <time>2013-05-30T20:45:40Z</time>
      </trkpt>
      <trkpt lat="59.9074083" lon="17.6435891">
        <ele>17.9218</ele>
        <time>2013-05-30T20:45:41Z</time>
      </trkpt>
      <trkpt lat="59.9074715" lon="17.643602">
        <ele>17.9218</ele>
        <time>2013-05-30T20:45:42Z</time>
      </trkpt>
      <trkpt lat="59.9075339" lon="17.6436148">
        <ele>17.9218</ele>
        <time>2013-05-30T20:45:43Z</time>
      </trkpt>
      <trkpt lat="59.9075952" lon="17.6436255">
        <ele>18.4023</ele>
        <time>2013-05-30T20:45:44Z</time>
      </trkpt>
      <trkpt lat="59.9076563" lon="17.6436354">
        <ele>18.4023</ele>
        <time>2013-05-30T20:45:45Z</time>
      </trkpt>
      <trkpt lat="59.9077164" lon="17.6436466">
        <ele>18.8831</ele>
        <time>2013-05-30T20:45:46Z</time>
      </trkpt>
      <trkpt lat="59.9077764" lon="17.6436556">
        <ele>18.8831</ele>
        <time>2013-05-30T20:45:47Z</time>
      </trkpt>
      <trkpt lat="59.907835" lon="17.6436626">
        <ele>19.3638</ele>
        <time>2013-05-30T20:45:48Z</time>
      </trkpt>
      <trkpt lat="59.9078934" lon="17.6436675">
        <ele>19.8444</ele>
        <time>2013-05-30T20:45:49Z</time>
      </trkpt>
      <trkpt lat="59.9079521" lon="17.6436732">
        <ele>18.8831</ele>
        <time>2013-05-30T20:45:50Z</time>
      </trkpt>
      <trkpt lat="59.9080112" lon="17.6436837">
        <ele>18.4023</ele>
        <time>2013-05-30T20:45:51Z</time>
      </trkpt>
      <trkpt lat="59.9080713" lon="17.6436974">
        <ele>17.9218</ele>
        <time>2013-05-30T20:45:52Z</time>
      </trkpt>
      <trkpt lat="59.9081319" lon="17.6437098">
        <ele>17.4412</ele>
        <time>2013-05-30T20:45:53Z</time>
      </trkpt>
      <trkpt lat="59.9081933" lon="17.643716">
        <ele>16.9604</ele>
        <time>2013-05-30T20:45:54Z</time>
      </trkpt>
      <trkpt lat="59.9082541" lon="17.6437214">
        <ele>16.4797</ele>
        <time>2013-05-30T20:45:55Z</time>
      </trkpt>
      <trkpt lat="59.9083153" lon="17.643728">
        <ele>15.999</ele>
        <time>2013-05-30T20:45:56Z</time>
      </trkpt>
      <trkpt lat="59.9083764" lon="17.6437336">
        <ele>16.4797</ele>
        <time>2013-05-30T20:45:57Z</time>
      </trkpt>
      <trkpt lat="59.9084376" lon="17.6437383">
        <ele>17.4412</ele>
        <time>2013-05-30T20:45:58Z</time>
      </trkpt>
      <trkpt lat="59.9085002" lon="17.6437436">
        <ele>17.9218</ele>
        <time>2013-05-30T20:45:59Z</time>
      </trkpt>
      <trkpt lat="59.9085637" lon="17.6437471">
        <ele>17.9218</ele>
        <time>2013-05-30T20:46:00Z</time>
      </trkpt>
      <trkpt lat="59.9086285" lon="17.6437447">
        <ele>17.9218</ele>
        <time>2013-05-30T20:46:01Z</time>
      </trkpt>
      <trkpt lat="59.9086943" lon="17.6437412">
        <ele>18.4023</ele>
        <time>2013-05-30T20:46:02Z</time>
      </trkpt>
      <trkpt lat="59.9087603" lon="17.6437405">
        <ele>17.9218</ele>
        <time>2013-05-30T20:46:03Z</time>
      </trkpt>
      <trkpt lat="59.9088275" lon="17.643738">
        <ele>17.9218</ele>
        <time>2013-05-30T20:46:04Z</time>
      </trkpt>
      <trkpt lat="59.9088958" lon="17.6437331">
        <ele>17.4412</ele>
        <time>2013-05-30T20:46:05Z</time>
      </trkpt>
      <trkpt lat="59.9089648" lon="17.6437277">
        <ele>17.4412</ele>
        <time>2013-05-30T20:46:06Z</time>
      </trkpt>
      <trkpt lat="59.9090326" lon="17.643723">
        <ele>17.4412</ele>
        <time>2013-05-30T20:46:07Z</time>
      </trkpt>
      <trkpt lat="59.9090959" lon="17.643723">
        <ele>17.4412</ele>
        <time>2013-05-30T20:46:08Z</time>
      </trkpt>
      <trkpt lat="59.9091612" lon="17.6437126">
        <ele>16.9604</ele>
        <time>2013-05-30T20:46:09Z</time>
      </trkpt>
      <trkpt lat="59.9092206" lon="17.6437022">
        <ele>17.9218</ele>
        <time>2013-05-30T20:46:10Z</time>
      </trkpt>
      <trkpt lat="59.9092808" lon="17.6436888">
        <ele>18.4023</ele>
        <time>2013-05-30T20:46:11Z</time>
      </trkpt>
      <trkpt lat="59.9093412" lon="17.6436753">
        <ele>18.4023</ele>
        <time>2013-05-30T20:46:12Z</time>
      </trkpt>
      <trkpt lat="59.9094031" lon="17.6436617">
        <ele>18.8831</ele>
        <time>2013-05-30T20:46:13Z</time>
      </trkpt>
      <trkpt lat="59.9094662" lon="17.6436467">
        <ele>19.8444</ele>
        <time>2013-05-30T20:46:14Z</time>
      </trkpt>
      <trkpt lat="59.9095311" lon="17.6436302">
        <ele>21.2864</ele>
        <time>2013-05-30T20:46:15Z</time>
      </trkpt>
      <trkpt lat="59.9095966" lon="17.6436142">
        <ele>21.2864</ele>
        <time>2013-05-30T20:46:16Z</time>
      </trkpt>
      <trkpt lat="59.9096605" lon="17.6435989">
        <ele>22.2476</ele>
        <time>2013-05-30T20:46:17Z</time>
      </trkpt>
      <trkpt lat="59.9097244" lon="17.6435835">
        <ele>22.2476</ele>
        <time>2013-05-30T20:46:18Z</time>
      </trkpt>
      <trkpt lat="59.909789" lon="17.6435681">
        <ele>22.2476</ele>
        <time>2013-05-30T20:46:19Z</time>
      </trkpt>
      <trkpt lat="59.9098543" lon="17.6435614">
        <ele>22.7283</ele>
        <time>2013-05-30T20:46:20Z</time>
      </trkpt>
      <trkpt lat="59.9099196" lon="17.6435753">
        <ele>22.2476</ele>
        <time>2013-05-30T20:46:21Z</time>
      </trkpt>
      <trkpt lat="59.9099857" lon="17.6435984">
        <ele>22.2476</ele>
        <time>2013-05-30T20:46:22Z</time>
      </trkpt>
      <trkpt lat="59.9100495" lon="17.6436276">
        <ele>22.2476</ele>
        <time>2013-05-30T20:46:23Z</time>
      </trkpt>
      <trkpt lat="59.9101076" lon="17.6436477">
        <ele>21.767</ele>
        <time>2013-05-30T20:46:24Z</time>
      </trkpt>
      <trkpt lat="59.910167" lon="17.6436472">
        <ele>22.7283</ele>
        <time>2013-05-30T20:46:25Z</time>
      </trkpt>
      <trkpt lat="59.9102159" lon="17.6435554">
        <ele>22.7283</ele>
        <time>2013-05-30T20:46:26Z</time>
      </trkpt>
      <trkpt lat="59.9102649" lon="17.6435411">
        <ele>22.7283</ele>
        <time>2013-05-30T20:46:27Z</time>
      </trkpt>
      <trkpt lat="59.9103265" lon="17.6435342">
        <ele>22.7283</ele>
        <time>2013-05-30T20:46:28Z</time>
      </trkpt>
      <trkpt lat="59.9103884" lon="17.6435414">
        <ele>22.2476</ele>
        <time>2013-05-30T20:46:29Z</time>
      </trkpt>
      <trkpt lat="59.9104582" lon="17.6435388">
        <ele>22.2476</ele>
        <time>2013-05-30T20:46:30Z</time>
      </trkpt>
      <trkpt lat="59.9105264" lon="17.6434965">
        <ele>22.7283</ele>
        <time>2013-05-30T20:46:31Z</time>
      </trkpt>
      <trkpt lat="59.910595" lon="17.6434547">
        <ele>22.7283</ele>
        <time>2013-05-30T20:46:32Z</time>
      </trkpt>
      <trkpt lat="59.9106691" lon="17.6434255">
        <ele>22.7283</ele>
        <time>2013-05-30T20:46:33Z</time>
      </trkpt>
      <trkpt lat="59.9107431" lon="17.643407">
        <ele>22.7283</ele>
        <time>2013-05-30T20:46:34Z</time>
      </trkpt>
      <trkpt lat="59.9108158" lon="17.6433953">
        <ele>23.209</ele>
        <time>2013-05-30T20:46:35Z</time>
      </trkpt>
      <trkpt lat="59.9108912" lon="17.6433795">
        <ele>24.1703</ele>
        <time>2013-05-30T20:46:36Z</time>
      </trkpt>
      <trkpt lat="59.9109668" lon="17.643364">
        <ele>24.1703</ele>
        <time>2013-05-30T20:46:37Z</time>
      </trkpt>
      <trkpt lat="59.9110388" lon="17.643355">
        <ele>24.651</ele>
        <time>2013-05-30T20:46:38Z</time>
      </trkpt>
      <trkpt lat="59.9111089" lon="17.6433451">
        <ele>25.1317</ele>
        <time>2013-05-30T20:46:39Z</time>
      </trkpt>
      <trkpt lat="59.9111786" lon="17.643334">
        <ele>25.1317</ele>
        <time>2013-05-30T20:46:40Z</time>
      </trkpt>
      <trkpt lat="59.9112472" lon="17.643322">
        <ele>25.6123</ele>
        <time>2013-05-30T20:46:41Z</time>
      </trkpt>
      <trkpt lat="59.9113154" lon="17.6433097">
        <ele>24.1703</ele>
        <time>2013-05-30T20:46:42Z</time>
      </trkpt>
      <trkpt lat="59.9113801" lon="17.6432899">
        <ele>24.651</ele>
        <time>2013-05-30T20:46:43Z</time>
      </trkpt>
      <trkpt lat="59.911445" lon="17.6432743">
        <ele>24.1703</ele>
        <time>2013-05-30T20:46:44Z</time>
      </trkpt>
      <trkpt lat="59.9115075" lon="17.643267">
        <ele>23.209</ele>
        <time>2013-05-30T20:46:45Z</time>
      </trkpt>
      <trkpt lat="59.9115709" lon="17.6432625">
        <ele>22.7283</ele>
        <time>2013-05-30T20:46:46Z</time>
      </trkpt>
      <trkpt lat="59.9116378" lon="17.6432568">
        <ele>20.8057</ele>
        <time>2013-05-30T20:46:47Z</time>
      </trkpt>
      <trkpt lat="59.9117062" lon="17.64325">
        <ele>19.3638</ele>
        <time>2013-05-30T20:46:48Z</time>
      </trkpt>
      <trkpt lat="59.9117756" lon="17.6432402">
        <ele>17.4412</ele>
        <time>2013-05-30T20:46:49Z</time>
      </trkpt>
      <trkpt lat="59.911843" lon="17.6432289">
        <ele>17.9218</ele>
        <time>2013-05-30T20:46:50Z</time>
      </trkpt>
      <trkpt lat="59.9119071" lon="17.6432096">
        <ele>17.9218</ele>
        <time>2013-05-30T20:46:51Z</time>
      </trkpt>
      <trkpt lat="59.9119715" lon="17.6431898">
        <ele>17.9218</ele>
        <time>2013-05-30T20:46:52Z</time>
      </trkpt>
      <trkpt lat="59.912039" lon="17.6431666">
        <ele>17.9218</ele>
        <time>2013-05-30T20:46:53Z</time>
      </trkpt>
      <trkpt lat="59.9121043" lon="17.6431485">
        <ele>17.4412</ele>
        <time>2013-05-30T20:46:54Z</time>
      </trkpt>
      <trkpt lat="59.9121749" lon="17.643122">
        <ele>18.4023</ele>
        <time>2013-05-30T20:46:55Z</time>
      </trkpt>
      <trkpt lat="59.9122498" lon="17.6430987">
        <ele>18.8831</ele>
        <time>2013-05-30T20:46:56Z</time>
      </trkpt>
      <trkpt lat="59.9123272" lon="17.6430825">
        <ele>18.4023</ele>
        <time>2013-05-30T20:46:57Z</time>
      </trkpt>
      <trkpt lat="59.9124038" lon="17.6430754">
        <ele>18.4023</ele>
        <time>2013-05-30T20:46:58Z</time>
      </trkpt>
      <trkpt lat="59.9124845" lon="17.6430665">
        <ele>18.4023</ele>
        <time>2013-05-30T20:46:59Z</time>
      </trkpt>
      <trkpt lat="59.9125635" lon="17.6430708">
        <ele>18.4023</ele>
        <time>2013-05-30T20:47:00Z</time>
      </trkpt>
      <trkpt lat="59.9126422" lon="17.6430925">
        <ele>18.8831</ele>
        <time>2013-05-30T20:47:01Z</time>
      </trkpt>
      <trkpt lat="59.9127151" lon="17.6431286">
        <ele>19.3638</ele>
        <time>2013-05-30T20:47:02Z</time>
      </trkpt>
      <trkpt lat="59.9127839" lon="17.6431495">
        <ele>20.325</ele>
        <time>2013-05-30T20:47:03Z</time>
      </trkpt>
      <trkpt lat="59.9128507" lon="17.6431517">
        <ele>21.2864</ele>
        <time>2013-05-30T20:47:04Z</time>
      </trkpt>
      <trkpt lat="59.9129168" lon="17.6431415">
        <ele>21.767</ele>
        <time>2013-05-30T20:47:05Z</time>
      </trkpt>
      <trkpt lat="59.9129847" lon="17.6431365">
        <ele>22.2476</ele>
        <time>2013-05-30T20:47:06Z</time>
      </trkpt>
      <trkpt lat="59.9130569" lon="17.6431214">
        <ele>21.767</ele>
        <time>2013-05-30T20:47:07Z</time>
      </trkpt>
      <trkpt lat="59.913127" lon="17.6431136">
        <ele>22.2476</ele>
        <time>2013-05-30T20:47:08Z</time>
      </trkpt>
      <trkpt lat="59.9132014" lon="17.6430957">
        <ele>22.7283</ele>
        <time>2013-05-30T20:47:09Z</time>
      </trkpt>
      <trkpt lat="59.9132776" lon="17.6430796">
        <ele>23.209</ele>
        <time>2013-05-30T20:47:10Z</time>
      </trkpt>
      <trkpt lat="59.913353" lon="17.6430524">
        <ele>23.6896</ele>
        <time>2013-05-30T20:47:11Z</time>
      </trkpt>
      <trkpt lat="59.913427" lon="17.6430283">
        <ele>24.1703</ele>
        <time>2013-05-30T20:47:12Z</time>
      </trkpt>
      <trkpt lat="59.9134928" lon="17.6430229">
        <ele>25.1317</ele>
        <time>2013-05-30T20:47:13Z</time>
      </trkpt>
      <trkpt lat="59.9135585" lon="17.6430287">
        <ele>25.1317</ele>
        <time>2013-05-30T20:47:14Z</time>
      </trkpt>
      <trkpt lat="59.9136255" lon="17.6430253">
        <ele>25.1317</ele>
        <time>2013-05-30T20:47:15Z</time>
      </trkpt>
      <trkpt lat="59.9136894" lon="17.6430172">
        <ele>25.1317</ele>
        <time>2013-05-30T20:47:16Z</time>
      </trkpt>
      <trkpt lat="59.9137559" lon="17.6430085">
        <ele>24.1703</ele>
        <time>2013-05-30T20:47:17Z</time>
      </trkpt>
      <trkpt lat="59.9138231" lon="17.6429897">
        <ele>24.1703</ele>
        <time>2013-05-30T20:47:18Z</time>
      </trkpt>
      <trkpt lat="59.9138937" lon="17.6429702">
        <ele>24.651</ele>
        <time>2013-05-30T20:47:19Z</time>
      </trkpt>
      <trkpt lat="59.9139625" lon="17.6429527">
        <ele>25.1317</ele>
        <time>2013-05-30T20:47:20Z</time>
      </trkpt>
      <trkpt lat="59.9140315" lon="17.6429401">
        <ele>24.651</ele>
        <time>2013-05-30T20:47:21Z</time>
      </trkpt>
      <trkpt lat="59.9141015" lon="17.642919">
        <ele>24.651</ele>
        <time>2013-05-30T20:47:22Z</time>
      </trkpt>
      <trkpt lat="59.9141684" lon="17.6429127">
        <ele>23.6896</ele>
        <time>2013-05-30T20:47:23Z</time>
      </trkpt>
      <trkpt lat="59.9142351" lon="17.6429097">
        <ele>23.209</ele>
        <time>2013-05-30T20:47:24Z</time>
      </trkpt>
      <trkpt lat="59.9142997" lon="17.6429122">
        <ele>21.767</ele>
        <time>2013-05-30T20:47:25Z</time>
      </trkpt>
      <trkpt lat="59.9143685" lon="17.6429027">
        <ele>21.2864</ele>
        <time>2013-05-30T20:47:26Z</time>
      </trkpt>
      <trkpt lat="59.914437" lon="17.642893">
        <ele>21.2864</ele>
        <time>2013-05-30T20:47:27Z</time>
      </trkpt>
      <trkpt lat="59.9145035" lon="17.6428822">
        <ele>22.2476</ele>
        <time>2013-05-30T20:47:28Z</time>
      </trkpt>
      <trkpt lat="59.9145727" lon="17.6428688">
        <ele>21.767</ele>
        <time>2013-05-30T20:47:29Z</time>
      </trkpt>
      <trkpt lat="59.9146426" lon="17.6428512">
        <ele>21.767</ele>
        <time>2013-05-30T20:47:30Z</time>
      </trkpt>
      <trkpt lat="59.9147147" lon="17.6428355">
        <ele>21.767</ele>
        <time>2013-05-30T20:47:31Z</time>
      </trkpt>
      <trkpt lat="59.91479" lon="17.6428216">
        <ele>21.767</ele>
        <time>2013-05-30T20:47:32Z</time>
      </trkpt>
      <trkpt lat="59.9148654" lon="17.6428054">
        <ele>21.767</ele>
        <time>2013-05-30T20:47:33Z</time>
      </trkpt>
      <trkpt lat="59.9149416" lon="17.6427914">
        <ele>21.767</ele>
        <time>2013-05-30T20:47:34Z</time>
      </trkpt>
      <trkpt lat="59.9150184" lon="17.64278">
        <ele>21.767</ele>
        <time>2013-05-30T20:47:35Z</time>
      </trkpt>
      <trkpt lat="59.9150977" lon="17.6427554">
        <ele>22.2476</ele>
        <time>2013-05-30T20:47:36Z</time>
      </trkpt>
      <trkpt lat="59.9151702" lon="17.6427285">
        <ele>22.2476</ele>
        <time>2013-05-30T20:47:37Z</time>
      </trkpt>
      <trkpt lat="59.9152416" lon="17.6426857">
        <ele>22.2476</ele>
        <time>2013-05-30T20:47:38Z</time>
      </trkpt>
      <trkpt lat="59.9153228" lon="17.6426206">
        <ele>21.2864</ele>
        <time>2013-05-30T20:47:39Z</time>
      </trkpt>
      <trkpt lat="59.9154072" lon="17.6425754">
        <ele>21.2864</ele>
        <time>2013-05-30T20:47:40Z</time>
      </trkpt>
      <trkpt lat="59.9154975" lon="17.6425415">
        <ele>21.2864</ele>
        <time>2013-05-30T20:47:41Z</time>
      </trkpt>
      <trkpt lat="59.9155858" lon="17.6425231">
        <ele>20.325</ele>
        <time>2013-05-30T20:47:42Z</time>
      </trkpt>
      <trkpt lat="59.9156741" lon="17.6425076">
        <ele>20.325</ele>
        <time>2013-05-30T20:47:43Z</time>
      </trkpt>
      <trkpt lat="59.9157623" lon="17.6424962">
        <ele>20.325</ele>
        <time>2013-05-30T20:47:44Z</time>
      </trkpt>
      <trkpt lat="59.9158496" lon="17.6424901">
        <ele>20.8057</ele>
        <time>2013-05-30T20:47:45Z</time>
      </trkpt>
      <trkpt lat="59.9159352" lon="17.6424885">
        <ele>20.8057</ele>
        <time>2013-05-30T20:47:46Z</time>
      </trkpt>
      <trkpt lat="59.9160201" lon="17.642487">
        <ele>20.8057</ele>
        <time>2013-05-30T20:47:47Z</time>
      </trkpt>
      <trkpt lat="59.9161034" lon="17.6424844">
        <ele>20.8057</ele>
        <time>2013-05-30T20:47:48Z</time>
      </trkpt>
      <trkpt lat="59.9161843" lon="17.6424811">
        <ele>20.8057</ele>
        <time>2013-05-30T20:47:49Z</time>
      </trkpt>
      <trkpt lat="59.9162631" lon="17.6424788">
        <ele>20.8057</ele>
        <time>2013-05-30T20:47:50Z</time>
      </trkpt>
      <trkpt lat="59.9163442" lon="17.6424715">
        <ele>20.8057</ele>
        <time>2013-05-30T20:47:51Z</time>
      </trkpt>
      <trkpt lat="59.9164261" lon="17.6424598">
        <ele>20.8057</ele>
        <time>2013-05-30T20:47:52Z</time>
      </trkpt>
      <trkpt lat="59.9165084" lon="17.6424462">
        <ele>20.8057</ele>
        <time>2013-05-30T20:47:53Z</time>
      </trkpt>
      <trkpt lat="59.9165935" lon="17.6424326">
        <ele>20.8057</ele>
        <time>2013-05-30T20:47:54Z</time>
      </trkpt>
      <trkpt lat="59.9166801" lon="17.6424191">
        <ele>21.2864</ele>
        <time>2013-05-30T20:47:55Z</time>
      </trkpt>
      <trkpt lat="59.9167676" lon="17.6424028">
        <ele>21.767</ele>
        <time>2013-05-30T20:47:56Z</time>
      </trkpt>
      <trkpt lat="59.9168546" lon="17.642388">
        <ele>22.2476</ele>
        <time>2013-05-30T20:47:57Z</time>
      </trkpt>
      <trkpt lat="59.9169422" lon="17.6423756">
        <ele>22.2476</ele>
        <time>2013-05-30T20:47:58Z</time>
      </trkpt>
      <trkpt lat="59.9170285" lon="17.6423611">
        <ele>21.2864</ele>
        <time>2013-05-30T20:47:59Z</time>
      </trkpt>
      <trkpt lat="59.9171111" lon="17.6423345">
        <ele>20.325</ele>
        <time>2013-05-30T20:48:00Z</time>
      </trkpt>
      <trkpt lat="59.9171963" lon="17.6423031">
        <ele>19.8444</ele>
        <time>2013-05-30T20:48:01Z</time>
      </trkpt>
      <trkpt lat="59.91728" lon="17.6422922">
        <ele>19.3638</ele>
        <time>2013-05-30T20:48:02Z</time>
      </trkpt>
      <trkpt lat="59.9173607" lon="17.6422948">
        <ele>19.3638</ele>
        <time>2013-05-30T20:48:03Z</time>
      </trkpt>
      <trkpt lat="59.9174386" lon="17.6422943">
        <ele>19.8444</ele>
        <time>2013-05-30T20:48:04Z</time>
      </trkpt>
      <trkpt lat="59.917516" lon="17.6422892">
        <ele>20.8057</ele>
        <time>2013-05-30T20:48:05Z</time>
      </trkpt>
      <trkpt lat="59.9175938" lon="17.6422858">
        <ele>20.325</ele>
        <time>2013-05-30T20:48:06Z</time>
      </trkpt>
      <trkpt lat="59.9176699" lon="17.6422861">
        <ele>20.325</ele>
        <time>2013-05-30T20:48:07Z</time>
      </trkpt>
      <trkpt lat="59.9177454" lon="17.6422876">
        <ele>20.325</ele>
        <time>2013-05-30T20:48:08Z</time>
      </trkpt>
      <trkpt lat="59.9178223" lon="17.6422859">
        <ele>20.325</ele>
        <time>2013-05-30T20:48:09Z</time>
      </trkpt>
      <trkpt lat="59.9178989" lon="17.6422829">
        <ele>20.325</ele>
        <time>2013-05-30T20:48:10Z</time>
      </trkpt>
      <trkpt lat="59.9179761" lon="17.6422767">
        <ele>20.325</ele>
        <time>2013-05-30T20:48:11Z</time>
      </trkpt>
      <trkpt lat="59.9180524" lon="17.6422733">
        <ele>20.325</ele>
        <time>2013-05-30T20:48:12Z</time>
      </trkpt>
      <trkpt lat="59.91813" lon="17.642265">
        <ele>21.2864</ele>
        <time>2013-05-30T20:48:13Z</time>
      </trkpt>
      <trkpt lat="59.9182049" lon="17.6422595">
        <ele>21.767</ele>
        <time>2013-05-30T20:48:14Z</time>
      </trkpt>
      <trkpt lat="59.91828" lon="17.6422493">
        <ele>23.209</ele>
        <time>2013-05-30T20:48:15Z</time>
      </trkpt>
      <trkpt lat="59.9183517" lon="17.6422424">
        <ele>23.6896</ele>
        <time>2013-05-30T20:48:16Z</time>
      </trkpt>
      <trkpt lat="59.9184221" lon="17.6422325">
        <ele>24.1703</ele>
        <time>2013-05-30T20:48:17Z</time>
      </trkpt>
      <trkpt lat="59.9184905" lon="17.6422262">
        <ele>23.6896</ele>
        <time>2013-05-30T20:48:18Z</time>
      </trkpt>
      <trkpt lat="59.91856" lon="17.642218">
        <ele>23.209</ele>
        <time>2013-05-30T20:48:19Z</time>
      </trkpt>
      <trkpt lat="59.9186326" lon="17.6422071">
        <ele>23.6896</ele>
        <time>2013-05-30T20:48:20Z</time>
      </trkpt>
      <trkpt lat="59.9187022" lon="17.6421974">
        <ele>24.1703</ele>
        <time>2013-05-30T20:48:21Z</time>
      </trkpt>
      <trkpt lat="59.9187698" lon="17.6421823">
        <ele>23.6896</ele>
        <time>2013-05-30T20:48:22Z</time>
      </trkpt>
      <trkpt lat="59.918837" lon="17.6421658">
        <ele>23.209</ele>
        <time>2013-05-30T20:48:23Z</time>
      </trkpt>
      <trkpt lat="59.9189018" lon="17.6421564">
        <ele>22.7283</ele>
        <time>2013-05-30T20:48:24Z</time>
      </trkpt>
      <trkpt lat="59.9189648" lon="17.6421487">
        <ele>22.2476</ele>
        <time>2013-05-30T20:48:25Z</time>
      </trkpt>
      <trkpt lat="59.9190277" lon="17.642139">
        <ele>21.767</ele>
        <time>2013-05-30T20:48:26Z</time>
      </trkpt>
      <trkpt lat="59.9190899" lon="17.6421311">
        <ele>21.2864</ele>
        <time>2013-05-30T20:48:27Z</time>
      </trkpt>
      <trkpt lat="59.91915" lon="17.6421242">
        <ele>20.325</ele>
        <time>2013-05-30T20:48:28Z</time>
      </trkpt>
      <trkpt lat="59.9192081" lon="17.6421184">
        <ele>20.325</ele>
        <time>2013-05-30T20:48:29Z</time>
      </trkpt>
      <trkpt lat="59.9192682" lon="17.6421076">
        <ele>19.8444</ele>
        <time>2013-05-30T20:48:30Z</time>
      </trkpt>
      <trkpt lat="59.9193282" lon="17.6421031">
        <ele>19.3638</ele>
        <time>2013-05-30T20:48:31Z</time>
      </trkpt>
      <trkpt lat="59.9193908" lon="17.6420985">
        <ele>18.8831</ele>
        <time>2013-05-30T20:48:32Z</time>
      </trkpt>
      <trkpt lat="59.9194535" lon="17.6420922">
        <ele>18.4023</ele>
        <time>2013-05-30T20:48:33Z</time>
      </trkpt>
      <trkpt lat="59.9195176" lon="17.6420829">
        <ele>17.9218</ele>
        <time>2013-05-30T20:48:34Z</time>
      </trkpt>
      <trkpt lat="59.9195825" lon="17.642074">
        <ele>17.4412</ele>
        <time>2013-05-30T20:48:35Z</time>
      </trkpt>
      <trkpt lat="59.9196478" lon="17.6420662">
        <ele>17.4412</ele>
        <time>2013-05-30T20:48:36Z</time>
      </trkpt>
      <trkpt lat="59.9197144" lon="17.642053">
        <ele>17.4412</ele>
        <time>2013-05-30T20:48:37Z</time>
      </trkpt>
      <trkpt lat="59.9197796" lon="17.642039">
        <ele>16.9604</ele>
        <time>2013-05-30T20:48:38Z</time>
      </trkpt>
      <trkpt lat="59.9198445" lon="17.6420223">
        <ele>16.9604</ele>
        <time>2013-05-30T20:48:39Z</time>
      </trkpt>
      <trkpt lat="59.9199076" lon="17.6420005">
        <ele>16.9604</ele>
        <time>2013-05-30T20:48:40Z</time>
      </trkpt>
      <trkpt lat="59.9199749" lon="17.641984">
        <ele>16.9604</ele>
        <time>2013-05-30T20:48:41Z</time>
      </trkpt>
      <trkpt lat="59.920043" lon="17.641974">
        <ele>16.4797</ele>
        <time>2013-05-30T20:48:42Z</time>
      </trkpt>
      <trkpt lat="59.9201114" lon="17.6419704">
        <ele>15.999</ele>
        <time>2013-05-30T20:48:43Z</time>
      </trkpt>
      <trkpt lat="59.9201809" lon="17.6419704">
        <ele>15.999</ele>
        <time>2013-05-30T20:48:44Z</time>
      </trkpt>
      <trkpt lat="59.9202523" lon="17.6419643">
        <ele>16.9604</ele>
        <time>2013-05-30T20:48:45Z</time>
      </trkpt>
      <trkpt lat="59.9203234" lon="17.6419561">
        <ele>17.4412</ele>
        <time>2013-05-30T20:48:46Z</time>
      </trkpt>
      <trkpt lat="59.9203972" lon="17.6419408">
        <ele>18.8831</ele>
        <time>2013-05-30T20:48:47Z</time>
      </trkpt>
      <trkpt lat="59.9204709" lon="17.641926">
        <ele>19.8444</ele>
        <time>2013-05-30T20:48:48Z</time>
      </trkpt>
      <trkpt lat="59.9205449" lon="17.641913">
        <ele>20.8057</ele>
        <time>2013-05-30T20:48:49Z</time>
      </trkpt>
      <trkpt lat="59.9206155" lon="17.6419093">
        <ele>20.8057</ele>
        <time>2013-05-30T20:48:50Z</time>
      </trkpt>
      <trkpt lat="59.9206856" lon="17.6419104">
        <ele>20.325</ele>
        <time>2013-05-30T20:48:51Z</time>
      </trkpt>
      <trkpt lat="59.9207543" lon="17.6419139">
        <ele>20.325</ele>
        <time>2013-05-30T20:48:52Z</time>
      </trkpt>
      <trkpt lat="59.9208214" lon="17.6419185">
        <ele>19.8444</ele>
        <time>2013-05-30T20:48:53Z</time>
      </trkpt>
      <trkpt lat="59.9208867" lon="17.6419218">
        <ele>19.8444</ele>
        <time>2013-05-30T20:48:54Z</time>
      </trkpt>
      <trkpt lat="59.920948" lon="17.6419266">
        <ele>19.8444</ele>
        <time>2013-05-30T20:48:55Z</time>
      </trkpt>
      <trkpt lat="59.9210043" lon="17.6419358">
        <ele>19.3638</ele>
        <time>2013-05-30T20:48:56Z</time>
      </trkpt>
      <trkpt lat="59.9210603" lon="17.6419383">
        <ele>19.8444</ele>
        <time>2013-05-30T20:48:57Z</time>
      </trkpt>
      <trkpt lat="59.921109" lon="17.6419431">
        <ele>18.8831</ele>
        <time>2013-05-30T20:48:58Z</time>
      </trkpt>
      <trkpt lat="59.9211495" lon="17.6419523">
        <ele>18.4023</ele>
        <time>2013-05-30T20:48:59Z</time>
      </trkpt>
      <trkpt lat="59.9211904" lon="17.641956">
        <ele>18.8831</ele>
        <time>2013-05-30T20:49:00Z</time>
      </trkpt>
      <trkpt lat="59.9212394" lon="17.6419451">
        <ele>19.8444</ele>
        <time>2013-05-30T20:49:01Z</time>
      </trkpt>
      <trkpt lat="59.9212887" lon="17.6419361">
        <ele>20.8057</ele>
        <time>2013-05-30T20:49:02Z</time>
      </trkpt>
      <trkpt lat="59.9213349" lon="17.6419301">
        <ele>21.2864</ele>
        <time>2013-05-30T20:49:03Z</time>
      </trkpt>
      <trkpt lat="59.9213782" lon="17.6419223">
        <ele>21.2864</ele>
        <time>2013-05-30T20:49:04Z</time>
      </trkpt>
      <trkpt lat="59.9214271" lon="17.6419136">
        <ele>20.8057</ele>
        <time>2013-05-30T20:49:05Z</time>
      </trkpt>
      <trkpt lat="59.9214818" lon="17.6419114">
        <ele>20.8057</ele>
        <time>2013-05-30T20:49:06Z</time>
      </trkpt>
      <trkpt lat="59.921538" lon="17.6419052">
        <ele>20.8057</ele>
        <time>2013-05-30T20:49:07Z</time>
      </trkpt>
      <trkpt lat="59.921593" lon="17.6418949">
        <ele>20.8057</ele>
        <time>2013-05-30T20:49:08Z</time>
      </trkpt>
      <trkpt lat="59.9216486" lon="17.6418903">
        <ele>20.8057</ele>
        <time>2013-05-30T20:49:09Z</time>
      </trkpt>
      <trkpt lat="59.9217104" lon="17.6418787">
        <ele>20.325</ele>
        <time>2013-05-30T20:49:10Z</time>
      </trkpt>
      <trkpt lat="59.9217808" lon="17.6418636">
        <ele>21.2864</ele>
        <time>2013-05-30T20:49:11Z</time>
      </trkpt>
      <trkpt lat="59.9218597" lon="17.6418517">
        <ele>21.2864</ele>
        <time>2013-05-30T20:49:12Z</time>
      </trkpt>
      <trkpt lat="59.9219368" lon="17.6418364">
        <ele>22.2476</ele>
        <time>2013-05-30T20:49:13Z</time>
      </trkpt>
      <trkpt lat="59.9220121" lon="17.6418251">
        <ele>22.7283</ele>
        <time>2013-05-30T20:49:14Z</time>
      </trkpt>
      <trkpt lat="59.9220901" lon="17.6418121">
        <ele>23.209</ele>
        <time>2013-05-30T20:49:15Z</time>
      </trkpt>
      <trkpt lat="59.9221663" lon="17.641801">
        <ele>24.1703</ele>
        <time>2013-05-30T20:49:16Z</time>
      </trkpt>
      <trkpt lat="59.922242" lon="17.641788">
        <ele>24.651</ele>
        <time>2013-05-30T20:49:17Z</time>
      </trkpt>
      <trkpt lat="59.9223167" lon="17.6417751">
        <ele>24.651</ele>
        <time>2013-05-30T20:49:18Z</time>
      </trkpt>
      <trkpt lat="59.9223904" lon="17.6417632">
        <ele>25.1317</ele>
        <time>2013-05-30T20:49:19Z</time>
      </trkpt>
      <trkpt lat="59.9224637" lon="17.6417527">
        <ele>25.1317</ele>
        <time>2013-05-30T20:49:20Z</time>
      </trkpt>
      <trkpt lat="59.922537" lon="17.6417424">
        <ele>25.6123</ele>
        <time>2013-05-30T20:49:21Z</time>
      </trkpt>
      <trkpt lat="59.9226097" lon="17.6417312">
        <ele>25.6123</ele>
        <time>2013-05-30T20:49:22Z</time>
      </trkpt>
      <trkpt lat="59.9226808" lon="17.6417227">
        <ele>26.0929</ele>
        <time>2013-05-30T20:49:23Z</time>
      </trkpt>
      <trkpt lat="59.9227515" lon="17.641718">
        <ele>25.6123</ele>
        <time>2013-05-30T20:49:24Z</time>
      </trkpt>
      <trkpt lat="59.9228171" lon="17.6417079">
        <ele>26.0929</ele>
        <time>2013-05-30T20:49:25Z</time>
      </trkpt>
      <trkpt lat="59.9228832" lon="17.6416877">
        <ele>26.5736</ele>
        <time>2013-05-30T20:49:26Z</time>
      </trkpt>
      <trkpt lat="59.9229533" lon="17.6416664">
        <ele>26.5736</ele>
        <time>2013-05-30T20:49:27Z</time>
      </trkpt>
      <trkpt lat="59.9230276" lon="17.6416514">
        <ele>27.5349</ele>
        <time>2013-05-30T20:49:28Z</time>
      </trkpt>
      <trkpt lat="59.9231034" lon="17.6416348">
        <ele>28.4962</ele>
        <time>2013-05-30T20:49:29Z</time>
      </trkpt>
      <trkpt lat="59.923179" lon="17.6416162">
        <ele>29.4575</ele>
        <time>2013-05-30T20:49:30Z</time>
      </trkpt>
      <trkpt lat="59.9232547" lon="17.6416012">
        <ele>29.9381</ele>
        <time>2013-05-30T20:49:31Z</time>
      </trkpt>
      <trkpt lat="59.9233291" lon="17.6415912">
        <ele>29.4575</ele>
        <time>2013-05-30T20:49:32Z</time>
      </trkpt>
      <trkpt lat="59.9234064" lon="17.6415754">
        <ele>29.4575</ele>
        <time>2013-05-30T20:49:33Z</time>
      </trkpt>
      <trkpt lat="59.92348" lon="17.641571">
        <ele>28.0155</ele>
        <time>2013-05-30T20:49:34Z</time>
      </trkpt>
      <trkpt lat="59.9235551" lon="17.6415648">
        <ele>27.0543</ele>
        <time>2013-05-30T20:49:35Z</time>
      </trkpt>
      <trkpt lat="59.9236328" lon="17.6415561">
        <ele>26.5736</ele>
        <time>2013-05-30T20:49:36Z</time>
      </trkpt>
      <trkpt lat="59.9237098" lon="17.6415517">
        <ele>25.6123</ele>
        <time>2013-05-30T20:49:37Z</time>
      </trkpt>
      <trkpt lat="59.9237876" lon="17.6415455">
        <ele>25.6123</ele>
        <time>2013-05-30T20:49:38Z</time>
      </trkpt>
      <trkpt lat="59.9238665" lon="17.6415369">
        <ele>24.651</ele>
        <time>2013-05-30T20:49:39Z</time>
      </trkpt>
      <trkpt lat="59.9239452" lon="17.6415256">
        <ele>24.1703</ele>
        <time>2013-05-30T20:49:40Z</time>
      </trkpt>
      <trkpt lat="59.9240234" lon="17.641515">
        <ele>23.6896</ele>
        <time>2013-05-30T20:49:41Z</time>
      </trkpt>
      <trkpt lat="59.9241009" lon="17.6415065">
        <ele>22.7283</ele>
        <time>2013-05-30T20:49:42Z</time>
      </trkpt>
      <trkpt lat="59.9241783" lon="17.6415022">
        <ele>22.2476</ele>
        <time>2013-05-30T20:49:43Z</time>
      </trkpt>
      <trkpt lat="59.9242555" lon="17.6415003">
        <ele>21.2864</ele>
        <time>2013-05-30T20:49:44Z</time>
      </trkpt>
      <trkpt lat="59.9243324" lon="17.6414953">
        <ele>21.2864</ele>
        <time>2013-05-30T20:49:45Z</time>
      </trkpt>
      <trkpt lat="59.9244084" lon="17.6414913">
        <ele>20.8057</ele>
        <time>2013-05-30T20:49:46Z</time>
      </trkpt>
      <trkpt lat="59.9244848" lon="17.6414857">
        <ele>20.8057</ele>
        <time>2013-05-30T20:49:47Z</time>
      </trkpt>
      <trkpt lat="59.9245616" lon="17.6414753">
        <ele>20.8057</ele>
        <time>2013-05-30T20:49:48Z</time>
      </trkpt>
      <trkpt lat="59.9246373" lon="17.6414632">
        <ele>20.325</ele>
        <time>2013-05-30T20:49:49Z</time>
      </trkpt>
      <trkpt lat="59.9247121" lon="17.6414514">
        <ele>19.8444</ele>
        <time>2013-05-30T20:49:50Z</time>
      </trkpt>
      <trkpt lat="59.9247852" lon="17.6414337">
        <ele>20.325</ele>
        <time>2013-05-30T20:49:51Z</time>
      </trkpt>
      <trkpt lat="59.924858" lon="17.6414141">
        <ele>20.325</ele>
        <time>2013-05-30T20:49:52Z</time>
      </trkpt>
      <trkpt lat="59.9249325" lon="17.6414006">
        <ele>19.3638</ele>
        <time>2013-05-30T20:49:53Z</time>
      </trkpt>
      <trkpt lat="59.9250082" lon="17.6413924">
        <ele>18.8831</ele>
        <time>2013-05-30T20:49:54Z</time>
      </trkpt>
      <trkpt lat="59.9250853" lon="17.6413866">
        <ele>18.4023</ele>
        <time>2013-05-30T20:49:55Z</time>
      </trkpt>
      <trkpt lat="59.9251631" lon="17.6413857">
        <ele>17.9218</ele>
        <time>2013-05-30T20:49:56Z</time>
      </trkpt>
      <trkpt lat="59.9252393" lon="17.6413927">
        <ele>16.4797</ele>
        <time>2013-05-30T20:49:57Z</time>
      </trkpt>
      <trkpt lat="59.9253169" lon="17.6413977">
        <ele>15.5184</ele>
        <time>2013-05-30T20:49:58Z</time>
      </trkpt>
      <trkpt lat="59.9253956" lon="17.6413996">
        <ele>14.557</ele>
        <time>2013-05-30T20:49:59Z</time>
      </trkpt>
      <trkpt lat="59.9254733" lon="17.6414034">
        <ele>13.1151</ele>
        <time>2013-05-30T20:50:00Z</time>
      </trkpt>
      <trkpt lat="59.9255537" lon="17.6413972">
        <ele>12.6344</ele>
        <time>2013-05-30T20:50:01Z</time>
      </trkpt>
      <trkpt lat="59.9256347" lon="17.6413906">
        <ele>12.1538</ele>
        <time>2013-05-30T20:50:02Z</time>
      </trkpt>
      <trkpt lat="59.9257161" lon="17.6413798">
        <ele>12.1538</ele>
        <time>2013-05-30T20:50:03Z</time>
      </trkpt>
      <trkpt lat="59.9257974" lon="17.6413665">
        <ele>12.1538</ele>
        <time>2013-05-30T20:50:04Z</time>
      </trkpt>
      <trkpt lat="59.9258785" lon="17.641351">
        <ele>12.6344</ele>
        <time>2013-05-30T20:50:05Z</time>
      </trkpt>
      <trkpt lat="59.9259561" lon="17.6413404">
        <ele>12.6344</ele>
        <time>2013-05-30T20:50:06Z</time>
      </trkpt>
      <trkpt lat="59.9260338" lon="17.6413302">
        <ele>12.6344</ele>
        <time>2013-05-30T20:50:07Z</time>
      </trkpt>
      <trkpt lat="59.9261113" lon="17.6413216">
        <ele>12.6344</ele>
        <time>2013-05-30T20:50:08Z</time>
      </trkpt>
      <trkpt lat="59.9261891" lon="17.6413142">
        <ele>13.1151</ele>
        <time>2013-05-30T20:50:09Z</time>
      </trkpt>
      <trkpt lat="59.9262674" lon="17.6413059">
        <ele>13.1151</ele>
        <time>2013-05-30T20:50:10Z</time>
      </trkpt>
      <trkpt lat="59.9263459" lon="17.6412949">
        <ele>13.1151</ele>
        <time>2013-05-30T20:50:11Z</time>
      </trkpt>
      <trkpt lat="59.9264237" lon="17.6412831">
        <ele>13.1151</ele>
        <time>2013-05-30T20:50:12Z</time>
      </trkpt>
      <trkpt lat="59.9265017" lon="17.6412749">
        <ele>13.1151</ele>
        <time>2013-05-30T20:50:13Z</time>
      </trkpt>
      <trkpt lat="59.9265811" lon="17.6412645">
        <ele>13.1151</ele>
        <time>2013-05-30T20:50:14Z</time>
      </trkpt>
      <trkpt lat="59.9266594" lon="17.6412508">
        <ele>13.1151</ele>
        <time>2013-05-30T20:50:15Z</time>
      </trkpt>
      <trkpt lat="59.9267365" lon="17.6412397">
        <ele>13.5958</ele>
        <time>2013-05-30T20:50:16Z</time>
      </trkpt>
      <trkpt lat="59.9268132" lon="17.6412345">
        <ele>14.0764</ele>
        <time>2013-05-30T20:50:17Z</time>
      </trkpt>
      <trkpt lat="59.9268912" lon="17.6412312">
        <ele>14.0764</ele>
        <time>2013-05-30T20:50:18Z</time>
      </trkpt>
      <trkpt lat="59.9269705" lon="17.6412268">
        <ele>14.0764</ele>
        <time>2013-05-30T20:50:19Z</time>
      </trkpt>
      <trkpt lat="59.9270528" lon="17.6412179">
        <ele>14.557</ele>
        <time>2013-05-30T20:50:20Z</time>
      </trkpt>
      <trkpt lat="59.9271371" lon="17.6412075">
        <ele>15.0377</ele>
        <time>2013-05-30T20:50:21Z</time>
      </trkpt>
      <trkpt lat="59.9272203" lon="17.6411956">
        <ele>15.5184</ele>
        <time>2013-05-30T20:50:22Z</time>
      </trkpt>
      <trkpt lat="59.927302" lon="17.6411853">
        <ele>15.999</ele>
        <time>2013-05-30T20:50:23Z</time>
      </trkpt>
      <trkpt lat="59.9273831" lon="17.6411785">
        <ele>16.4797</ele>
        <time>2013-05-30T20:50:24Z</time>
      </trkpt>
      <trkpt lat="59.927464" lon="17.6411731">
        <ele>16.9604</ele>
        <time>2013-05-30T20:50:25Z</time>
      </trkpt>
      <trkpt lat="59.9275449" lon="17.641167">
        <ele>17.4412</ele>
        <time>2013-05-30T20:50:26Z</time>
      </trkpt>
      <trkpt lat="59.927626" lon="17.6411582">
        <ele>17.9218</ele>
        <time>2013-05-30T20:50:27Z</time>
      </trkpt>
      <trkpt lat="59.9277074" lon="17.6411457">
        <ele>18.4023</ele>
        <time>2013-05-30T20:50:28Z</time>
      </trkpt>
      <trkpt lat="59.9277892" lon="17.6411335">
        <ele>18.8831</ele>
        <time>2013-05-30T20:50:29Z</time>
      </trkpt>
      <trkpt lat="59.9278716" lon="17.6411232">
        <ele>19.3638</ele>
        <time>2013-05-30T20:50:30Z</time>
      </trkpt>
      <trkpt lat="59.9279535" lon="17.6411153">
        <ele>19.8444</ele>
        <time>2013-05-30T20:50:31Z</time>
      </trkpt>
      <trkpt lat="59.9280348" lon="17.6411055">
        <ele>20.325</ele>
        <time>2013-05-30T20:50:32Z</time>
      </trkpt>
      <trkpt lat="59.9281151" lon="17.6410961">
        <ele>20.325</ele>
        <time>2013-05-30T20:50:33Z</time>
      </trkpt>
      <trkpt lat="59.9281963" lon="17.6410832">
        <ele>20.8057</ele>
        <time>2013-05-30T20:50:34Z</time>
      </trkpt>
      <trkpt lat="59.9282762" lon="17.6410723">
        <ele>21.2864</ele>
        <time>2013-05-30T20:50:35Z</time>
      </trkpt>
      <trkpt lat="59.9283563" lon="17.6410614">
        <ele>21.767</ele>
        <time>2013-05-30T20:50:36Z</time>
      </trkpt>
      <trkpt lat="59.9284352" lon="17.64105">
        <ele>22.2476</ele>
        <time>2013-05-30T20:50:37Z</time>
      </trkpt>
      <trkpt lat="59.9285125" lon="17.6410371">
        <ele>22.2476</ele>
        <time>2013-05-30T20:50:38Z</time>
      </trkpt>
      <trkpt lat="59.9285881" lon="17.6410261">
        <ele>22.2476</ele>
        <time>2013-05-30T20:50:39Z</time>
      </trkpt>
      <trkpt lat="59.9286625" lon="17.6410159">
        <ele>22.7283</ele>
        <time>2013-05-30T20:50:40Z</time>
      </trkpt>
      <trkpt lat="59.9287362" lon="17.6410013">
        <ele>22.7283</ele>
        <time>2013-05-30T20:50:41Z</time>
      </trkpt>
      <trkpt lat="59.9288096" lon="17.6409827">
        <ele>22.7283</ele>
        <time>2013-05-30T20:50:42Z</time>
      </trkpt>
      <trkpt lat="59.9288832" lon="17.6409635">
        <ele>22.7283</ele>
        <time>2013-05-30T20:50:43Z</time>
      </trkpt>
      <trkpt lat="59.928958" lon="17.6409472">
        <ele>22.7283</ele>
        <time>2013-05-30T20:50:44Z</time>
      </trkpt>
      <trkpt lat="59.9290321" lon="17.6409376">
        <ele>22.7283</ele>
        <time>2013-05-30T20:50:45Z</time>
      </trkpt>
      <trkpt lat="59.9291043" lon="17.6409362">
        <ele>22.2476</ele>
        <time>2013-05-30T20:50:46Z</time>
      </trkpt>
      <trkpt lat="59.929174" lon="17.6409421">
        <ele>21.2864</ele>
        <time>2013-05-30T20:50:47Z</time>
      </trkpt>
      <trkpt lat="59.9292434" lon="17.6409491">
        <ele>20.325</ele>
        <time>2013-05-30T20:50:48Z</time>
      </trkpt>
      <trkpt lat="59.9293143" lon="17.6409519">
        <ele>19.8444</ele>
        <time>2013-05-30T20:50:49Z</time>
      </trkpt>
      <trkpt lat="59.9293853" lon="17.6409474">
        <ele>19.8444</ele>
        <time>2013-05-30T20:50:50Z</time>
      </trkpt>
      <trkpt lat="59.9294566" lon="17.6409382">
        <ele>20.325</ele>
        <time>2013-05-30T20:50:51Z</time>
      </trkpt>
      <trkpt lat="59.9295288" lon="17.6409253">
        <ele>20.8057</ele>
        <time>2013-05-30T20:50:52Z</time>
      </trkpt>
      <trkpt lat="59.9295997" lon="17.6409081">
        <ele>21.2864</ele>
        <time>2013-05-30T20:50:53Z</time>
      </trkpt>
      <trkpt lat="59.9296692" lon="17.6408889">
        <ele>21.767</ele>
        <time>2013-05-30T20:50:54Z</time>
      </trkpt>
      <trkpt lat="59.9297364" lon="17.640874">
        <ele>21.767</ele>
        <time>2013-05-30T20:50:55Z</time>
      </trkpt>
      <trkpt lat="59.9298039" lon="17.6408589">
        <ele>22.7283</ele>
        <time>2013-05-30T20:50:56Z</time>
      </trkpt>
      <trkpt lat="59.929871" lon="17.64085">
        <ele>23.209</ele>
        <time>2013-05-30T20:50:57Z</time>
      </trkpt>
      <trkpt lat="59.92994" lon="17.640847">
        <ele>23.209</ele>
        <time>2013-05-30T20:50:58Z</time>
      </trkpt>
      <trkpt lat="59.9300121" lon="17.6408486">
        <ele>23.209</ele>
        <time>2013-05-30T20:50:59Z</time>
      </trkpt>
      <trkpt lat="59.9300856" lon="17.6408533">
        <ele>22.7283</ele>
        <time>2013-05-30T20:51:00Z</time>
      </trkpt>
      <trkpt lat="59.9301623" lon="17.6408538">
        <ele>22.7283</ele>
        <time>2013-05-30T20:51:01Z</time>
      </trkpt>
      <trkpt lat="59.9302406" lon="17.6408559">
        <ele>22.7283</ele>
        <time>2013-05-30T20:51:02Z</time>
      </trkpt>
      <trkpt lat="59.9303184" lon="17.6408568">
        <ele>21.767</ele>
        <time>2013-05-30T20:51:03Z</time>
      </trkpt>
      <trkpt lat="59.9303909" lon="17.64086">
        <ele>22.2476</ele>
        <time>2013-05-30T20:51:04Z</time>
      </trkpt>
      <trkpt lat="59.9304603" lon="17.6408614">
        <ele>22.2476</ele>
        <time>2013-05-30T20:51:05Z</time>
      </trkpt>
      <trkpt lat="59.930526" lon="17.6408646">
        <ele>22.7283</ele>
        <time>2013-05-30T20:51:06Z</time>
      </trkpt>
      <trkpt lat="59.9305876" lon="17.640866">
        <ele>22.7283</ele>
        <time>2013-05-30T20:51:07Z</time>
      </trkpt>
      <trkpt lat="59.9306455" lon="17.6408577">
        <ele>22.7283</ele>
        <time>2013-05-30T20:51:08Z</time>
      </trkpt>
      <trkpt lat="59.9307031" lon="17.6408398">
        <ele>23.209</ele>
        <time>2013-05-30T20:51:09Z</time>
      </trkpt>
      <trkpt lat="59.9307604" lon="17.6408314">
        <ele>23.209</ele>
        <time>2013-05-30T20:51:10Z</time>
      </trkpt>
      <trkpt lat="59.9308181" lon="17.640834">
        <ele>23.6896</ele>
        <time>2013-05-30T20:51:11Z</time>
      </trkpt>
      <trkpt lat="59.9308781" lon="17.6408441">
        <ele>23.6896</ele>
        <time>2013-05-30T20:51:12Z</time>
      </trkpt>
      <trkpt lat="59.9309439" lon="17.6408613">
        <ele>24.1703</ele>
        <time>2013-05-30T20:51:13Z</time>
      </trkpt>
      <trkpt lat="59.9310104" lon="17.6408909">
        <ele>24.1703</ele>
        <time>2013-05-30T20:51:14Z</time>
      </trkpt>
      <trkpt lat="59.931076" lon="17.6409344">
        <ele>24.651</ele>
        <time>2013-05-30T20:51:15Z</time>
      </trkpt>
      <trkpt lat="59.9311406" lon="17.6409827">
        <ele>25.1317</ele>
        <time>2013-05-30T20:51:16Z</time>
      </trkpt>
      <trkpt lat="59.9312034" lon="17.6410339">
        <ele>25.1317</ele>
        <time>2013-05-30T20:51:17Z</time>
      </trkpt>
      <trkpt lat="59.9312641" lon="17.6410852">
        <ele>25.6123</ele>
        <time>2013-05-30T20:51:18Z</time>
      </trkpt>
      <trkpt lat="59.9313206" lon="17.6411349">
        <ele>25.6123</ele>
        <time>2013-05-30T20:51:19Z</time>
      </trkpt>
      <trkpt lat="59.9313727" lon="17.6411825">
        <ele>25.6123</ele>
        <time>2013-05-30T20:51:20Z</time>
      </trkpt>
      <trkpt lat="59.9314268" lon="17.6412223">
        <ele>25.6123</ele>
        <time>2013-05-30T20:51:21Z</time>
      </trkpt>
      <trkpt lat="59.9314836" lon="17.6412586">
        <ele>26.0929</ele>
        <time>2013-05-30T20:51:22Z</time>
      </trkpt>
      <trkpt lat="59.9315377" lon="17.6412977">
        <ele>26.0929</ele>
        <time>2013-05-30T20:51:23Z</time>
      </trkpt>
      <trkpt lat="59.9315905" lon="17.6413358">
        <ele>26.5736</ele>
        <time>2013-05-30T20:51:24Z</time>
      </trkpt>
      <trkpt lat="59.9316406" lon="17.641373">
        <ele>26.5736</ele>
        <time>2013-05-30T20:51:25Z</time>
      </trkpt>
      <trkpt lat="59.9316883" lon="17.6414131">
        <ele>26.5736</ele>
        <time>2013-05-30T20:51:26Z</time>
      </trkpt>
      <trkpt lat="59.9317369" lon="17.6414515">
        <ele>26.5736</ele>
        <time>2013-05-30T20:51:27Z</time>
      </trkpt>
      <trkpt lat="59.9317852" lon="17.6414882">
        <ele>27.0543</ele>
        <time>2013-05-30T20:51:28Z</time>
      </trkpt>
      <trkpt lat="59.9318339" lon="17.6415212">
        <ele>28.0155</ele>
        <time>2013-05-30T20:51:29Z</time>
      </trkpt>
      <trkpt lat="59.931883" lon="17.6415498">
        <ele>28.4962</ele>
        <time>2013-05-30T20:51:30Z</time>
      </trkpt>
      <trkpt lat="59.9319299" lon="17.641581">
        <ele>28.4962</ele>
        <time>2013-05-30T20:51:31Z</time>
      </trkpt>
      <trkpt lat="59.9319774" lon="17.6416122">
        <ele>28.4962</ele>
        <time>2013-05-30T20:51:32Z</time>
      </trkpt>
      <trkpt lat="59.9320244" lon="17.6416441">
        <ele>29.4575</ele>
        <time>2013-05-30T20:51:33Z</time>
      </trkpt>
      <trkpt lat="59.9320661" lon="17.6416787">
        <ele>29.4575</ele>
        <time>2013-05-30T20:51:34Z</time>
      </trkpt>
      <trkpt lat="59.932108" lon="17.6417162">
        <ele>29.9381</ele>
        <time>2013-05-30T20:51:35Z</time>
      </trkpt>
      <trkpt lat="59.9321546" lon="17.6417534">
        <ele>30.4188</ele>
        <time>2013-05-30T20:51:36Z</time>
      </trkpt>
      <trkpt lat="59.9322043" lon="17.6417952">
        <ele>30.8995</ele>
        <time>2013-05-30T20:51:37Z</time>
      </trkpt>
      <trkpt lat="59.9322546" lon="17.6418419">
        <ele>30.8995</ele>
        <time>2013-05-30T20:51:38Z</time>
      </trkpt>
      <trkpt lat="59.9323082" lon="17.6418887">
        <ele>30.8995</ele>
        <time>2013-05-30T20:51:39Z</time>
      </trkpt>
      <trkpt lat="59.9323633" lon="17.6419379">
        <ele>31.3801</ele>
        <time>2013-05-30T20:51:40Z</time>
      </trkpt>
      <trkpt lat="59.9324181" lon="17.6419898">
        <ele>31.3801</ele>
        <time>2013-05-30T20:51:41Z</time>
      </trkpt>
      <trkpt lat="59.9324731" lon="17.6420424">
        <ele>31.3801</ele>
        <time>2013-05-30T20:51:42Z</time>
      </trkpt>
      <trkpt lat="59.9325271" lon="17.642096">
        <ele>31.8607</ele>
        <time>2013-05-30T20:51:43Z</time>
      </trkpt>
      <trkpt lat="59.9325799" lon="17.6421513">
        <ele>31.8607</ele>
        <time>2013-05-30T20:51:44Z</time>
      </trkpt>
      <trkpt lat="59.9326313" lon="17.6422072">
        <ele>31.8607</ele>
        <time>2013-05-30T20:51:45Z</time>
      </trkpt>
      <trkpt lat="59.9326813" lon="17.6422648">
        <ele>32.3416</ele>
        <time>2013-05-30T20:51:46Z</time>
      </trkpt>
      <trkpt lat="59.9327284" lon="17.6423274">
        <ele>32.3416</ele>
        <time>2013-05-30T20:51:47Z</time>
      </trkpt>
      <trkpt lat="59.9327713" lon="17.6423949">
        <ele>32.3416</ele>
        <time>2013-05-30T20:51:48Z</time>
      </trkpt>
      <trkpt lat="59.9328121" lon="17.6424681">
        <ele>32.8223</ele>
        <time>2013-05-30T20:51:49Z</time>
      </trkpt>
      <trkpt lat="59.9328504" lon="17.6425427">
        <ele>32.8223</ele>
        <time>2013-05-30T20:51:50Z</time>
      </trkpt>
      <trkpt lat="59.9328896" lon="17.6426147">
        <ele>32.8223</ele>
        <time>2013-05-30T20:51:51Z</time>
      </trkpt>
      <trkpt lat="59.9329319" lon="17.6426807">
        <ele>32.8223</ele>
        <time>2013-05-30T20:51:52Z</time>
      </trkpt>
      <trkpt lat="59.9329755" lon="17.6427417">
        <ele>33.3029</ele>
        <time>2013-05-30T20:51:53Z</time>
      </trkpt>
      <trkpt lat="59.9330192" lon="17.6427994">
        <ele>33.3029</ele>
        <time>2013-05-30T20:51:54Z</time>
      </trkpt>
      <trkpt lat="59.9330601" lon="17.6428562">
        <ele>33.3029</ele>
        <time>2013-05-30T20:51:55Z</time>
      </trkpt>
      <trkpt lat="59.933102" lon="17.64291">
        <ele>33.7834</ele>
        <time>2013-05-30T20:51:56Z</time>
      </trkpt>
      <trkpt lat="59.9331427" lon="17.6429642">
        <ele>33.7834</ele>
        <time>2013-05-30T20:51:57Z</time>
      </trkpt>
      <trkpt lat="59.9331808" lon="17.6430205">
        <ele>34.2642</ele>
        <time>2013-05-30T20:51:58Z</time>
      </trkpt>
      <trkpt lat="59.9332187" lon="17.6430765">
        <ele>34.7449</ele>
        <time>2013-05-30T20:51:59Z</time>
      </trkpt>
      <trkpt lat="59.9332542" lon="17.643133">
        <ele>34.7449</ele>
        <time>2013-05-30T20:52:00Z</time>
      </trkpt>
      <trkpt lat="59.933286" lon="17.6431909">
        <ele>35.2255</ele>
        <time>2013-05-30T20:52:01Z</time>
      </trkpt>
      <trkpt lat="59.9333145" lon="17.6432469">
        <ele>35.2255</ele>
        <time>2013-05-30T20:52:02Z</time>
      </trkpt>
      <trkpt lat="59.9333435" lon="17.6432966">
        <ele>35.2255</ele>
        <time>2013-05-30T20:52:03Z</time>
      </trkpt>
      <trkpt lat="59.9333722" lon="17.6433432">
        <ele>35.2255</ele>
        <time>2013-05-30T20:52:04Z</time>
      </trkpt>
      <trkpt lat="59.933401" lon="17.6433909">
        <ele>35.2255</ele>
        <time>2013-05-30T20:52:05Z</time>
      </trkpt>
      <trkpt lat="59.9334319" lon="17.6434417">
        <ele>35.2255</ele>
        <time>2013-05-30T20:52:06Z</time>
      </trkpt>
      <trkpt lat="59.9334657" lon="17.6434857">
        <ele>35.2255</ele>
        <time>2013-05-30T20:52:07Z</time>
      </trkpt>
      <trkpt lat="59.9334988" lon="17.6435324">
        <ele>34.7449</ele>
        <time>2013-05-30T20:52:08Z</time>
      </trkpt>
      <trkpt lat="59.9335361" lon="17.6435769">
        <ele>34.7449</ele>
        <time>2013-05-30T20:52:09Z</time>
      </trkpt>
      <trkpt lat="59.9335713" lon="17.6436205">
        <ele>34.7449</ele>
        <time>2013-05-30T20:52:10Z</time>
      </trkpt>
      <trkpt lat="59.9336066" lon="17.6436628">
        <ele>34.7449</ele>
        <time>2013-05-30T20:52:11Z</time>
      </trkpt>
      <trkpt lat="59.9336414" lon="17.6437038">
        <ele>34.2642</ele>
        <time>2013-05-30T20:52:12Z</time>
      </trkpt>
      <trkpt lat="59.9336787" lon="17.6437458">
        <ele>34.7449</ele>
        <time>2013-05-30T20:52:13Z</time>
      </trkpt>
      <trkpt lat="59.9337134" lon="17.643787">
        <ele>34.7449</ele>
        <time>2013-05-30T20:52:14Z</time>
      </trkpt>
      <trkpt lat="59.933749" lon="17.6438232">
        <ele>34.2642</ele>
        <time>2013-05-30T20:52:15Z</time>
      </trkpt>
      <trkpt lat="59.9337885" lon="17.643856">
        <ele>34.7449</ele>
        <time>2013-05-30T20:52:16Z</time>
      </trkpt>
      <trkpt lat="59.9338278" lon="17.64389">
        <ele>34.7449</ele>
        <time>2013-05-30T20:52:17Z</time>
      </trkpt>
      <trkpt lat="59.933867" lon="17.6439259">
        <ele>34.7449</ele>
        <time>2013-05-30T20:52:18Z</time>
      </trkpt>
      <trkpt lat="59.933906" lon="17.6439647">
        <ele>34.7449</ele>
        <time>2013-05-30T20:52:19Z</time>
      </trkpt>
      <trkpt lat="59.9339444" lon="17.6440053">
        <ele>35.2255</ele>
        <time>2013-05-30T20:52:20Z</time>
      </trkpt>
      <trkpt lat="59.9339825" lon="17.644047">
        <ele>35.2255</ele>
        <time>2013-05-30T20:52:21Z</time>
      </trkpt>
      <trkpt lat="59.9340201" lon="17.6440937">
        <ele>35.2255</ele>
        <time>2013-05-30T20:52:22Z</time>
      </trkpt>
      <trkpt lat="59.9340576" lon="17.6441456">
        <ele>35.2255</ele>
        <time>2013-05-30T20:52:23Z</time>
      </trkpt>
      <trkpt lat="59.934095" lon="17.6442004">
        <ele>35.2255</ele>
        <time>2013-05-30T20:52:24Z</time>
      </trkpt>
      <trkpt lat="59.9341325" lon="17.6442533">
        <ele>35.7061</ele>
        <time>2013-05-30T20:52:25Z</time>
      </trkpt>
      <trkpt lat="59.9341733" lon="17.6443043">
        <ele>35.7061</ele>
        <time>2013-05-30T20:52:26Z</time>
      </trkpt>
      <trkpt lat="59.9342145" lon="17.6443571">
        <ele>36.1868</ele>
        <time>2013-05-30T20:52:27Z</time>
      </trkpt>
      <trkpt lat="59.9342562" lon="17.6444109">
        <ele>36.1868</ele>
        <time>2013-05-30T20:52:28Z</time>
      </trkpt>
      <trkpt lat="59.9342996" lon="17.6444643">
        <ele>36.6675</ele>
        <time>2013-05-30T20:52:29Z</time>
      </trkpt>
      <trkpt lat="59.9343417" lon="17.6445189">
        <ele>37.1481</ele>
        <time>2013-05-30T20:52:30Z</time>
      </trkpt>
      <trkpt lat="59.9343836" lon="17.6445756">
        <ele>37.6287</ele>
        <time>2013-05-30T20:52:31Z</time>
      </trkpt>
      <trkpt lat="59.9344188" lon="17.644637">
        <ele>37.6287</ele>
        <time>2013-05-30T20:52:32Z</time>
      </trkpt>
      <trkpt lat="59.9344471" lon="17.6447016">
        <ele>37.6287</ele>
        <time>2013-05-30T20:52:33Z</time>
      </trkpt>
      <trkpt lat="59.9344772" lon="17.6447595">
        <ele>37.6287</ele>
        <time>2013-05-30T20:52:34Z</time>
      </trkpt>
      <trkpt lat="59.934508" lon="17.6448116">
        <ele>38.1094</ele>
        <time>2013-05-30T20:52:35Z</time>
      </trkpt>
      <trkpt lat="59.9345422" lon="17.6448618">
        <ele>38.1094</ele>
        <time>2013-05-30T20:52:36Z</time>
      </trkpt>
      <trkpt lat="59.9345789" lon="17.6449102">
        <ele>38.1094</ele>
        <time>2013-05-30T20:52:37Z</time>
      </trkpt>
      <trkpt lat="59.9346182" lon="17.6449559">
        <ele>38.5901</ele>
        <time>2013-05-30T20:52:38Z</time>
      </trkpt>
      <trkpt lat="59.9346588" lon="17.6450004">
        <ele>38.5901</ele>
        <time>2013-05-30T20:52:39Z</time>
      </trkpt>
      <trkpt lat="59.934699" lon="17.6450462">
        <ele>38.5901</ele>
        <time>2013-05-30T20:52:40Z</time>
      </trkpt>
      <trkpt lat="59.9347353" lon="17.6450989">
        <ele>38.5901</ele>
        <time>2013-05-30T20:52:41Z</time>
      </trkpt>
      <trkpt lat="59.9347685" lon="17.6451619">
        <ele>37.6287</ele>
        <time>2013-05-30T20:52:42Z</time>
      </trkpt>
      <trkpt lat="59.9348059" lon="17.6452174">
        <ele>37.6287</ele>
        <time>2013-05-30T20:52:43Z</time>
      </trkpt>
      <trkpt lat="59.9348441" lon="17.6452714">
        <ele>37.1481</ele>
        <time>2013-05-30T20:52:44Z</time>
      </trkpt>
      <trkpt lat="59.9348824" lon="17.6453184">
        <ele>36.6675</ele>
        <time>2013-05-30T20:52:45Z</time>
      </trkpt>
      <trkpt lat="59.9349216" lon="17.6453679">
        <ele>36.1868</ele>
        <time>2013-05-30T20:52:46Z</time>
      </trkpt>
      <trkpt lat="59.9349657" lon="17.6454158">
        <ele>36.1868</ele>
        <time>2013-05-30T20:52:47Z</time>
      </trkpt>
      <trkpt lat="59.9350093" lon="17.6454612">
        <ele>35.7061</ele>
        <time>2013-05-30T20:52:48Z</time>
      </trkpt>
      <trkpt lat="59.9350527" lon="17.6455137">
        <ele>35.2255</ele>
        <time>2013-05-30T20:52:49Z</time>
      </trkpt>
      <trkpt lat="59.9351006" lon="17.6455646">
        <ele>34.7449</ele>
        <time>2013-05-30T20:52:50Z</time>
      </trkpt>
      <trkpt lat="59.9351459" lon="17.6456224">
        <ele>34.2642</ele>
        <time>2013-05-30T20:52:51Z</time>
      </trkpt>
      <trkpt lat="59.9351904" lon="17.6456883">
        <ele>33.7834</ele>
        <time>2013-05-30T20:52:52Z</time>
      </trkpt>
      <trkpt lat="59.9352373" lon="17.6457566">
        <ele>33.7834</ele>
        <time>2013-05-30T20:52:53Z</time>
      </trkpt>
      <trkpt lat="59.9352881" lon="17.6458207">
        <ele>33.7834</ele>
        <time>2013-05-30T20:52:54Z</time>
      </trkpt>
      <trkpt lat="59.9353412" lon="17.6458793">
        <ele>34.2642</ele>
        <time>2013-05-30T20:52:55Z</time>
      </trkpt>
      <trkpt lat="59.9353989" lon="17.6459311">
        <ele>35.2255</ele>
        <time>2013-05-30T20:52:56Z</time>
      </trkpt>
      <trkpt lat="59.9354568" lon="17.6459852">
        <ele>35.7061</ele>
        <time>2013-05-30T20:52:57Z</time>
      </trkpt>
      <trkpt lat="59.9355157" lon="17.6460408">
        <ele>36.1868</ele>
        <time>2013-05-30T20:52:58Z</time>
      </trkpt>
      <trkpt lat="59.9355701" lon="17.6461025">
        <ele>36.1868</ele>
        <time>2013-05-30T20:52:59Z</time>
      </trkpt>
      <trkpt lat="59.9356243" lon="17.6461674">
        <ele>36.6675</ele>
        <time>2013-05-30T20:53:00Z</time>
      </trkpt>
      <trkpt lat="59.9356802" lon="17.6462358">
        <ele>36.1868</ele>
        <time>2013-05-30T20:53:01Z</time>
      </trkpt>
      <trkpt lat="59.93573" lon="17.6463052">
        <ele>35.7061</ele>
        <time>2013-05-30T20:53:02Z</time>
      </trkpt>
      <trkpt lat="59.9357794" lon="17.6463757">
        <ele>35.7061</ele>
        <time>2013-05-30T20:53:03Z</time>
      </trkpt>
      <trkpt lat="59.9358313" lon="17.6464373">
        <ele>36.1868</ele>
        <time>2013-05-30T20:53:04Z</time>
      </trkpt>
      <trkpt lat="59.9358843" lon="17.6464948">
        <ele>36.6675</ele>
        <time>2013-05-30T20:53:05Z</time>
      </trkpt>
      <trkpt lat="59.9359355" lon="17.6465549">
        <ele>36.6675</ele>
        <time>2013-05-30T20:53:06Z</time>
      </trkpt>
      <trkpt lat="59.9359866" lon="17.6466175">
        <ele>36.6675</ele>
        <time>2013-05-30T20:53:07Z</time>
      </trkpt>
      <trkpt lat="59.9360387" lon="17.6466828">
        <ele>36.6675</ele>
        <time>2013-05-30T20:53:08Z</time>
      </trkpt>
      <trkpt lat="59.9360923" lon="17.6467498">
        <ele>36.6675</ele>
        <time>2013-05-30T20:53:09Z</time>
      </trkpt>
      <trkpt lat="59.9361498" lon="17.6468134">
        <ele>36.6675</ele>
        <time>2013-05-30T20:53:10Z</time>
      </trkpt>
      <trkpt lat="59.9362061" lon="17.6468787">
        <ele>37.1481</ele>
        <time>2013-05-30T20:53:11Z</time>
      </trkpt>
      <trkpt lat="59.9362604" lon="17.6469492">
        <ele>37.1481</ele>
        <time>2013-05-30T20:53:12Z</time>
      </trkpt>
      <trkpt lat="59.9363153" lon="17.6470194">
        <ele>37.1481</ele>
        <time>2013-05-30T20:53:13Z</time>
      </trkpt>
      <trkpt lat="59.9363682" lon="17.647091">
        <ele>37.1481</ele>
        <time>2013-05-30T20:53:14Z</time>
      </trkpt>
      <trkpt lat="59.936422" lon="17.6471633">
        <ele>37.1481</ele>
        <time>2013-05-30T20:53:15Z</time>
      </trkpt>
      <trkpt lat="59.9364784" lon="17.6472319">
        <ele>37.1481</ele>
        <time>2013-05-30T20:53:16Z</time>
      </trkpt>
      <trkpt lat="59.9365345" lon="17.6473037">
        <ele>37.6287</ele>
        <time>2013-05-30T20:53:17Z</time>
      </trkpt>
      <trkpt lat="59.9365896" lon="17.647382">
        <ele>38.1094</ele>
        <time>2013-05-30T20:53:18Z</time>
      </trkpt>
      <trkpt lat="59.9366436" lon="17.6474597">
        <ele>38.1094</ele>
        <time>2013-05-30T20:53:19Z</time>
      </trkpt>
      <trkpt lat="59.9366932" lon="17.6475355">
        <ele>37.6287</ele>
        <time>2013-05-30T20:53:20Z</time>
      </trkpt>
      <trkpt lat="59.9367447" lon="17.6476092">
        <ele>37.6287</ele>
        <time>2013-05-30T20:53:21Z</time>
      </trkpt>
      <trkpt lat="59.9367961" lon="17.6476801">
        <ele>37.6287</ele>
        <time>2013-05-30T20:53:22Z</time>
      </trkpt>
      <trkpt lat="59.9368509" lon="17.6477475">
        <ele>37.6287</ele>
        <time>2013-05-30T20:53:23Z</time>
      </trkpt>
      <trkpt lat="59.9369051" lon="17.6478167">
        <ele>37.6287</ele>
        <time>2013-05-30T20:53:24Z</time>
      </trkpt>
      <trkpt lat="59.936961" lon="17.6478856">
        <ele>37.1481</ele>
        <time>2013-05-30T20:53:25Z</time>
      </trkpt>
      <trkpt lat="59.9370125" lon="17.6479535">
        <ele>37.1481</ele>
        <time>2013-05-30T20:53:26Z</time>
      </trkpt>
      <trkpt lat="59.9370644" lon="17.6480204">
        <ele>36.6675</ele>
        <time>2013-05-30T20:53:27Z</time>
      </trkpt>
      <trkpt lat="59.9371166" lon="17.6480892">
        <ele>36.1868</ele>
        <time>2013-05-30T20:53:28Z</time>
      </trkpt>
      <trkpt lat="59.9371685" lon="17.6481528">
        <ele>36.1868</ele>
        <time>2013-05-30T20:53:29Z</time>
      </trkpt>
      <trkpt lat="59.9372196" lon="17.6482189">
        <ele>35.7061</ele>
        <time>2013-05-30T20:53:30Z</time>
      </trkpt>
      <trkpt lat="59.9372721" lon="17.648289">
        <ele>35.7061</ele>
        <time>2013-05-30T20:53:31Z</time>
      </trkpt>
      <trkpt lat="59.9373249" lon="17.6483721">
        <ele>34.7449</ele>
        <time>2013-05-30T20:53:32Z</time>
      </trkpt>
      <trkpt lat="59.9373726" lon="17.6484648">
        <ele>34.2642</ele>
        <time>2013-05-30T20:53:33Z</time>
      </trkpt>
      <trkpt lat="59.9374134" lon="17.6485616">
        <ele>34.2642</ele>
        <time>2013-05-30T20:53:34Z</time>
      </trkpt>
      <trkpt lat="59.9374396" lon="17.6486584">
        <ele>33.3029</ele>
        <time>2013-05-30T20:53:35Z</time>
      </trkpt>
      <trkpt lat="59.937459" lon="17.6487513">
        <ele>31.8607</ele>
        <time>2013-05-30T20:53:36Z</time>
      </trkpt>
      <trkpt lat="59.9374835" lon="17.6488477">
        <ele>30.8995</ele>
        <time>2013-05-30T20:53:37Z</time>
      </trkpt>
      <trkpt lat="59.9375133" lon="17.6489451">
        <ele>29.9381</ele>
        <time>2013-05-30T20:53:38Z</time>
      </trkpt>
      <trkpt lat="59.9375513" lon="17.6490311">
        <ele>29.4575</ele>
        <time>2013-05-30T20:53:39Z</time>
      </trkpt>
      <trkpt lat="59.9375937" lon="17.6491056">
        <ele>29.4575</ele>
        <time>2013-05-30T20:53:40Z</time>
      </trkpt>
      <trkpt lat="59.937637" lon="17.64918">
        <ele>28.4962</ele>
        <time>2013-05-30T20:53:41Z</time>
      </trkpt>
      <trkpt lat="59.9376795" lon="17.6492609">
        <ele>28.0155</ele>
        <time>2013-05-30T20:53:42Z</time>
      </trkpt>
      <trkpt lat="59.9377302" lon="17.6493468">
        <ele>28.9769</ele>
        <time>2013-05-30T20:53:43Z</time>
      </trkpt>
      <trkpt lat="59.9377823" lon="17.6494375">
        <ele>29.9381</ele>
        <time>2013-05-30T20:53:44Z</time>
      </trkpt>
      <trkpt lat="59.937822" lon="17.6495372">
        <ele>29.4575</ele>
        <time>2013-05-30T20:53:45Z</time>
      </trkpt>
      <trkpt lat="59.9378582" lon="17.6496525">
        <ele>27.5349</ele>
        <time>2013-05-30T20:53:46Z</time>
      </trkpt>
      <trkpt lat="59.9378901" lon="17.6497544">
        <ele>27.5349</ele>
        <time>2013-05-30T20:53:47Z</time>
      </trkpt>
      <trkpt lat="59.9379257" lon="17.6498493">
        <ele>28.0155</ele>
        <time>2013-05-30T20:53:48Z</time>
      </trkpt>
      <trkpt lat="59.9379628" lon="17.6499541">
        <ele>28.0155</ele>
        <time>2013-05-30T20:53:49Z</time>
      </trkpt>
      <trkpt lat="59.9380111" lon="17.650052">
        <ele>28.4962</ele>
        <time>2013-05-30T20:53:50Z</time>
      </trkpt>
      <trkpt lat="59.9380604" lon="17.6501509">
        <ele>29.9381</ele>
        <time>2013-05-30T20:53:51Z</time>
      </trkpt>
      <trkpt lat="59.9380956" lon="17.6502602">
        <ele>29.9381</ele>
        <time>2013-05-30T20:53:52Z</time>
      </trkpt>
      <trkpt lat="59.9381331" lon="17.6503779">
        <ele>29.9381</ele>
        <time>2013-05-30T20:53:53Z</time>
      </trkpt>
      <trkpt lat="59.9381729" lon="17.6504975">
        <ele>28.9769</ele>
        <time>2013-05-30T20:53:54Z</time>
      </trkpt>
      <trkpt lat="59.9382122" lon="17.6506128">
        <ele>28.9769</ele>
        <time>2013-05-30T20:53:55Z</time>
      </trkpt>
      <trkpt lat="59.938253" lon="17.650729">
        <ele>27.5349</ele>
        <time>2013-05-30T20:53:56Z</time>
      </trkpt>
      <trkpt lat="59.9382935" lon="17.6508381">
        <ele>26.5736</ele>
        <time>2013-05-30T20:53:57Z</time>
      </trkpt>
      <trkpt lat="59.9383392" lon="17.650948">
        <ele>26.0929</ele>
        <time>2013-05-30T20:53:58Z</time>
      </trkpt>
      <trkpt lat="59.9383918" lon="17.651059">
        <ele>26.5736</ele>
        <time>2013-05-30T20:53:59Z</time>
      </trkpt>
      <trkpt lat="59.9384435" lon="17.6511762">
        <ele>26.5736</ele>
        <time>2013-05-30T20:54:00Z</time>
      </trkpt>
      <trkpt lat="59.9384904" lon="17.6512992">
        <ele>27.0543</ele>
        <time>2013-05-30T20:54:01Z</time>
      </trkpt>
      <trkpt lat="59.9385354" lon="17.6514212">
        <ele>27.5349</ele>
        <time>2013-05-30T20:54:02Z</time>
      </trkpt>
      <trkpt lat="59.9385793" lon="17.6515471">
        <ele>28.4962</ele>
        <time>2013-05-30T20:54:03Z</time>
      </trkpt>
      <trkpt lat="59.9386205" lon="17.6516806">
        <ele>28.4962</ele>
        <time>2013-05-30T20:54:04Z</time>
      </trkpt>
      <trkpt lat="59.9386541" lon="17.6518242">
        <ele>28.0155</ele>
        <time>2013-05-30T20:54:05Z</time>
      </trkpt>
      <trkpt lat="59.9386898" lon="17.651966">
        <ele>27.0543</ele>
        <time>2013-05-30T20:54:06Z</time>
      </trkpt>
      <trkpt lat="59.9387308" lon="17.6521074">
        <ele>27.0543</ele>
        <time>2013-05-30T20:54:07Z</time>
      </trkpt>
      <trkpt lat="59.9387725" lon="17.6522523">
        <ele>27.5349</ele>
        <time>2013-05-30T20:54:08Z</time>
      </trkpt>
      <trkpt lat="59.9388148" lon="17.6523986">
        <ele>27.0543</ele>
        <time>2013-05-30T20:54:09Z</time>
      </trkpt>
      <trkpt lat="59.9388626" lon="17.6525434">
        <ele>26.5736</ele>
        <time>2013-05-30T20:54:10Z</time>
      </trkpt>
      <trkpt lat="59.9389032" lon="17.6526857">
        <ele>26.5736</ele>
        <time>2013-05-30T20:54:11Z</time>
      </trkpt>
      <trkpt lat="59.9389437" lon="17.6528252">
        <ele>26.0929</ele>
        <time>2013-05-30T20:54:12Z</time>
      </trkpt>
      <trkpt lat="59.9389789" lon="17.652957">
        <ele>26.5736</ele>
        <time>2013-05-30T20:54:13Z</time>
      </trkpt>
      <trkpt lat="59.9390146" lon="17.6530708">
        <ele>27.5349</ele>
        <time>2013-05-30T20:54:14Z</time>
      </trkpt>
      <trkpt lat="59.9390425" lon="17.6531834">
        <ele>28.0155</ele>
        <time>2013-05-30T20:54:15Z</time>
      </trkpt>
      <trkpt lat="59.9390672" lon="17.6532956">
        <ele>27.5349</ele>
        <time>2013-05-30T20:54:16Z</time>
      </trkpt>
      <trkpt lat="59.9390945" lon="17.6534082">
        <ele>27.5349</ele>
        <time>2013-05-30T20:54:17Z</time>
      </trkpt>
      <trkpt lat="59.9391157" lon="17.6535329">
        <ele>26.5736</ele>
        <time>2013-05-30T20:54:18Z</time>
      </trkpt>
      <trkpt lat="59.9391398" lon="17.6536496">
        <ele>26.0929</ele>
        <time>2013-05-30T20:54:19Z</time>
      </trkpt>
      <trkpt lat="59.9391632" lon="17.6537692">
        <ele>25.6123</ele>
        <time>2013-05-30T20:54:20Z</time>
      </trkpt>
      <trkpt lat="59.9391843" lon="17.6538762">
        <ele>26.0929</ele>
        <time>2013-05-30T20:54:21Z</time>
      </trkpt>
      <trkpt lat="59.9392053" lon="17.6539798">
        <ele>26.5736</ele>
        <time>2013-05-30T20:54:22Z</time>
      </trkpt>
      <trkpt lat="59.9392218" lon="17.6540842">
        <ele>26.5736</ele>
        <time>2013-05-30T20:54:23Z</time>
      </trkpt>
      <trkpt lat="59.9392476" lon="17.654181">
        <ele>26.5736</ele>
        <time>2013-05-30T20:54:24Z</time>
      </trkpt>
      <trkpt lat="59.9392745" lon="17.6542848">
        <ele>27.0543</ele>
        <time>2013-05-30T20:54:25Z</time>
      </trkpt>
      <trkpt lat="59.9392983" lon="17.6543867">
        <ele>27.5349</ele>
        <time>2013-05-30T20:54:26Z</time>
      </trkpt>
      <trkpt lat="59.9393165" lon="17.6545017">
        <ele>28.4962</ele>
        <time>2013-05-30T20:54:27Z</time>
      </trkpt>
      <trkpt lat="59.9393378" lon="17.6546147">
        <ele>29.4575</ele>
        <time>2013-05-30T20:54:28Z</time>
      </trkpt>
      <trkpt lat="59.9393585" lon="17.6547284">
        <ele>29.9381</ele>
        <time>2013-05-30T20:54:29Z</time>
      </trkpt>
      <trkpt lat="59.9393803" lon="17.6548423">
        <ele>30.8995</ele>
        <time>2013-05-30T20:54:30Z</time>
      </trkpt>
      <trkpt lat="59.9394031" lon="17.654956">
        <ele>31.8607</ele>
        <time>2013-05-30T20:54:31Z</time>
      </trkpt>
      <trkpt lat="59.9394267" lon="17.655071">
        <ele>32.3416</ele>
        <time>2013-05-30T20:54:32Z</time>
      </trkpt>
      <trkpt lat="59.93945" lon="17.6551859">
        <ele>33.3029</ele>
        <time>2013-05-30T20:54:33Z</time>
      </trkpt>
      <trkpt lat="59.939472" lon="17.6553011">
        <ele>33.7834</ele>
        <time>2013-05-30T20:54:34Z</time>
      </trkpt>
      <trkpt lat="59.9394932" lon="17.6554178">
        <ele>33.7834</ele>
        <time>2013-05-30T20:54:35Z</time>
      </trkpt>
      <trkpt lat="59.9395135" lon="17.6555342">
        <ele>34.2642</ele>
        <time>2013-05-30T20:54:36Z</time>
      </trkpt>
      <trkpt lat="59.9395337" lon="17.6556501">
        <ele>34.2642</ele>
        <time>2013-05-30T20:54:37Z</time>
      </trkpt>
      <trkpt lat="59.9395543" lon="17.6557654">
        <ele>34.7449</ele>
        <time>2013-05-30T20:54:38Z</time>
      </trkpt>
      <trkpt lat="59.9395759" lon="17.6558806">
        <ele>34.7449</ele>
        <time>2013-05-30T20:54:39Z</time>
      </trkpt>
      <trkpt lat="59.9396" lon="17.6560022">
        <ele>34.2642</ele>
        <time>2013-05-30T20:54:40Z</time>
      </trkpt>
      <trkpt lat="59.9396262" lon="17.6561187">
        <ele>34.7449</ele>
        <time>2013-05-30T20:54:41Z</time>
      </trkpt>
      <trkpt lat="59.9396519" lon="17.6562267">
        <ele>34.7449</ele>
        <time>2013-05-30T20:54:42Z</time>
      </trkpt>
      <trkpt lat="59.9396782" lon="17.6563321">
        <ele>35.2255</ele>
        <time>2013-05-30T20:54:43Z</time>
      </trkpt>
      <trkpt lat="59.9397021" lon="17.6564437">
        <ele>35.2255</ele>
        <time>2013-05-30T20:54:44Z</time>
      </trkpt>
      <trkpt lat="59.939727" lon="17.6565567">
        <ele>34.7449</ele>
        <time>2013-05-30T20:54:45Z</time>
      </trkpt>
      <trkpt lat="59.9397526" lon="17.6566731">
        <ele>34.7449</ele>
        <time>2013-05-30T20:54:46Z</time>
      </trkpt>
      <trkpt lat="59.9397764" lon="17.6567952">
        <ele>34.7449</ele>
        <time>2013-05-30T20:54:47Z</time>
      </trkpt>
      <trkpt lat="59.9398013" lon="17.6569214">
        <ele>34.7449</ele>
        <time>2013-05-30T20:54:48Z</time>
      </trkpt>
      <trkpt lat="59.9398271" lon="17.6570466">
        <ele>34.7449</ele>
        <time>2013-05-30T20:54:49Z</time>
      </trkpt>
      <trkpt lat="59.9398541" lon="17.6571727">
        <ele>34.7449</ele>
        <time>2013-05-30T20:54:50Z</time>
      </trkpt>
      <trkpt lat="59.9398811" lon="17.6573022">
        <ele>34.7449</ele>
        <time>2013-05-30T20:54:51Z</time>
      </trkpt>
      <trkpt lat="59.9399081" lon="17.6574341">
        <ele>34.7449</ele>
        <time>2013-05-30T20:54:52Z</time>
      </trkpt>
      <trkpt lat="59.9399366" lon="17.6575651">
        <ele>34.7449</ele>
        <time>2013-05-30T20:54:53Z</time>
      </trkpt>
      <trkpt lat="59.9399656" lon="17.6576961">
        <ele>34.2642</ele>
        <time>2013-05-30T20:54:54Z</time>
      </trkpt>
      <trkpt lat="59.9399962" lon="17.6578308">
        <ele>33.7834</ele>
        <time>2013-05-30T20:54:55Z</time>
      </trkpt>
      <trkpt lat="59.940025" lon="17.6579645">
        <ele>33.7834</ele>
        <time>2013-05-30T20:54:56Z</time>
      </trkpt>
      <trkpt lat="59.9400535" lon="17.6580982">
        <ele>33.7834</ele>
        <time>2013-05-30T20:54:57Z</time>
      </trkpt>
      <trkpt lat="59.9400803" lon="17.6582301">
        <ele>32.8223</ele>
        <time>2013-05-30T20:54:58Z</time>
      </trkpt>
      <trkpt lat="59.9401093" lon="17.6583717">
        <ele>32.8223</ele>
        <time>2013-05-30T20:54:59Z</time>
      </trkpt>
      <trkpt lat="59.9401395" lon="17.6585107">
        <ele>32.8223</ele>
        <time>2013-05-30T20:55:00Z</time>
      </trkpt>
      <trkpt lat="59.9401721" lon="17.6586544">
        <ele>32.8223</ele>
        <time>2013-05-30T20:55:01Z</time>
      </trkpt>
      <trkpt lat="59.9402028" lon="17.6587898">
        <ele>32.3416</ele>
        <time>2013-05-30T20:55:02Z</time>
      </trkpt>
      <trkpt lat="59.9402343" lon="17.6589359">
        <ele>31.8607</ele>
        <time>2013-05-30T20:55:03Z</time>
      </trkpt>
      <trkpt lat="59.9402649" lon="17.6590789">
        <ele>31.8607</ele>
        <time>2013-05-30T20:55:04Z</time>
      </trkpt>
      <trkpt lat="59.940292" lon="17.6592183">
        <ele>31.8607</ele>
        <time>2013-05-30T20:55:05Z</time>
      </trkpt>
      <trkpt lat="59.9403147" lon="17.6593527">
        <ele>31.8607</ele>
        <time>2013-05-30T20:55:06Z</time>
      </trkpt>
      <trkpt lat="59.9403355" lon="17.6594918">
        <ele>31.3801</ele>
        <time>2013-05-30T20:55:07Z</time>
      </trkpt>
      <trkpt lat="59.9403588" lon="17.6596247">
        <ele>31.3801</ele>
        <time>2013-05-30T20:55:08Z</time>
      </trkpt>
      <trkpt lat="59.9403793" lon="17.6597468">
        <ele>30.4188</ele>
        <time>2013-05-30T20:55:09Z</time>
      </trkpt>
      <trkpt lat="59.9404001" lon="17.6598662">
        <ele>29.9381</ele>
        <time>2013-05-30T20:55:10Z</time>
      </trkpt>
      <trkpt lat="59.9404241" lon="17.6599896">
        <ele>29.4575</ele>
        <time>2013-05-30T20:55:11Z</time>
      </trkpt>
      <trkpt lat="59.9404563" lon="17.6600903">
        <ele>29.4575</ele>
        <time>2013-05-30T20:55:12Z</time>
      </trkpt>
      <trkpt lat="59.9404291" lon="17.6600055">
        <ele>29.9381</ele>
        <time>2013-05-30T20:55:13Z</time>
      </trkpt>
      <trkpt lat="59.9404148" lon="17.6601079">
        <ele>30.4188</ele>
        <time>2013-05-30T20:55:14Z</time>
      </trkpt>
      <trkpt lat="59.9404759" lon="17.6603731">
        <ele>28.9769</ele>
        <time>2013-05-30T20:55:15Z</time>
      </trkpt>
      <trkpt lat="59.9404943" lon="17.6605073">
        <ele>28.4962</ele>
        <time>2013-05-30T20:55:16Z</time>
      </trkpt>
      <trkpt lat="59.9404955" lon="17.660636">
        <ele>28.0155</ele>
        <time>2013-05-30T20:55:17Z</time>
      </trkpt>
      <trkpt lat="59.9404462" lon="17.6607844">
        <ele>28.0155</ele>
        <time>2013-05-30T20:55:18Z</time>
      </trkpt>
      <trkpt lat="59.940417" lon="17.6609732">
        <ele>28.9769</ele>
        <time>2013-05-30T20:55:19Z</time>
      </trkpt>
      <trkpt lat="59.9403882" lon="17.6611274">
        <ele>28.0155</ele>
        <time>2013-05-30T20:55:20Z</time>
      </trkpt>
      <trkpt lat="59.9403643" lon="17.6612789">
        <ele>27.5349</ele>
        <time>2013-05-30T20:55:21Z</time>
      </trkpt>
      <trkpt lat="59.9403584" lon="17.6614306">
        <ele>26.5736</ele>
        <time>2013-05-30T20:55:22Z</time>
      </trkpt>
      <trkpt lat="59.9403674" lon="17.6615915">
        <ele>25.1317</ele>
        <time>2013-05-30T20:55:23Z</time>
      </trkpt>
      <trkpt lat="59.9403978" lon="17.6617313">
        <ele>25.1317</ele>
        <time>2013-05-30T20:55:24Z</time>
      </trkpt>
      <trkpt lat="59.9404452" lon="17.6618493">
        <ele>25.6123</ele>
        <time>2013-05-30T20:55:25Z</time>
      </trkpt>
      <trkpt lat="59.940499" lon="17.6619564">
        <ele>26.5736</ele>
        <time>2013-05-30T20:55:26Z</time>
      </trkpt>
      <trkpt lat="59.940563" lon="17.6620373">
        <ele>27.0543</ele>
        <time>2013-05-30T20:55:27Z</time>
      </trkpt>
      <trkpt lat="59.9406273" lon="17.662108">
        <ele>26.5736</ele>
        <time>2013-05-30T20:55:28Z</time>
      </trkpt>
      <trkpt lat="59.9407042" lon="17.6621532">
        <ele>27.5349</ele>
        <time>2013-05-30T20:55:29Z</time>
      </trkpt>
      <trkpt lat="59.9407879" lon="17.6621822">
        <ele>29.4575</ele>
        <time>2013-05-30T20:55:30Z</time>
      </trkpt>
      <trkpt lat="59.9408665" lon="17.6621989">
        <ele>30.8995</ele>
        <time>2013-05-30T20:55:31Z</time>
      </trkpt>
      <trkpt lat="59.9409469" lon="17.6622092">
        <ele>32.8223</ele>
        <time>2013-05-30T20:55:32Z</time>
      </trkpt>
      <trkpt lat="59.9410232" lon="17.662235">
        <ele>33.7834</ele>
        <time>2013-05-30T20:55:33Z</time>
      </trkpt>
      <trkpt lat="59.941101" lon="17.6622656">
        <ele>35.2255</ele>
        <time>2013-05-30T20:55:34Z</time>
      </trkpt>
      <trkpt lat="59.9411756" lon="17.662306">
        <ele>36.1868</ele>
        <time>2013-05-30T20:55:35Z</time>
      </trkpt>
      <trkpt lat="59.9412472" lon="17.6623541">
        <ele>36.6675</ele>
        <time>2013-05-30T20:55:36Z</time>
      </trkpt>
      <trkpt lat="59.9413146" lon="17.662408">
        <ele>36.6675</ele>
        <time>2013-05-30T20:55:37Z</time>
      </trkpt>
      <trkpt lat="59.9413763" lon="17.6624752">
        <ele>36.1868</ele>
        <time>2013-05-30T20:55:38Z</time>
      </trkpt>
      <trkpt lat="59.9414361" lon="17.6625432">
        <ele>36.6675</ele>
        <time>2013-05-30T20:55:39Z</time>
      </trkpt>
      <trkpt lat="59.94149" lon="17.6626199">
        <ele>36.1868</ele>
        <time>2013-05-30T20:55:40Z</time>
      </trkpt>
      <trkpt lat="59.9415423" lon="17.6627014">
        <ele>36.1868</ele>
        <time>2013-05-30T20:55:41Z</time>
      </trkpt>
      <trkpt lat="59.9415918" lon="17.662784">
        <ele>36.1868</ele>
        <time>2013-05-30T20:55:42Z</time>
      </trkpt>
      <trkpt lat="59.9416471" lon="17.6628639">
        <ele>36.1868</ele>
        <time>2013-05-30T20:55:43Z</time>
      </trkpt>
      <trkpt lat="59.9416963" lon="17.6629419">
        <ele>36.1868</ele>
        <time>2013-05-30T20:55:44Z</time>
      </trkpt>
      <trkpt lat="59.9417496" lon="17.6630212">
        <ele>35.7061</ele>
        <time>2013-05-30T20:55:45Z</time>
      </trkpt>
      <trkpt lat="59.9417936" lon="17.6631054">
        <ele>36.1868</ele>
        <time>2013-05-30T20:55:46Z</time>
      </trkpt>
      <trkpt lat="59.9418441" lon="17.6631918">
        <ele>36.1868</ele>
        <time>2013-05-30T20:55:47Z</time>
      </trkpt>
      <trkpt lat="59.9418919" lon="17.6632748">
        <ele>36.6675</ele>
        <time>2013-05-30T20:55:48Z</time>
      </trkpt>
      <trkpt lat="59.9419403" lon="17.6633564">
        <ele>37.1481</ele>
        <time>2013-05-30T20:55:49Z</time>
      </trkpt>
      <trkpt lat="59.9419964" lon="17.6634359">
        <ele>37.1481</ele>
        <time>2013-05-30T20:55:50Z</time>
      </trkpt>
      <trkpt lat="59.9420438" lon="17.6635094">
        <ele>37.6287</ele>
        <time>2013-05-30T20:55:51Z</time>
      </trkpt>
      <trkpt lat="59.942093" lon="17.663587">
        <ele>37.1481</ele>
        <time>2013-05-30T20:55:52Z</time>
      </trkpt>
      <trkpt lat="59.9421455" lon="17.6636647">
        <ele>37.1481</ele>
        <time>2013-05-30T20:55:53Z</time>
      </trkpt>
      <trkpt lat="59.9422014" lon="17.6637435">
        <ele>37.1481</ele>
        <time>2013-05-30T20:55:54Z</time>
      </trkpt>
      <trkpt lat="59.9422553" lon="17.6638234">
        <ele>37.6287</ele>
        <time>2013-05-30T20:55:55Z</time>
      </trkpt>
      <trkpt lat="59.9423122" lon="17.6639045">
        <ele>38.1094</ele>
        <time>2013-05-30T20:55:56Z</time>
      </trkpt>
      <trkpt lat="59.9423685" lon="17.6639839">
        <ele>38.1094</ele>
        <time>2013-05-30T20:55:57Z</time>
      </trkpt>
      <trkpt lat="59.942427" lon="17.6640624">
        <ele>38.1094</ele>
        <time>2013-05-30T20:55:58Z</time>
      </trkpt>
      <trkpt lat="59.9424847" lon="17.6641389">
        <ele>38.1094</ele>
        <time>2013-05-30T20:55:59Z</time>
      </trkpt>
      <trkpt lat="59.9425417" lon="17.6642133">
        <ele>37.6287</ele>
        <time>2013-05-30T20:56:00Z</time>
      </trkpt>
      <trkpt lat="59.9426001" lon="17.6642848">
        <ele>37.1481</ele>
        <time>2013-05-30T20:56:01Z</time>
      </trkpt>
      <trkpt lat="59.9426573" lon="17.6643535">
        <ele>36.1868</ele>
        <time>2013-05-30T20:56:02Z</time>
      </trkpt>
      <trkpt lat="59.9427106" lon="17.664417">
        <ele>36.6675</ele>
        <time>2013-05-30T20:56:03Z</time>
      </trkpt>
      <trkpt lat="59.942764" lon="17.6644811">
        <ele>37.1481</ele>
        <time>2013-05-30T20:56:04Z</time>
      </trkpt>
      <trkpt lat="59.942819" lon="17.6645443">
        <ele>37.6287</ele>
        <time>2013-05-30T20:56:05Z</time>
      </trkpt>
      <trkpt lat="59.9428793" lon="17.6646121">
        <ele>38.1094</ele>
        <time>2013-05-30T20:56:06Z</time>
      </trkpt>
      <trkpt lat="59.9429432" lon="17.6646788">
        <ele>38.1094</ele>
        <time>2013-05-30T20:56:07Z</time>
      </trkpt>
      <trkpt lat="59.9430104" lon="17.6647412">
        <ele>38.1094</ele>
        <time>2013-05-30T20:56:08Z</time>
      </trkpt>
      <trkpt lat="59.943083" lon="17.6648006">
        <ele>37.6287</ele>
        <time>2013-05-30T20:56:09Z</time>
      </trkpt>
      <trkpt lat="59.9431515" lon="17.6648586">
        <ele>38.1094</ele>
        <time>2013-05-30T20:56:10Z</time>
      </trkpt>
      <trkpt lat="59.9432163" lon="17.6649177">
        <ele>38.1094</ele>
        <time>2013-05-30T20:56:11Z</time>
      </trkpt>
      <trkpt lat="59.943286" lon="17.6649768">
        <ele>39.0707</ele>
        <time>2013-05-30T20:56:12Z</time>
      </trkpt>
      <trkpt lat="59.9433549" lon="17.6650349">
        <ele>39.5513</ele>
        <time>2013-05-30T20:56:13Z</time>
      </trkpt>
      <trkpt lat="59.9434221" lon="17.6650913">
        <ele>40.0321</ele>
        <time>2013-05-30T20:56:14Z</time>
      </trkpt>
      <trkpt lat="59.9434922" lon="17.6651452">
        <ele>40.0321</ele>
        <time>2013-05-30T20:56:15Z</time>
      </trkpt>
      <trkpt lat="59.9435653" lon="17.6651954">
        <ele>40.0321</ele>
        <time>2013-05-30T20:56:16Z</time>
      </trkpt>
      <trkpt lat="59.943639" lon="17.665244">
        <ele>39.0707</ele>
        <time>2013-05-30T20:56:17Z</time>
      </trkpt>
      <trkpt lat="59.9437123" lon="17.6652914">
        <ele>39.0707</ele>
        <time>2013-05-30T20:56:18Z</time>
      </trkpt>
      <trkpt lat="59.9437864" lon="17.6653352">
        <ele>39.0707</ele>
        <time>2013-05-30T20:56:19Z</time>
      </trkpt>
      <trkpt lat="59.943862" lon="17.665379">
        <ele>38.5901</ele>
        <time>2013-05-30T20:56:20Z</time>
      </trkpt>
      <trkpt lat="59.9439387" lon="17.6654251">
        <ele>38.1094</ele>
        <time>2013-05-30T20:56:21Z</time>
      </trkpt>
      <trkpt lat="59.944017" lon="17.6654711">
        <ele>38.1094</ele>
        <time>2013-05-30T20:56:22Z</time>
      </trkpt>
      <trkpt lat="59.9440968" lon="17.6655115">
        <ele>37.6287</ele>
        <time>2013-05-30T20:56:23Z</time>
      </trkpt>
      <trkpt lat="59.9441781" lon="17.6655482">
        <ele>37.6287</ele>
        <time>2013-05-30T20:56:24Z</time>
      </trkpt>
      <trkpt lat="59.9442604" lon="17.6655844">
        <ele>37.1481</ele>
        <time>2013-05-30T20:56:25Z</time>
      </trkpt>
      <trkpt lat="59.9443412" lon="17.6656252">
        <ele>36.1868</ele>
        <time>2013-05-30T20:56:26Z</time>
      </trkpt>
      <trkpt lat="59.9444231" lon="17.6656612">
        <ele>35.7061</ele>
        <time>2013-05-30T20:56:27Z</time>
      </trkpt>
      <trkpt lat="59.9445903" lon="17.66573">
        <ele>34.7449</ele>
        <time>2013-05-30T20:56:28Z</time>
      </trkpt>
      <trkpt lat="59.9446744" lon="17.6657635">
        <ele>34.2642</ele>
        <time>2013-05-30T20:56:29Z</time>
      </trkpt>
      <trkpt lat="59.9447597" lon="17.6657939">
        <ele>34.2642</ele>
        <time>2013-05-30T20:56:30Z</time>
      </trkpt>
      <trkpt lat="59.9448448" lon="17.6658279">
        <ele>34.2642</ele>
        <time>2013-05-30T20:56:31Z</time>
      </trkpt>
      <trkpt lat="59.9449292" lon="17.6658616">
        <ele>34.2642</ele>
        <time>2013-05-30T20:56:32Z</time>
      </trkpt>
      <trkpt lat="59.945014" lon="17.6658918">
        <ele>33.7834</ele>
        <time>2013-05-30T20:56:33Z</time>
      </trkpt>
      <trkpt lat="59.9451011" lon="17.6659248">
        <ele>33.7834</ele>
        <time>2013-05-30T20:56:34Z</time>
      </trkpt>
      <trkpt lat="59.9451877" lon="17.665954">
        <ele>33.7834</ele>
        <time>2013-05-30T20:56:35Z</time>
      </trkpt>
      <trkpt lat="59.9452745" lon="17.6659832">
        <ele>33.7834</ele>
        <time>2013-05-30T20:56:36Z</time>
      </trkpt>
      <trkpt lat="59.9453634" lon="17.6660145">
        <ele>34.2642</ele>
        <time>2013-05-30T20:56:37Z</time>
      </trkpt>
      <trkpt lat="59.9454474" lon="17.6660481">
        <ele>34.2642</ele>
        <time>2013-05-30T20:56:38Z</time>
      </trkpt>
      <trkpt lat="59.9455306" lon="17.6660793">
        <ele>34.2642</ele>
        <time>2013-05-30T20:56:39Z</time>
      </trkpt>
      <trkpt lat="59.9456134" lon="17.6661093">
        <ele>34.2642</ele>
        <time>2013-05-30T20:56:40Z</time>
      </trkpt>
      <trkpt lat="59.9456959" lon="17.6661409">
        <ele>34.2642</ele>
        <time>2013-05-30T20:56:41Z</time>
      </trkpt>
      <trkpt lat="59.9457793" lon="17.666172">
        <ele>34.7449</ele>
        <time>2013-05-30T20:56:42Z</time>
      </trkpt>
      <trkpt lat="59.9458617" lon="17.666202">
        <ele>34.2642</ele>
        <time>2013-05-30T20:56:43Z</time>
      </trkpt>
      <trkpt lat="59.9459445" lon="17.6662321">
        <ele>34.2642</ele>
        <time>2013-05-30T20:56:44Z</time>
      </trkpt>
      <trkpt lat="59.9460259" lon="17.6662652">
        <ele>34.2642</ele>
        <time>2013-05-30T20:56:45Z</time>
      </trkpt>
      <trkpt lat="59.9461091" lon="17.6662931">
        <ele>34.7449</ele>
        <time>2013-05-30T20:56:46Z</time>
      </trkpt>
      <trkpt lat="59.9461919" lon="17.6663287">
        <ele>34.7449</ele>
        <time>2013-05-30T20:56:47Z</time>
      </trkpt>
      <trkpt lat="59.9462733" lon="17.666374">
        <ele>34.7449</ele>
        <time>2013-05-30T20:56:48Z</time>
      </trkpt>
      <trkpt lat="59.9463531" lon="17.6664294">
        <ele>34.7449</ele>
        <time>2013-05-30T20:56:49Z</time>
      </trkpt>
      <trkpt lat="59.9464331" lon="17.6664812">
        <ele>34.2642</ele>
        <time>2013-05-30T20:56:50Z</time>
      </trkpt>
      <trkpt lat="59.9465144" lon="17.6665196">
        <ele>34.2642</ele>
        <time>2013-05-30T20:56:51Z</time>
      </trkpt>
      <trkpt lat="59.9465978" lon="17.6665428">
        <ele>34.2642</ele>
        <time>2013-05-30T20:56:52Z</time>
      </trkpt>
      <trkpt lat="59.9466822" lon="17.6665563">
        <ele>34.2642</ele>
        <time>2013-05-30T20:56:53Z</time>
      </trkpt>
      <trkpt lat="59.946768" lon="17.6665698">
        <ele>33.7834</ele>
        <time>2013-05-30T20:56:54Z</time>
      </trkpt>
      <trkpt lat="59.9468562" lon="17.6665823">
        <ele>34.2642</ele>
        <time>2013-05-30T20:56:55Z</time>
      </trkpt>
      <trkpt lat="59.9469479" lon="17.6666122">
        <ele>33.7834</ele>
        <time>2013-05-30T20:56:56Z</time>
      </trkpt>
      <trkpt lat="59.9470348" lon="17.6666483">
        <ele>33.3029</ele>
        <time>2013-05-30T20:56:57Z</time>
      </trkpt>
      <trkpt lat="59.9471219" lon="17.6666863">
        <ele>32.8223</ele>
        <time>2013-05-30T20:56:58Z</time>
      </trkpt>
      <trkpt lat="59.9472042" lon="17.6667247">
        <ele>32.8223</ele>
        <time>2013-05-30T20:56:59Z</time>
      </trkpt>
      <trkpt lat="59.9472908" lon="17.6667634">
        <ele>32.8223</ele>
        <time>2013-05-30T20:57:00Z</time>
      </trkpt>
      <trkpt lat="59.9473741" lon="17.6668002">
        <ele>32.8223</ele>
        <time>2013-05-30T20:57:01Z</time>
      </trkpt>
      <trkpt lat="59.947459" lon="17.666839">
        <ele>32.8223</ele>
        <time>2013-05-30T20:57:02Z</time>
      </trkpt>
      <trkpt lat="59.9475434" lon="17.6668785">
        <ele>32.8223</ele>
        <time>2013-05-30T20:57:03Z</time>
      </trkpt>
      <trkpt lat="59.9476274" lon="17.6669179">
        <ele>32.3416</ele>
        <time>2013-05-30T20:57:04Z</time>
      </trkpt>
      <trkpt lat="59.947711" lon="17.6669591">
        <ele>31.8607</ele>
        <time>2013-05-30T20:57:05Z</time>
      </trkpt>
      <trkpt lat="59.9477954" lon="17.6670009">
        <ele>31.8607</ele>
        <time>2013-05-30T20:57:06Z</time>
      </trkpt>
      <trkpt lat="59.9478799" lon="17.6670439">
        <ele>31.3801</ele>
        <time>2013-05-30T20:57:07Z</time>
      </trkpt>
      <trkpt lat="59.9479646" lon="17.667087">
        <ele>31.3801</ele>
        <time>2013-05-30T20:57:08Z</time>
      </trkpt>
      <trkpt lat="59.9480471" lon="17.6671386">
        <ele>31.3801</ele>
        <time>2013-05-30T20:57:09Z</time>
      </trkpt>
      <trkpt lat="59.9481285" lon="17.6671966">
        <ele>30.8995</ele>
        <time>2013-05-30T20:57:10Z</time>
      </trkpt>
      <trkpt lat="59.9482099" lon="17.6672521">
        <ele>30.8995</ele>
        <time>2013-05-30T20:57:11Z</time>
      </trkpt>
      <trkpt lat="59.9482916" lon="17.6673029">
        <ele>30.8995</ele>
        <time>2013-05-30T20:57:12Z</time>
      </trkpt>
      <trkpt lat="59.9483733" lon="17.6673509">
        <ele>30.4188</ele>
        <time>2013-05-30T20:57:13Z</time>
      </trkpt>
      <trkpt lat="59.9484547" lon="17.6673959">
        <ele>30.4188</ele>
        <time>2013-05-30T20:57:14Z</time>
      </trkpt>
      <trkpt lat="59.9485357" lon="17.6674393">
        <ele>30.4188</ele>
        <time>2013-05-30T20:57:15Z</time>
      </trkpt>
      <trkpt lat="59.948616" lon="17.6674842">
        <ele>30.4188</ele>
        <time>2013-05-30T20:57:16Z</time>
      </trkpt>
      <trkpt lat="59.9486953" lon="17.6675307">
        <ele>29.9381</ele>
        <time>2013-05-30T20:57:17Z</time>
      </trkpt>
      <trkpt lat="59.948774" lon="17.6675771">
        <ele>29.9381</ele>
        <time>2013-05-30T20:57:18Z</time>
      </trkpt>
      <trkpt lat="59.9488511" lon="17.6676239">
        <ele>29.9381</ele>
        <time>2013-05-30T20:57:19Z</time>
      </trkpt>
      <trkpt lat="59.9489267" lon="17.6676689">
        <ele>29.9381</ele>
        <time>2013-05-30T20:57:20Z</time>
      </trkpt>
      <trkpt lat="59.9490009" lon="17.6677116">
        <ele>29.9381</ele>
        <time>2013-05-30T20:57:21Z</time>
      </trkpt>
      <trkpt lat="59.9490736" lon="17.6677537">
        <ele>29.9381</ele>
        <time>2013-05-30T20:57:22Z</time>
      </trkpt>
      <trkpt lat="59.9491439" lon="17.6677955">
        <ele>29.4575</ele>
        <time>2013-05-30T20:57:23Z</time>
      </trkpt>
      <trkpt lat="59.9492151" lon="17.6678338">
        <ele>29.4575</ele>
        <time>2013-05-30T20:57:24Z</time>
      </trkpt>
      <trkpt lat="59.9492857" lon="17.6678735">
        <ele>29.4575</ele>
        <time>2013-05-30T20:57:25Z</time>
      </trkpt>
      <trkpt lat="59.9493537" lon="17.6679181">
        <ele>28.9769</ele>
        <time>2013-05-30T20:57:26Z</time>
      </trkpt>
      <trkpt lat="59.9494212" lon="17.6679597">
        <ele>28.4962</ele>
        <time>2013-05-30T20:57:27Z</time>
      </trkpt>
      <trkpt lat="59.9494901" lon="17.6679995">
        <ele>28.4962</ele>
        <time>2013-05-30T20:57:28Z</time>
      </trkpt>
      <trkpt lat="59.9495618" lon="17.6680388">
        <ele>28.0155</ele>
        <time>2013-05-30T20:57:29Z</time>
      </trkpt>
      <trkpt lat="59.9496369" lon="17.6680741">
        <ele>28.4962</ele>
        <time>2013-05-30T20:57:30Z</time>
      </trkpt>
      <trkpt lat="59.949713" lon="17.6681055">
        <ele>28.4962</ele>
        <time>2013-05-30T20:57:31Z</time>
      </trkpt>
      <trkpt lat="59.949786" lon="17.6681446">
        <ele>28.0155</ele>
        <time>2013-05-30T20:57:32Z</time>
      </trkpt>
      <trkpt lat="59.9498616" lon="17.6681796">
        <ele>28.0155</ele>
        <time>2013-05-30T20:57:33Z</time>
      </trkpt>
      <trkpt lat="59.9499363" lon="17.6682127">
        <ele>27.5349</ele>
        <time>2013-05-30T20:57:34Z</time>
      </trkpt>
      <trkpt lat="59.9500128" lon="17.6682424">
        <ele>27.0543</ele>
        <time>2013-05-30T20:57:35Z</time>
      </trkpt>
      <trkpt lat="59.9500898" lon="17.6682676">
        <ele>26.5736</ele>
        <time>2013-05-30T20:57:36Z</time>
      </trkpt>
      <trkpt lat="59.9501709" lon="17.6682842">
        <ele>26.5736</ele>
        <time>2013-05-30T20:57:37Z</time>
      </trkpt>
      <trkpt lat="59.9502521" lon="17.6682984">
        <ele>26.5736</ele>
        <time>2013-05-30T20:57:38Z</time>
      </trkpt>
      <trkpt lat="59.950332" lon="17.6683073">
        <ele>26.5736</ele>
        <time>2013-05-30T20:57:39Z</time>
      </trkpt>
      <trkpt lat="59.950412" lon="17.6683116">
        <ele>26.5736</ele>
        <time>2013-05-30T20:57:40Z</time>
      </trkpt>
      <trkpt lat="59.9504907" lon="17.6683139">
        <ele>27.0543</ele>
        <time>2013-05-30T20:57:41Z</time>
      </trkpt>
      <trkpt lat="59.9505692" lon="17.6683142">
        <ele>27.0543</ele>
        <time>2013-05-30T20:57:42Z</time>
      </trkpt>
      <trkpt lat="59.950645" lon="17.6683099">
        <ele>27.5349</ele>
        <time>2013-05-30T20:57:43Z</time>
      </trkpt>
      <trkpt lat="59.95072" lon="17.6682989">
        <ele>28.0155</ele>
        <time>2013-05-30T20:57:44Z</time>
      </trkpt>
      <trkpt lat="59.9507966" lon="17.6682859">
        <ele>28.4962</ele>
        <time>2013-05-30T20:57:45Z</time>
      </trkpt>
      <trkpt lat="59.950875" lon="17.6682725">
        <ele>28.9769</ele>
        <time>2013-05-30T20:57:46Z</time>
      </trkpt>
      <trkpt lat="59.9509527" lon="17.6682518">
        <ele>28.9769</ele>
        <time>2013-05-30T20:57:47Z</time>
      </trkpt>
      <trkpt lat="59.9510289" lon="17.6682248">
        <ele>28.9769</ele>
        <time>2013-05-30T20:57:48Z</time>
      </trkpt>
      <trkpt lat="59.9511044" lon="17.6682001">
        <ele>28.9769</ele>
        <time>2013-05-30T20:57:49Z</time>
      </trkpt>
      <trkpt lat="59.9511806" lon="17.6681792">
        <ele>28.9769</ele>
        <time>2013-05-30T20:57:50Z</time>
      </trkpt>
      <trkpt lat="59.9512578" lon="17.6681547">
        <ele>28.9769</ele>
        <time>2013-05-30T20:57:51Z</time>
      </trkpt>
      <trkpt lat="59.9513361" lon="17.6681234">
        <ele>28.9769</ele>
        <time>2013-05-30T20:57:52Z</time>
      </trkpt>
      <trkpt lat="59.9514155" lon="17.6680925">
        <ele>29.4575</ele>
        <time>2013-05-30T20:57:53Z</time>
      </trkpt>
      <trkpt lat="59.9514943" lon="17.668073">
        <ele>29.4575</ele>
        <time>2013-05-30T20:57:54Z</time>
      </trkpt>
      <trkpt lat="59.9515694" lon="17.6680849">
        <ele>28.4962</ele>
        <time>2013-05-30T20:57:55Z</time>
      </trkpt>
      <trkpt lat="59.9516373" lon="17.6681237">
        <ele>28.4962</ele>
        <time>2013-05-30T20:57:56Z</time>
      </trkpt>
      <trkpt lat="59.9516911" lon="17.6682098">
        <ele>28.4962</ele>
        <time>2013-05-30T20:57:57Z</time>
      </trkpt>
      <trkpt lat="59.9517383" lon="17.6683144">
        <ele>28.0155</ele>
        <time>2013-05-30T20:57:58Z</time>
      </trkpt>
      <trkpt lat="59.9517617" lon="17.6684708">
        <ele>28.0155</ele>
        <time>2013-05-30T20:57:59Z</time>
      </trkpt>
      <trkpt lat="59.9517797" lon="17.6686141">
        <ele>28.0155</ele>
        <time>2013-05-30T20:58:00Z</time>
      </trkpt>
      <trkpt lat="59.9517973" lon="17.6687407">
        <ele>27.5349</ele>
        <time>2013-05-30T20:58:01Z</time>
      </trkpt>
      <trkpt lat="59.951808" lon="17.6688613">
        <ele>27.5349</ele>
        <time>2013-05-30T20:58:02Z</time>
      </trkpt>
      <trkpt lat="59.9518136" lon="17.6689789">
        <ele>27.5349</ele>
        <time>2013-05-30T20:58:03Z</time>
      </trkpt>
      <trkpt lat="59.9518136" lon="17.6690907">
        <ele>27.0543</ele>
        <time>2013-05-30T20:58:04Z</time>
      </trkpt>
      <trkpt lat="59.9518089" lon="17.6691982">
        <ele>26.5736</ele>
        <time>2013-05-30T20:58:05Z</time>
      </trkpt>
      <trkpt lat="59.9518022" lon="17.6693058">
        <ele>26.5736</ele>
        <time>2013-05-30T20:58:06Z</time>
      </trkpt>
      <trkpt lat="59.9517964" lon="17.669414">
        <ele>26.0929</ele>
        <time>2013-05-30T20:58:07Z</time>
      </trkpt>
      <trkpt lat="59.9517911" lon="17.6695231">
        <ele>26.0929</ele>
        <time>2013-05-30T20:58:08Z</time>
      </trkpt>
      <trkpt lat="59.9517865" lon="17.6696336">
        <ele>25.6123</ele>
        <time>2013-05-30T20:58:09Z</time>
      </trkpt>
      <trkpt lat="59.9517831" lon="17.6697446">
        <ele>25.6123</ele>
        <time>2013-05-30T20:58:10Z</time>
      </trkpt>
      <trkpt lat="59.9517799" lon="17.669856">
        <ele>25.6123</ele>
        <time>2013-05-30T20:58:11Z</time>
      </trkpt>
      <trkpt lat="59.9517753" lon="17.6699662">
        <ele>25.1317</ele>
        <time>2013-05-30T20:58:12Z</time>
      </trkpt>
      <trkpt lat="59.9517685" lon="17.6700752">
        <ele>25.1317</ele>
        <time>2013-05-30T20:58:13Z</time>
      </trkpt>
      <trkpt lat="59.9517602" lon="17.6701844">
        <ele>25.1317</ele>
        <time>2013-05-30T20:58:14Z</time>
      </trkpt>
      <trkpt lat="59.9517513" lon="17.6702932">
        <ele>25.1317</ele>
        <time>2013-05-30T20:58:15Z</time>
      </trkpt>
      <trkpt lat="59.9517432" lon="17.6704025">
        <ele>25.1317</ele>
        <time>2013-05-30T20:58:16Z</time>
      </trkpt>
      <trkpt lat="59.9517352" lon="17.6705133">
        <ele>24.651</ele>
        <time>2013-05-30T20:58:17Z</time>
      </trkpt>
      <trkpt lat="59.9517276" lon="17.6706226">
        <ele>24.651</ele>
        <time>2013-05-30T20:58:18Z</time>
      </trkpt>
      <trkpt lat="59.9517136" lon="17.6707533">
        <ele>23.209</ele>
        <time>2013-05-30T20:58:19Z</time>
      </trkpt>
      <trkpt lat="59.9517039" lon="17.670876">
        <ele>21.767</ele>
        <time>2013-05-30T20:58:20Z</time>
      </trkpt>
      <trkpt lat="59.9516986" lon="17.6709941">
        <ele>21.2864</ele>
        <time>2013-05-30T20:58:21Z</time>
      </trkpt>
      <trkpt lat="59.9517033" lon="17.6710957">
        <ele>20.8057</ele>
        <time>2013-05-30T20:58:22Z</time>
      </trkpt>
      <trkpt lat="59.9517209" lon="17.6711827">
        <ele>21.2864</ele>
        <time>2013-05-30T20:58:23Z</time>
      </trkpt>
      <trkpt lat="59.9517421" lon="17.6712654">
        <ele>21.767</ele>
        <time>2013-05-30T20:58:24Z</time>
      </trkpt>
      <trkpt lat="59.9517585" lon="17.6713458">
        <ele>22.2476</ele>
        <time>2013-05-30T20:58:25Z</time>
      </trkpt>
      <trkpt lat="59.9517747" lon="17.6714246">
        <ele>22.7283</ele>
        <time>2013-05-30T20:58:26Z</time>
      </trkpt>
      <trkpt lat="59.9517851" lon="17.6715085">
        <ele>22.7283</ele>
        <time>2013-05-30T20:58:27Z</time>
      </trkpt>
      <trkpt lat="59.9517887" lon="17.6715922">
        <ele>22.7283</ele>
        <time>2013-05-30T20:58:28Z</time>
      </trkpt>
      <trkpt lat="59.9517872" lon="17.6716733">
        <ele>23.209</ele>
        <time>2013-05-30T20:58:29Z</time>
      </trkpt>
      <trkpt lat="59.951784" lon="17.6717541">
        <ele>23.209</ele>
        <time>2013-05-30T20:58:30Z</time>
      </trkpt>
      <trkpt lat="59.9517825" lon="17.6718342">
        <ele>23.209</ele>
        <time>2013-05-30T20:58:31Z</time>
      </trkpt>
      <trkpt lat="59.9517864" lon="17.6719134">
        <ele>23.6896</ele>
        <time>2013-05-30T20:58:32Z</time>
      </trkpt>
      <trkpt lat="59.9517923" lon="17.6719959">
        <ele>23.6896</ele>
        <time>2013-05-30T20:58:33Z</time>
      </trkpt>
      <trkpt lat="59.9517991" lon="17.6720817">
        <ele>23.6896</ele>
        <time>2013-05-30T20:58:34Z</time>
      </trkpt>
      <trkpt lat="59.9518069" lon="17.6721674">
        <ele>24.1703</ele>
        <time>2013-05-30T20:58:35Z</time>
      </trkpt>
      <trkpt lat="59.9518146" lon="17.6722563">
        <ele>24.1703</ele>
        <time>2013-05-30T20:58:36Z</time>
      </trkpt>
      <trkpt lat="59.951824" lon="17.6723435">
        <ele>24.1703</ele>
        <time>2013-05-30T20:58:37Z</time>
      </trkpt>
      <trkpt lat="59.9518321" lon="17.6724342">
        <ele>24.1703</ele>
        <time>2013-05-30T20:58:38Z</time>
      </trkpt>
      <trkpt lat="59.9518416" lon="17.6725233">
        <ele>24.1703</ele>
        <time>2013-05-30T20:58:39Z</time>
      </trkpt>
      <trkpt lat="59.9518515" lon="17.6726104">
        <ele>23.6896</ele>
        <time>2013-05-30T20:58:40Z</time>
      </trkpt>
      <trkpt lat="59.9518618" lon="17.6726958">
        <ele>24.1703</ele>
        <time>2013-05-30T20:58:41Z</time>
      </trkpt>
      <trkpt lat="59.951871" lon="17.6727808">
        <ele>23.6896</ele>
        <time>2013-05-30T20:58:42Z</time>
      </trkpt>
      <trkpt lat="59.9518812" lon="17.6728683">
        <ele>23.209</ele>
        <time>2013-05-30T20:58:43Z</time>
      </trkpt>
      <trkpt lat="59.9518928" lon="17.6729522">
        <ele>23.209</ele>
        <time>2013-05-30T20:58:44Z</time>
      </trkpt>
      <trkpt lat="59.9519093" lon="17.6730408">
        <ele>23.209</ele>
        <time>2013-05-30T20:58:45Z</time>
      </trkpt>
      <trkpt lat="59.9519248" lon="17.6731324">
        <ele>23.209</ele>
        <time>2013-05-30T20:58:46Z</time>
      </trkpt>
      <trkpt lat="59.9519322" lon="17.6732244">
        <ele>22.2476</ele>
        <time>2013-05-30T20:58:47Z</time>
      </trkpt>
      <trkpt lat="59.9519375" lon="17.6733169">
        <ele>21.767</ele>
        <time>2013-05-30T20:58:48Z</time>
      </trkpt>
      <trkpt lat="59.9519492" lon="17.6734085">
        <ele>21.2864</ele>
        <time>2013-05-30T20:58:49Z</time>
      </trkpt>
      <trkpt lat="59.9519613" lon="17.6734981">
        <ele>21.2864</ele>
        <time>2013-05-30T20:58:50Z</time>
      </trkpt>
      <trkpt lat="59.9519743" lon="17.6735883">
        <ele>20.8057</ele>
        <time>2013-05-30T20:58:51Z</time>
      </trkpt>
      <trkpt lat="59.9519872" lon="17.6736777">
        <ele>20.325</ele>
        <time>2013-05-30T20:58:52Z</time>
      </trkpt>
      <trkpt lat="59.952004" lon="17.6737732">
        <ele>19.3638</ele>
        <time>2013-05-30T20:58:53Z</time>
      </trkpt>
      <trkpt lat="59.9520135" lon="17.6738597">
        <ele>18.8831</ele>
        <time>2013-05-30T20:58:54Z</time>
      </trkpt>
      <trkpt lat="59.9520235" lon="17.6739473">
        <ele>18.8831</ele>
        <time>2013-05-30T20:58:55Z</time>
      </trkpt>
      <trkpt lat="59.9520356" lon="17.6740299">
        <ele>18.8831</ele>
        <time>2013-05-30T20:58:56Z</time>
      </trkpt>
      <trkpt lat="59.9520503" lon="17.6741123">
        <ele>18.8831</ele>
        <time>2013-05-30T20:58:57Z</time>
      </trkpt>
      <trkpt lat="59.9520674" lon="17.6741994">
        <ele>18.8831</ele>
        <time>2013-05-30T20:58:58Z</time>
      </trkpt>
      <trkpt lat="59.9520881" lon="17.6742928">
        <ele>18.8831</ele>
        <time>2013-05-30T20:58:59Z</time>
      </trkpt>
      <trkpt lat="59.9521092" lon="17.6743875">
        <ele>18.8831</ele>
        <time>2013-05-30T20:59:00Z</time>
      </trkpt>
      <trkpt lat="59.9521315" lon="17.674486">
        <ele>17.9218</ele>
        <time>2013-05-30T20:59:01Z</time>
      </trkpt>
      <trkpt lat="59.9521492" lon="17.6745761">
        <ele>18.4023</ele>
        <time>2013-05-30T20:59:02Z</time>
      </trkpt>
      <trkpt lat="59.9521565" lon="17.6746619">
        <ele>17.9218</ele>
        <time>2013-05-30T20:59:03Z</time>
      </trkpt>
      <trkpt lat="59.9521668" lon="17.6747528">
        <ele>16.9604</ele>
        <time>2013-05-30T20:59:04Z</time>
      </trkpt>
      <trkpt lat="59.9521793" lon="17.674838">
        <ele>16.9604</ele>
        <time>2013-05-30T20:59:05Z</time>
      </trkpt>
      <trkpt lat="59.952192" lon="17.6749236">
        <ele>16.4797</ele>
        <time>2013-05-30T20:59:06Z</time>
      </trkpt>
      <trkpt lat="59.9522007" lon="17.6749914">
        <ele>16.9604</ele>
        <time>2013-05-30T20:59:07Z</time>
      </trkpt>
      <trkpt lat="59.9522202" lon="17.6750632">
        <ele>17.9218</ele>
        <time>2013-05-30T20:59:08Z</time>
      </trkpt>
      <trkpt lat="59.9522435" lon="17.6751398">
        <ele>18.8831</ele>
        <time>2013-05-30T20:59:09Z</time>
      </trkpt>
      <trkpt lat="59.9522704" lon="17.6752281">
        <ele>19.3638</ele>
        <time>2013-05-30T20:59:10Z</time>
      </trkpt>
      <trkpt lat="59.9523027" lon="17.6753136">
        <ele>20.325</ele>
        <time>2013-05-30T20:59:11Z</time>
      </trkpt>
      <trkpt lat="59.95234" lon="17.6753975">
        <ele>22.2476</ele>
        <time>2013-05-30T20:59:12Z</time>
      </trkpt>
      <trkpt lat="59.9523746" lon="17.6754882">
        <ele>22.7283</ele>
        <time>2013-05-30T20:59:13Z</time>
      </trkpt>
      <trkpt lat="59.9524073" lon="17.675579">
        <ele>22.7283</ele>
        <time>2013-05-30T20:59:14Z</time>
      </trkpt>
      <trkpt lat="59.9524476" lon="17.6756682">
        <ele>22.7283</ele>
        <time>2013-05-30T20:59:15Z</time>
      </trkpt>
      <trkpt lat="59.9524921" lon="17.6757624">
        <ele>23.6896</ele>
        <time>2013-05-30T20:59:16Z</time>
      </trkpt>
      <trkpt lat="59.9525409" lon="17.6758656">
        <ele>23.6896</ele>
        <time>2013-05-30T20:59:17Z</time>
      </trkpt>
      <trkpt lat="59.9525818" lon="17.6759717">
        <ele>24.651</ele>
        <time>2013-05-30T20:59:18Z</time>
      </trkpt>
      <trkpt lat="59.9526227" lon="17.6760824">
        <ele>25.1317</ele>
        <time>2013-05-30T20:59:19Z</time>
      </trkpt>
      <trkpt lat="59.9526625" lon="17.6761949">
        <ele>25.1317</ele>
        <time>2013-05-30T20:59:20Z</time>
      </trkpt>
      <trkpt lat="59.9527019" lon="17.6763081">
        <ele>25.1317</ele>
        <time>2013-05-30T20:59:21Z</time>
      </trkpt>
      <trkpt lat="59.9527401" lon="17.6764202">
        <ele>25.6123</ele>
        <time>2013-05-30T20:59:22Z</time>
      </trkpt>
      <trkpt lat="59.9527802" lon="17.6765289">
        <ele>25.6123</ele>
        <time>2013-05-30T20:59:23Z</time>
      </trkpt>
      <trkpt lat="59.9528269" lon="17.6766331">
        <ele>25.6123</ele>
        <time>2013-05-30T20:59:24Z</time>
      </trkpt>
      <trkpt lat="59.9528816" lon="17.6767426">
        <ele>25.6123</ele>
        <time>2013-05-30T20:59:25Z</time>
      </trkpt>
      <trkpt lat="59.952929" lon="17.6768558">
        <ele>26.0929</ele>
        <time>2013-05-30T20:59:26Z</time>
      </trkpt>
      <trkpt lat="59.9529711" lon="17.6769724">
        <ele>26.0929</ele>
        <time>2013-05-30T20:59:27Z</time>
      </trkpt>
      <trkpt lat="59.9530122" lon="17.6770921">
        <ele>26.5736</ele>
        <time>2013-05-30T20:59:28Z</time>
      </trkpt>
      <trkpt lat="59.9530594" lon="17.6772136">
        <ele>26.5736</ele>
        <time>2013-05-30T20:59:29Z</time>
      </trkpt>
      <trkpt lat="59.9531032" lon="17.677334">
        <ele>27.0543</ele>
        <time>2013-05-30T20:59:30Z</time>
      </trkpt>
      <trkpt lat="59.9531454" lon="17.6774555">
        <ele>27.0543</ele>
        <time>2013-05-30T20:59:31Z</time>
      </trkpt>
      <trkpt lat="59.9531847" lon="17.6775757">
        <ele>27.5349</ele>
        <time>2013-05-30T20:59:32Z</time>
      </trkpt>
      <trkpt lat="59.9532268" lon="17.6776965">
        <ele>27.5349</ele>
        <time>2013-05-30T20:59:33Z</time>
      </trkpt>
      <trkpt lat="59.9532702" lon="17.6778194">
        <ele>28.0155</ele>
        <time>2013-05-30T20:59:34Z</time>
      </trkpt>
      <trkpt lat="59.9533173" lon="17.6779462">
        <ele>28.0155</ele>
        <time>2013-05-30T20:59:35Z</time>
      </trkpt>
      <trkpt lat="59.9533607" lon="17.6780753">
        <ele>28.0155</ele>
        <time>2013-05-30T20:59:36Z</time>
      </trkpt>
      <trkpt lat="59.9534032" lon="17.6782056">
        <ele>28.0155</ele>
        <time>2013-05-30T20:59:37Z</time>
      </trkpt>
      <trkpt lat="59.953441" lon="17.6783348">
        <ele>28.0155</ele>
        <time>2013-05-30T20:59:38Z</time>
      </trkpt>
      <trkpt lat="59.95348" lon="17.6784652">
        <ele>28.0155</ele>
        <time>2013-05-30T20:59:39Z</time>
      </trkpt>
      <trkpt lat="59.953523" lon="17.678598">
        <ele>28.0155</ele>
        <time>2013-05-30T20:59:40Z</time>
      </trkpt>
      <trkpt lat="59.9535707" lon="17.6787317">
        <ele>28.0155</ele>
        <time>2013-05-30T20:59:41Z</time>
      </trkpt>
      <trkpt lat="59.9536214" lon="17.6788658">
        <ele>28.0155</ele>
        <time>2013-05-30T20:59:42Z</time>
      </trkpt>
      <trkpt lat="59.9536686" lon="17.6789987">
        <ele>28.0155</ele>
        <time>2013-05-30T20:59:43Z</time>
      </trkpt>
      <trkpt lat="59.9537166" lon="17.6791305">
        <ele>28.4962</ele>
        <time>2013-05-30T20:59:44Z</time>
      </trkpt>
      <trkpt lat="59.9537587" lon="17.6792605">
        <ele>28.4962</ele>
        <time>2013-05-30T20:59:45Z</time>
      </trkpt>
      <trkpt lat="59.9538048" lon="17.6793904">
        <ele>28.4962</ele>
        <time>2013-05-30T20:59:46Z</time>
      </trkpt>
      <trkpt lat="59.9538477" lon="17.6795185">
        <ele>28.4962</ele>
        <time>2013-05-30T20:59:47Z</time>
      </trkpt>
      <trkpt lat="59.9538918" lon="17.679646">
        <ele>28.4962</ele>
        <time>2013-05-30T20:59:48Z</time>
      </trkpt>
      <trkpt lat="59.9539338" lon="17.6797729">
        <ele>28.4962</ele>
        <time>2013-05-30T20:59:49Z</time>
      </trkpt>
      <trkpt lat="59.9539802" lon="17.6799017">
        <ele>28.4962</ele>
        <time>2013-05-30T20:59:50Z</time>
      </trkpt>
      <trkpt lat="59.9540294" lon="17.6800328">
        <ele>28.9769</ele>
        <time>2013-05-30T20:59:51Z</time>
      </trkpt>
      <trkpt lat="59.9540766" lon="17.6801632">
        <ele>28.9769</ele>
        <time>2013-05-30T20:59:52Z</time>
      </trkpt>
      <trkpt lat="59.9541211" lon="17.6802913">
        <ele>28.9769</ele>
        <time>2013-05-30T20:59:53Z</time>
      </trkpt>
      <trkpt lat="59.9541664" lon="17.6804201">
        <ele>28.9769</ele>
        <time>2013-05-30T20:59:54Z</time>
      </trkpt>
      <trkpt lat="59.9542103" lon="17.680551">
        <ele>28.4962</ele>
        <time>2013-05-30T20:59:55Z</time>
      </trkpt>
      <trkpt lat="59.9542551" lon="17.6806828">
        <ele>28.9769</ele>
        <time>2013-05-30T20:59:56Z</time>
      </trkpt>
      <trkpt lat="59.9542985" lon="17.6808136">
        <ele>28.9769</ele>
        <time>2013-05-30T20:59:57Z</time>
      </trkpt>
      <trkpt lat="59.954342" lon="17.6809446">
        <ele>28.9769</ele>
        <time>2013-05-30T20:59:58Z</time>
      </trkpt>
      <trkpt lat="59.9543846" lon="17.6810788">
        <ele>29.4575</ele>
        <time>2013-05-30T20:59:59Z</time>
      </trkpt>
      <trkpt lat="59.9544265" lon="17.6812112">
        <ele>29.4575</ele>
        <time>2013-05-30T21:00:00Z</time>
      </trkpt>
      <trkpt lat="59.9544669" lon="17.6813403">
        <ele>29.9381</ele>
        <time>2013-05-30T21:00:01Z</time>
      </trkpt>
      <trkpt lat="59.9545061" lon="17.6814644">
        <ele>29.9381</ele>
        <time>2013-05-30T21:00:02Z</time>
      </trkpt>
      <trkpt lat="59.9545454" lon="17.6815836">
        <ele>29.9381</ele>
        <time>2013-05-30T21:00:03Z</time>
      </trkpt>
      <trkpt lat="59.9545844" lon="17.6817012">
        <ele>29.9381</ele>
        <time>2013-05-30T21:00:04Z</time>
      </trkpt>
      <trkpt lat="59.9546226" lon="17.6818143">
        <ele>29.4575</ele>
        <time>2013-05-30T21:00:05Z</time>
      </trkpt>
      <trkpt lat="59.9546643" lon="17.6819173">
        <ele>28.9769</ele>
        <time>2013-05-30T21:00:06Z</time>
      </trkpt>
      <trkpt lat="59.9547175" lon="17.6820011">
        <ele>28.9769</ele>
        <time>2013-05-30T21:00:07Z</time>
      </trkpt>
      <trkpt lat="59.9547783" lon="17.6820748">
        <ele>28.9769</ele>
        <time>2013-05-30T21:00:08Z</time>
      </trkpt>
      <trkpt lat="59.9548342" lon="17.6821651">
        <ele>28.9769</ele>
        <time>2013-05-30T21:00:09Z</time>
      </trkpt>
      <trkpt lat="59.9548842" lon="17.6822743">
        <ele>28.4962</ele>
        <time>2013-05-30T21:00:10Z</time>
      </trkpt>
      <trkpt lat="59.9549279" lon="17.6823919">
        <ele>28.0155</ele>
        <time>2013-05-30T21:00:11Z</time>
      </trkpt>
      <trkpt lat="59.9549653" lon="17.682511">
        <ele>28.0155</ele>
        <time>2013-05-30T21:00:12Z</time>
      </trkpt>
      <trkpt lat="59.9549947" lon="17.6826287">
        <ele>28.0155</ele>
        <time>2013-05-30T21:00:13Z</time>
      </trkpt>
      <trkpt lat="59.955024" lon="17.6827467">
        <ele>28.0155</ele>
        <time>2013-05-30T21:00:14Z</time>
      </trkpt>
      <trkpt lat="59.9550605" lon="17.6828653">
        <ele>28.9769</ele>
        <time>2013-05-30T21:00:15Z</time>
      </trkpt>
      <trkpt lat="59.9550962" lon="17.6829839">
        <ele>28.9769</ele>
        <time>2013-05-30T21:00:16Z</time>
      </trkpt>
      <trkpt lat="59.9551303" lon="17.6831006">
        <ele>29.4575</ele>
        <time>2013-05-30T21:00:17Z</time>
      </trkpt>
      <trkpt lat="59.9551635" lon="17.6832176">
        <ele>29.4575</ele>
        <time>2013-05-30T21:00:18Z</time>
      </trkpt>
      <trkpt lat="59.9551913" lon="17.6833367">
        <ele>29.4575</ele>
        <time>2013-05-30T21:00:19Z</time>
      </trkpt>
      <trkpt lat="59.9552149" lon="17.6834574">
        <ele>29.4575</ele>
        <time>2013-05-30T21:00:20Z</time>
      </trkpt>
      <trkpt lat="59.9552432" lon="17.6835792">
        <ele>28.9769</ele>
        <time>2013-05-30T21:00:21Z</time>
      </trkpt>
      <trkpt lat="59.9552756" lon="17.6837029">
        <ele>28.9769</ele>
        <time>2013-05-30T21:00:22Z</time>
      </trkpt>
      <trkpt lat="59.9553034" lon="17.6838283">
        <ele>28.9769</ele>
        <time>2013-05-30T21:00:23Z</time>
      </trkpt>
      <trkpt lat="59.9553289" lon="17.6839536">
        <ele>29.4575</ele>
        <time>2013-05-30T21:00:24Z</time>
      </trkpt>
      <trkpt lat="59.9553594" lon="17.6840774">
        <ele>28.9769</ele>
        <time>2013-05-30T21:00:25Z</time>
      </trkpt>
      <trkpt lat="59.9553899" lon="17.684199">
        <ele>28.4962</ele>
        <time>2013-05-30T21:00:26Z</time>
      </trkpt>
      <trkpt lat="59.9554156" lon="17.6843204">
        <ele>28.4962</ele>
        <time>2013-05-30T21:00:27Z</time>
      </trkpt>
      <trkpt lat="59.9554355" lon="17.6844422">
        <ele>28.4962</ele>
        <time>2013-05-30T21:00:28Z</time>
      </trkpt>
      <trkpt lat="59.9554547" lon="17.684566">
        <ele>28.4962</ele>
        <time>2013-05-30T21:00:29Z</time>
      </trkpt>
      <trkpt lat="59.9554724" lon="17.6846909">
        <ele>28.4962</ele>
        <time>2013-05-30T21:00:30Z</time>
      </trkpt>
      <trkpt lat="59.9554883" lon="17.6848155">
        <ele>28.0155</ele>
        <time>2013-05-30T21:00:31Z</time>
      </trkpt>
      <trkpt lat="59.9555073" lon="17.6849397">
        <ele>28.4962</ele>
        <time>2013-05-30T21:00:32Z</time>
      </trkpt>
      <trkpt lat="59.955522" lon="17.6850664">
        <ele>27.5349</ele>
        <time>2013-05-30T21:00:33Z</time>
      </trkpt>
      <trkpt lat="59.9555395" lon="17.6851942">
        <ele>27.0543</ele>
        <time>2013-05-30T21:00:34Z</time>
      </trkpt>
      <trkpt lat="59.9555618" lon="17.6853223">
        <ele>28.0155</ele>
        <time>2013-05-30T21:00:35Z</time>
      </trkpt>
      <trkpt lat="59.95558" lon="17.6854516">
        <ele>28.0155</ele>
        <time>2013-05-30T21:00:36Z</time>
      </trkpt>
      <trkpt lat="59.9555951" lon="17.6855811">
        <ele>27.5349</ele>
        <time>2013-05-30T21:00:37Z</time>
      </trkpt>
      <trkpt lat="59.9556116" lon="17.6857101">
        <ele>27.5349</ele>
        <time>2013-05-30T21:00:38Z</time>
      </trkpt>
      <trkpt lat="59.9556285" lon="17.6858398">
        <ele>27.0543</ele>
        <time>2013-05-30T21:00:39Z</time>
      </trkpt>
      <trkpt lat="59.9556442" lon="17.6859718">
        <ele>26.5736</ele>
        <time>2013-05-30T21:00:40Z</time>
      </trkpt>
      <trkpt lat="59.9556615" lon="17.6861056">
        <ele>26.0929</ele>
        <time>2013-05-30T21:00:41Z</time>
      </trkpt>
      <trkpt lat="59.955679" lon="17.6862408">
        <ele>25.6123</ele>
        <time>2013-05-30T21:00:42Z</time>
      </trkpt>
      <trkpt lat="59.9556938" lon="17.686377">
        <ele>25.6123</ele>
        <time>2013-05-30T21:00:43Z</time>
      </trkpt>
      <trkpt lat="59.9557058" lon="17.6865106">
        <ele>25.1317</ele>
        <time>2013-05-30T21:00:44Z</time>
      </trkpt>
      <trkpt lat="59.9557199" lon="17.6866401">
        <ele>24.651</ele>
        <time>2013-05-30T21:00:45Z</time>
      </trkpt>
      <trkpt lat="59.9557402" lon="17.6867655">
        <ele>25.1317</ele>
        <time>2013-05-30T21:00:46Z</time>
      </trkpt>
      <trkpt lat="59.9557613" lon="17.6868895">
        <ele>25.6123</ele>
        <time>2013-05-30T21:00:47Z</time>
      </trkpt>
      <trkpt lat="59.955782" lon="17.6870125">
        <ele>26.0929</ele>
        <time>2013-05-30T21:00:48Z</time>
      </trkpt>
      <trkpt lat="59.9558017" lon="17.6871358">
        <ele>27.0543</ele>
        <time>2013-05-30T21:00:49Z</time>
      </trkpt>
      <trkpt lat="59.9558212" lon="17.6872591">
        <ele>27.0543</ele>
        <time>2013-05-30T21:00:50Z</time>
      </trkpt>
      <trkpt lat="59.9558406" lon="17.6873827">
        <ele>27.0543</ele>
        <time>2013-05-30T21:00:51Z</time>
      </trkpt>
      <trkpt lat="59.9558577" lon="17.6875068">
        <ele>27.5349</ele>
        <time>2013-05-30T21:00:52Z</time>
      </trkpt>
      <trkpt lat="59.9558732" lon="17.6876321">
        <ele>27.5349</ele>
        <time>2013-05-30T21:00:53Z</time>
      </trkpt>
      <trkpt lat="59.9558912" lon="17.6877558">
        <ele>27.5349</ele>
        <time>2013-05-30T21:00:54Z</time>
      </trkpt>
      <trkpt lat="59.95591" lon="17.68788">
        <ele>27.5349</ele>
        <time>2013-05-30T21:00:55Z</time>
      </trkpt>
      <trkpt lat="59.9559297" lon="17.6880054">
        <ele>28.0155</ele>
        <time>2013-05-30T21:00:56Z</time>
      </trkpt>
      <trkpt lat="59.9559519" lon="17.6881309">
        <ele>27.5349</ele>
        <time>2013-05-30T21:00:57Z</time>
      </trkpt>
      <trkpt lat="59.9559735" lon="17.6882547">
        <ele>27.5349</ele>
        <time>2013-05-30T21:00:58Z</time>
      </trkpt>
      <trkpt lat="59.9559956" lon="17.688378">
        <ele>27.5349</ele>
        <time>2013-05-30T21:00:59Z</time>
      </trkpt>
      <trkpt lat="59.9560178" lon="17.6885013">
        <ele>27.5349</ele>
        <time>2013-05-30T21:01:00Z</time>
      </trkpt>
      <trkpt lat="59.95604" lon="17.6886262">
        <ele>27.5349</ele>
        <time>2013-05-30T21:01:01Z</time>
      </trkpt>
      <trkpt lat="59.9560638" lon="17.6887485">
        <ele>28.0155</ele>
        <time>2013-05-30T21:01:02Z</time>
      </trkpt>
      <trkpt lat="59.9560871" lon="17.6888692">
        <ele>28.4962</ele>
        <time>2013-05-30T21:01:03Z</time>
      </trkpt>
      <trkpt lat="59.9561077" lon="17.6889914">
        <ele>28.4962</ele>
        <time>2013-05-30T21:01:04Z</time>
      </trkpt>
      <trkpt lat="59.9561271" lon="17.6891125">
        <ele>28.4962</ele>
        <time>2013-05-30T21:01:05Z</time>
      </trkpt>
      <trkpt lat="59.9561488" lon="17.6892364">
        <ele>28.9769</ele>
        <time>2013-05-30T21:01:06Z</time>
      </trkpt>
      <trkpt lat="59.9561752" lon="17.6893576">
        <ele>28.9769</ele>
        <time>2013-05-30T21:01:07Z</time>
      </trkpt>
      <trkpt lat="59.956208" lon="17.6894726">
        <ele>29.4575</ele>
        <time>2013-05-30T21:01:08Z</time>
      </trkpt>
      <trkpt lat="59.9562431" lon="17.6895772">
        <ele>29.4575</ele>
        <time>2013-05-30T21:01:09Z</time>
      </trkpt>
      <trkpt lat="59.9562755" lon="17.6896757">
        <ele>29.4575</ele>
        <time>2013-05-30T21:01:10Z</time>
      </trkpt>
      <trkpt lat="59.9563053" lon="17.689772">
        <ele>29.4575</ele>
        <time>2013-05-30T21:01:11Z</time>
      </trkpt>
      <trkpt lat="59.9563348" lon="17.6898671">
        <ele>29.4575</ele>
        <time>2013-05-30T21:01:12Z</time>
      </trkpt>
      <trkpt lat="59.9563648" lon="17.6899601">
        <ele>29.9381</ele>
        <time>2013-05-30T21:01:13Z</time>
      </trkpt>
      <trkpt lat="59.9563936" lon="17.6900494">
        <ele>30.4188</ele>
        <time>2013-05-30T21:01:14Z</time>
      </trkpt>
      <trkpt lat="59.9564259" lon="17.6901377">
        <ele>30.8995</ele>
        <time>2013-05-30T21:01:15Z</time>
      </trkpt>
      <trkpt lat="59.9564582" lon="17.6902272">
        <ele>31.8607</ele>
        <time>2013-05-30T21:01:16Z</time>
      </trkpt>
      <trkpt lat="59.9564874" lon="17.6903138">
        <ele>31.8607</ele>
        <time>2013-05-30T21:01:17Z</time>
      </trkpt>
      <trkpt lat="59.9565135" lon="17.6903998">
        <ele>31.3801</ele>
        <time>2013-05-30T21:01:18Z</time>
      </trkpt>
      <trkpt lat="59.9565416" lon="17.6904894">
        <ele>31.3801</ele>
        <time>2013-05-30T21:01:19Z</time>
      </trkpt>
      <trkpt lat="59.9565734" lon="17.6905873">
        <ele>31.8607</ele>
        <time>2013-05-30T21:01:20Z</time>
      </trkpt>
      <trkpt lat="59.9566047" lon="17.6906888">
        <ele>32.3416</ele>
        <time>2013-05-30T21:01:21Z</time>
      </trkpt>
      <trkpt lat="59.9566372" lon="17.6907876">
        <ele>32.3416</ele>
        <time>2013-05-30T21:01:22Z</time>
      </trkpt>
      <trkpt lat="59.9566687" lon="17.6908924">
        <ele>31.8607</ele>
        <time>2013-05-30T21:01:23Z</time>
      </trkpt>
      <trkpt lat="59.9567032" lon="17.6909949">
        <ele>31.3801</ele>
        <time>2013-05-30T21:01:24Z</time>
      </trkpt>
      <trkpt lat="59.9567487" lon="17.6910954">
        <ele>30.8995</ele>
        <time>2013-05-30T21:01:25Z</time>
      </trkpt>
      <trkpt lat="59.9567901" lon="17.6912049">
        <ele>29.9381</ele>
        <time>2013-05-30T21:01:26Z</time>
      </trkpt>
      <trkpt lat="59.9568367" lon="17.691323">
        <ele>28.4962</ele>
        <time>2013-05-30T21:01:27Z</time>
      </trkpt>
      <trkpt lat="59.9568818" lon="17.6914394">
        <ele>27.5349</ele>
        <time>2013-05-30T21:01:28Z</time>
      </trkpt>
      <trkpt lat="59.9569263" lon="17.6915584">
        <ele>26.5736</ele>
        <time>2013-05-30T21:01:29Z</time>
      </trkpt>
      <trkpt lat="59.9569679" lon="17.6916807">
        <ele>26.5736</ele>
        <time>2013-05-30T21:01:30Z</time>
      </trkpt>
      <trkpt lat="59.9570046" lon="17.6918023">
        <ele>26.5736</ele>
        <time>2013-05-30T21:01:31Z</time>
      </trkpt>
      <trkpt lat="59.9570407" lon="17.6919242">
        <ele>26.5736</ele>
        <time>2013-05-30T21:01:32Z</time>
      </trkpt>
      <trkpt lat="59.9570779" lon="17.6920453">
        <ele>26.5736</ele>
        <time>2013-05-30T21:01:33Z</time>
      </trkpt>
      <trkpt lat="59.9571162" lon="17.6921649">
        <ele>26.5736</ele>
        <time>2013-05-30T21:01:34Z</time>
      </trkpt>
      <trkpt lat="59.9571542" lon="17.6922886">
        <ele>26.0929</ele>
        <time>2013-05-30T21:01:35Z</time>
      </trkpt>
      <trkpt lat="59.9571912" lon="17.692419">
        <ele>25.1317</ele>
        <time>2013-05-30T21:01:36Z</time>
      </trkpt>
      <trkpt lat="59.9572305" lon="17.6925495">
        <ele>24.651</ele>
        <time>2013-05-30T21:01:37Z</time>
      </trkpt>
      <trkpt lat="59.9572755" lon="17.6926789">
        <ele>24.1703</ele>
        <time>2013-05-30T21:01:38Z</time>
      </trkpt>
      <trkpt lat="59.9573211" lon="17.6928078">
        <ele>24.1703</ele>
        <time>2013-05-30T21:01:39Z</time>
      </trkpt>
      <trkpt lat="59.9573655" lon="17.6929438">
        <ele>23.6896</ele>
        <time>2013-05-30T21:01:40Z</time>
      </trkpt>
      <trkpt lat="59.9574097" lon="17.693078">
        <ele>24.1703</ele>
        <time>2013-05-30T21:01:41Z</time>
      </trkpt>
      <trkpt lat="59.9574536" lon="17.6932089">
        <ele>24.651</ele>
        <time>2013-05-30T21:01:42Z</time>
      </trkpt>
      <trkpt lat="59.9574952" lon="17.6933426">
        <ele>24.1703</ele>
        <time>2013-05-30T21:01:43Z</time>
      </trkpt>
      <trkpt lat="59.9575366" lon="17.6934683">
        <ele>24.651</ele>
        <time>2013-05-30T21:01:44Z</time>
      </trkpt>
      <trkpt lat="59.9575805" lon="17.693587">
        <ele>25.6123</ele>
        <time>2013-05-30T21:01:45Z</time>
      </trkpt>
      <trkpt lat="59.9576185" lon="17.6937083">
        <ele>25.6123</ele>
        <time>2013-05-30T21:01:46Z</time>
      </trkpt>
      <trkpt lat="59.9576568" lon="17.6938114">
        <ele>26.0929</ele>
        <time>2013-05-30T21:01:47Z</time>
      </trkpt>
      <trkpt lat="59.9576992" lon="17.6939119">
        <ele>27.0543</ele>
        <time>2013-05-30T21:01:48Z</time>
      </trkpt>
      <trkpt lat="59.9577392" lon="17.6940135">
        <ele>27.0543</ele>
        <time>2013-05-30T21:01:49Z</time>
      </trkpt>
      <trkpt lat="59.9577757" lon="17.6941155">
        <ele>27.5349</ele>
        <time>2013-05-30T21:01:50Z</time>
      </trkpt>
      <trkpt lat="59.9578121" lon="17.6942135">
        <ele>27.5349</ele>
        <time>2013-05-30T21:01:51Z</time>
      </trkpt>
      <trkpt lat="59.9578443" lon="17.6943056">
        <ele>28.0155</ele>
        <time>2013-05-30T21:01:52Z</time>
      </trkpt>
      <trkpt lat="59.9578759" lon="17.694401">
        <ele>28.0155</ele>
        <time>2013-05-30T21:01:53Z</time>
      </trkpt>
      <trkpt lat="59.9579059" lon="17.6944958">
        <ele>28.0155</ele>
        <time>2013-05-30T21:01:54Z</time>
      </trkpt>
      <trkpt lat="59.9579386" lon="17.694593">
        <ele>28.0155</ele>
        <time>2013-05-30T21:01:55Z</time>
      </trkpt>
      <trkpt lat="59.9579751" lon="17.6946925">
        <ele>28.0155</ele>
        <time>2013-05-30T21:01:56Z</time>
      </trkpt>
      <trkpt lat="59.9580115" lon="17.6947962">
        <ele>28.0155</ele>
        <time>2013-05-30T21:01:57Z</time>
      </trkpt>
      <trkpt lat="59.9580473" lon="17.6949019">
        <ele>28.0155</ele>
        <time>2013-05-30T21:01:58Z</time>
      </trkpt>
      <trkpt lat="59.9580852" lon="17.6950097">
        <ele>28.0155</ele>
        <time>2013-05-30T21:01:59Z</time>
      </trkpt>
      <trkpt lat="59.958126" lon="17.6951194">
        <ele>27.5349</ele>
        <time>2013-05-30T21:02:00Z</time>
      </trkpt>
      <trkpt lat="59.9581665" lon="17.6952324">
        <ele>27.5349</ele>
        <time>2013-05-30T21:02:01Z</time>
      </trkpt>
      <trkpt lat="59.958207" lon="17.6953478">
        <ele>27.5349</ele>
        <time>2013-05-30T21:02:02Z</time>
      </trkpt>
      <trkpt lat="59.9582502" lon="17.6954632">
        <ele>27.0543</ele>
        <time>2013-05-30T21:02:03Z</time>
      </trkpt>
      <trkpt lat="59.9582986" lon="17.6955768">
        <ele>28.0155</ele>
        <time>2013-05-30T21:02:04Z</time>
      </trkpt>
      <trkpt lat="59.9583483" lon="17.6956876">
        <ele>28.0155</ele>
        <time>2013-05-30T21:02:05Z</time>
      </trkpt>
      <trkpt lat="59.9583954" lon="17.6957958">
        <ele>28.4962</ele>
        <time>2013-05-30T21:02:06Z</time>
      </trkpt>
      <trkpt lat="59.9584399" lon="17.695906">
        <ele>28.4962</ele>
        <time>2013-05-30T21:02:07Z</time>
      </trkpt>
      <trkpt lat="59.9584848" lon="17.6960181">
        <ele>28.0155</ele>
        <time>2013-05-30T21:02:08Z</time>
      </trkpt>
      <trkpt lat="59.9585301" lon="17.6961267">
        <ele>28.0155</ele>
        <time>2013-05-30T21:02:09Z</time>
      </trkpt>
      <trkpt lat="59.9585745" lon="17.696235">
        <ele>28.4962</ele>
        <time>2013-05-30T21:02:10Z</time>
      </trkpt>
      <trkpt lat="59.9586151" lon="17.6963477">
        <ele>28.0155</ele>
        <time>2013-05-30T21:02:11Z</time>
      </trkpt>
      <trkpt lat="59.9586535" lon="17.6964625">
        <ele>27.5349</ele>
        <time>2013-05-30T21:02:12Z</time>
      </trkpt>
      <trkpt lat="59.9586874" lon="17.696577">
        <ele>27.0543</ele>
        <time>2013-05-30T21:02:13Z</time>
      </trkpt>
      <trkpt lat="59.9587197" lon="17.696692">
        <ele>26.5736</ele>
        <time>2013-05-30T21:02:14Z</time>
      </trkpt>
      <trkpt lat="59.9587476" lon="17.6968082">
        <ele>25.6123</ele>
        <time>2013-05-30T21:02:15Z</time>
      </trkpt>
      <trkpt lat="59.9587736" lon="17.6969265">
        <ele>24.651</ele>
        <time>2013-05-30T21:02:16Z</time>
      </trkpt>
      <trkpt lat="59.9588022" lon="17.697042">
        <ele>24.651</ele>
        <time>2013-05-30T21:02:17Z</time>
      </trkpt>
      <trkpt lat="59.9588274" lon="17.6971624">
        <ele>24.1703</ele>
        <time>2013-05-30T21:02:18Z</time>
      </trkpt>
      <trkpt lat="59.9588481" lon="17.697284">
        <ele>23.209</ele>
        <time>2013-05-30T21:02:19Z</time>
      </trkpt>
      <trkpt lat="59.9588662" lon="17.6974069">
        <ele>22.2476</ele>
        <time>2013-05-30T21:02:20Z</time>
      </trkpt>
      <trkpt lat="59.9588787" lon="17.6975218">
        <ele>21.767</ele>
        <time>2013-05-30T21:02:21Z</time>
      </trkpt>
      <trkpt lat="59.958893" lon="17.6976333">
        <ele>21.2864</ele>
        <time>2013-05-30T21:02:22Z</time>
      </trkpt>
      <trkpt lat="59.9589057" lon="17.6977471">
        <ele>20.325</ele>
        <time>2013-05-30T21:02:23Z</time>
      </trkpt>
      <trkpt lat="59.9589202" lon="17.697854">
        <ele>20.8057</ele>
        <time>2013-05-30T21:02:24Z</time>
      </trkpt>
      <trkpt lat="59.9589334" lon="17.6979565">
        <ele>20.8057</ele>
        <time>2013-05-30T21:02:25Z</time>
      </trkpt>
      <trkpt lat="59.9589441" lon="17.698056">
        <ele>20.8057</ele>
        <time>2013-05-30T21:02:26Z</time>
      </trkpt>
      <trkpt lat="59.9589503" lon="17.6981559">
        <ele>21.2864</ele>
        <time>2013-05-30T21:02:27Z</time>
      </trkpt>
      <trkpt lat="59.9589606" lon="17.6982601">
        <ele>20.8057</ele>
        <time>2013-05-30T21:02:28Z</time>
      </trkpt>
      <trkpt lat="59.9589761" lon="17.6983517">
        <ele>22.2476</ele>
        <time>2013-05-30T21:02:29Z</time>
      </trkpt>
      <trkpt lat="59.9589869" lon="17.6984471">
        <ele>22.2476</ele>
        <time>2013-05-30T21:02:30Z</time>
      </trkpt>
      <trkpt lat="59.9589958" lon="17.698543">
        <ele>22.2476</ele>
        <time>2013-05-30T21:02:31Z</time>
      </trkpt>
      <trkpt lat="59.959003" lon="17.6986443">
        <ele>22.2476</ele>
        <time>2013-05-30T21:02:32Z</time>
      </trkpt>
      <trkpt lat="59.9590134" lon="17.6987418">
        <ele>22.7283</ele>
        <time>2013-05-30T21:02:33Z</time>
      </trkpt>
      <trkpt lat="59.9590227" lon="17.6988433">
        <ele>24.1703</ele>
        <time>2013-05-30T21:02:34Z</time>
      </trkpt>
      <trkpt lat="59.9590284" lon="17.6989501">
        <ele>24.651</ele>
        <time>2013-05-30T21:02:35Z</time>
      </trkpt>
      <trkpt lat="59.9590325" lon="17.6990643">
        <ele>24.1703</ele>
        <time>2013-05-30T21:02:36Z</time>
      </trkpt>
      <trkpt lat="59.9590331" lon="17.6991801">
        <ele>23.209</ele>
        <time>2013-05-30T21:02:37Z</time>
      </trkpt>
      <trkpt lat="59.9590469" lon="17.6992987">
        <ele>24.651</ele>
        <time>2013-05-30T21:02:38Z</time>
      </trkpt>
      <trkpt lat="59.9590502" lon="17.6994218">
        <ele>24.1703</ele>
        <time>2013-05-30T21:02:39Z</time>
      </trkpt>
      <trkpt lat="59.9590541" lon="17.6995451">
        <ele>23.209</ele>
        <time>2013-05-30T21:02:40Z</time>
      </trkpt>
      <trkpt lat="59.9590601" lon="17.6996722">
        <ele>22.7283</ele>
        <time>2013-05-30T21:02:41Z</time>
      </trkpt>
      <trkpt lat="59.9590702" lon="17.6997975">
        <ele>24.1703</ele>
        <time>2013-05-30T21:02:42Z</time>
      </trkpt>
      <trkpt lat="59.9590821" lon="17.6999237">
        <ele>25.6123</ele>
        <time>2013-05-30T21:02:43Z</time>
      </trkpt>
      <trkpt lat="59.9590968" lon="17.7000532">
        <ele>27.0543</ele>
        <time>2013-05-30T21:02:44Z</time>
      </trkpt>
      <trkpt lat="59.9591155" lon="17.7001864">
        <ele>28.0155</ele>
        <time>2013-05-30T21:02:45Z</time>
      </trkpt>
      <trkpt lat="59.9591336" lon="17.7003241">
        <ele>28.4962</ele>
        <time>2013-05-30T21:02:46Z</time>
      </trkpt>
      <trkpt lat="59.9591506" lon="17.7004643">
        <ele>28.9769</ele>
        <time>2013-05-30T21:02:47Z</time>
      </trkpt>
      <trkpt lat="59.959165" lon="17.7006039">
        <ele>29.4575</ele>
        <time>2013-05-30T21:02:48Z</time>
      </trkpt>
      <trkpt lat="59.9591777" lon="17.7007451">
        <ele>29.4575</ele>
        <time>2013-05-30T21:02:49Z</time>
      </trkpt>
      <trkpt lat="59.9591925" lon="17.7008852">
        <ele>29.9381</ele>
        <time>2013-05-30T21:02:50Z</time>
      </trkpt>
      <trkpt lat="59.9592073" lon="17.7010236">
        <ele>29.9381</ele>
        <time>2013-05-30T21:02:51Z</time>
      </trkpt>
      <trkpt lat="59.9592227" lon="17.70116">
        <ele>29.9381</ele>
        <time>2013-05-30T21:02:52Z</time>
      </trkpt>
      <trkpt lat="59.9592346" lon="17.7012908">
        <ele>29.9381</ele>
        <time>2013-05-30T21:02:53Z</time>
      </trkpt>
      <trkpt lat="59.9592504" lon="17.7014184">
        <ele>30.4188</ele>
        <time>2013-05-30T21:02:54Z</time>
      </trkpt>
      <trkpt lat="59.9592703" lon="17.7015454">
        <ele>30.8995</ele>
        <time>2013-05-30T21:02:55Z</time>
      </trkpt>
      <trkpt lat="59.9592921" lon="17.7016752">
        <ele>30.4188</ele>
        <time>2013-05-30T21:02:56Z</time>
      </trkpt>
      <trkpt lat="59.9593191" lon="17.7018051">
        <ele>29.9381</ele>
        <time>2013-05-30T21:02:57Z</time>
      </trkpt>
      <trkpt lat="59.9593532" lon="17.7019296">
        <ele>30.4188</ele>
        <time>2013-05-30T21:02:58Z</time>
      </trkpt>
      <trkpt lat="59.9593879" lon="17.7020538">
        <ele>30.4188</ele>
        <time>2013-05-30T21:02:59Z</time>
      </trkpt>
      <trkpt lat="59.9594226" lon="17.7021779">
        <ele>30.4188</ele>
        <time>2013-05-30T21:03:00Z</time>
      </trkpt>
      <trkpt lat="59.9594657" lon="17.7022946">
        <ele>31.8607</ele>
        <time>2013-05-30T21:03:01Z</time>
      </trkpt>
      <trkpt lat="59.9594973" lon="17.7024113">
        <ele>31.3801</ele>
        <time>2013-05-30T21:03:02Z</time>
      </trkpt>
      <trkpt lat="59.9595319" lon="17.7025326">
        <ele>30.8995</ele>
        <time>2013-05-30T21:03:03Z</time>
      </trkpt>
      <trkpt lat="59.9595664" lon="17.7026508">
        <ele>30.8995</ele>
        <time>2013-05-30T21:03:04Z</time>
      </trkpt>
      <trkpt lat="59.9596027" lon="17.7027668">
        <ele>30.8995</ele>
        <time>2013-05-30T21:03:05Z</time>
      </trkpt>
      <trkpt lat="59.9596355" lon="17.7028803">
        <ele>30.8995</ele>
        <time>2013-05-30T21:03:06Z</time>
      </trkpt>
      <trkpt lat="59.959668" lon="17.7029914">
        <ele>30.4188</ele>
        <time>2013-05-30T21:03:07Z</time>
      </trkpt>
      <trkpt lat="59.9597004" lon="17.7031034">
        <ele>30.8995</ele>
        <time>2013-05-30T21:03:08Z</time>
      </trkpt>
      <trkpt lat="59.9597402" lon="17.7032182">
        <ele>30.8995</ele>
        <time>2013-05-30T21:03:09Z</time>
      </trkpt>
      <trkpt lat="59.9597764" lon="17.7033323">
        <ele>30.8995</ele>
        <time>2013-05-30T21:03:10Z</time>
      </trkpt>
      <trkpt lat="59.9598188" lon="17.7034464">
        <ele>30.4188</ele>
        <time>2013-05-30T21:03:11Z</time>
      </trkpt>
      <trkpt lat="59.9598628" lon="17.7035617">
        <ele>30.4188</ele>
        <time>2013-05-30T21:03:12Z</time>
      </trkpt>
      <trkpt lat="59.9599065" lon="17.7036737">
        <ele>30.8995</ele>
        <time>2013-05-30T21:03:13Z</time>
      </trkpt>
      <trkpt lat="59.9599547" lon="17.7037871">
        <ele>31.3801</ele>
        <time>2013-05-30T21:03:14Z</time>
      </trkpt>
      <trkpt lat="59.9600008" lon="17.7039146">
        <ele>31.3801</ele>
        <time>2013-05-30T21:03:15Z</time>
      </trkpt>
      <trkpt lat="59.9600371" lon="17.7040315">
        <ele>31.3801</ele>
        <time>2013-05-30T21:03:16Z</time>
      </trkpt>
      <trkpt lat="59.9600774" lon="17.7041364">
        <ele>31.8607</ele>
        <time>2013-05-30T21:03:17Z</time>
      </trkpt>
      <trkpt lat="59.9601171" lon="17.7042229">
        <ele>31.8607</ele>
        <time>2013-05-30T21:03:18Z</time>
      </trkpt>
      <trkpt lat="59.9601624" lon="17.7043032">
        <ele>31.8607</ele>
        <time>2013-05-30T21:03:19Z</time>
      </trkpt>
      <trkpt lat="59.960212" lon="17.7043813">
        <ele>31.8607</ele>
        <time>2013-05-30T21:03:20Z</time>
      </trkpt>
      <trkpt lat="59.9602654" lon="17.7044586">
        <ele>31.3801</ele>
        <time>2013-05-30T21:03:21Z</time>
      </trkpt>
      <trkpt lat="59.9603203" lon="17.7045337">
        <ele>31.3801</ele>
        <time>2013-05-30T21:03:22Z</time>
      </trkpt>
      <trkpt lat="59.9603776" lon="17.7046065">
        <ele>30.8995</ele>
        <time>2013-05-30T21:03:23Z</time>
      </trkpt>
      <trkpt lat="59.9604343" lon="17.7046804">
        <ele>30.8995</ele>
        <time>2013-05-30T21:03:24Z</time>
      </trkpt>
      <trkpt lat="59.9604923" lon="17.7047547">
        <ele>30.4188</ele>
        <time>2013-05-30T21:03:25Z</time>
      </trkpt>
      <trkpt lat="59.9605494" lon="17.7048208">
        <ele>30.4188</ele>
        <time>2013-05-30T21:03:26Z</time>
      </trkpt>
      <trkpt lat="59.9606062" lon="17.7048866">
        <ele>29.9381</ele>
        <time>2013-05-30T21:03:27Z</time>
      </trkpt>
      <trkpt lat="59.9606617" lon="17.70496">
        <ele>29.4575</ele>
        <time>2013-05-30T21:03:28Z</time>
      </trkpt>
      <trkpt lat="59.9607165" lon="17.705037">
        <ele>28.9769</ele>
        <time>2013-05-30T21:03:29Z</time>
      </trkpt>
      <trkpt lat="59.9607706" lon="17.7051148">
        <ele>28.0155</ele>
        <time>2013-05-30T21:03:30Z</time>
      </trkpt>
      <trkpt lat="59.960825" lon="17.7051963">
        <ele>27.5349</ele>
        <time>2013-05-30T21:03:31Z</time>
      </trkpt>
      <trkpt lat="59.9608813" lon="17.7052787">
        <ele>27.0543</ele>
        <time>2013-05-30T21:03:32Z</time>
      </trkpt>
      <trkpt lat="59.9609372" lon="17.7053587">
        <ele>26.0929</ele>
        <time>2013-05-30T21:03:33Z</time>
      </trkpt>
      <trkpt lat="59.9609927" lon="17.7054432">
        <ele>26.0929</ele>
        <time>2013-05-30T21:03:34Z</time>
      </trkpt>
      <trkpt lat="59.9610483" lon="17.7055297">
        <ele>26.0929</ele>
        <time>2013-05-30T21:03:35Z</time>
      </trkpt>
      <trkpt lat="59.9611025" lon="17.7056184">
        <ele>26.0929</ele>
        <time>2013-05-30T21:03:36Z</time>
      </trkpt>
      <trkpt lat="59.9611527" lon="17.7057158">
        <ele>25.1317</ele>
        <time>2013-05-30T21:03:37Z</time>
      </trkpt>
      <trkpt lat="59.9612014" lon="17.7058158">
        <ele>24.651</ele>
        <time>2013-05-30T21:03:38Z</time>
      </trkpt>
      <trkpt lat="59.9612491" lon="17.7059178">
        <ele>24.1703</ele>
        <time>2013-05-30T21:03:39Z</time>
      </trkpt>
      <trkpt lat="59.9612992" lon="17.7060147">
        <ele>23.6896</ele>
        <time>2013-05-30T21:03:40Z</time>
      </trkpt>
      <trkpt lat="59.9613502" lon="17.7061104">
        <ele>23.6896</ele>
        <time>2013-05-30T21:03:41Z</time>
      </trkpt>
      <trkpt lat="59.961399" lon="17.7062096">
        <ele>22.7283</ele>
        <time>2013-05-30T21:03:42Z</time>
      </trkpt>
      <trkpt lat="59.9614506" lon="17.7063042">
        <ele>22.7283</ele>
        <time>2013-05-30T21:03:43Z</time>
      </trkpt>
      <trkpt lat="59.9615048" lon="17.7063939">
        <ele>22.7283</ele>
        <time>2013-05-30T21:03:44Z</time>
      </trkpt>
      <trkpt lat="59.9615605" lon="17.7064809">
        <ele>22.7283</ele>
        <time>2013-05-30T21:03:45Z</time>
      </trkpt>
      <trkpt lat="59.9616174" lon="17.7065622">
        <ele>22.7283</ele>
        <time>2013-05-30T21:03:46Z</time>
      </trkpt>
      <trkpt lat="59.9616789" lon="17.706631">
        <ele>23.6896</ele>
        <time>2013-05-30T21:03:47Z</time>
      </trkpt>
      <trkpt lat="59.9617421" lon="17.7066952">
        <ele>24.1703</ele>
        <time>2013-05-30T21:03:48Z</time>
      </trkpt>
      <trkpt lat="59.9618073" lon="17.7067534">
        <ele>25.1317</ele>
        <time>2013-05-30T21:03:49Z</time>
      </trkpt>
      <trkpt lat="59.9618749" lon="17.7068036">
        <ele>26.0929</ele>
        <time>2013-05-30T21:03:50Z</time>
      </trkpt>
      <trkpt lat="59.9619453" lon="17.7068445">
        <ele>27.5349</ele>
        <time>2013-05-30T21:03:51Z</time>
      </trkpt>
      <trkpt lat="59.9620144" lon="17.7068889">
        <ele>27.5349</ele>
        <time>2013-05-30T21:03:52Z</time>
      </trkpt>
      <trkpt lat="59.9620869" lon="17.7069289">
        <ele>28.4962</ele>
        <time>2013-05-30T21:03:53Z</time>
      </trkpt>
      <trkpt lat="59.9621578" lon="17.7069731">
        <ele>28.4962</ele>
        <time>2013-05-30T21:03:54Z</time>
      </trkpt>
      <trkpt lat="59.9622286" lon="17.7070179">
        <ele>28.0155</ele>
        <time>2013-05-30T21:03:55Z</time>
      </trkpt>
      <trkpt lat="59.9623" lon="17.7070615">
        <ele>27.5349</ele>
        <time>2013-05-30T21:03:56Z</time>
      </trkpt>
      <trkpt lat="59.9623748" lon="17.7070979">
        <ele>27.5349</ele>
        <time>2013-05-30T21:03:57Z</time>
      </trkpt>
      <trkpt lat="59.9624518" lon="17.7071278">
        <ele>28.0155</ele>
        <time>2013-05-30T21:03:58Z</time>
      </trkpt>
      <trkpt lat="59.9625279" lon="17.707158">
        <ele>28.0155</ele>
        <time>2013-05-30T21:03:59Z</time>
      </trkpt>
      <trkpt lat="59.9626051" lon="17.7071829">
        <ele>27.5349</ele>
        <time>2013-05-30T21:04:00Z</time>
      </trkpt>
      <trkpt lat="59.9626845" lon="17.707201">
        <ele>28.0155</ele>
        <time>2013-05-30T21:04:01Z</time>
      </trkpt>
      <trkpt lat="59.9627646" lon="17.7072133">
        <ele>28.0155</ele>
        <time>2013-05-30T21:04:02Z</time>
      </trkpt>
      <trkpt lat="59.9628426" lon="17.7072202">
        <ele>28.0155</ele>
        <time>2013-05-30T21:04:03Z</time>
      </trkpt>
      <trkpt lat="59.9629212" lon="17.7072243">
        <ele>27.0543</ele>
        <time>2013-05-30T21:04:04Z</time>
      </trkpt>
      <trkpt lat="59.9630006" lon="17.7072303">
        <ele>26.5736</ele>
        <time>2013-05-30T21:04:05Z</time>
      </trkpt>
      <trkpt lat="59.9630838" lon="17.7072294">
        <ele>27.0543</ele>
        <time>2013-05-30T21:04:06Z</time>
      </trkpt>
      <trkpt lat="59.9631648" lon="17.7072261">
        <ele>27.0543</ele>
        <time>2013-05-30T21:04:07Z</time>
      </trkpt>
      <trkpt lat="59.963247" lon="17.7072245">
        <ele>27.5349</ele>
        <time>2013-05-30T21:04:08Z</time>
      </trkpt>
      <trkpt lat="59.9633299" lon="17.707223">
        <ele>28.0155</ele>
        <time>2013-05-30T21:04:09Z</time>
      </trkpt>
      <trkpt lat="59.9634129" lon="17.7072184">
        <ele>28.0155</ele>
        <time>2013-05-30T21:04:10Z</time>
      </trkpt>
      <trkpt lat="59.9634958" lon="17.7072159">
        <ele>28.4962</ele>
        <time>2013-05-30T21:04:11Z</time>
      </trkpt>
      <trkpt lat="59.9635787" lon="17.7072199">
        <ele>28.9769</ele>
        <time>2013-05-30T21:04:12Z</time>
      </trkpt>
      <trkpt lat="59.9636615" lon="17.7072273">
        <ele>28.9769</ele>
        <time>2013-05-30T21:04:13Z</time>
      </trkpt>
      <trkpt lat="59.9637445" lon="17.7072336">
        <ele>29.4575</ele>
        <time>2013-05-30T21:04:14Z</time>
      </trkpt>
      <trkpt lat="59.9638271" lon="17.7072422">
        <ele>29.9381</ele>
        <time>2013-05-30T21:04:15Z</time>
      </trkpt>
      <trkpt lat="59.9639087" lon="17.7072522">
        <ele>29.4575</ele>
        <time>2013-05-30T21:04:16Z</time>
      </trkpt>
      <trkpt lat="59.9639898" lon="17.7072614">
        <ele>29.9381</ele>
        <time>2013-05-30T21:04:17Z</time>
      </trkpt>
      <trkpt lat="59.9640676" lon="17.7072714">
        <ele>29.4575</ele>
        <time>2013-05-30T21:04:18Z</time>
      </trkpt>
      <trkpt lat="59.9641446" lon="17.7072828">
        <ele>29.4575</ele>
        <time>2013-05-30T21:04:19Z</time>
      </trkpt>
      <trkpt lat="59.9642216" lon="17.7072956">
        <ele>29.9381</ele>
        <time>2013-05-30T21:04:20Z</time>
      </trkpt>
      <trkpt lat="59.9642986" lon="17.7073148">
        <ele>29.9381</ele>
        <time>2013-05-30T21:04:21Z</time>
      </trkpt>
      <trkpt lat="59.9643762" lon="17.7073354">
        <ele>29.9381</ele>
        <time>2013-05-30T21:04:22Z</time>
      </trkpt>
      <trkpt lat="59.9644533" lon="17.7073609">
        <ele>30.4188</ele>
        <time>2013-05-30T21:04:23Z</time>
      </trkpt>
      <trkpt lat="59.9645291" lon="17.7073945">
        <ele>30.4188</ele>
        <time>2013-05-30T21:04:24Z</time>
      </trkpt>
      <trkpt lat="59.9646008" lon="17.7074376">
        <ele>29.9381</ele>
        <time>2013-05-30T21:04:25Z</time>
      </trkpt>
      <trkpt lat="59.9646717" lon="17.7074853">
        <ele>29.4575</ele>
        <time>2013-05-30T21:04:26Z</time>
      </trkpt>
      <trkpt lat="59.9647462" lon="17.7075341">
        <ele>28.9769</ele>
        <time>2013-05-30T21:04:27Z</time>
      </trkpt>
      <trkpt lat="59.9648224" lon="17.7075817">
        <ele>29.4575</ele>
        <time>2013-05-30T21:04:28Z</time>
      </trkpt>
      <trkpt lat="59.9648964" lon="17.7076287">
        <ele>29.9381</ele>
        <time>2013-05-30T21:04:29Z</time>
      </trkpt>
      <trkpt lat="59.9649688" lon="17.7076763">
        <ele>30.4188</ele>
        <time>2013-05-30T21:04:30Z</time>
      </trkpt>
      <trkpt lat="59.9650392" lon="17.7077255">
        <ele>30.4188</ele>
        <time>2013-05-30T21:04:31Z</time>
      </trkpt>
      <trkpt lat="59.9651091" lon="17.7077742">
        <ele>30.4188</ele>
        <time>2013-05-30T21:04:32Z</time>
      </trkpt>
      <trkpt lat="59.9651788" lon="17.7078214">
        <ele>30.8995</ele>
        <time>2013-05-30T21:04:33Z</time>
      </trkpt>
      <trkpt lat="59.9652456" lon="17.7078743">
        <ele>31.3801</ele>
        <time>2013-05-30T21:04:34Z</time>
      </trkpt>
      <trkpt lat="59.9653103" lon="17.707933">
        <ele>31.3801</ele>
        <time>2013-05-30T21:04:35Z</time>
      </trkpt>
      <trkpt lat="59.9653746" lon="17.7079961">
        <ele>31.3801</ele>
        <time>2013-05-30T21:04:36Z</time>
      </trkpt>
      <trkpt lat="59.9654393" lon="17.7080632">
        <ele>31.3801</ele>
        <time>2013-05-30T21:04:37Z</time>
      </trkpt>
      <trkpt lat="59.9655054" lon="17.7081328">
        <ele>31.3801</ele>
        <time>2013-05-30T21:04:38Z</time>
      </trkpt>
      <trkpt lat="59.9655723" lon="17.7082058">
        <ele>30.8995</ele>
        <time>2013-05-30T21:04:39Z</time>
      </trkpt>
      <trkpt lat="59.9656386" lon="17.7082877">
        <ele>30.8995</ele>
        <time>2013-05-30T21:04:40Z</time>
      </trkpt>
      <trkpt lat="59.9657024" lon="17.7083823">
        <ele>30.8995</ele>
        <time>2013-05-30T21:04:41Z</time>
      </trkpt>
      <trkpt lat="59.9657634" lon="17.7084888">
        <ele>30.4188</ele>
        <time>2013-05-30T21:04:42Z</time>
      </trkpt>
      <trkpt lat="59.9658195" lon="17.7086071">
        <ele>30.4188</ele>
        <time>2013-05-30T21:04:43Z</time>
      </trkpt>
      <trkpt lat="59.9658717" lon="17.7087302">
        <ele>29.9381</ele>
        <time>2013-05-30T21:04:44Z</time>
      </trkpt>
      <trkpt lat="59.9659186" lon="17.708856">
        <ele>28.9769</ele>
        <time>2013-05-30T21:04:45Z</time>
      </trkpt>
      <trkpt lat="59.9659633" lon="17.7089786">
        <ele>28.9769</ele>
        <time>2013-05-30T21:04:46Z</time>
      </trkpt>
      <trkpt lat="59.9660037" lon="17.7091026">
        <ele>28.4962</ele>
        <time>2013-05-30T21:04:47Z</time>
      </trkpt>
      <trkpt lat="59.9660412" lon="17.7092268">
        <ele>28.4962</ele>
        <time>2013-05-30T21:04:48Z</time>
      </trkpt>
      <trkpt lat="59.9660761" lon="17.7093508">
        <ele>28.0155</ele>
        <time>2013-05-30T21:04:49Z</time>
      </trkpt>
      <trkpt lat="59.9661094" lon="17.709475">
        <ele>27.5349</ele>
        <time>2013-05-30T21:04:50Z</time>
      </trkpt>
      <trkpt lat="59.9661413" lon="17.7095989">
        <ele>27.5349</ele>
        <time>2013-05-30T21:04:51Z</time>
      </trkpt>
      <trkpt lat="59.9661739" lon="17.70972">
        <ele>27.0543</ele>
        <time>2013-05-30T21:04:52Z</time>
      </trkpt>
      <trkpt lat="59.966207" lon="17.7098394">
        <ele>27.0543</ele>
        <time>2013-05-30T21:04:53Z</time>
      </trkpt>
      <trkpt lat="59.9662391" lon="17.7099589">
        <ele>26.5736</ele>
        <time>2013-05-30T21:04:54Z</time>
      </trkpt>
      <trkpt lat="59.9662702" lon="17.7100794">
        <ele>26.5736</ele>
        <time>2013-05-30T21:04:55Z</time>
      </trkpt>
      <trkpt lat="59.9663013" lon="17.7101992">
        <ele>26.0929</ele>
        <time>2013-05-30T21:04:56Z</time>
      </trkpt>
      <trkpt lat="59.9663327" lon="17.7103179">
        <ele>26.0929</ele>
        <time>2013-05-30T21:04:57Z</time>
      </trkpt>
      <trkpt lat="59.9663638" lon="17.710435">
        <ele>25.6123</ele>
        <time>2013-05-30T21:04:58Z</time>
      </trkpt>
      <trkpt lat="59.9663945" lon="17.7105507">
        <ele>25.6123</ele>
        <time>2013-05-30T21:04:59Z</time>
      </trkpt>
      <trkpt lat="59.9664252" lon="17.7106652">
        <ele>25.1317</ele>
        <time>2013-05-30T21:05:00Z</time>
      </trkpt>
      <trkpt lat="59.9664561" lon="17.7107783">
        <ele>25.1317</ele>
        <time>2013-05-30T21:05:01Z</time>
      </trkpt>
      <trkpt lat="59.9664865" lon="17.7108902">
        <ele>24.651</ele>
        <time>2013-05-30T21:05:02Z</time>
      </trkpt>
      <trkpt lat="59.9665167" lon="17.7110003">
        <ele>24.651</ele>
        <time>2013-05-30T21:05:03Z</time>
      </trkpt>
      <trkpt lat="59.9665466" lon="17.7111096">
        <ele>24.651</ele>
        <time>2013-05-30T21:05:04Z</time>
      </trkpt>
      <trkpt lat="59.9665767" lon="17.7112176">
        <ele>24.1703</ele>
        <time>2013-05-30T21:05:05Z</time>
      </trkpt>
      <trkpt lat="59.9666057" lon="17.7113247">
        <ele>24.1703</ele>
        <time>2013-05-30T21:05:06Z</time>
      </trkpt>
      <trkpt lat="59.9666327" lon="17.7114315">
        <ele>23.6896</ele>
        <time>2013-05-30T21:05:07Z</time>
      </trkpt>
      <trkpt lat="59.9666637" lon="17.7115324">
        <ele>23.6896</ele>
        <time>2013-05-30T21:05:08Z</time>
      </trkpt>
      <trkpt lat="59.9666961" lon="17.711633">
        <ele>24.1703</ele>
        <time>2013-05-30T21:05:09Z</time>
      </trkpt>
      <trkpt lat="59.966722" lon="17.7117428">
        <ele>24.1703</ele>
        <time>2013-05-30T21:05:10Z</time>
      </trkpt>
      <trkpt lat="59.9667446" lon="17.7118558">
        <ele>23.6896</ele>
        <time>2013-05-30T21:05:11Z</time>
      </trkpt>
      <trkpt lat="59.9667704" lon="17.7119645">
        <ele>22.2476</ele>
        <time>2013-05-30T21:05:12Z</time>
      </trkpt>
      <trkpt lat="59.9668043" lon="17.7120628">
        <ele>21.2864</ele>
        <time>2013-05-30T21:05:13Z</time>
      </trkpt>
      <trkpt lat="59.9668415" lon="17.7121598">
        <ele>21.2864</ele>
        <time>2013-05-30T21:05:14Z</time>
      </trkpt>
      <trkpt lat="59.9668788" lon="17.7122598">
        <ele>20.8057</ele>
        <time>2013-05-30T21:05:15Z</time>
      </trkpt>
      <trkpt lat="59.9669141" lon="17.7123649">
        <ele>20.8057</ele>
        <time>2013-05-30T21:05:16Z</time>
      </trkpt>
      <trkpt lat="59.9669457" lon="17.7124754">
        <ele>20.8057</ele>
        <time>2013-05-30T21:05:17Z</time>
      </trkpt>
      <trkpt lat="59.9669743" lon="17.7125902">
        <ele>20.8057</ele>
        <time>2013-05-30T21:05:18Z</time>
      </trkpt>
      <trkpt lat="59.9670012" lon="17.7127083">
        <ele>20.325</ele>
        <time>2013-05-30T21:05:19Z</time>
      </trkpt>
      <trkpt lat="59.967027" lon="17.7128299">
        <ele>20.8057</ele>
        <time>2013-05-30T21:05:20Z</time>
      </trkpt>
      <trkpt lat="59.9670528" lon="17.712953">
        <ele>20.8057</ele>
        <time>2013-05-30T21:05:21Z</time>
      </trkpt>
      <trkpt lat="59.9670787" lon="17.7130784">
        <ele>20.8057</ele>
        <time>2013-05-30T21:05:22Z</time>
      </trkpt>
      <trkpt lat="59.9671043" lon="17.7132052">
        <ele>20.8057</ele>
        <time>2013-05-30T21:05:23Z</time>
      </trkpt>
      <trkpt lat="59.9671291" lon="17.7133336">
        <ele>20.8057</ele>
        <time>2013-05-30T21:05:24Z</time>
      </trkpt>
      <trkpt lat="59.9671514" lon="17.7134642">
        <ele>20.8057</ele>
        <time>2013-05-30T21:05:25Z</time>
      </trkpt>
      <trkpt lat="59.9671726" lon="17.7135971">
        <ele>19.8444</ele>
        <time>2013-05-30T21:05:26Z</time>
      </trkpt>
      <trkpt lat="59.9671938" lon="17.7137305">
        <ele>18.4023</ele>
        <time>2013-05-30T21:05:27Z</time>
      </trkpt>
      <trkpt lat="59.967216" lon="17.7138692">
        <ele>17.4412</ele>
        <time>2013-05-30T21:05:28Z</time>
      </trkpt>
      <trkpt lat="59.9672377" lon="17.7140123">
        <ele>16.9604</ele>
        <time>2013-05-30T21:05:29Z</time>
      </trkpt>
      <trkpt lat="59.9672587" lon="17.7141609">
        <ele>16.4797</ele>
        <time>2013-05-30T21:05:30Z</time>
      </trkpt>
      <trkpt lat="59.9672798" lon="17.7143111">
        <ele>15.999</ele>
        <time>2013-05-30T21:05:31Z</time>
      </trkpt>
      <trkpt lat="59.9673009" lon="17.7144575">
        <ele>16.4797</ele>
        <time>2013-05-30T21:05:32Z</time>
      </trkpt>
      <trkpt lat="59.9673244" lon="17.7146075">
        <ele>16.4797</ele>
        <time>2013-05-30T21:05:33Z</time>
      </trkpt>
      <trkpt lat="59.9673407" lon="17.7148084">
        <ele>15.5184</ele>
        <time>2013-05-30T21:05:34Z</time>
      </trkpt>
      <trkpt lat="59.9673646" lon="17.7149592">
        <ele>15.5184</ele>
        <time>2013-05-30T21:05:35Z</time>
      </trkpt>
      <trkpt lat="59.9673853" lon="17.7151166">
        <ele>15.5184</ele>
        <time>2013-05-30T21:05:36Z</time>
      </trkpt>
      <trkpt lat="59.9674067" lon="17.7152642">
        <ele>15.999</ele>
        <time>2013-05-30T21:05:37Z</time>
      </trkpt>
      <trkpt lat="59.9673964" lon="17.715436">
        <ele>15.5184</ele>
        <time>2013-05-30T21:05:38Z</time>
      </trkpt>
      <trkpt lat="59.9674145" lon="17.7155575">
        <ele>15.999</ele>
        <time>2013-05-30T21:05:39Z</time>
      </trkpt>
      <trkpt lat="59.9674516" lon="17.7156875">
        <ele>19.8444</ele>
        <time>2013-05-30T21:05:40Z</time>
      </trkpt>
      <trkpt lat="59.9674752" lon="17.7158044">
        <ele>20.325</ele>
        <time>2013-05-30T21:05:41Z</time>
      </trkpt>
      <trkpt lat="59.9675102" lon="17.7158877">
        <ele>19.8444</ele>
        <time>2013-05-30T21:05:42Z</time>
      </trkpt>
      <trkpt lat="59.96754" lon="17.7159978">
        <ele>20.325</ele>
        <time>2013-05-30T21:05:43Z</time>
      </trkpt>
      <trkpt lat="59.9675699" lon="17.7161061">
        <ele>20.325</ele>
        <time>2013-05-30T21:05:44Z</time>
      </trkpt>
      <trkpt lat="59.9676108" lon="17.7162094">
        <ele>20.8057</ele>
        <time>2013-05-30T21:05:45Z</time>
      </trkpt>
      <trkpt lat="59.9676464" lon="17.7163054">
        <ele>21.767</ele>
        <time>2013-05-30T21:05:46Z</time>
      </trkpt>
      <trkpt lat="59.9676785" lon="17.7163889">
        <ele>22.2476</ele>
        <time>2013-05-30T21:05:47Z</time>
      </trkpt>
      <trkpt lat="59.9677082" lon="17.716467">
        <ele>21.767</ele>
        <time>2013-05-30T21:05:48Z</time>
      </trkpt>
      <trkpt lat="59.967742" lon="17.7165422">
        <ele>22.2476</ele>
        <time>2013-05-30T21:05:49Z</time>
      </trkpt>
      <trkpt lat="59.9677784" lon="17.7166172">
        <ele>22.2476</ele>
        <time>2013-05-30T21:05:50Z</time>
      </trkpt>
      <trkpt lat="59.9678173" lon="17.7166875">
        <ele>22.2476</ele>
        <time>2013-05-30T21:05:51Z</time>
      </trkpt>
      <trkpt lat="59.9678569" lon="17.7167591">
        <ele>22.2476</ele>
        <time>2013-05-30T21:05:52Z</time>
      </trkpt>
      <trkpt lat="59.9679024" lon="17.7168285">
        <ele>22.7283</ele>
        <time>2013-05-30T21:05:53Z</time>
      </trkpt>
      <trkpt lat="59.9679507" lon="17.716895">
        <ele>23.6896</ele>
        <time>2013-05-30T21:05:54Z</time>
      </trkpt>
      <trkpt lat="59.9680019" lon="17.7169566">
        <ele>24.651</ele>
        <time>2013-05-30T21:05:55Z</time>
      </trkpt>
      <trkpt lat="59.9680554" lon="17.7170155">
        <ele>26.0929</ele>
        <time>2013-05-30T21:05:56Z</time>
      </trkpt>
      <trkpt lat="59.9681097" lon="17.7170733">
        <ele>27.5349</ele>
        <time>2013-05-30T21:05:57Z</time>
      </trkpt>
      <trkpt lat="59.968163" lon="17.7171301">
        <ele>28.4962</ele>
        <time>2013-05-30T21:05:58Z</time>
      </trkpt>
      <trkpt lat="59.9682175" lon="17.7171828">
        <ele>29.4575</ele>
        <time>2013-05-30T21:05:59Z</time>
      </trkpt>
      <trkpt lat="59.9682754" lon="17.71723">
        <ele>30.4188</ele>
        <time>2013-05-30T21:06:00Z</time>
      </trkpt>
      <trkpt lat="59.9683365" lon="17.7172694">
        <ele>30.8995</ele>
        <time>2013-05-30T21:06:01Z</time>
      </trkpt>
      <trkpt lat="59.9683992" lon="17.7173015">
        <ele>31.3801</ele>
        <time>2013-05-30T21:06:02Z</time>
      </trkpt>
      <trkpt lat="59.9684648" lon="17.7173357">
        <ele>32.3416</ele>
        <time>2013-05-30T21:06:03Z</time>
      </trkpt>
      <trkpt lat="59.9685271" lon="17.7173695">
        <ele>32.3416</ele>
        <time>2013-05-30T21:06:04Z</time>
      </trkpt>
      <trkpt lat="59.9685873" lon="17.717399">
        <ele>32.3416</ele>
        <time>2013-05-30T21:06:05Z</time>
      </trkpt>
      <trkpt lat="59.9686458" lon="17.7174254">
        <ele>31.8607</ele>
        <time>2013-05-30T21:06:06Z</time>
      </trkpt>
      <trkpt lat="59.9687046" lon="17.7174477">
        <ele>31.8607</ele>
        <time>2013-05-30T21:06:07Z</time>
      </trkpt>
      <trkpt lat="59.9687624" lon="17.7174672">
        <ele>31.8607</ele>
        <time>2013-05-30T21:06:08Z</time>
      </trkpt>
      <trkpt lat="59.9688204" lon="17.7174737">
        <ele>31.8607</ele>
        <time>2013-05-30T21:06:09Z</time>
      </trkpt>
      <trkpt lat="59.9688806" lon="17.7174586">
        <ele>32.3416</ele>
        <time>2013-05-30T21:06:10Z</time>
      </trkpt>
      <trkpt lat="59.9689385" lon="17.7174378">
        <ele>32.3416</ele>
        <time>2013-05-30T21:06:11Z</time>
      </trkpt>
      <trkpt lat="59.9689966" lon="17.7174315">
        <ele>32.3416</ele>
        <time>2013-05-30T21:06:12Z</time>
      </trkpt>
      <trkpt lat="59.9690561" lon="17.7174438">
        <ele>32.3416</ele>
        <time>2013-05-30T21:06:13Z</time>
      </trkpt>
      <trkpt lat="59.9691156" lon="17.7174658">
        <ele>31.8607</ele>
        <time>2013-05-30T21:06:14Z</time>
      </trkpt>
      <trkpt lat="59.9691761" lon="17.7174899">
        <ele>31.8607</ele>
        <time>2013-05-30T21:06:15Z</time>
      </trkpt>
      <trkpt lat="59.9692373" lon="17.7175145">
        <ele>31.8607</ele>
        <time>2013-05-30T21:06:16Z</time>
      </trkpt>
      <trkpt lat="59.9692984" lon="17.7175426">
        <ele>31.3801</ele>
        <time>2013-05-30T21:06:17Z</time>
      </trkpt>
      <trkpt lat="59.9693607" lon="17.7175726">
        <ele>31.3801</ele>
        <time>2013-05-30T21:06:18Z</time>
      </trkpt>
      <trkpt lat="59.9694244" lon="17.7176027">
        <ele>30.8995</ele>
        <time>2013-05-30T21:06:19Z</time>
      </trkpt>
      <trkpt lat="59.9694892" lon="17.7176377">
        <ele>30.8995</ele>
        <time>2013-05-30T21:06:20Z</time>
      </trkpt>
      <trkpt lat="59.9695502" lon="17.7176859">
        <ele>29.4575</ele>
        <time>2013-05-30T21:06:21Z</time>
      </trkpt>
      <trkpt lat="59.969615" lon="17.717731">
        <ele>29.4575</ele>
        <time>2013-05-30T21:06:22Z</time>
      </trkpt>
      <trkpt lat="59.9696772" lon="17.7177798">
        <ele>28.4962</ele>
        <time>2013-05-30T21:06:23Z</time>
      </trkpt>
      <trkpt lat="59.9697393" lon="17.717831">
        <ele>28.4962</ele>
        <time>2013-05-30T21:06:24Z</time>
      </trkpt>
      <trkpt lat="59.9698" lon="17.7178841">
        <ele>28.0155</ele>
        <time>2013-05-30T21:06:25Z</time>
      </trkpt>
      <trkpt lat="59.9698606" lon="17.7179373">
        <ele>27.5349</ele>
        <time>2013-05-30T21:06:26Z</time>
      </trkpt>
      <trkpt lat="59.9699218" lon="17.7179924">
        <ele>27.0543</ele>
        <time>2013-05-30T21:06:27Z</time>
      </trkpt>
      <trkpt lat="59.9699832" lon="17.7180486">
        <ele>27.0543</ele>
        <time>2013-05-30T21:06:28Z</time>
      </trkpt>
      <trkpt lat="59.9700455" lon="17.7181041">
        <ele>27.0543</ele>
        <time>2013-05-30T21:06:29Z</time>
      </trkpt>
      <trkpt lat="59.9701079" lon="17.7181589">
        <ele>26.5736</ele>
        <time>2013-05-30T21:06:30Z</time>
      </trkpt>
      <trkpt lat="59.9701711" lon="17.7182122">
        <ele>26.5736</ele>
        <time>2013-05-30T21:06:31Z</time>
      </trkpt>
      <trkpt lat="59.9702339" lon="17.7182672">
        <ele>26.5736</ele>
        <time>2013-05-30T21:06:32Z</time>
      </trkpt>
      <trkpt lat="59.9702977" lon="17.7183221">
        <ele>27.0543</ele>
        <time>2013-05-30T21:06:33Z</time>
      </trkpt>
      <trkpt lat="59.9703583" lon="17.7183815">
        <ele>26.5736</ele>
        <time>2013-05-30T21:06:34Z</time>
      </trkpt>
      <trkpt lat="59.97042" lon="17.7184407">
        <ele>26.5736</ele>
        <time>2013-05-30T21:06:35Z</time>
      </trkpt>
      <trkpt lat="59.9704814" lon="17.7184973">
        <ele>26.0929</ele>
        <time>2013-05-30T21:06:36Z</time>
      </trkpt>
      <trkpt lat="59.9705443" lon="17.7185496">
        <ele>26.0929</ele>
        <time>2013-05-30T21:06:37Z</time>
      </trkpt>
      <trkpt lat="59.9706075" lon="17.7186035">
        <ele>25.6123</ele>
        <time>2013-05-30T21:06:38Z</time>
      </trkpt>
      <trkpt lat="59.9706702" lon="17.7186614">
        <ele>25.6123</ele>
        <time>2013-05-30T21:06:39Z</time>
      </trkpt>
      <trkpt lat="59.9707323" lon="17.7187213">
        <ele>25.6123</ele>
        <time>2013-05-30T21:06:40Z</time>
      </trkpt>
      <trkpt lat="59.9707946" lon="17.7187791">
        <ele>25.6123</ele>
        <time>2013-05-30T21:06:41Z</time>
      </trkpt>
      <trkpt lat="59.9708556" lon="17.7188384">
        <ele>25.1317</ele>
        <time>2013-05-30T21:06:42Z</time>
      </trkpt>
      <trkpt lat="59.9709155" lon="17.7189002">
        <ele>24.651</ele>
        <time>2013-05-30T21:06:43Z</time>
      </trkpt>
      <trkpt lat="59.9709769" lon="17.7189619">
        <ele>24.651</ele>
        <time>2013-05-30T21:06:44Z</time>
      </trkpt>
      <trkpt lat="59.9710379" lon="17.7190244">
        <ele>24.1703</ele>
        <time>2013-05-30T21:06:45Z</time>
      </trkpt>
      <trkpt lat="59.9711001" lon="17.7190835">
        <ele>24.1703</ele>
        <time>2013-05-30T21:06:46Z</time>
      </trkpt>
      <trkpt lat="59.9711637" lon="17.719139">
        <ele>23.6896</ele>
        <time>2013-05-30T21:06:47Z</time>
      </trkpt>
      <trkpt lat="59.9712276" lon="17.719195">
        <ele>23.6896</ele>
        <time>2013-05-30T21:06:48Z</time>
      </trkpt>
      <trkpt lat="59.9712909" lon="17.7192548">
        <ele>23.209</ele>
        <time>2013-05-30T21:06:49Z</time>
      </trkpt>
      <trkpt lat="59.9713554" lon="17.719316">
        <ele>23.209</ele>
        <time>2013-05-30T21:06:50Z</time>
      </trkpt>
      <trkpt lat="59.9714197" lon="17.7193791">
        <ele>22.7283</ele>
        <time>2013-05-30T21:06:51Z</time>
      </trkpt>
      <trkpt lat="59.971485" lon="17.719441">
        <ele>22.7283</ele>
        <time>2013-05-30T21:06:52Z</time>
      </trkpt>
      <trkpt lat="59.9715493" lon="17.7195029">
        <ele>21.767</ele>
        <time>2013-05-30T21:06:53Z</time>
      </trkpt>
      <trkpt lat="59.9716175" lon="17.7195602">
        <ele>22.2476</ele>
        <time>2013-05-30T21:06:54Z</time>
      </trkpt>
      <trkpt lat="59.9716838" lon="17.7196203">
        <ele>21.767</ele>
        <time>2013-05-30T21:06:55Z</time>
      </trkpt>
      <trkpt lat="59.9717491" lon="17.7196813">
        <ele>21.2864</ele>
        <time>2013-05-30T21:06:56Z</time>
      </trkpt>
      <trkpt lat="59.9718154" lon="17.7197429">
        <ele>20.8057</ele>
        <time>2013-05-30T21:06:57Z</time>
      </trkpt>
      <trkpt lat="59.9718823" lon="17.7198049">
        <ele>20.8057</ele>
        <time>2013-05-30T21:06:58Z</time>
      </trkpt>
      <trkpt lat="59.9719495" lon="17.7198663">
        <ele>20.8057</ele>
        <time>2013-05-30T21:06:59Z</time>
      </trkpt>
      <trkpt lat="59.9720165" lon="17.7199292">
        <ele>20.8057</ele>
        <time>2013-05-30T21:07:00Z</time>
      </trkpt>
      <trkpt lat="59.9720847" lon="17.7199912">
        <ele>20.8057</ele>
        <time>2013-05-30T21:07:01Z</time>
      </trkpt>
      <trkpt lat="59.9721538" lon="17.720052">
        <ele>20.8057</ele>
        <time>2013-05-30T21:07:02Z</time>
      </trkpt>
      <trkpt lat="59.9722227" lon="17.7201126">
        <ele>21.2864</ele>
        <time>2013-05-30T21:07:03Z</time>
      </trkpt>
      <trkpt lat="59.9722924" lon="17.7201737">
        <ele>21.2864</ele>
        <time>2013-05-30T21:07:04Z</time>
      </trkpt>
      <trkpt lat="59.9723618" lon="17.7202351">
        <ele>21.2864</ele>
        <time>2013-05-30T21:07:05Z</time>
      </trkpt>
      <trkpt lat="59.9724315" lon="17.7202952">
        <ele>21.767</ele>
        <time>2013-05-30T21:07:06Z</time>
      </trkpt>
      <trkpt lat="59.9725008" lon="17.7203563">
        <ele>22.2476</ele>
        <time>2013-05-30T21:07:07Z</time>
      </trkpt>
      <trkpt lat="59.9725687" lon="17.7204185">
        <ele>22.2476</ele>
        <time>2013-05-30T21:07:08Z</time>
      </trkpt>
      <trkpt lat="59.9726351" lon="17.7204812">
        <ele>22.7283</ele>
        <time>2013-05-30T21:07:09Z</time>
      </trkpt>
      <trkpt lat="59.9726998" lon="17.7205449">
        <ele>22.7283</ele>
        <time>2013-05-30T21:07:10Z</time>
      </trkpt>
      <trkpt lat="59.972764" lon="17.7206101">
        <ele>22.7283</ele>
        <time>2013-05-30T21:07:11Z</time>
      </trkpt>
      <trkpt lat="59.9728271" lon="17.7206776">
        <ele>22.7283</ele>
        <time>2013-05-30T21:07:12Z</time>
      </trkpt>
      <trkpt lat="59.9728915" lon="17.7207469">
        <ele>23.209</ele>
        <time>2013-05-30T21:07:13Z</time>
      </trkpt>
      <trkpt lat="59.972953" lon="17.720823">
        <ele>23.6896</ele>
        <time>2013-05-30T21:07:14Z</time>
      </trkpt>
      <trkpt lat="59.9730131" lon="17.7209057">
        <ele>23.6896</ele>
        <time>2013-05-30T21:07:15Z</time>
      </trkpt>
      <trkpt lat="59.9730713" lon="17.7209934">
        <ele>23.209</ele>
        <time>2013-05-30T21:07:16Z</time>
      </trkpt>
      <trkpt lat="59.9731297" lon="17.7210823">
        <ele>23.209</ele>
        <time>2013-05-30T21:07:17Z</time>
      </trkpt>
      <trkpt lat="59.9731881" lon="17.7211735">
        <ele>23.209</ele>
        <time>2013-05-30T21:07:18Z</time>
      </trkpt>
      <trkpt lat="59.9732453" lon="17.7212689">
        <ele>23.209</ele>
        <time>2013-05-30T21:07:19Z</time>
      </trkpt>
      <trkpt lat="59.9733018" lon="17.7213675">
        <ele>23.209</ele>
        <time>2013-05-30T21:07:20Z</time>
      </trkpt>
      <trkpt lat="59.9733564" lon="17.7214696">
        <ele>23.209</ele>
        <time>2013-05-30T21:07:21Z</time>
      </trkpt>
      <trkpt lat="59.9734094" lon="17.7215758">
        <ele>23.6896</ele>
        <time>2013-05-30T21:07:22Z</time>
      </trkpt>
      <trkpt lat="59.9734613" lon="17.7216851">
        <ele>23.6896</ele>
        <time>2013-05-30T21:07:23Z</time>
      </trkpt>
      <trkpt lat="59.9735114" lon="17.7217982">
        <ele>23.6896</ele>
        <time>2013-05-30T21:07:24Z</time>
      </trkpt>
      <trkpt lat="59.9735597" lon="17.721914">
        <ele>23.6896</ele>
        <time>2013-05-30T21:07:25Z</time>
      </trkpt>
      <trkpt lat="59.9736077" lon="17.7220314">
        <ele>23.6896</ele>
        <time>2013-05-30T21:07:26Z</time>
      </trkpt>
      <trkpt lat="59.9736538" lon="17.7221494">
        <ele>24.1703</ele>
        <time>2013-05-30T21:07:27Z</time>
      </trkpt>
      <trkpt lat="59.9736974" lon="17.7222665">
        <ele>24.1703</ele>
        <time>2013-05-30T21:07:28Z</time>
      </trkpt>
      <trkpt lat="59.9737377" lon="17.7223837">
        <ele>24.1703</ele>
        <time>2013-05-30T21:07:29Z</time>
      </trkpt>
      <trkpt lat="59.9737756" lon="17.7225017">
        <ele>24.651</ele>
        <time>2013-05-30T21:07:30Z</time>
      </trkpt>
      <trkpt lat="59.9738118" lon="17.7226216">
        <ele>24.651</ele>
        <time>2013-05-30T21:07:31Z</time>
      </trkpt>
      <trkpt lat="59.9738452" lon="17.7227436">
        <ele>24.651</ele>
        <time>2013-05-30T21:07:32Z</time>
      </trkpt>
      <trkpt lat="59.9738762" lon="17.7228661">
        <ele>24.651</ele>
        <time>2013-05-30T21:07:33Z</time>
      </trkpt>
      <trkpt lat="59.9739045" lon="17.7229869">
        <ele>24.651</ele>
        <time>2013-05-30T21:07:34Z</time>
      </trkpt>
      <trkpt lat="59.9739315" lon="17.7231094">
        <ele>25.1317</ele>
        <time>2013-05-30T21:07:35Z</time>
      </trkpt>
      <trkpt lat="59.973957" lon="17.7232369">
        <ele>25.1317</ele>
        <time>2013-05-30T21:07:36Z</time>
      </trkpt>
      <trkpt lat="59.9739823" lon="17.7233659">
        <ele>26.0929</ele>
        <time>2013-05-30T21:07:37Z</time>
      </trkpt>
      <trkpt lat="59.9740057" lon="17.7234999">
        <ele>26.0929</ele>
        <time>2013-05-30T21:07:38Z</time>
      </trkpt>
      <trkpt lat="59.97403" lon="17.7236342">
        <ele>26.0929</ele>
        <time>2013-05-30T21:07:39Z</time>
      </trkpt>
      <trkpt lat="59.9740545" lon="17.7237701">
        <ele>26.5736</ele>
        <time>2013-05-30T21:07:40Z</time>
      </trkpt>
      <trkpt lat="59.9740782" lon="17.7239078">
        <ele>26.5736</ele>
        <time>2013-05-30T21:07:41Z</time>
      </trkpt>
      <trkpt lat="59.9740999" lon="17.7240487">
        <ele>27.0543</ele>
        <time>2013-05-30T21:07:42Z</time>
      </trkpt>
      <trkpt lat="59.9741194" lon="17.724191">
        <ele>27.0543</ele>
        <time>2013-05-30T21:07:43Z</time>
      </trkpt>
      <trkpt lat="59.9741407" lon="17.7243362">
        <ele>27.0543</ele>
        <time>2013-05-30T21:07:44Z</time>
      </trkpt>
      <trkpt lat="59.9741631" lon="17.7244843">
        <ele>27.0543</ele>
        <time>2013-05-30T21:07:45Z</time>
      </trkpt>
      <trkpt lat="59.9741842" lon="17.7246309">
        <ele>27.5349</ele>
        <time>2013-05-30T21:07:46Z</time>
      </trkpt>
      <trkpt lat="59.9742023" lon="17.7247764">
        <ele>27.5349</ele>
        <time>2013-05-30T21:07:47Z</time>
      </trkpt>
      <trkpt lat="59.9742186" lon="17.7249189">
        <ele>27.0543</ele>
        <time>2013-05-30T21:07:48Z</time>
      </trkpt>
      <trkpt lat="59.9742347" lon="17.7250568">
        <ele>26.5736</ele>
        <time>2013-05-30T21:07:49Z</time>
      </trkpt>
      <trkpt lat="59.9742481" lon="17.7251912">
        <ele>26.0929</ele>
        <time>2013-05-30T21:07:50Z</time>
      </trkpt>
      <trkpt lat="59.97426" lon="17.7253224">
        <ele>25.1317</ele>
        <time>2013-05-30T21:07:51Z</time>
      </trkpt>
      <trkpt lat="59.9742727" lon="17.7254489">
        <ele>24.651</ele>
        <time>2013-05-30T21:07:52Z</time>
      </trkpt>
      <trkpt lat="59.9742843" lon="17.7255728">
        <ele>23.6896</ele>
        <time>2013-05-30T21:07:53Z</time>
      </trkpt>
      <trkpt lat="59.9742951" lon="17.7256913">
        <ele>23.6896</ele>
        <time>2013-05-30T21:07:54Z</time>
      </trkpt>
      <trkpt lat="59.9743038" lon="17.7258121">
        <ele>24.1703</ele>
        <time>2013-05-30T21:07:55Z</time>
      </trkpt>
      <trkpt lat="59.9743143" lon="17.7259356">
        <ele>24.651</ele>
        <time>2013-05-30T21:07:56Z</time>
      </trkpt>
      <trkpt lat="59.9743245" lon="17.7260673">
        <ele>25.1317</ele>
        <time>2013-05-30T21:07:57Z</time>
      </trkpt>
      <trkpt lat="59.9743304" lon="17.726201">
        <ele>24.651</ele>
        <time>2013-05-30T21:07:58Z</time>
      </trkpt>
      <trkpt lat="59.974333" lon="17.7263346">
        <ele>23.209</ele>
        <time>2013-05-30T21:07:59Z</time>
      </trkpt>
      <trkpt lat="59.9743333" lon="17.7264663">
        <ele>22.2476</ele>
        <time>2013-05-30T21:08:00Z</time>
      </trkpt>
      <trkpt lat="59.9743346" lon="17.7265986">
        <ele>21.2864</ele>
        <time>2013-05-30T21:08:01Z</time>
      </trkpt>
      <trkpt lat="59.9743393" lon="17.7267251">
        <ele>20.8057</ele>
        <time>2013-05-30T21:08:02Z</time>
      </trkpt>
      <trkpt lat="59.9743424" lon="17.7268488">
        <ele>20.325</ele>
        <time>2013-05-30T21:08:03Z</time>
      </trkpt>
      <trkpt lat="59.9743459" lon="17.7269696">
        <ele>19.8444</ele>
        <time>2013-05-30T21:08:04Z</time>
      </trkpt>
      <trkpt lat="59.9743492" lon="17.7270893">
        <ele>19.3638</ele>
        <time>2013-05-30T21:08:05Z</time>
      </trkpt>
      <trkpt lat="59.9743522" lon="17.7272063">
        <ele>19.3638</ele>
        <time>2013-05-30T21:08:06Z</time>
      </trkpt>
      <trkpt lat="59.9743584" lon="17.727323">
        <ele>20.8057</ele>
        <time>2013-05-30T21:08:07Z</time>
      </trkpt>
      <trkpt lat="59.9743658" lon="17.72744">
        <ele>21.767</ele>
        <time>2013-05-30T21:08:08Z</time>
      </trkpt>
      <trkpt lat="59.974377" lon="17.7275597">
        <ele>23.6896</ele>
        <time>2013-05-30T21:08:09Z</time>
      </trkpt>
      <trkpt lat="59.9743846" lon="17.7276818">
        <ele>23.6896</ele>
        <time>2013-05-30T21:08:10Z</time>
      </trkpt>
      <trkpt lat="59.9743893" lon="17.7278051">
        <ele>24.1703</ele>
        <time>2013-05-30T21:08:11Z</time>
      </trkpt>
      <trkpt lat="59.9743942" lon="17.7279251">
        <ele>24.651</ele>
        <time>2013-05-30T21:08:12Z</time>
      </trkpt>
      <trkpt lat="59.9743995" lon="17.7280467">
        <ele>25.6123</ele>
        <time>2013-05-30T21:08:13Z</time>
      </trkpt>
      <trkpt lat="59.974405" lon="17.7281789">
        <ele>25.6123</ele>
        <time>2013-05-30T21:08:14Z</time>
      </trkpt>
      <trkpt lat="59.97441" lon="17.7283114">
        <ele>25.6123</ele>
        <time>2013-05-30T21:08:15Z</time>
      </trkpt>
      <trkpt lat="59.9744134" lon="17.7284414">
        <ele>25.6123</ele>
        <time>2013-05-30T21:08:16Z</time>
      </trkpt>
      <trkpt lat="59.9744175" lon="17.7285688">
        <ele>25.6123</ele>
        <time>2013-05-30T21:08:17Z</time>
      </trkpt>
      <trkpt lat="59.974422" lon="17.7286917">
        <ele>25.1317</ele>
        <time>2013-05-30T21:08:18Z</time>
      </trkpt>
      <trkpt lat="59.9744242" lon="17.7288102">
        <ele>25.1317</ele>
        <time>2013-05-30T21:08:19Z</time>
      </trkpt>
      <trkpt lat="59.9744293" lon="17.7289246">
        <ele>25.6123</ele>
        <time>2013-05-30T21:08:20Z</time>
      </trkpt>
      <trkpt lat="59.9744372" lon="17.7290423">
        <ele>26.0929</ele>
        <time>2013-05-30T21:08:21Z</time>
      </trkpt>
      <trkpt lat="59.9744443" lon="17.729163">
        <ele>26.0929</ele>
        <time>2013-05-30T21:08:22Z</time>
      </trkpt>
      <trkpt lat="59.9744492" lon="17.7292874">
        <ele>27.0543</ele>
        <time>2013-05-30T21:08:23Z</time>
      </trkpt>
      <trkpt lat="59.9744479" lon="17.7294177">
        <ele>26.5736</ele>
        <time>2013-05-30T21:08:24Z</time>
      </trkpt>
      <trkpt lat="59.9744447" lon="17.7295493">
        <ele>26.5736</ele>
        <time>2013-05-30T21:08:25Z</time>
      </trkpt>
      <trkpt lat="59.9744401" lon="17.7296819">
        <ele>27.0543</ele>
        <time>2013-05-30T21:08:26Z</time>
      </trkpt>
      <trkpt lat="59.9744325" lon="17.7298165">
        <ele>27.0543</ele>
        <time>2013-05-30T21:08:27Z</time>
      </trkpt>
      <trkpt lat="59.9744206" lon="17.7299517">
        <ele>26.5736</ele>
        <time>2013-05-30T21:08:28Z</time>
      </trkpt>
      <trkpt lat="59.9744093" lon="17.730085">
        <ele>27.0543</ele>
        <time>2013-05-30T21:08:29Z</time>
      </trkpt>
      <trkpt lat="59.9743988" lon="17.7302203">
        <ele>27.5349</ele>
        <time>2013-05-30T21:08:30Z</time>
      </trkpt>
      <trkpt lat="59.9743874" lon="17.7303589">
        <ele>27.5349</ele>
        <time>2013-05-30T21:08:31Z</time>
      </trkpt>
      <trkpt lat="59.9743763" lon="17.7304978">
        <ele>28.0155</ele>
        <time>2013-05-30T21:08:32Z</time>
      </trkpt>
      <trkpt lat="59.9743666" lon="17.7306408">
        <ele>28.0155</ele>
        <time>2013-05-30T21:08:33Z</time>
      </trkpt>
      <trkpt lat="59.9743587" lon="17.7307831">
        <ele>28.0155</ele>
        <time>2013-05-30T21:08:34Z</time>
      </trkpt>
      <trkpt lat="59.9743522" lon="17.7309217">
        <ele>28.0155</ele>
        <time>2013-05-30T21:08:35Z</time>
      </trkpt>
      <trkpt lat="59.974346" lon="17.7310542">
        <ele>28.4962</ele>
        <time>2013-05-30T21:08:36Z</time>
      </trkpt>
      <trkpt lat="59.9743418" lon="17.731183">
        <ele>28.4962</ele>
        <time>2013-05-30T21:08:37Z</time>
      </trkpt>
      <trkpt lat="59.9743387" lon="17.7313091">
        <ele>28.9769</ele>
        <time>2013-05-30T21:08:38Z</time>
      </trkpt>
      <trkpt lat="59.9743356" lon="17.7314339">
        <ele>28.9769</ele>
        <time>2013-05-30T21:08:39Z</time>
      </trkpt>
      <trkpt lat="59.9743342" lon="17.7315562">
        <ele>28.9769</ele>
        <time>2013-05-30T21:08:40Z</time>
      </trkpt>
      <trkpt lat="59.974334" lon="17.7316713">
        <ele>29.9381</ele>
        <time>2013-05-30T21:08:41Z</time>
      </trkpt>
      <trkpt lat="59.974334" lon="17.7317825">
        <ele>30.4188</ele>
        <time>2013-05-30T21:08:42Z</time>
      </trkpt>
      <trkpt lat="59.9743352" lon="17.731894">
        <ele>30.8995</ele>
        <time>2013-05-30T21:08:43Z</time>
      </trkpt>
      <trkpt lat="59.9743399" lon="17.7320027">
        <ele>31.3801</ele>
        <time>2013-05-30T21:08:44Z</time>
      </trkpt>
      <trkpt lat="59.9743417" lon="17.7321089">
        <ele>31.3801</ele>
        <time>2013-05-30T21:08:45Z</time>
      </trkpt>
      <trkpt lat="59.9743401" lon="17.7322146">
        <ele>31.3801</ele>
        <time>2013-05-30T21:08:46Z</time>
      </trkpt>
      <trkpt lat="59.9743413" lon="17.7323216">
        <ele>31.3801</ele>
        <time>2013-05-30T21:08:47Z</time>
      </trkpt>
      <trkpt lat="59.9743469" lon="17.7325404">
        <ele>31.3801</ele>
        <time>2013-05-30T21:08:49Z</time>
      </trkpt>
      <trkpt lat="59.9743479" lon="17.7326518">
        <ele>31.3801</ele>
        <time>2013-05-30T21:08:50Z</time>
      </trkpt>
      <trkpt lat="59.9743439" lon="17.7327666">
        <ele>31.3801</ele>
        <time>2013-05-30T21:08:51Z</time>
      </trkpt>
      <trkpt lat="59.9743398" lon="17.7328829">
        <ele>30.8995</ele>
        <time>2013-05-30T21:08:52Z</time>
      </trkpt>
      <trkpt lat="59.9743383" lon="17.7329988">
        <ele>30.8995</ele>
        <time>2013-05-30T21:08:53Z</time>
      </trkpt>
      <trkpt lat="59.9743357" lon="17.7331167">
        <ele>30.4188</ele>
        <time>2013-05-30T21:08:54Z</time>
      </trkpt>
      <trkpt lat="59.9743324" lon="17.7332371">
        <ele>30.4188</ele>
        <time>2013-05-30T21:08:55Z</time>
      </trkpt>
      <trkpt lat="59.9743284" lon="17.7333582">
        <ele>29.9381</ele>
        <time>2013-05-30T21:08:56Z</time>
      </trkpt>
      <trkpt lat="59.9743236" lon="17.7334775">
        <ele>29.9381</ele>
        <time>2013-05-30T21:08:57Z</time>
      </trkpt>
      <trkpt lat="59.9743173" lon="17.7335965">
        <ele>29.9381</ele>
        <time>2013-05-30T21:08:58Z</time>
      </trkpt>
      <trkpt lat="59.9743111" lon="17.7337153">
        <ele>29.9381</ele>
        <time>2013-05-30T21:08:59Z</time>
      </trkpt>
      <trkpt lat="59.9743056" lon="17.7338342">
        <ele>30.4188</ele>
        <time>2013-05-30T21:09:00Z</time>
      </trkpt>
      <trkpt lat="59.9743004" lon="17.733949">
        <ele>30.4188</ele>
        <time>2013-05-30T21:09:01Z</time>
      </trkpt>
      <trkpt lat="59.9742964" lon="17.7340639">
        <ele>30.4188</ele>
        <time>2013-05-30T21:09:02Z</time>
      </trkpt>
      <trkpt lat="59.9742941" lon="17.7341785">
        <ele>30.4188</ele>
        <time>2013-05-30T21:09:03Z</time>
      </trkpt>
      <trkpt lat="59.9742921" lon="17.7342933">
        <ele>30.4188</ele>
        <time>2013-05-30T21:09:04Z</time>
      </trkpt>
      <trkpt lat="59.9742905" lon="17.7344094">
        <ele>30.4188</ele>
        <time>2013-05-30T21:09:05Z</time>
      </trkpt>
      <trkpt lat="59.97429" lon="17.7345258">
        <ele>30.4188</ele>
        <time>2013-05-30T21:09:06Z</time>
      </trkpt>
      <trkpt lat="59.9742912" lon="17.7346426">
        <ele>30.4188</ele>
        <time>2013-05-30T21:09:07Z</time>
      </trkpt>
      <trkpt lat="59.9742935" lon="17.7347606">
        <ele>30.4188</ele>
        <time>2013-05-30T21:09:08Z</time>
      </trkpt>
      <trkpt lat="59.9742969" lon="17.7348798">
        <ele>30.4188</ele>
        <time>2013-05-30T21:09:09Z</time>
      </trkpt>
      <trkpt lat="59.9743029" lon="17.7349995">
        <ele>29.9381</ele>
        <time>2013-05-30T21:09:10Z</time>
      </trkpt>
      <trkpt lat="59.9743106" lon="17.7351187">
        <ele>29.9381</ele>
        <time>2013-05-30T21:09:11Z</time>
      </trkpt>
      <trkpt lat="59.9743197" lon="17.7352366">
        <ele>29.9381</ele>
        <time>2013-05-30T21:09:12Z</time>
      </trkpt>
      <trkpt lat="59.9743304" lon="17.7353527">
        <ele>29.9381</ele>
        <time>2013-05-30T21:09:13Z</time>
      </trkpt>
      <trkpt lat="59.9743427" lon="17.7354675">
        <ele>29.9381</ele>
        <time>2013-05-30T21:09:14Z</time>
      </trkpt>
      <trkpt lat="59.9743568" lon="17.7355802">
        <ele>29.4575</ele>
        <time>2013-05-30T21:09:15Z</time>
      </trkpt>
      <trkpt lat="59.9743729" lon="17.7356916">
        <ele>29.4575</ele>
        <time>2013-05-30T21:09:16Z</time>
      </trkpt>
      <trkpt lat="59.97439" lon="17.7358022">
        <ele>29.4575</ele>
        <time>2013-05-30T21:09:17Z</time>
      </trkpt>
      <trkpt lat="59.9744081" lon="17.7359116">
        <ele>29.4575</ele>
        <time>2013-05-30T21:09:18Z</time>
      </trkpt>
      <trkpt lat="59.9744276" lon="17.7360178">
        <ele>29.4575</ele>
        <time>2013-05-30T21:09:19Z</time>
      </trkpt>
      <trkpt lat="59.974449" lon="17.7361231">
        <ele>29.4575</ele>
        <time>2013-05-30T21:09:20Z</time>
      </trkpt>
      <trkpt lat="59.974472" lon="17.7362266">
        <ele>29.4575</ele>
        <time>2013-05-30T21:09:21Z</time>
      </trkpt>
      <trkpt lat="59.9744979" lon="17.7363281">
        <ele>28.9769</ele>
        <time>2013-05-30T21:09:22Z</time>
      </trkpt>
      <trkpt lat="59.9745257" lon="17.7364294">
        <ele>28.9769</ele>
        <time>2013-05-30T21:09:23Z</time>
      </trkpt>
      <trkpt lat="59.9745535" lon="17.7365315">
        <ele>28.9769</ele>
        <time>2013-05-30T21:09:24Z</time>
      </trkpt>
      <trkpt lat="59.9745805" lon="17.7366347">
        <ele>28.9769</ele>
        <time>2013-05-30T21:09:25Z</time>
      </trkpt>
      <trkpt lat="59.9746065" lon="17.7367373">
        <ele>28.9769</ele>
        <time>2013-05-30T21:09:26Z</time>
      </trkpt>
      <trkpt lat="59.9746345" lon="17.7368384">
        <ele>28.9769</ele>
        <time>2013-05-30T21:09:27Z</time>
      </trkpt>
      <trkpt lat="59.9746661" lon="17.7369405">
        <ele>28.4962</ele>
        <time>2013-05-30T21:09:28Z</time>
      </trkpt>
      <trkpt lat="59.9746986" lon="17.7370358">
        <ele>28.9769</ele>
        <time>2013-05-30T21:09:29Z</time>
      </trkpt>
      <trkpt lat="59.9747346" lon="17.7371321">
        <ele>28.9769</ele>
        <time>2013-05-30T21:09:30Z</time>
      </trkpt>
      <trkpt lat="59.9747708" lon="17.7372269">
        <ele>29.4575</ele>
        <time>2013-05-30T21:09:31Z</time>
      </trkpt>
      <trkpt lat="59.974809" lon="17.7373184">
        <ele>29.4575</ele>
        <time>2013-05-30T21:09:32Z</time>
      </trkpt>
      <trkpt lat="59.9748506" lon="17.7374033">
        <ele>29.9381</ele>
        <time>2013-05-30T21:09:33Z</time>
      </trkpt>
      <trkpt lat="59.9748955" lon="17.7374834">
        <ele>29.9381</ele>
        <time>2013-05-30T21:09:34Z</time>
      </trkpt>
      <trkpt lat="59.9749394" lon="17.7375657">
        <ele>30.4188</ele>
        <time>2013-05-30T21:09:35Z</time>
      </trkpt>
      <trkpt lat="59.9749817" lon="17.7376495">
        <ele>30.4188</ele>
        <time>2013-05-30T21:09:36Z</time>
      </trkpt>
      <trkpt lat="59.9750259" lon="17.7377287">
        <ele>30.8995</ele>
        <time>2013-05-30T21:09:37Z</time>
      </trkpt>
      <trkpt lat="59.9750717" lon="17.7378055">
        <ele>30.8995</ele>
        <time>2013-05-30T21:09:38Z</time>
      </trkpt>
      <trkpt lat="59.9751183" lon="17.737882">
        <ele>31.3801</ele>
        <time>2013-05-30T21:09:39Z</time>
      </trkpt>
      <trkpt lat="59.975165" lon="17.7379586">
        <ele>31.8607</ele>
        <time>2013-05-30T21:09:40Z</time>
      </trkpt>
      <trkpt lat="59.9752095" lon="17.7380385">
        <ele>32.3416</ele>
        <time>2013-05-30T21:09:41Z</time>
      </trkpt>
      <trkpt lat="59.9752504" lon="17.7381228">
        <ele>32.3416</ele>
        <time>2013-05-30T21:09:42Z</time>
      </trkpt>
      <trkpt lat="59.9752902" lon="17.7382057">
        <ele>32.3416</ele>
        <time>2013-05-30T21:09:43Z</time>
      </trkpt>
      <trkpt lat="59.9753318" lon="17.7382805">
        <ele>32.3416</ele>
        <time>2013-05-30T21:09:44Z</time>
      </trkpt>
      <trkpt lat="59.9753732" lon="17.7383516">
        <ele>32.3416</ele>
        <time>2013-05-30T21:09:45Z</time>
      </trkpt>
      <trkpt lat="59.9754136" lon="17.7384224">
        <ele>32.3416</ele>
        <time>2013-05-30T21:09:46Z</time>
      </trkpt>
      <trkpt lat="59.9754535" lon="17.7384939">
        <ele>32.3416</ele>
        <time>2013-05-30T21:09:47Z</time>
      </trkpt>
      <trkpt lat="59.975494" lon="17.7385648">
        <ele>32.3416</ele>
        <time>2013-05-30T21:09:48Z</time>
      </trkpt>
      <trkpt lat="59.9755343" lon="17.7386368">
        <ele>32.3416</ele>
        <time>2013-05-30T21:09:49Z</time>
      </trkpt>
      <trkpt lat="59.9755745" lon="17.7387098">
        <ele>32.3416</ele>
        <time>2013-05-30T21:09:50Z</time>
      </trkpt>
      <trkpt lat="59.975615" lon="17.738783">
        <ele>32.3416</ele>
        <time>2013-05-30T21:09:51Z</time>
      </trkpt>
      <trkpt lat="59.9756549" lon="17.7388581">
        <ele>32.3416</ele>
        <time>2013-05-30T21:09:52Z</time>
      </trkpt>
      <trkpt lat="59.9756954" lon="17.7389322">
        <ele>32.8223</ele>
        <time>2013-05-30T21:09:53Z</time>
      </trkpt>
      <trkpt lat="59.9757357" lon="17.7390036">
        <ele>32.8223</ele>
        <time>2013-05-30T21:09:54Z</time>
      </trkpt>
      <trkpt lat="59.9757744" lon="17.7390746">
        <ele>32.8223</ele>
        <time>2013-05-30T21:09:55Z</time>
      </trkpt>
      <trkpt lat="59.9758126" lon="17.7391454">
        <ele>33.3029</ele>
        <time>2013-05-30T21:09:56Z</time>
      </trkpt>
      <trkpt lat="59.9758511" lon="17.7392132">
        <ele>33.3029</ele>
        <time>2013-05-30T21:09:57Z</time>
      </trkpt>
      <trkpt lat="59.9758887" lon="17.7392803">
        <ele>33.7834</ele>
        <time>2013-05-30T21:09:58Z</time>
      </trkpt>
      <trkpt lat="59.975926" lon="17.7393464">
        <ele>33.7834</ele>
        <time>2013-05-30T21:09:59Z</time>
      </trkpt>
      <trkpt lat="59.9759632" lon="17.7394082">
        <ele>34.2642</ele>
        <time>2013-05-30T21:10:00Z</time>
      </trkpt>
      <trkpt lat="59.976" lon="17.7394653">
        <ele>34.2642</ele>
        <time>2013-05-30T21:10:01Z</time>
      </trkpt>
      <trkpt lat="59.9760368" lon="17.7395179">
        <ele>34.2642</ele>
        <time>2013-05-30T21:10:02Z</time>
      </trkpt>
      <trkpt lat="59.976072" lon="17.739567">
        <ele>34.2642</ele>
        <time>2013-05-30T21:10:03Z</time>
      </trkpt>
      <trkpt lat="59.9761061" lon="17.7396113">
        <ele>34.2642</ele>
        <time>2013-05-30T21:10:04Z</time>
      </trkpt>
      <trkpt lat="59.9761393" lon="17.7396517">
        <ele>34.2642</ele>
        <time>2013-05-30T21:10:05Z</time>
      </trkpt>
      <trkpt lat="59.9761718" lon="17.739691">
        <ele>34.7449</ele>
        <time>2013-05-30T21:10:06Z</time>
      </trkpt>
      <trkpt lat="59.9762015" lon="17.73973">
        <ele>34.7449</ele>
        <time>2013-05-30T21:10:07Z</time>
      </trkpt>
      <trkpt lat="59.9762295" lon="17.739766">
        <ele>34.7449</ele>
        <time>2013-05-30T21:10:08Z</time>
      </trkpt>
      <trkpt lat="59.9762596" lon="17.7397941">
        <ele>34.7449</ele>
        <time>2013-05-30T21:10:09Z</time>
      </trkpt>
      <trkpt lat="59.9762922" lon="17.7398098">
        <ele>34.7449</ele>
        <time>2013-05-30T21:10:10Z</time>
      </trkpt>
      <trkpt lat="59.9763256" lon="17.7398094">
        <ele>34.7449</ele>
        <time>2013-05-30T21:10:11Z</time>
      </trkpt>
      <trkpt lat="59.9763603" lon="17.7397946">
        <ele>34.7449</ele>
        <time>2013-05-30T21:10:12Z</time>
      </trkpt>
      <trkpt lat="59.9763952" lon="17.7397713">
        <ele>34.7449</ele>
        <time>2013-05-30T21:10:13Z</time>
      </trkpt>
      <trkpt lat="59.9764315" lon="17.7397377">
        <ele>34.7449</ele>
        <time>2013-05-30T21:10:14Z</time>
      </trkpt>
      <trkpt lat="59.9764683" lon="17.7396991">
        <ele>34.7449</ele>
        <time>2013-05-30T21:10:15Z</time>
      </trkpt>
      <trkpt lat="59.9765045" lon="17.739663">
        <ele>34.7449</ele>
        <time>2013-05-30T21:10:16Z</time>
      </trkpt>
      <trkpt lat="59.9765382" lon="17.7396298">
        <ele>35.2255</ele>
        <time>2013-05-30T21:10:17Z</time>
      </trkpt>
      <trkpt lat="59.9765754" lon="17.7396031">
        <ele>35.2255</ele>
        <time>2013-05-30T21:10:18Z</time>
      </trkpt>
      <trkpt lat="59.9766134" lon="17.7395769">
        <ele>35.2255</ele>
        <time>2013-05-30T21:10:19Z</time>
      </trkpt>
      <trkpt lat="59.976651" lon="17.7395531">
        <ele>35.2255</ele>
        <time>2013-05-30T21:10:20Z</time>
      </trkpt>
      <trkpt lat="59.9766895" lon="17.7395289">
        <ele>35.2255</ele>
        <time>2013-05-30T21:10:21Z</time>
      </trkpt>
      <trkpt lat="59.9767281" lon="17.7395061">
        <ele>35.2255</ele>
        <time>2013-05-30T21:10:22Z</time>
      </trkpt>
      <trkpt lat="59.9767656" lon="17.7394843">
        <ele>35.7061</ele>
        <time>2013-05-30T21:10:23Z</time>
      </trkpt>
      <trkpt lat="59.9768009" lon="17.7394645">
        <ele>35.7061</ele>
        <time>2013-05-30T21:10:24Z</time>
      </trkpt>
      <trkpt lat="59.9768361" lon="17.7394495">
        <ele>35.2255</ele>
        <time>2013-05-30T21:10:25Z</time>
      </trkpt>
      <trkpt lat="59.9768732" lon="17.7394368">
        <ele>35.2255</ele>
        <time>2013-05-30T21:10:26Z</time>
      </trkpt>
      <trkpt lat="59.9769102" lon="17.7394292">
        <ele>36.1868</ele>
        <time>2013-05-30T21:10:27Z</time>
      </trkpt>
      <trkpt lat="59.9769468" lon="17.7394222">
        <ele>36.1868</ele>
        <time>2013-05-30T21:10:28Z</time>
      </trkpt>
      <trkpt lat="59.9769821" lon="17.7394126">
        <ele>36.6675</ele>
        <time>2013-05-30T21:10:29Z</time>
      </trkpt>
      <trkpt lat="59.9770156" lon="17.7394054">
        <ele>37.1481</ele>
        <time>2013-05-30T21:10:30Z</time>
      </trkpt>
      <trkpt lat="59.9770478" lon="17.7393966">
        <ele>37.6287</ele>
        <time>2013-05-30T21:10:31Z</time>
      </trkpt>
      <trkpt lat="59.97708" lon="17.7393823">
        <ele>37.6287</ele>
        <time>2013-05-30T21:10:32Z</time>
      </trkpt>
      <trkpt lat="59.977113" lon="17.7393705">
        <ele>37.6287</ele>
        <time>2013-05-30T21:10:33Z</time>
      </trkpt>
      <trkpt lat="59.9771458" lon="17.7393547">
        <ele>38.5901</ele>
        <time>2013-05-30T21:10:34Z</time>
      </trkpt>
      <trkpt lat="59.9771765" lon="17.7393293">
        <ele>39.0707</ele>
        <time>2013-05-30T21:10:35Z</time>
      </trkpt>
      <trkpt lat="59.9772107" lon="17.7392949">
        <ele>39.5513</ele>
        <time>2013-05-30T21:10:36Z</time>
      </trkpt>
      <trkpt lat="59.977248" lon="17.7392615">
        <ele>39.0707</ele>
        <time>2013-05-30T21:10:37Z</time>
      </trkpt>
      <trkpt lat="59.977287" lon="17.73923">
        <ele>39.0707</ele>
        <time>2013-05-30T21:10:38Z</time>
      </trkpt>
      <trkpt lat="59.9773251" lon="17.7392077">
        <ele>38.5901</ele>
        <time>2013-05-30T21:10:39Z</time>
      </trkpt>
      <trkpt lat="59.9773647" lon="17.7391848">
        <ele>38.1094</ele>
        <time>2013-05-30T21:10:40Z</time>
      </trkpt>
      <trkpt lat="59.9774062" lon="17.7391553">
        <ele>38.1094</ele>
        <time>2013-05-30T21:10:41Z</time>
      </trkpt>
      <trkpt lat="59.9774472" lon="17.7391301">
        <ele>38.1094</ele>
        <time>2013-05-30T21:10:42Z</time>
      </trkpt>
      <trkpt lat="59.9774868" lon="17.739111">
        <ele>38.1094</ele>
        <time>2013-05-30T21:10:43Z</time>
      </trkpt>
      <trkpt lat="59.977524" lon="17.739105">
        <ele>37.6287</ele>
        <time>2013-05-30T21:10:44Z</time>
      </trkpt>
      <trkpt lat="59.9775613" lon="17.7390989">
        <ele>37.1481</ele>
        <time>2013-05-30T21:10:45Z</time>
      </trkpt>
      <trkpt lat="59.9775966" lon="17.7390942">
        <ele>36.6675</ele>
        <time>2013-05-30T21:10:46Z</time>
      </trkpt>
      <trkpt lat="59.9776322" lon="17.739092">
        <ele>36.1868</ele>
        <time>2013-05-30T21:10:47Z</time>
      </trkpt>
      <trkpt lat="59.9776701" lon="17.7390886">
        <ele>36.1868</ele>
        <time>2013-05-30T21:10:48Z</time>
      </trkpt>
      <trkpt lat="59.9777067" lon="17.7390896">
        <ele>36.1868</ele>
        <time>2013-05-30T21:10:49Z</time>
      </trkpt>
      <trkpt lat="59.9777436" lon="17.7390936">
        <ele>36.1868</ele>
        <time>2013-05-30T21:10:50Z</time>
      </trkpt>
      <trkpt lat="59.9777781" lon="17.7391031">
        <ele>35.7061</ele>
        <time>2013-05-30T21:10:51Z</time>
      </trkpt>
      <trkpt lat="59.9778137" lon="17.739112">
        <ele>36.1868</ele>
        <time>2013-05-30T21:10:52Z</time>
      </trkpt>
      <trkpt lat="59.977851" lon="17.7391208">
        <ele>36.6675</ele>
        <time>2013-05-30T21:10:53Z</time>
      </trkpt>
      <trkpt lat="59.9778901" lon="17.7391314">
        <ele>37.1481</ele>
        <time>2013-05-30T21:10:54Z</time>
      </trkpt>
      <trkpt lat="59.9779253" lon="17.7391507">
        <ele>37.6287</ele>
        <time>2013-05-30T21:10:55Z</time>
      </trkpt>
      <trkpt lat="59.9779581" lon="17.7391796">
        <ele>36.6675</ele>
        <time>2013-05-30T21:10:56Z</time>
      </trkpt>
      <trkpt lat="59.9779913" lon="17.7392075">
        <ele>35.7061</ele>
        <time>2013-05-30T21:10:57Z</time>
      </trkpt>
      <trkpt lat="59.9780311" lon="17.7392226">
        <ele>36.6675</ele>
        <time>2013-05-30T21:10:58Z</time>
      </trkpt>
      <trkpt lat="59.9780719" lon="17.7392367">
        <ele>37.1481</ele>
        <time>2013-05-30T21:10:59Z</time>
      </trkpt>
      <trkpt lat="59.9781135" lon="17.7392489">
        <ele>37.6287</ele>
        <time>2013-05-30T21:11:00Z</time>
      </trkpt>
      <trkpt lat="59.9781586" lon="17.7392533">
        <ele>38.5901</ele>
        <time>2013-05-30T21:11:01Z</time>
      </trkpt>
      <trkpt lat="59.9782004" lon="17.7392541">
        <ele>39.0707</ele>
        <time>2013-05-30T21:11:02Z</time>
      </trkpt>
      <trkpt lat="59.9782409" lon="17.7392567">
        <ele>40.5128</ele>
        <time>2013-05-30T21:11:03Z</time>
      </trkpt>
      <trkpt lat="59.9782785" lon="17.7392684">
        <ele>41.474</ele>
        <time>2013-05-30T21:11:04Z</time>
      </trkpt>
      <trkpt lat="59.9783213" lon="17.7392774">
        <ele>42.916</ele>
        <time>2013-05-30T21:11:05Z</time>
      </trkpt>
      <trkpt lat="59.9783637" lon="17.7392885">
        <ele>43.3966</ele>
        <time>2013-05-30T21:11:06Z</time>
      </trkpt>
      <trkpt lat="59.9784085" lon="17.739289">
        <ele>44.358</ele>
        <time>2013-05-30T21:11:07Z</time>
      </trkpt>
      <trkpt lat="59.9784518" lon="17.7392948">
        <ele>45.7999</ele>
        <time>2013-05-30T21:11:08Z</time>
      </trkpt>
      <trkpt lat="59.9784966" lon="17.7392988">
        <ele>46.2806</ele>
        <time>2013-05-30T21:11:09Z</time>
      </trkpt>
      <trkpt lat="59.9785444" lon="17.7393013">
        <ele>47.2418</ele>
        <time>2013-05-30T21:11:10Z</time>
      </trkpt>
      <trkpt lat="59.9785936" lon="17.739304">
        <ele>47.7225</ele>
        <time>2013-05-30T21:11:11Z</time>
      </trkpt>
      <trkpt lat="59.9786408" lon="17.7393113">
        <ele>47.2418</ele>
        <time>2013-05-30T21:11:12Z</time>
      </trkpt>
      <trkpt lat="59.9786921" lon="17.7393103">
        <ele>47.7225</ele>
        <time>2013-05-30T21:11:13Z</time>
      </trkpt>
      <trkpt lat="59.9787392" lon="17.7393165">
        <ele>47.2418</ele>
        <time>2013-05-30T21:11:14Z</time>
      </trkpt>
      <trkpt lat="59.9787816" lon="17.7393161">
        <ele>47.7225</ele>
        <time>2013-05-30T21:11:15Z</time>
      </trkpt>
    </trkseg>
  </trk>
</gpx>